# Wetter Temperatur Luftdruck Luftfeuchtigkeit Sichtweite Windgeschwindigkeit Windrichtung Zeit
1 Rain 11 1010 98 10000 4.63 220 05:32 02.10.2022
2 Clouds 11 1009 95 10000 5.14 240 02:49 02.10.2022
3 Rain 11 1008 95 10000 6.69 250 00:45 02.10.2022
4 Clouds 11 1007 93 10000 5.14 240 23:42 01.10.2022
5 Clouds 12 1006 96 10000 5.14 240 22:31 01.10.2022
6 Clouds 13 1004 93 10000 4.12 260 19:58 01.10.2022
7 Clouds 14 1002 90 10000 5.66 250 17:46 01.10.2022
8 Clouds 13 1001 94 10000 3.6 250 16:28 01.10.2022
9 Clouds 15 1000 88 10000 8.23 240 14:19 01.10.2022
10 Clouds 12 999 96 10000 6.17 220 12:57 01.10.2022
11 Clouds 11 999 96 10000 7.2 220 12:29 01.10.2022
12 Mist 10 999 98 3400 6.17 200 11:19 01.10.2022
13 Rain 10 999 95 10000 4.63 170 10:31 01.10.2022
14 Rain 10 1000 95 10000 7.2 170 09:27 01.10.2022
15 Rain 10 1000 93 10000 7.2 170 08:57 01.10.2022
16 Clear 10 1005 78 10000 4.63 160 03:59 01.10.2022
17 Clear 10 1005 77 10000 4.63 160 03:28 01.10.2022
18 Clear 10 1007 79 10000 4.63 150 23:47 30.09.2022
19 Clouds 10 1008 82 10000 1.54 160 22:32 30.09.2022
20 Clear 11 1008 79 10000 3.6 160 21:22 30.09.2022
21 Clear 11 1008 77 10000 3.6 170 20:43 30.09.2022
22 Clear 12 1008 75 10000 3.6 190 19:43 30.09.2022
23 Clouds 16 1008 61 10000 6.69 220 17:28 30.09.2022
24 Clouds 16 1009 62 10000 6.69 220 15:32 30.09.2022
25 Clouds 15 1009 74 10000 4.63 220 13:29 30.09.2022
26 Clear 13 1009 84 10000 4.63 220 11:57 30.09.2022
27 Clear 10 1008 94 10000 3.09 220 10:23 30.09.2022
28 Clear 8 1008 98 10000 2.57 230 08:24 30.09.2022
29 Clouds 8 1007 98 10000 1.54 210 05:47 30.09.2022
30 Clouds 9 1006 96 10000 2.57 220 02:31 30.09.2022
31 Clouds 10 1005 98 10000 2.57 220 22:31 29.09.2022
32 Clouds 10 1004 98 10000 2.06 220 21:27 29.09.2022
33 Clouds 10 1004 98 10000 2.06 210 20:44 29.09.2022
34 Rain 11 1003 95 10000 2.57 230 18:34 29.09.2022
35 Drizzle 11 1002 93 10000 3.6 210 17:23 29.09.2022
36 Rain 11 1002 90 10000 2.57 240 16:28 29.09.2022
37 Rain 11 1002 87 10000 3.6 250 15:35 29.09.2022
38 Rain 11 1002 85 10000 3.6 230 14:29 29.09.2022
39 Mist 7 1000 96 10000 3.09 220 09:57 29.09.2022
40 Mist 5 999 98 6000 1.54 260 06:46 29.09.2022
41 Fog 6 999 95 7000 1.54 270 02:49 29.09.2022
42 Clouds 7 999 95 10000 1.54 230 23:55 28.09.2022
43 Clear 7 998 95 10000 1.03 0 22:42 28.09.2022
44 Clouds 7 998 97 10000 1.03 240 21:29 28.09.2022
45 Clear 9 997 92 10000 1.54 240 20:22 28.09.2022
46 Clear 11 997 79 10000 2.57 270 18:41 28.09.2022
47 Clouds 12 996 74 10000 3.6 210 15:26 28.09.2022
48 Clouds 11 996 86 10000 3.09 210 13:26 28.09.2022
49 Fog 8 995 92 10000 1.03 0 10:59 28.09.2022
50 Mist 7 995 99 6000 1.54 170 09:18 28.09.2022
51 Fog 6 994 98 3900 1.54 230 07:20 28.09.2022
52 Clouds 7 995 96 10000 2.06 230 03:18 28.09.2022
53 Clouds 8 995 96 10000 3.09 240 01:36 28.09.2022
54 Clouds 9 995 98 10000 2.57 220 23:27 27.09.2022
55 Rain 9 995 96 10000 3.09 230 21:47 27.09.2022
56 Clouds 10 995 95 10000 3.6 230 20:44 27.09.2022
57 Clouds 10 995 95 10000 3.6 230 19:48 27.09.2022
58 Clouds 11 994 91 10000 4.63 250 18:49 27.09.2022
59 Clouds 11 994 91 10000 7.72 250 17:46 27.09.2022
60 Clouds 12 993 90 10000 6.69 250 15:58 27.09.2022
61 Rain 12 993 93 10000 5.66 260 14:59 27.09.2022
62 Rain 11 992 94 10000 6.17 260 13:28 27.09.2022
63 Rain 11 992 98 10000 5.66 250 12:22 27.09.2022
64 Rain 10 991 98 7000 5.14 250 09:46 27.09.2022
65 Rain 10 990 98 10000 2.57 200 07:28 27.09.2022
66 Rain 10 992 98 10000 3.09 170 02:59 27.09.2022
67 Rain 10 993 94 10000 4.63 190 01:35 27.09.2022
68 Rain 11 993 95 10000 5.66 200 23:39 26.09.2022
69 Rain 11 994 95 10000 5.66 190 23:20 26.09.2022
70 Rain 11 995 93 10000 6.69 190 20:48 26.09.2022
71 Clouds 11 995 96 10000 6.69 180 19:34 26.09.2022
72 Clouds 11 996 95 10000 7.2 200 18:35 26.09.2022
73 Rain 12 997 93 10000 6.69 190 17:24 26.09.2022
74 Rain 12 998 87 10000 6.17 180 14:48 26.09.2022
75 Drizzle 12 1000 83 10000 7.72 210 11:37 26.09.2022
76 Rain 11 1001 89 10000 6.69 210 10:41 26.09.2022
77 Clouds 11 1001 89 10000 6.69 210 10:22 26.09.2022
78 Clouds 11 1001 88 10000 6.69 210 09:56 26.09.2022
79 Clouds 10 1001 88 10000 6.69 220 09:26 26.09.2022
80 Clear 10 1002 89 10000 6.17 210 08:58 26.09.2022
81 Clear 8 1006 95 10000 2.57 210 03:48 26.09.2022
82 Clear 7 1007 97 10000 2.06 200 01:52 26.09.2022
83 Clear 8 1009 95 10000 2.06 240 23:23 25.09.2022
84 Clear 9 1009 95 10000 2.57 240 21:44 25.09.2022
85 Clear 10 1010 92 10000 2.57 260 20:57 25.09.2022
86 Clear 10 1010 92 10000 2.57 260 20:34 25.09.2022
87 Clear 13 1010 79 10000 4.12 290 18:49 25.09.2022
88 Clouds 13 1010 85 10000 2.06 270 18:24 25.09.2022
89 Clouds 13 1011 90 10000 2.06 280 17:23 25.09.2022
90 Clouds 13 1011 94 10000 3.6 300 16:00 25.09.2022
91 Clouds 13 1012 96 10000 3.6 290 14:37 25.09.2022
92 Clouds 13 1012 96 10000 3.6 290 14:18 25.09.2022
93 Drizzle 12 1012 98 5000 3.6 320 10:40 25.09.2022
94 Drizzle 12 1012 98 2100 3.09 350 09:44 25.09.2022
95 Mist 12 1012 98 4600 2.57 350 07:42 25.09.2022
96 Drizzle 12 1012 98 3400 1.54 30 05:25 25.09.2022
97 Clouds 13 1012 96 7000 1.54 90 23:37 24.09.2022
98 Mist 13 1012 96 5000 1.54 70 21:20 24.09.2022
99 Clouds 13 1012 96 6000 2.06 100 20:32 24.09.2022
100 Clouds 13 1012 94 6000 2.57 120 19:20 24.09.2022
101 Rain 14 1012 94 8000 2.57 140 16:56 24.09.2022
102 Drizzle 13 1012 95 7000 3.09 140 15:29 24.09.2022
103 Drizzle 13 1012 94 6000 3.09 150 14:47 24.09.2022
104 Clouds 13 1012 96 6000 3.6 150 13:22 24.09.2022
105 Mist 13 1012 96 3700 3.09 170 12:25 24.09.2022
106 Drizzle 12 1012 95 3600 3.09 150 09:59 24.09.2022
107 Rain 12 1012 95 10000 2.57 150 08:58 24.09.2022
108 Rain 11 1012 94 10000 1.03 0 07:42 24.09.2022
109 Rain 11 1012 93 10000 1.03 0 04:55 24.09.2022
110 Rain 11 1012 91 10000 2.06 210 04:25 24.09.2022
111 Clear 13 1013 81 10000 1.54 220 23:18 23.09.2022
112 Clear 14 1014 75 10000 2.06 210 21:41 23.09.2022
113 Clear 14 1014 73 10000 2.06 200 21:22 23.09.2022
114 Clear 14 1014 73 10000 1.54 180 20:54 23.09.2022
115 Clear 16 1014 64 10000 2.57 220 19:20 23.09.2022
116 Clear 17 1014 55 10000 4.12 190 17:42 23.09.2022
117 Clear 17 1016 55 10000 3.09 180 13:40 23.09.2022
118 Clear 12 1017 74 10000 3.09 180 10:22 23.09.2022
119 Clear 9 1017 82 10000 3.09 150 07:43 23.09.2022
120 Clear 9 1020 82 10000 3.09 130 02:32 23.09.2022
121 Clear 10 1021 81 10000 2.57 140 23:29 22.09.2022
122 Clear 11 1021 80 10000 2.06 140 22:28 22.09.2022
123 Clear 12 1021 75 10000 3.09 140 21:36 22.09.2022
124 Clear 14 1021 69 10000 3.6 150 20:25 22.09.2022
125 Clear 16 1021 64 10000 4.63 160 18:58 22.09.2022
126 Clouds 18 1023 49 10000 3.6 180 15:39 22.09.2022
127 Clear 13 1024 76 10000 1.03 0 10:55 22.09.2022
128 Clear 12 1024 83 10000 1.03 0 10:19 22.09.2022
129 Clear 5 1024 100 10000 1.03 260 08:20 22.09.2022
130 Clear 6 1024 97 10000 1.03 260 06:18 22.09.2022
131 Mist 8 1026 95 10000 1.54 320 01:27 22.09.2022
132 Clear 10 1026 87 10000 1.03 0 22:29 21.09.2022
133 Clear 11 1025 84 10000 1.03 320 21:24 21.09.2022
134 Clear 15 1025 67 10000 1.54 300 19:22 21.09.2022
135 Clear 17 1025 45 10000 2.57 230 17:45 21.09.2022
136 Clear 17 1026 43 10000 2.06 290 16:20 21.09.2022
137 Clear 17 1026 57 10000 2.57 250 13:57 21.09.2022
138 Clear 14 1027 80 10000 1.54 260 11:44 21.09.2022
139 Clear 14 1027 82 10000 1.54 280 11:22 21.09.2022
140 Clouds 9 1026 94 10000 2.06 260 09:44 21.09.2022
141 Fog 6 1026 96 500 1.54 250 08:50 21.09.2022
142 Fog 5 1026 97 600 1.03 340 06:20 21.09.2022
143 Clouds 6 1025 95 10000 1.03 0 02:44 21.09.2022
144 Clear 6 1025 97 10000 2.06 250 02:20 21.09.2022
145 Clear 7 1024 96 10000 1.54 210 00:26 21.09.2022
146 Clear 9 1024 89 10000 1.03 320 22:30 20.09.2022
147 Clear 12 1023 76 10000 3.09 300 20:37 20.09.2022
148 Clear 14 1022 63 10000 3.09 330 19:30 20.09.2022
149 Clouds 16 1021 51 10000 4.12 300 16:18 20.09.2022
150 Clouds 16 1021 59 10000 3.6 310 14:35 20.09.2022
151 Clouds 14 1021 66 10000 4.12 0 12:45 20.09.2022
152 Clear 9 1020 95 10000 1.03 0 09:19 20.09.2022
153 Fog 6 1019 98 10000 2.57 290 08:26 20.09.2022
154 Clouds 7 1018 97 2500 2.06 230 04:46 20.09.2022
155 Fog 7 1017 98 900 2.57 240 03:38 20.09.2022
156 Clouds 10 1016 91 10000 1.54 230 22:55 19.09.2022
157 Rain 11 1016 91 10000 1.03 0 21:40 19.09.2022
158 Rain 11 1016 90 10000 2.57 70 20:47 19.09.2022
159 Rain 11 1015 86 10000 4.63 290 20:24 19.09.2022
160 Clouds 16 1014 65 10000 6.17 310 17:44 19.09.2022
161 Rain 15 1014 70 10000 7.72 300 14:54 19.09.2022
162 Clouds 17 1013 70 10000 4.63 310 13:18 19.09.2022
163 Clouds 14 1013 89 10000 4.63 300 10:48 19.09.2022
164 Clear 10 1013 96 10000 2.57 250 08:51 19.09.2022
165 Clear 8 1012 97 10000 2.57 240 06:42 19.09.2022
166 Clear 9 1009 93 10000 4.12 320 01:54 19.09.2022
167 Rain 10 1008 93 10000 4.12 330 23:22 18.09.2022
168 Clear 9 1007 94 10000 2.57 280 21:44 18.09.2022
169 Clouds 10 1006 92 10000 3.6 270 20:29 18.09.2022
170 Clouds 12 1005 83 10000 7.72 270 18:33 18.09.2022
171 Clouds 11 1006 87 10000 4.63 290 17:39 18.09.2022
172 Rain 11 1006 81 10000 8.23 310 15:46 18.09.2022
173 Clouds 12 1006 74 10000 8.75 280 13:51 18.09.2022
174 Clear 12 1006 75 10000 6.17 280 12:35 18.09.2022
175 Rain 11 1007 86 10000 6.69 250 11:24 18.09.2022
176 Clouds 10 1007 89 10000 3.6 250 04:28 18.09.2022
177 Clouds 10 1007 89 10000 5.14 300 01:26 18.09.2022
178 Clear 11 1007 89 10000 4.12 300 00:24 18.09.2022
179 Clouds 11 1006 95 10000 5.14 310 21:52 17.09.2022
180 Clouds 12 1005 91 10000 4.63 320 19:51 17.09.2022
181 Clouds 12 1005 90 10000 5.14 310 18:59 17.09.2022
182 Thunderstorm 13 1004 83 10000 6.17 290 16:52 17.09.2022
183 Clouds 13 1004 83 10000 7.72 250 13:57 17.09.2022
184 Clouds 13 1005 80 10000 9.26 270 11:55 17.09.2022
185 Clouds 12 1005 87 10000 6.17 280 09:40 17.09.2022
186 Rain 11 1004 95 10000 7.2 270 06:27 17.09.2022
187 Clouds 12 1003 92 10000 4.12 280 02:43 17.09.2022
188 Clear 12 1002 96 10000 4.63 250 22:58 16.09.2022
189 Clouds 12 1002 96 10000 5.66 250 21:32 16.09.2022
190 Clouds 13 1001 96 10000 7.2 260 20:31 16.09.2022
191 Rain 11 1000 95 10000 10.8 240 17:52 16.09.2022
192 Rain 13 1002 81 10000 10.8 280 15:57 16.09.2022
193 Rain 14 1002 80 10000 7.72 260 14:32 16.09.2022
194 Clouds 14 1003 79 10000 7.72 260 11:56 16.09.2022
195 Clear 11 1003 94 10000 7.72 250 09:34 16.09.2022
196 Clouds 10 1004 96 10000 5.14 240 07:21 16.09.2022
197 Clouds 10 1004 95 10000 6.17 240 06:47 16.09.2022
198 Clouds 10 1004 95 10000 4.63 240 04:42 16.09.2022
199 Clouds 11 1004 94 10000 4.12 250 23:50 15.09.2022
200 Rain 12 1004 84 10000 3.6 260 21:24 15.09.2022
201 Rain 13 1004 81 10000 4.12 270 20:25 15.09.2022
202 Clouds 15 1003 79 10000 5.14 260 18:53 15.09.2022
203 Rain 15 1004 74 10000 7.2 330 17:34 15.09.2022
204 Clear 16 1003 73 10000 5.66 280 16:57 15.09.2022
205 Clouds 17 1003 65 10000 6.69 270 14:58 15.09.2022
206 Clear 16 1003 77 10000 4.12 290 12:49 15.09.2022
207 Clouds 15 1003 82 10000 5.14 270 10:42 15.09.2022
208 Clouds 14 1003 85 10000 4.63 260 09:42 15.09.2022
209 Rain 13 1002 95 10000 3.6 230 04:46 15.09.2022
210 Clouds 13 1002 89 10000 3.6 240 02:18 15.09.2022
211 Clear 13 1003 91 10000 2.06 250 22:44 14.09.2022
212 Clear 16 1003 72 10000 3.6 310 20:24 14.09.2022
213 Clear 17 1003 67 10000 3.09 290 19:32 14.09.2022
214 Clear 18 1003 61 10000 5.14 310 17:28 14.09.2022
215 Clouds 18 1004 63 10000 4.63 270 16:36 14.09.2022
216 Clouds 18 1004 69 10000 4.12 280 14:46 14.09.2022
217 Clouds 18 1005 66 10000 3.6 280 12:24 14.09.2022
218 Clouds 14 1005 90 10000 3.09 220 09:50 14.09.2022
219 Clouds 12 1005 94 10000 3.09 230 07:47 14.09.2022
220 Clouds 11 1005 96 10000 2.06 240 06:48 14.09.2022
221 Clear 11 1006 95 10000 1.54 260 06:23 14.09.2022
222 Clear 14 1007 88 10000 2.57 270 01:55 14.09.2022
223 Clear 14 1007 87 10000 3.09 260 01:30 14.09.2022
224 Clouds 14 1007 84 10000 2.57 260 00:52 14.09.2022
225 Clouds 15 1007 82 10000 3.09 230 23:54 13.09.2022
226 Clouds 15 1007 80 10000 3.6 260 23:36 13.09.2022
227 Clouds 15 1007 80 10000 3.6 260 23:18 13.09.2022
228 Clouds 15 1008 77 10000 3.6 270 22:22 13.09.2022
229 Clouds 16 1008 75 10000 3.6 250 20:41 13.09.2022
230 Clouds 18 1007 65 10000 7.72 300 18:37 13.09.2022
231 Clouds 20 1008 63 10000 8.75 300 16:19 13.09.2022
232 Clouds 20 1007 60 10000 7.72 290 15:18 13.09.2022
233 Clouds 20 1007 59 10000 6.69 270 13:31 13.09.2022
234 Clouds 17 1007 93 10000 3.09 250 09:51 13.09.2022
235 Clouds 15 1007 97 8000 3.09 250 07:47 13.09.2022
236 Clear 17 1010 74 10000 3.6 160 00:58 13.09.2022
237 Clear 17 1011 73 10000 3.6 150 23:21 12.09.2022
238 Clear 18 1011 74 10000 4.63 150 22:26 12.09.2022
239 Clear 19 1012 74 10000 3.6 150 20:54 12.09.2022
240 Clouds 20 1013 68 10000 3.6 170 19:31 12.09.2022
241 Clouds 22 1014 59 10000 3.6 190 17:47 12.09.2022
242 Clouds 22 1015 62 10000 3.09 190 15:48 12.09.2022
243 Clear 20 1016 67 10000 3.09 160 12:26 12.09.2022
244 Clear 16 1017 84 10000 3.09 150 10:27 12.09.2022
245 Fog 10 1017 98 10000 1.54 80 07:33 12.09.2022
246 Clear 10 1017 98 10000 0.51 0 04:35 12.09.2022
247 Clear 11 1018 97 10000 0.51 10 01:53 12.09.2022
248 Clear 14 1018 91 10000 1.54 320 22:46 11.09.2022
249 Clouds 16 1018 80 10000 2.57 310 21:26 11.09.2022
250 Clouds 17 1018 79 10000 2.57 310 20:44 11.09.2022
251 Clouds 18 1017 73 10000 4.12 310 19:39 11.09.2022
252 Clouds 19 1017 71 10000 4.12 300 19:18 11.09.2022
253 Clouds 20 1018 64 10000 4.63 320 17:29 11.09.2022
254 Clouds 20 1018 66 10000 4.12 280 15:51 11.09.2022
255 Clouds 19 1018 73 10000 3.09 290 13:26 11.09.2022
256 Clouds 16 1018 94 10000 3.6 310 11:35 11.09.2022
257 Clouds 14 1017 98 10000 2.57 10 08:25 11.09.2022
258 Mist 14 1016 98 1500 2.06 30 05:49 11.09.2022
259 Clouds 15 1014 98 6000 2.57 30 00:34 11.09.2022
260 Clouds 15 1014 92 10000 3.09 30 22:23 10.09.2022
261 Clear 17 1013 92 10000 3.09 30 20:35 10.09.2022
262 Clear 17 1013 92 10000 3.09 30 20:35 10.09.2022
263 Clear 18 1013 89 10000 4.12 40 19:45 10.09.2022
264 Clouds 18 1012 89 10000 3.09 30 19:25 10.09.2022
265 Clouds 18 1012 83 10000 3.09 40 17:53 10.09.2022
266 Clouds 19 1011 77 10000 1.54 220 15:44 10.09.2022
267 Clouds 19 1012 78 10000 1.54 0 14:34 10.09.2022
268 Rain 18 1012 85 10000 1.54 240 12:52 10.09.2022
269 Clouds 16 1011 94 10000 1.54 240 10:35 10.09.2022
270 Clear 14 1011 98 10000 1.54 160 08:42 10.09.2022
271 Fog 13 1011 97 10000 1.54 160 08:23 10.09.2022
272 Rain 14 1010 97 10000 1.03 0 05:25 10.09.2022
273 Rain 15 1010 96 10000 3.09 160 23:52 09.09.2022
274 Clear 14 1010 98 10000 2.06 60 23:29 09.09.2022
275 Clear 15 1010 95 10000 2.06 70 21:24 09.09.2022
276 Clear 16 1009 90 10000 2.06 130 20:28 09.09.2022
277 Clear 17 1009 86 10000 3.09 150 19:23 09.09.2022
278 Clouds 17 1009 93 10000 3.6 140 18:33 09.09.2022
279 Rain 18 1009 85 8000 5.14 210 16:18 09.09.2022
280 Clouds 20 1009 71 10000 4.12 180 13:48 09.09.2022
281 Clouds 17 1009 83 10000 3.09 180 11:52 09.09.2022
282 Clouds 14 1008 95 10000 3.09 170 09:21 09.09.2022
283 Mist 14 1008 99 4400 3.09 160 04:29 09.09.2022
284 Fog 14 1008 96 450 2.06 200 00:46 09.09.2022
285 Clouds 14 1007 98 10000 1.54 240 21:52 08.09.2022
286 Clouds 14 1007 94 10000 1.54 150 20:51 08.09.2022
287 Clouds 14 1007 96 10000 2.06 170 20:31 08.09.2022
288 Clouds 14 1007 96 10000 2.06 170 19:44 08.09.2022
289 Rain 14 1007 96 7000 2.06 80 17:48 08.09.2022
290 Rain 15 1007 94 3700 2.57 90 16:19 08.09.2022
291 Rain 15 1008 93 10000 2.06 100 14:40 08.09.2022
292 Rain 17 1008 68 10000 4.12 100 13:26 08.09.2022
293 Clouds 16 1008 73 10000 4.63 80 11:39 08.09.2022
294 Rain 16 1009 77 10000 4.63 80 10:48 08.09.2022
295 Clear 14 1009 90 10000 3.09 60 08:21 08.09.2022
296 Clear 14 1010 93 10000 2.06 70 06:41 08.09.2022
297 Clear 15 1011 92 10000 1.03 0 02:36 08.09.2022
298 Clear 16 1011 93 10000 1.54 60 02:18 08.09.2022
299 Clear 17 1012 91 10000 1.54 60 00:56 08.09.2022
300 Clear 19 1012 83 10000 1.54 90 22:44 07.09.2022
301 Clear 19 1012 79 10000 3.09 140 21:42 07.09.2022
302 Clear 20 1012 78 10000 3.09 120 20:49 07.09.2022
303 Clear 22 1012 68 10000 1.54 70 19:40 07.09.2022
304 Clear 23 1012 64 10000 3.09 80 18:27 07.09.2022
305 Clear 21 1013 67 10000 3.6 110 14:26 07.09.2022
306 Clear 15 1013 86 10000 3.09 60 10:48 07.09.2022
307 Rain 15 1014 80 10000 4.12 120 09:39 07.09.2022
308 Clear 15 1013 67 10000 4.12 100 07:23 07.09.2022
309 Clear 16 1015 66 10000 3.6 90 03:33 07.09.2022
310 Clear 16 1017 65 10000 4.12 90 23:38 06.09.2022
311 Clear 17 1017 63 10000 2.57 80 21:42 06.09.2022
312 Clear 18 1017 61 10000 3.09 80 21:21 06.09.2022
313 Clear 20 1017 52 10000 4.63 90 18:49 06.09.2022
314 Clear 20 1017 55 10000 4.12 90 18:22 06.09.2022
315 Clear 20 1018 55 10000 4.12 80 17:22 06.09.2022
316 Clear 19 1018 55 10000 4.12 80 16:37 06.09.2022
317 Clear 19 1018 53 10000 5.66 90 15:22 06.09.2022
318 Rain 19 1019 53 10000 5.66 110 13:45 06.09.2022
319 Rain 19 1019 53 10000 5.66 100 13:24 06.09.2022
320 Rain 18 1019 56 10000 6.17 100 12:31 06.09.2022
321 Clear 17 1020 52 10000 6.17 100 10:45 06.09.2022
322 Clear 16 1020 51 10000 6.17 110 08:50 06.09.2022
323 Clear 15 1020 54 10000 5.14 100 07:49 06.09.2022
324 Clear 16 1021 61 10000 4.63 90 03:41 06.09.2022
325 Clear 18 1022 59 10000 5.66 80 23:28 05.09.2022
326 Clear 19 1022 57 10000 5.66 90 22:29 05.09.2022
327 Clear 20 1022 57 10000 6.17 80 20:52 05.09.2022
328 Clear 21 1022 55 10000 6.17 80 19:50 05.09.2022
329 Clear 22 1022 52 10000 6.17 70 18:49 05.09.2022
330 Clouds 23 1022 50 10000 6.69 70 18:22 05.09.2022
331 Clouds 24 1022 48 10000 4.63 80 17:30 05.09.2022
332 Clouds 24 1022 47 10000 6.17 90 15:52 05.09.2022
333 Clear 23 1023 52 10000 7.72 120 13:27 05.09.2022
334 Clear 22 1023 55 10000 7.2 110 12:29 05.09.2022
335 Clear 19 1024 58 10000 5.14 110 10:30 05.09.2022
336 Clear 16 1023 65 10000 4.12 90 07:36 05.09.2022
337 Clear 16 1023 64 10000 3.6 100 02:50 05.09.2022
338 Clear 18 1023 58 10000 4.63 80 23:40 04.09.2022
339 Clear 18 1022 55 10000 4.12 80 22:28 04.09.2022
340 Clear 19 1022 52 10000 4.63 80 21:41 04.09.2022
341 Clear 22 1021 44 10000 4.12 80 19:39 04.09.2022
342 Clear 24 1021 40 10000 5.66 80 18:21 04.09.2022
343 Clear 25 1021 38 10000 5.66 110 17:24 04.09.2022
344 Clear 24 1021 42 10000 5.66 120 14:59 04.09.2022
345 Clear 24 1021 42 10000 6.17 120 14:21 04.09.2022
346 Clear 22 1021 49 10000 6.17 90 12:24 04.09.2022
347 Clear 19 1021 55 10000 4.63 110 10:58 04.09.2022
348 Clear 16 1020 61 10000 5.14 110 09:23 04.09.2022
349 Clear 13 1019 73 10000 2.57 90 06:27 04.09.2022
350 Clear 14 1018 73 10000 3.6 80 02:30 04.09.2022
351 Clear 16 1018 52 10000 3.6 70 22:26 03.09.2022
352 Clear 16 1018 52 10000 3.6 70 22:26 03.09.2022
353 Clear 18 1017 46 10000 4.12 90 21:24 03.09.2022
354 Clear 19 1017 43 10000 4.12 90 20:51 03.09.2022
355 Clear 22 1016 35 10000 7.72 90 17:37 03.09.2022
356 Clear 23 1016 32 10000 7.2 90 16:49 03.09.2022
357 Clear 23 1017 35 10000 7.2 110 14:52 03.09.2022
358 Clear 23 1017 36 10000 8.23 120 14:30 03.09.2022
359 Clear 22 1017 38 10000 10.29 140 13:44 03.09.2022
360 Clear 20 1018 49 10000 5.66 110 11:32 03.09.2022
361 Clear 16 1018 59 10000 5.14 100 09:22 03.09.2022
362 Clear 13 1018 65 10000 4.12 110 07:45 03.09.2022
363 Clear 14 1018 64 10000 4.12 110 04:50 03.09.2022
364 Clear 15 1018 62 10000 5.14 100 02:35 03.09.2022
365 Clear 17 1018 57 10000 5.14 100 23:42 02.09.2022
366 Clear 18 1018 52 10000 3.6 90 21:57 02.09.2022
367 Clear 19 1017 46 10000 3.09 100 20:42 02.09.2022
368 Clear 20 1017 44 10000 4.12 100 19:47 02.09.2022
369 Clear 22 1018 41 10000 5.66 90 18:50 02.09.2022
370 Clear 22 1018 40 10000 6.17 90 18:25 02.09.2022
371 Clear 23 1018 41 10000 5.14 100 17:24 02.09.2022
372 Clear 23 1019 40 10000 5.14 90 16:31 02.09.2022
373 Clouds 22 1020 48 10000 4.63 110 13:32 02.09.2022
374 Clear 18 1021 59 10000 5.66 100 10:43 02.09.2022
375 Clear 16 1021 66 10000 3.6 90 09:42 02.09.2022
376 Clear 13 1021 81 10000 3.09 90 08:45 02.09.2022
377 Clear 10 1021 88 10000 1.54 60 06:46 02.09.2022
378 Clear 10 1021 88 10000 1.54 60 06:21 02.09.2022
379 Clear 13 1023 77 10000 3.09 70 00:20 02.09.2022
380 Clear 15 1023 68 10000 3.6 50 22:21 01.09.2022
381 Clear 16 1022 63 10000 3.09 40 21:38 01.09.2022
382 Clear 17 1022 59 10000 4.12 70 21:19 01.09.2022
383 Clear 18 1022 55 10000 4.63 60 20:23 01.09.2022
384 Clear 22 1022 46 10000 6.17 60 18:34 01.09.2022
385 Clear 22 1023 39 10000 3.6 60 16:55 01.09.2022
386 Clear 22 1023 43 10000 3.6 80 15:22 01.09.2022
387 Clear 21 1024 43 10000 4.63 50 13:27 01.09.2022
388 Clouds 21 1024 44 10000 3.6 90 12:55 01.09.2022
389 Clear 20 1024 49 10000 4.63 70 11:51 01.09.2022
390 Clear 19 1025 52 10000 3.6 100 11:20 01.09.2022
391 Clear 16 1024 77 10000 2.06 90 09:32 01.09.2022
392 Clear 11 1024 96 10000 1.03 0 07:31 01.09.2022
393 Clouds 10 1024 91 10000 0.51 0 05:56 01.09.2022
394 Clear 12 1025 83 10000 2.57 60 01:31 01.09.2022
395 Clear 15 1024 72 10000 2.57 50 22:56 31.08.2022
396 Clear 18 1024 57 10000 4.12 50 20:45 31.08.2022
397 Clear 20 1023 50 10000 3.09 60 19:23 31.08.2022
398 Clear 23 1024 38 10000 3.6 0 16:49 31.08.2022
399 Clear 23 1024 40 10000 2.57 0 15:28 31.08.2022
400 Clear 22 1025 43 10000 3.6 100 13:38 31.08.2022
401 Clear 22 1025 41 10000 4.12 60 13:38 31.08.2022
402 Clouds 20 1025 50 10000 3.6 60 12:18 31.08.2022
403 Clear 16 1025 73 10000 3.09 40 09:36 31.08.2022
404 Clear 12 1025 85 10000 2.57 50 08:31 31.08.2022
405 Clear 10 1024 89 10000 0.51 0 03:41 31.08.2022
406 Clear 14 1024 71 10000 3.6 60 22:42 30.08.2022
407 Clear 16 1024 56 10000 4.63 60 21:31 30.08.2022
408 Clear 18 1023 49 10000 5.14 60 20:35 30.08.2022
409 Clouds 21 1023 53 10000 5.66 60 17:25 30.08.2022
410 Clouds 21 1023 59 10000 5.66 60 14:19 30.08.2022
411 Clouds 19 1023 68 10000 4.12 60 12:25 30.08.2022
412 Clouds 19 1023 74 10000 4.12 80 11:20 30.08.2022
413 Clouds 18 1023 76 10000 3.6 50 10:20 30.08.2022
414 Clouds 15 1022 86 10000 2.57 50 06:49 30.08.2022
415 Clouds 14 1022 84 10000 2.06 310 01:44 30.08.2022
416 Clouds 16 1022 79 10000 2.06 10 22:47 29.08.2022
417 Clouds 16 1022 76 10000 2.57 20 22:18 29.08.2022
418 Clouds 17 1021 71 10000 3.09 40 21:23 29.08.2022
419 Clouds 19 1021 66 10000 5.66 30 19:42 29.08.2022
420 Clouds 20 1021 65 10000 4.63 20 17:43 29.08.2022
421 Clouds 20 1021 63 10000 5.14 20 17:24 29.08.2022
422 Clouds 20 1021 66 10000 4.12 340 15:42 29.08.2022
423 Clouds 20 1021 67 10000 4.12 330 14:43 29.08.2022
424 Clouds 20 1021 69 10000 3.6 330 12:42 29.08.2022
425 Clouds 19 1020 77 10000 4.12 320 10:51 29.08.2022
426 Clouds 18 1020 82 10000 4.12 320 09:41 29.08.2022
427 Clouds 16 1019 94 10000 3.6 310 08:27 29.08.2022
428 Clouds 17 1018 92 10000 2.57 270 02:48 29.08.2022
429 Clouds 16 1018 88 10000 4.63 260 23:52 28.08.2022
430 Clouds 17 1019 81 10000 5.14 270 22:22 28.08.2022
431 Clouds 17 1019 78 10000 6.17 280 21:40 28.08.2022
432 Clouds 18 1018 73 10000 5.66 280 20:43 28.08.2022
433 Clouds 19 1018 66 10000 6.69 280 19:20 28.08.2022
434 Clouds 19 1018 61 10000 6.17 300 18:20 28.08.2022
435 Clouds 20 1018 57 10000 7.2 300 16:57 28.08.2022
436 Clouds 20 1018 57 10000 7.72 300 15:55 28.08.2022
437 Clouds 20 1018 57 10000 7.72 280 14:21 28.08.2022
438 Clouds 20 1017 59 10000 7.72 300 12:31 28.08.2022
439 Clouds 18 1017 66 10000 6.69 320 10:42 28.08.2022
440 Clear 17 1017 75 10000 4.63 300 09:41 28.08.2022
441 Clouds 15 1017 87 10000 3.6 250 08:36 28.08.2022
442 Clouds 13 1017 93 10000 2.06 310 07:42 28.08.2022
443 Clear 14 1016 88 10000 3.09 300 02:31 28.08.2022
444 Clear 15 1016 83 10000 4.12 310 00:25 28.08.2022
445 Clear 17 1016 80 10000 4.63 300 22:34 27.08.2022
446 Clear 18 1016 74 10000 4.63 270 21:28 27.08.2022
447 Clear 21 1015 65 10000 6.17 280 19:40 27.08.2022
448 Clouds 24 1014 56 10000 6.17 290 16:48 27.08.2022
449 Clouds 23 1014 58 10000 4.63 300 15:52 27.08.2022
450 Clouds 22 1015 63 10000 3.6 290 15:23 27.08.2022
451 Clouds 18 1015 88 10000 4.63 300 12:23 27.08.2022
452 Clouds 18 1015 93 10000 5.66 320 11:25 27.08.2022
453 Clouds 18 1014 92 10000 6.17 320 09:42 27.08.2022
454 Clouds 18 1013 93 10000 4.63 310 07:37 27.08.2022
455 Clouds 19 1013 95 7000 5.14 310 02:34 27.08.2022
456 Clouds 20 1013 94 10000 4.63 320 23:57 26.08.2022
457 Clouds 20 1013 94 10000 2.57 280 22:37 26.08.2022
458 Clear 21 1013 90 10000 2.57 350 21:19 26.08.2022
459 Rain 24 1013 73 10000 5.14 320 19:23 26.08.2022
460 Clouds 26 1012 75 10000 4.63 300 16:50 26.08.2022
461 Clear 27 1013 71 10000 4.12 310 15:31 26.08.2022
462 Clear 28 1013 65 10000 3.6 300 14:30 26.08.2022
463 Clear 25 1014 78 10000 3.6 240 12:51 26.08.2022
464 Clouds 26 1015 72 10000 2.57 310 11:33 26.08.2022
465 Clouds 25 1015 69 10000 1.03 0 10:46 26.08.2022
466 Clear 19 1014 95 10000 2.57 90 07:28 26.08.2022
467 Clear 21 1015 82 10000 3.09 100 02:30 26.08.2022
468 Clear 21 1016 82 10000 3.09 60 23:41 25.08.2022
469 Clear 23 1016 67 10000 3.6 50 21:37 25.08.2022
470 Clear 25 1016 66 10000 4.12 50 20:30 25.08.2022
471 Clear 27 1016 53 10000 4.63 100 19:20 25.08.2022
472 Clear 28 1016 48 10000 4.63 120 17:59 25.08.2022
473 Clear 28 1017 45 10000 6.17 130 17:31 25.08.2022
474 Clouds 28 1018 52 10000 4.63 80 15:54 25.08.2022
475 Clouds 28 1018 52 10000 4.12 100 15:27 25.08.2022
476 Clouds 23 1020 74 10000 4.12 70 12:40 25.08.2022
477 Clouds 19 1021 88 10000 4.63 60 10:48 25.08.2022
478 Clouds 19 1020 91 10000 4.12 90 09:20 25.08.2022
479 Clear 17 1021 93 10000 2.57 90 06:31 25.08.2022
480 Clear 20 1021 81 10000 4.12 100 01:43 25.08.2022
481 Clear 20 1021 79 10000 4.12 60 23:27 24.08.2022
482 Clear 21 1021 68 10000 4.12 60 22:41 24.08.2022
483 Clear 23 1021 60 10000 4.12 60 21:36 24.08.2022
484 Clear 24 1020 62 10000 3.6 50 20:56 24.08.2022
485 Clear 27 1020 38 10000 4.63 90 19:24 24.08.2022
486 Clear 30 1020 38 10000 4.12 80 16:49 24.08.2022
487 Clear 29 1020 41 10000 4.12 90 15:52 24.08.2022
488 Clear 28 1020 43 10000 4.63 120 13:48 24.08.2022
489 Clear 26 1020 54 10000 4.12 140 12:24 24.08.2022
490 Clear 24 1021 62 10000 4.63 120 11:18 24.08.2022
491 Clear 18 1020 79 10000 3.6 120 08:28 24.08.2022
492 Clear 18 1019 67 10000 3.09 120 03:44 24.08.2022
493 Clear 21 1019 59 10000 3.6 90 23:53 23.08.2022
494 Clear 21 1019 59 10000 2.57 60 22:35 23.08.2022
495 Clear 22 1018 54 10000 4.12 80 21:46 23.08.2022
496 Clear 25 1018 42 10000 3.09 90 20:40 23.08.2022
497 Clear 28 1017 35 10000 4.63 120 18:55 23.08.2022
498 Clear 28 1017 34 10000 6.17 120 17:53 23.08.2022
499 Clear 29 1017 34 10000 5.14 110 17:18 23.08.2022
500 Clear 28 1017 35 10000 5.66 150 15:52 23.08.2022
501 Clear 27 1018 39 10000 5.66 130 13:50 23.08.2022
502 Clear 26 1018 46 10000 5.66 120 12:46 23.08.2022
503 Clear 23 1018 53 10000 6.17 150 10:57 23.08.2022
504 Clear 22 1018 55 10000 5.66 150 10:33 23.08.2022
505 Clear 19 1018 67 10000 4.12 140 08:58 23.08.2022
506 Clear 19 1018 70 10000 4.12 120 08:38 23.08.2022
507 Clear 18 1018 71 10000 4.12 120 08:18 23.08.2022
508 Clear 18 1017 73 10000 3.09 120 07:25 23.08.2022
509 Clear 18 1017 73 10000 3.09 120 06:22 23.08.2022
510 Clouds 20 1016 64 10000 5.14 120 01:45 23.08.2022
511 Clear 20 1016 59 10000 5.14 110 00:27 23.08.2022
512 Clear 20 1016 63 10000 4.12 100 23:32 22.08.2022
513 Clear 20 1016 74 10000 4.12 70 22:24 22.08.2022
514 Clear 22 1016 69 10000 5.66 50 20:44 22.08.2022
515 Clear 23 1015 61 10000 5.14 40 19:44 22.08.2022
516 Clear 25 1015 50 10000 4.63 80 18:37 22.08.2022
517 Clear 26 1016 50 10000 2.57 90 15:55 22.08.2022
518 Clouds 25 1016 50 10000 3.09 80 15:18 22.08.2022
519 Clouds 23 1017 61 10000 3.09 110 11:45 22.08.2022
520 Clouds 19 1017 77 10000 3.6 30 09:27 22.08.2022
521 Clouds 17 1017 86 10000 2.57 50 06:58 22.08.2022
522 Clear 16 1016 86 10000 1.54 310 02:42 22.08.2022
523 Clear 17 1016 86 10000 0.51 100 00:37 22.08.2022
524 Clear 17 1016 83 10000 2.06 310 23:34 21.08.2022
525 Clear 20 1016 72 10000 2.57 320 21:56 21.08.2022
526 Clear 20 1015 70 10000 3.09 320 21:21 21.08.2022
527 Clear 22 1015 62 10000 4.63 310 20:21 21.08.2022
528 Clouds 23 1014 50 10000 2.57 290 18:59 21.08.2022
529 Clear 25 1014 42 10000 3.6 240 16:52 21.08.2022
530 Clear 25 1015 44 10000 4.63 290 15:53 21.08.2022
531 Clear 25 1015 47 10000 4.63 230 14:59 21.08.2022
532 Clouds 24 1015 49 10000 5.14 260 13:51 21.08.2022
533 Clouds 24 1015 54 10000 4.63 280 12:57 21.08.2022
534 Clouds 24 1015 54 10000 4.63 280 12:57 21.08.2022
535 Clear 21 1015 61 10000 4.63 210 10:49 21.08.2022
536 Clear 17 1016 76 10000 2.06 170 09:24 21.08.2022
537 Clear 16 1016 82 10000 1.54 250 08:56 21.08.2022
538 Clear 15 1016 83 10000 1.54 250 08:38 21.08.2022
539 Clear 12 1016 94 10000 1.03 50 07:26 21.08.2022
540 Clear 12 1016 91 10000 1.03 230 03:24 21.08.2022
541 Clear 14 1017 87 10000 1.03 0 23:45 20.08.2022
542 Clear 17 1017 69 10000 2.06 310 22:23 20.08.2022
543 Clear 19 1017 62 10000 3.6 310 21:26 20.08.2022
544 Clear 21 1016 52 10000 5.14 290 19:58 20.08.2022
545 Clear 21 1016 51 10000 5.14 290 19:39 20.08.2022
546 Clear 22 1016 48 10000 6.69 290 18:27 20.08.2022
547 Clear 23 1016 48 10000 5.66 300 17:40 20.08.2022
548 Clouds 24 1015 46 10000 6.69 300 16:40 20.08.2022
549 Clear 24 1015 49 10000 6.69 300 15:23 20.08.2022
550 Clouds 23 1015 66 10000 5.66 300 12:52 20.08.2022
551 Clouds 23 1015 67 10000 5.14 300 11:47 20.08.2022
552 Clouds 20 1014 89 10000 3.09 270 09:33 20.08.2022
553 Clouds 18 1014 91 10000 2.57 260 08:29 20.08.2022
554 Clear 17 1013 88 10000 2.57 240 05:49 20.08.2022
555 Mist 17 1013 96 9000 1.54 250 00:58 20.08.2022
556 Mist 17 1013 96 9000 1.54 250 00:58 20.08.2022
557 Clouds 17 1013 93 9000 1.03 0 00:30 20.08.2022
558 Clear 18 1013 92 10000 1.03 290 22:53 19.08.2022
559 Clear 20 1012 84 10000 2.57 350 21:38 19.08.2022
560 Clouds 23 1012 71 10000 4.63 310 19:54 19.08.2022
561 Clouds 22 1012 74 10000 4.63 310 16:47 19.08.2022
562 Clouds 22 1013 78 10000 3.6 290 14:54 19.08.2022
563 Clouds 20 1013 88 10000 3.6 290 12:49 19.08.2022
564 Clouds 19 1013 93 10000 3.6 310 10:44 19.08.2022
565 Clouds 19 1012 91 10000 4.12 310 10:19 19.08.2022
566 Clouds 18 1011 94 8000 3.6 310 05:58 19.08.2022
567 Clouds 19 1012 88 10000 3.09 290 00:48 19.08.2022
568 Clouds 19 1012 88 10000 3.09 290 00:23 19.08.2022
569 Clear 19 1012 89 10000 3.6 310 23:28 18.08.2022
570 Clouds 20 1012 86 10000 4.12 300 22:38 18.08.2022
571 Clear 20 1012 83 10000 4.12 300 21:55 18.08.2022
572 Clouds 20 1012 84 10000 5.14 290 21:26 18.08.2022
573 Clouds 23 1012 73 10000 5.14 290 19:55 18.08.2022
574 Clouds 24 1012 70 10000 5.14 300 19:25 18.08.2022
575 Clouds 25 1011 68 10000 5.14 290 17:49 18.08.2022
576 Clouds 26 1011 64 10000 4.63 300 16:55 18.08.2022
577 Clouds 26 1011 64 10000 3.6 250 14:42 18.08.2022
578 Clouds 24 1012 70 10000 3.09 260 14:19 18.08.2022
579 Clouds 22 1012 81 10000 3.6 240 12:55 18.08.2022
580 Clouds 21 1012 90 10000 3.09 240 11:31 18.08.2022
581 Mist 20 1011 92 10000 4.63 230 09:43 18.08.2022
582 Clear 19 1011 91 10000 3.09 220 08:37 18.08.2022
583 Clear 17 1011 97 10000 0.51 0 07:19 18.08.2022
584 Clear 19 1011 88 10000 2.57 90 03:53 18.08.2022
585 Clear 20 1011 91 10000 4.12 60 23:30 17.08.2022
586 Rain 20 1011 90 10000 4.12 50 21:40 17.08.2022
587 Rain 26 1010 53 10000 6.69 50 20:19 17.08.2022
588 Clear 27 1010 58 10000 5.66 40 19:28 17.08.2022
589 Rain 28 1011 50 10000 3.6 50 17:35 17.08.2022
590 Clear 28 1011 49 10000 3.09 40 16:35 17.08.2022
591 Clear 29 1011 45 10000 3.6 90 15:26 17.08.2022
592 Clear 29 1012 48 10000 3.6 120 13:30 17.08.2022
593 Clear 27 1012 52 10000 2.57 70 11:38 17.08.2022
594 Clear 22 1011 75 10000 1.54 60 09:31 17.08.2022
595 Clear 20 1011 86 10000 1.54 60 08:24 17.08.2022
596 Mist 18 1011 93 10000 0.51 310 03:36 17.08.2022
597 Clear 21 1011 77 10000 2.57 330 00:24 17.08.2022
598 Clear 23 1010 68 10000 2.57 320 22:41 16.08.2022
599 Clear 25 1009 59 10000 2.57 150 20:58 16.08.2022
600 Clear 27 1008 51 10000 3.6 270 19:54 16.08.2022
601 Clear 29 1008 44 10000 3.09 230 18:44 16.08.2022
602 Clear 29 1008 46 10000 5.14 220 17:53 16.08.2022
603 Clouds 28 1008 49 10000 5.14 240 15:59 16.08.2022
604 Clouds 27 1008 56 10000 6.69 220 14:55 16.08.2022
605 Clouds 28 1008 56 10000 6.69 220 14:37 16.08.2022
606 Clouds 28 1007 54 10000 4.63 220 13:40 16.08.2022
607 Clear 25 1007 64 10000 3.6 250 11:30 16.08.2022
608 Clear 22 1006 82 10000 2.57 220 09:52 16.08.2022
609 Clear 20 1006 91 10000 2.57 230 08:48 16.08.2022
610 Clear 19 1006 95 10000 2.57 230 08:18 16.08.2022
611 Clear 19 1005 95 10000 2.57 220 05:18 16.08.2022
612 Clear 21 1004 85 10000 1.54 210 22:56 15.08.2022
613 Rain 21 1004 83 10000 1.03 230 22:18 15.08.2022
614 Rain 22 1004 81 10000 1.03 0 21:41 15.08.2022
615 Rain 22 1003 80 10000 5.14 210 20:30 15.08.2022
616 Rain 25 1003 63 10000 4.12 190 18:56 15.08.2022
617 Clouds 28 1003 54 10000 3.6 50 17:56 15.08.2022
618 Clear 31 1002 39 10000 6.17 60 16:23 15.08.2022
619 Clear 32 1003 41 10000 2.57 0 14:49 15.08.2022
620 Clear 31 1004 44 10000 5.14 130 13:23 15.08.2022
621 Clear 26 1004 59 10000 3.6 120 10:37 15.08.2022
622 Clear 22 1004 72 10000 2.57 90 08:54 15.08.2022
623 Clear 17 1005 87 10000 1.54 50 06:51 15.08.2022
624 Clear 19 1006 76 10000 1.54 50 03:56 15.08.2022
625 Clear 23 1007 64 10000 4.63 70 23:38 14.08.2022
626 Clear 25 1007 61 10000 5.14 60 21:49 14.08.2022
627 Clear 26 1007 57 10000 4.63 50 21:25 14.08.2022
628 Clear 28 1007 50 10000 5.66 60 19:46 14.08.2022
629 Clear 29 1008 47 10000 5.14 60 18:42 14.08.2022
630 Clear 30 1008 43 10000 5.66 50 17:48 14.08.2022
631 Clear 30 1009 44 10000 4.12 60 16:32 14.08.2022
632 Clear 30 1010 47 10000 4.63 60 15:48 14.08.2022
633 Clear 29 1011 51 10000 4.63 80 14:19 14.08.2022
634 Clear 29 1011 50 10000 4.12 80 13:49 14.08.2022
635 Clear 29 1011 50 10000 4.12 90 13:18 14.08.2022
636 Clear 28 1012 52 10000 3.6 110 11:50 14.08.2022
637 Clear 25 1013 58 10000 3.6 90 10:40 14.08.2022
638 Clear 22 1013 68 10000 3.09 100 08:50 14.08.2022
639 Clear 20 1014 74 10000 1.54 70 06:21 14.08.2022
640 Clear 21 1015 67 10000 2.06 60 02:47 14.08.2022
641 Clear 23 1016 68 10000 3.6 60 23:49 13.08.2022
642 Clear 24 1016 56 10000 4.12 60 22:52 13.08.2022
643 Clear 26 1016 49 10000 4.63 70 20:58 13.08.2022
644 Clear 27 1016 47 10000 5.66 60 20:31 13.08.2022
645 Clear 28 1016 44 10000 4.12 50 19:29 13.08.2022
646 Clear 30 1017 40 10000 5.14 60 17:40 13.08.2022
647 Clear 30 1018 37 10000 4.63 70 15:26 13.08.2022
648 Clear 31 1018 35 10000 4.12 110 14:27 13.08.2022
649 Clear 31 1018 34 10000 4.63 60 13:39 13.08.2022
650 Clear 29 1019 37 10000 3.6 70 11:52 13.08.2022
651 Clear 26 1019 48 10000 1.54 60 10:31 13.08.2022
652 Clear 22 1019 55 10000 2.06 90 08:45 13.08.2022
653 Clear 16 1020 78 10000 1.03 0 05:34 13.08.2022
654 Clear 21 1020 61 10000 2.06 70 23:58 12.08.2022
655 Clear 24 1019 52 10000 3.6 60 21:46 12.08.2022
656 Clear 26 1019 43 10000 5.14 70 20:54 12.08.2022
657 Clear 28 1019 36 10000 5.14 60 19:42 12.08.2022
658 Clear 30 1019 28 10000 5.66 60 18:48 12.08.2022
659 Clear 31 1020 27 10000 3.09 150 17:25 12.08.2022
660 Clear 31 1020 27 10000 2.06 0 16:24 12.08.2022
661 Clear 31 1020 28 10000 3.09 0 14:44 12.08.2022
662 Clear 29 1021 37 10000 3.6 90 12:56 12.08.2022
663 Clear 26 1022 49 10000 3.09 70 11:19 12.08.2022
664 Clear 18 1022 71 10000 2.06 70 08:31 12.08.2022
665 Clear 15 1022 80 10000 1.54 70 07:26 12.08.2022
666 Clear 16 1022 80 10000 1.54 60 03:35 12.08.2022
667 Clear 18 1022 69 10000 2.57 60 00:28 12.08.2022
668 Clear 19 1022 63 10000 2.57 70 23:40 11.08.2022
669 Clear 20 1022 56 10000 3.09 50 22:35 11.08.2022
670 Clear 23 1022 48 10000 3.6 60 21:43 11.08.2022
671 Clear 23 1022 46 10000 3.09 50 21:22 11.08.2022
672 Clear 26 1022 41 10000 4.63 60 20:29 11.08.2022
673 Clear 28 1022 37 10000 5.14 70 19:33 11.08.2022
674 Clear 29 1022 34 10000 4.12 50 18:39 11.08.2022
675 Clear 30 1023 30 10000 3.09 20 16:38 11.08.2022
676 Clear 30 1023 31 10000 3.6 70 15:37 11.08.2022
677 Clear 29 1024 36 10000 2.57 80 13:51 11.08.2022
678 Clear 26 1025 48 10000 2.06 0 11:26 11.08.2022
679 Clear 18 1025 75 10000 1.54 80 08:34 11.08.2022
680 Clear 15 1025 83 10000 1.54 60 04:53 11.08.2022
681 Clear 17 1025 75 10000 1.54 90 01:56 11.08.2022
682 Clear 20 1025 65 10000 2.57 50 22:55 10.08.2022
683 Clear 22 1025 58 10000 3.6 70 21:45 10.08.2022
684 Clear 23 1025 55 10000 3.6 60 20:56 10.08.2022
685 Clear 25 1025 43 10000 2.57 30 20:24 10.08.2022
686 Clear 27 1025 39 10000 3.09 70 18:46 10.08.2022
687 Clear 27 1026 38 10000 2.57 290 17:26 10.08.2022
688 Clear 26 1027 43 10000 3.6 60 14:25 10.08.2022
689 Clouds 25 1028 50 10000 2.57 280 12:54 10.08.2022
690 Clear 22 1029 60 10000 2.06 60 10:31 10.08.2022
691 Clear 18 1029 78 10000 2.57 50 08:37 10.08.2022
692 Clear 13 1028 93 10000 0.51 330 07:22 10.08.2022
693 Clear 12 1028 91 10000 1.03 0 04:50 10.08.2022
694 Clear 15 1029 82 10000 1.03 300 00:50 10.08.2022
695 Clear 17 1028 77 10000 1.54 50 23:29 09.08.2022
696 Clear 20 1028 66 10000 3.6 70 21:41 09.08.2022
697 Clear 21 1028 61 10000 4.63 50 21:22 09.08.2022
698 Clear 24 1027 51 10000 4.12 40 19:18 09.08.2022
699 Clear 24 1028 49 10000 3.6 300 17:37 09.08.2022
700 Clear 25 1028 48 10000 3.6 290 17:19 09.08.2022
701 Clear 25 1028 46 10000 3.09 340 16:23 09.08.2022
702 Clouds 25 1028 49 10000 2.06 0 15:23 09.08.2022
703 Clouds 22 1029 65 10000 1.54 360 11:30 09.08.2022
704 Clear 16 1028 86 10000 1.54 20 08:53 09.08.2022
705 Clear 14 1028 95 10000 2.06 320 07:58 09.08.2022
706 Clear 11 1028 96 10000 1.54 330 05:25 09.08.2022
707 Clear 15 1027 83 10000 2.57 320 00:59 09.08.2022
708 Clear 16 1027 82 10000 2.06 330 23:26 08.08.2022
709 Clear 17 1027 80 10000 2.57 330 22:45 08.08.2022
710 Clear 19 1026 73 10000 2.57 350 21:47 08.08.2022
711 Clear 21 1026 62 10000 3.09 310 20:43 08.08.2022
712 Clear 21 1026 59 10000 3.6 290 19:41 08.08.2022
713 Clear 22 1025 56 10000 3.6 300 18:19 08.08.2022
714 Clouds 23 1025 52 10000 3.6 270 15:57 08.08.2022
715 Clouds 23 1025 51 10000 3.6 270 15:38 08.08.2022
716 Clear 21 1026 58 10000 3.09 320 12:35 08.08.2022
717 Clear 20 1025 61 10000 2.06 290 10:50 08.08.2022
718 Clouds 14 1025 87 10000 1.54 330 08:20 08.08.2022
719 Clear 11 1024 93 10000 1.54 320 04:45 08.08.2022
720 Clear 12 1024 89 10000 1.03 0 01:47 08.08.2022
721 Clear 18 1024 63 10000 2.06 340 21:49 07.08.2022
722 Clear 19 1023 60 10000 3.09 340 21:30 07.08.2022
723 Clear 20 1023 52 10000 4.12 320 20:25 07.08.2022
724 Clear 21 1023 50 10000 3.6 310 19:53 07.08.2022
725 Clear 22 1023 47 10000 2.57 310 19:29 07.08.2022
726 Clear 22 1024 46 10000 3.6 290 17:59 07.08.2022
727 Clear 23 1024 44 10000 2.57 0 16:53 07.08.2022
728 Clear 22 1024 48 10000 3.6 250 15:45 07.08.2022
729 Clear 22 1025 48 10000 3.6 290 14:34 07.08.2022
730 Clouds 21 1025 50 10000 4.12 260 12:51 07.08.2022
731 Clouds 21 1025 50 10000 4.12 260 12:51 07.08.2022
732 Clear 18 1026 58 10000 3.6 230 10:57 07.08.2022
733 Clear 18 1026 63 10000 3.6 240 10:21 07.08.2022
734 Fog 9 1026 92 10000 2.06 220 04:42 07.08.2022
735 Clear 10 1026 91 10000 1.54 180 02:37 07.08.2022
736 Clear 13 1027 80 10000 1.54 320 23:29 06.08.2022
737 Clear 15 1027 69 10000 3.09 310 22:20 06.08.2022
738 Clear 19 1026 52 10000 4.63 310 20:20 06.08.2022
739 Clear 19 1026 51 10000 5.14 310 19:38 06.08.2022
740 Clear 20 1026 50 10000 4.63 310 18:19 06.08.2022
741 Clear 21 1026 48 10000 7.2 310 16:40 06.08.2022
742 Clouds 21 1026 48 10000 6.17 280 14:31 06.08.2022
743 Clouds 20 1026 51 10000 6.69 300 13:39 06.08.2022
744 Clouds 18 1026 64 10000 5.14 290 11:24 06.08.2022
745 Clouds 17 1026 74 10000 3.6 280 09:50 06.08.2022
746 Clouds 12 1025 88 10000 2.06 250 07:51 06.08.2022
747 Clear 12 1023 90 10000 2.57 260 03:24 06.08.2022
748 Clear 13 1021 83 10000 3.09 250 23:32 05.08.2022
749 Clear 15 1020 74 10000 6.69 300 21:54 05.08.2022
750 Clouds 18 1018 68 10000 8.75 280 19:32 05.08.2022
751 Clouds 19 1017 73 10000 9.26 290 18:44 05.08.2022
752 Clouds 19 1017 77 10000 2.57 230 17:27 05.08.2022
753 Clouds 19 1017 79 10000 2.57 280 16:48 05.08.2022
754 Clouds 17 1016 88 10000 1.03 0 15:21 05.08.2022
755 Rain 16 1016 88 10000 2.57 300 13:59 05.08.2022
756 Rain 17 1015 88 10000 2.57 310 13:23 05.08.2022
757 Rain 17 1015 87 10000 3.09 320 12:28 05.08.2022
758 Clouds 17 1015 86 10000 3.09 300 10:49 05.08.2022
759 Clear 16 1014 91 10000 2.57 330 08:25 05.08.2022
760 Clear 16 1013 95 10000 1.54 290 06:41 05.08.2022
761 Clear 19 1013 94 10000 3.6 300 00:34 05.08.2022
762 Clear 21 1013 84 10000 2.57 300 22:31 04.08.2022
763 Clear 22 1012 80 10000 3.09 290 21:27 04.08.2022
764 Clear 22 1012 80 10000 3.6 310 20:43 04.08.2022
765 Clear 23 1011 79 10000 4.63 340 19:48 04.08.2022
766 Rain 23 1013 76 10000 5.66 230 18:42 04.08.2022
767 Rain 26 1011 59 10000 9.26 290 18:23 04.08.2022
768 Clear 34 1010 33 10000 4.12 200 14:38 04.08.2022
769 Clear 34 1011 36 10000 5.66 160 13:22 04.08.2022
770 Clear 31 1012 48 10000 3.6 160 11:33 04.08.2022
771 Clear 22 1013 83 10000 2.57 110 07:55 04.08.2022
772 Clear 20 1013 87 10000 2.06 110 07:26 04.08.2022
773 Clear 20 1014 93 10000 2.57 50 02:38 04.08.2022
774 Clear 22 1014 83 10000 2.06 330 23:52 03.08.2022
775 Clear 23 1014 79 10000 2.57 320 23:33 03.08.2022
776 Clear 27 1013 54 10000 2.57 330 21:26 03.08.2022
777 Clear 29 1013 50 10000 2.57 270 20:19 03.08.2022
778 Clear 31 1013 45 10000 3.6 230 18:40 03.08.2022
779 Clear 32 1014 44 10000 5.66 220 16:27 03.08.2022
780 Clear 31 1014 45 10000 5.14 260 15:53 03.08.2022
781 Clear 30 1014 48 10000 8.23 240 13:38 03.08.2022
782 Clear 27 1014 53 10000 6.69 200 10:44 03.08.2022
783 Clear 19 1014 81 10000 0.51 0 07:21 03.08.2022
784 Clear 19 1014 77 10000 1.03 0 04:22 03.08.2022
785 Clear 19 1014 77 10000 1.03 0 03:23 03.08.2022
786 Clear 21 1015 72 10000 1.03 80 00:46 03.08.2022
787 Clear 22 1015 64 10000 1.54 200 22:36 02.08.2022
788 Clear 23 1015 62 10000 2.06 180 21:51 02.08.2022
789 Clear 25 1014 55 10000 2.06 210 20:29 02.08.2022
790 Clear 26 1015 47 10000 5.14 220 17:47 02.08.2022
791 Clear 25 1016 43 10000 5.66 220 14:46 02.08.2022
792 Clear 18 1018 65 10000 3.09 200 10:50 02.08.2022
793 Clear 14 1019 85 10000 1.54 200 08:54 02.08.2022
794 Clear 11 1019 96 10000 0.51 0 07:52 02.08.2022
795 Clear 9 1019 97 10000 1.03 250 05:40 02.08.2022
796 Clear 10 1019 94 10000 1.03 300 03:40 02.08.2022
797 Clear 13 1019 80 10000 3.09 300 23:35 01.08.2022
798 Clear 15 1018 72 10000 3.6 310 22:22 01.08.2022
799 Clear 18 1018 64 10000 5.14 310 20:47 01.08.2022
800 Clouds 20 1017 59 10000 5.66 280 19:22 01.08.2022
801 Clear 21 1017 55 10000 6.69 280 17:57 01.08.2022
802 Clear 22 1017 53 10000 5.66 270 16:52 01.08.2022
803 Clear 22 1017 53 10000 7.72 300 15:52 01.08.2022
804 Clear 22 1017 55 10000 7.2 290 15:30 01.08.2022
805 Clouds 21 1016 61 10000 6.17 300 13:48 01.08.2022
806 Clouds 19 1016 76 10000 6.17 280 11:50 01.08.2022
807 Clouds 17 1014 94 10000 4.63 300 09:39 01.08.2022
808 Clouds 17 1014 96 10000 4.63 310 08:22 01.08.2022
809 Drizzle 18 1012 96 9000 5.14 280 04:47 01.08.2022
810 Clouds 18 1012 96 10000 4.12 280 02:32 01.08.2022
811 Clouds 18 1012 96 10000 3.09 200 23:54 31.07.2022
812 Drizzle 18 1012 95 7000 3.09 180 22:38 31.07.2022
813 Mist 18 1013 95 4000 1.54 0 21:24 31.07.2022
814 Rain 19 1013 93 10000 2.06 240 19:41 31.07.2022
815 Rain 20 1013 85 10000 4.63 250 17:48 31.07.2022
816 Clear 25 1013 51 10000 3.09 200 15:37 31.07.2022
817 Clear 25 1015 48 10000 3.09 170 13:43 31.07.2022
818 Clear 21 1016 63 10000 2.57 210 11:58 31.07.2022
819 Clear 19 1016 75 10000 1.54 240 09:43 31.07.2022
820 Clear 16 1017 94 10000 1.54 240 07:38 31.07.2022
821 Clear 17 1017 92 10000 3.09 260 02:58 31.07.2022
822 Clear 19 1018 81 10000 2.57 270 23:40 30.07.2022
823 Clear 20 1017 72 10000 4.12 310 22:19 30.07.2022
824 Clear 20 1017 66 10000 4.12 300 21:49 30.07.2022
825 Clear 22 1017 70 10000 2.57 290 20:57 30.07.2022
826 Clear 23 1016 65 10000 3.6 310 19:59 30.07.2022
827 Clear 24 1016 58 10000 4.63 310 18:53 30.07.2022
828 Clear 25 1016 56 10000 2.57 310 17:44 30.07.2022
829 Clear 24 1017 60 10000 3.09 300 15:54 30.07.2022
830 Clear 24 1017 60 10000 3.09 290 15:24 30.07.2022
831 Clear 22 1017 72 10000 3.09 310 13:19 30.07.2022
832 Clear 21 1017 78 10000 2.57 260 12:19 30.07.2022
833 Clear 18 1017 85 10000 1.54 220 10:31 30.07.2022
834 Clear 18 1017 87 10000 1.54 130 09:57 30.07.2022
835 Rain 17 1016 86 10000 3.6 50 07:55 30.07.2022
836 Clear 17 1016 88 10000 3.09 10 04:20 30.07.2022
837 Clear 17 1017 86 10000 1.54 330 02:28 30.07.2022
838 Clear 19 1017 72 10000 4.63 50 22:54 29.07.2022
839 Clear 21 1017 63 10000 6.69 40 21:28 29.07.2022
840 Clear 21 1017 61 10000 5.66 50 20:50 29.07.2022
841 Clear 23 1017 54 10000 5.66 20 19:29 29.07.2022
842 Clear 25 1017 46 10000 5.14 50 16:43 29.07.2022
843 Clear 24 1018 45 10000 3.6 70 13:46 29.07.2022
844 Clear 21 1019 59 10000 3.6 60 11:34 29.07.2022
845 Clear 15 1019 72 10000 3.6 90 08:51 29.07.2022
846 Clear 14 1019 78 10000 2.06 60 08:21 29.07.2022
847 Clear 11 1020 85 10000 2.06 60 03:55 29.07.2022
848 Clear 15 1020 71 10000 4.12 50 23:30 28.07.2022
849 Clear 17 1019 57 10000 3.09 20 21:31 28.07.2022
850 Clear 18 1019 53 10000 2.57 40 20:50 28.07.2022
851 Clear 19 1019 49 10000 2.57 40 20:18 28.07.2022
852 Clear 21 1019 45 10000 2.06 70 19:26 28.07.2022
853 Clear 21 1020 44 10000 2.57 330 17:46 28.07.2022
854 Clouds 21 1020 45 10000 2.57 20 17:23 28.07.2022
855 Clouds 20 1020 43 10000 2.57 300 16:40 28.07.2022
856 Clouds 18 1021 52 10000 1.54 0 13:56 28.07.2022
857 Clouds 18 1021 56 10000 3.09 310 12:39 28.07.2022
858 Clouds 14 1020 80 10000 1.54 250 08:49 28.07.2022
859 Clouds 10 1020 92 10000 1.03 230 05:41 28.07.2022
860 Clouds 9 1020 93 10000 1.54 240 05:20 28.07.2022
861 Clouds 13 1019 71 10000 2.57 280 23:20 27.07.2022
862 Clouds 16 1019 61 10000 5.66 300 21:31 27.07.2022
863 Clouds 16 1019 61 10000 5.66 300 21:31 27.07.2022
864 Clouds 17 1018 56 10000 6.17 290 19:53 27.07.2022
865 Clouds 18 1018 55 10000 6.69 310 19:26 27.07.2022
866 Clouds 19 1018 56 10000 7.2 300 16:32 27.07.2022
867 Clouds 19 1018 56 10000 7.2 290 15:51 27.07.2022
868 Clouds 18 1018 56 10000 6.69 300 14:42 27.07.2022
869 Clouds 18 1018 55 10000 8.75 320 13:45 27.07.2022
870 Clouds 17 1018 61 10000 6.17 290 11:18 27.07.2022
871 Clear 14 1017 81 10000 3.09 250 07:53 27.07.2022
872 Clouds 13 1016 87 10000 2.57 240 05:18 27.07.2022
873 Clear 14 1016 79 10000 4.12 270 23:29 26.07.2022
874 Clear 15 1016 74 10000 4.63 290 22:20 26.07.2022
875 Clouds 16 1016 68 10000 6.17 300 21:18 26.07.2022
876 Clouds 18 1016 59 10000 8.23 310 19:39 26.07.2022
877 Clouds 18 1016 56 10000 7.2 300 18:41 26.07.2022
878 Clouds 19 1016 58 10000 7.2 300 17:55 26.07.2022
879 Clouds 20 1015 49 10000 8.23 290 15:47 26.07.2022
880 Clouds 20 1014 54 10000 8.23 290 14:44 26.07.2022
881 Clouds 18 1013 73 10000 7.2 300 12:41 26.07.2022
882 Clouds 17 1012 88 10000 6.69 310 10:35 26.07.2022
883 Rain 17 1010 95 10000 6.69 270 08:31 26.07.2022
884 Clouds 17 1009 92 10000 3.6 230 03:58 26.07.2022
885 Clouds 17 1009 92 10000 2.57 220 00:22 26.07.2022
886 Clouds 18 1009 87 10000 4.12 290 22:43 25.07.2022
887 Clouds 18 1008 89 10000 3.09 290 22:21 25.07.2022
888 Clouds 19 1008 87 10000 2.57 280 21:38 25.07.2022
889 Clear 19 1008 91 10000 3.6 300 20:39 25.07.2022
890 Clouds 20 1007 95 10000 2.57 320 19:26 25.07.2022
891 Rain 20 1008 90 10000 6.17 290 18:18 25.07.2022
892 Clouds 25 1006 61 10000 9.26 300 17:26 25.07.2022
893 Clear 32 1005 39 10000 5.66 220 14:23 25.07.2022
894 Clear 31 1006 39 10000 5.66 170 11:50 25.07.2022
895 Clear 23 1008 50 10000 5.66 150 08:32 25.07.2022
896 Clear 20 1012 73 10000 1.54 130 02:21 25.07.2022
897 Clear 21 1014 71 10000 1.54 50 23:51 24.07.2022
898 Clear 22 1014 69 10000 1.03 0 22:56 24.07.2022
899 Clear 23 1014 65 10000 1.03 0 22:26 24.07.2022
900 Clear 26 1014 54 10000 1.54 250 21:19 24.07.2022
901 Clear 27 1014 49 10000 3.09 240 20:47 24.07.2022
902 Clear 28 1014 47 10000 4.12 240 20:19 24.07.2022
903 Clear 29 1015 41 10000 5.14 240 18:38 24.07.2022
904 Clear 30 1016 41 10000 7.2 190 16:29 24.07.2022
905 Clear 29 1016 42 10000 6.17 220 15:45 24.07.2022
906 Clear 27 1017 44 10000 4.63 210 14:29 24.07.2022
907 Clear 25 1018 49 10000 5.14 170 12:54 24.07.2022
908 Clear 24 1019 54 10000 5.14 160 11:40 24.07.2022
909 Clear 23 1019 55 10000 4.63 170 11:40 24.07.2022
910 Clear 23 1019 56 10000 4.63 170 11:18 24.07.2022
911 Clear 16 1019 76 10000 4.12 150 08:33 24.07.2022
912 Clear 14 1020 83 10000 3.09 150 07:52 24.07.2022
913 Clouds 10 1020 96 10000 1.54 70 05:49 24.07.2022
914 Clear 12 1020 91 10000 1.54 230 01:27 24.07.2022
915 Clouds 16 1020 72 10000 3.09 310 22:21 23.07.2022
916 Clouds 18 1019 63 10000 5.66 300 20:28 23.07.2022
917 Clouds 19 1019 62 10000 5.66 290 18:51 23.07.2022
918 Clouds 20 1019 57 10000 6.69 270 17:41 23.07.2022
919 Clouds 19 1019 59 10000 6.69 270 17:23 23.07.2022
920 Clouds 19 1018 61 10000 6.69 270 15:32 23.07.2022
921 Clouds 19 1018 62 10000 6.17 280 14:59 23.07.2022
922 Clouds 20 1018 61 10000 5.14 300 14:35 23.07.2022
923 Clouds 19 1018 66 10000 6.17 290 13:39 23.07.2022
924 Clouds 17 1018 71 10000 4.63 270 11:18 23.07.2022
925 Clouds 17 1017 75 10000 4.06 283 10:23 23.07.2022
926 Clouds 15 1017 82 10000 3.09 250 08:55 23.07.2022
927 Clouds 15 1017 82 10000 3.09 260 04:59 23.07.2022
928 Clouds 15 1018 79 10000 3.09 230 02:30 23.07.2022
929 Clouds 16 1018 76 10000 3.09 290 23:57 22.07.2022
930 Clouds 17 1018 68 10000 4.63 300 21:18 22.07.2022
931 Clouds 18 1018 67 10000 4.12 290 19:55 22.07.2022
932 Clouds 19 1018 66 10000 4.24 281 18:41 22.07.2022
933 Clouds 19 1019 59 10000 6.17 270 17:38 22.07.2022
934 Clouds 19 1019 64 10000 5.66 260 15:30 22.07.2022
935 Clouds 18 1019 72 10000 5.14 270 12:33 22.07.2022
936 Clouds 17 1018 86 10000 5.14 260 09:52 22.07.2022
937 Clouds 16 1018 90 10000 5.14 260 09:20 22.07.2022
938 Clouds 15 1017 95 10000 4.12 270 07:30 22.07.2022
939 Clouds 16 1017 95 10000 5.14 300 04:19 22.07.2022
940 Clouds 18 1016 94 10000 2.06 240 23:29 21.07.2022
941 Clouds 19 1016 89 10000 3.09 220 21:39 21.07.2022
942 Clouds 20 1016 90 10000 2.57 240 19:41 21.07.2022
943 Rain 21 1016 77 10000 7.2 210 18:30 21.07.2022
944 Rain 23 1015 71 10000 5.66 230 17:21 21.07.2022
945 Clouds 24 1016 67 10000 5.66 270 15:58 21.07.2022
946 Clouds 24 1016 68 10000 5.66 210 14:46 21.07.2022
947 Clouds 23 1017 69 10000 5.14 220 13:53 21.07.2022
948 Clouds 21 1017 89 10000 4.63 230 11:54 21.07.2022
949 Rain 19 1015 92 10000 3.09 260 09:54 21.07.2022
950 Rain 20 1016 87 10000 3.09 240 08:53 21.07.2022
951 Rain 19 1016 87 10000 3.09 240 08:53 21.07.2022
952 Rain 19 1015 83 10000 4.63 330 07:50 21.07.2022
953 Clear 18 1015 89 10000 4.12 260 06:27 21.07.2022
954 Clear 19 1015 78 10000 3.09 280 02:49 21.07.2022
955 Clear 22 1016 69 10000 4.12 310 22:49 20.07.2022
956 Clear 23 1015 68 10000 4.12 290 22:19 20.07.2022
957 Clear 25 1015 57 10000 6.17 290 20:46 20.07.2022
958 Clear 28 1015 47 10000 6.69 310 19:47 20.07.2022
959 Clear 29 1015 43 10000 7.2 300 18:54 20.07.2022
960 Clear 30 1015 43 10000 7.72 300 18:31 20.07.2022
961 Clear 30 1015 44 10000 7.72 300 18:31 20.07.2022
962 Clear 34 1014 44 10000 8.23 290 17:33 20.07.2022
963 Clear 39 1014 20 10000 5.14 150 15:38 20.07.2022
964 Clear 39 1015 21 10000 4.63 150 14:49 20.07.2022
965 Clear 37 1015 24 10000 3.09 130 13:44 20.07.2022
966 Clear 33 1016 32 10000 3.6 140 11:29 20.07.2022
967 Clear 23 1016 52 10000 3.6 90 07:36 20.07.2022
968 Clear 21 1017 54 10000 3.6 100 01:58 20.07.2022
969 Clear 22 1017 50 10000 3.09 100 00:43 20.07.2022
970 Clear 25 1017 38 10000 4.63 70 22:41 19.07.2022
971 Clear 27 1017 37 10000 4.12 70 22:21 19.07.2022
972 Clear 32 1016 21 10000 3.6 90 20:51 19.07.2022
973 Clear 32 1016 26 10000 4.12 80 20:18 19.07.2022
974 Clear 34 1017 23 10000 3.09 90 18:43 19.07.2022
975 Clear 34 1017 23 10000 2.06 110 17:56 19.07.2022
976 Clear 34 1018 24 10000 4.12 40 16:26 19.07.2022
977 Clear 33 1019 27 10000 2.57 0 14:31 19.07.2022
978 Clear 29 1019 36 10000 3.09 160 11:35 19.07.2022
979 Clear 27 1020 46 10000 2.06 120 10:31 19.07.2022
980 Clear 23 1020 63 10000 1.54 110 08:48 19.07.2022
981 Clear 21 1020 71 10000 1.54 50 08:22 19.07.2022
982 Clear 16 1020 87 10000 1.54 70 07:18 19.07.2022
983 Clear 13 1020 90 10000 2.06 60 05:26 19.07.2022
984 Clear 14 1020 96 10000 1.54 60 04:48 19.07.2022
985 Clear 18 1020 81 10000 1.03 50 00:35 19.07.2022
986 Clear 19 1020 73 10000 1.54 50 23:31 18.07.2022
987 Clear 20 1020 72 10000 1.54 320 22:58 18.07.2022
988 Clear 22 1020 65 10000 1.54 320 21:58 18.07.2022
989 Clear 24 1020 57 10000 1.54 340 20:51 18.07.2022
990 Clear 28 1020 36 10000 2.57 280 19:26 18.07.2022
991 Clear 29 1021 37 10000 3.6 260 17:24 18.07.2022
992 Clear 28 1021 40 10000 4.63 220 15:52 18.07.2022
993 Clouds 27 1022 44 10000 2.96 231 14:34 18.07.2022
994 Clear 25 1023 46 10000 3.6 190 12:58 18.07.2022
995 Clear 24 1023 48 10000 2.57 200 11:31 18.07.2022
996 Clear 18 1024 70 10000 2.06 150 08:57 18.07.2022
997 Clear 15 1024 81 10000 3.09 170 07:43 18.07.2022
998 Clear 14 1025 88 10000 0.51 0 01:44 18.07.2022
999 Clear 17 1025 67 10000 1.03 0 22:46 17.07.2022
1000 Clear 18 1026 64 10000 2.06 290 22:23 17.07.2022
1001 Clear 19 1025 63 10000 3.09 350 21:24 17.07.2022
1002 Clear 20 1025 60 10000 4.12 300 20:44 17.07.2022
1003 Clear 20 1026 56 10000 4.63 310 19:49 17.07.2022
1004 Clear 21 1026 57 10000 5.66 320 19:19 17.07.2022
1005 Clouds 22 1026 52 10000 4.63 310 17:39 17.07.2022
1006 Clear 23 1026 51 10000 4.63 300 16:51 17.07.2022
1007 Clear 22 1026 51 10000 5.14 270 16:27 17.07.2022
1008 Clouds 22 1027 50 10000 5.14 270 15:34 17.07.2022
1009 Clouds 21 1027 54 10000 5.14 290 13:47 17.07.2022
1010 Clouds 20 1027 58 10000 4.63 280 12:32 17.07.2022
1011 Clouds 15 1026 76 10000 3.09 270 09:31 17.07.2022
1012 Clouds 12 1026 87 10000 2.57 250 06:58 17.07.2022
1013 Clear 11 1025 87 10000 3.09 250 02:34 17.07.2022
1014 Clear 14 1025 76 10000 5.14 270 23:23 16.07.2022
1015 Clouds 16 1024 67 10000 6.69 300 21:59 16.07.2022
1016 Clouds 17 1024 61 10000 6.69 300 20:28 16.07.2022
1017 Clouds 18 1023 55 10000 8.23 280 18:43 16.07.2022
1018 Clouds 18 1023 55 10000 9.26 300 17:25 16.07.2022
1019 Clouds 19 1022 53 10000 9.26 300 15:50 16.07.2022
1020 Clouds 17 1020 56 10000 8.23 310 11:55 16.07.2022
1021 Clouds 16 1019 70 10000 6.69 310 10:18 16.07.2022
1022 Clouds 15 1018 79 10000 6.17 310 09:25 16.07.2022
1023 Clouds 14 1018 86 10000 5.14 310 08:40 16.07.2022
1024 Clear 14 1016 95 10000 4.63 310 06:57 16.07.2022
1025 Rain 14 1016 92 10000 4.63 240 03:32 16.07.2022
1026 Rain 15 1018 80 10000 4.12 230 00:23 16.07.2022
1027 Rain 15 1019 74 10000 2.57 230 22:54 15.07.2022
1028 Rain 16 1019 67 10000 2.57 260 21:55 15.07.2022
1029 Clear 17 1019 61 10000 4.12 290 20:40 15.07.2022
1030 Clouds 19 1019 57 10000 5.66 280 18:55 15.07.2022
1031 Clouds 19 1020 56 10000 5.66 280 18:23 15.07.2022
1032 Clouds 19 1020 56 10000 7.2 300 16:53 15.07.2022
1033 Clouds 19 1019 58 10000 7.2 300 14:19 15.07.2022
1034 Clouds 18 1020 56 10000 6.69 290 12:37 15.07.2022
1035 Clouds 15 1020 72 10000 6.17 290 10:52 15.07.2022
1036 Clouds 14 1019 82 10000 3.6 250 07:48 15.07.2022
1037 Clouds 13 1018 84 10000 5.14 280 04:54 15.07.2022
1038 Clouds 13 1018 81 10000 4.12 260 00:43 15.07.2022
1039 Clear 14 1018 75 10000 5.14 290 23:25 14.07.2022
1040 Clear 15 1018 70 10000 5.66 300 22:32 14.07.2022
1041 Clear 16 1018 65 10000 6.17 300 21:41 14.07.2022
1042 Clear 16 1018 66 10000 6.17 290 21:23 14.07.2022
1043 Clear 17 1017 64 10000 7.72 290 20:43 14.07.2022
1044 Clouds 17 1017 67 10000 7.2 300 20:19 14.07.2022
1045 Clouds 18 1017 62 10000 7.72 290 18:38 14.07.2022
1046 Clouds 19 1017 59 10000 8.23 280 16:21 14.07.2022
1047 Clouds 19 1018 56 10000 6.69 290 15:26 14.07.2022
1048 Clouds 20 1018 56 10000 6.17 290 13:52 14.07.2022
1049 Clouds 19 1018 56 10000 5.14 290 12:40 14.07.2022
1050 Clouds 19 1018 55 10000 4.63 280 11:41 14.07.2022
1051 Clouds 19 1018 58 10000 5.14 310 11:21 14.07.2022
1052 Clouds 17 1019 66 10000 4.12 290 09:49 14.07.2022
1053 Clear 11 1019 94 10000 2.57 230 05:20 14.07.2022
1054 Clear 14 1019 82 10000 3.6 310 01:22 14.07.2022
1055 Clear 14 1019 81 10000 3.6 310 00:52 14.07.2022
1056 Clear 17 1019 77 10000 5.14 290 22:32 13.07.2022
1057 Clear 18 1018 73 10000 5.14 290 21:54 13.07.2022
1058 Clear 20 1018 67 10000 6.17 300 20:45 13.07.2022
1059 Clear 22 1017 63 10000 7.72 310 19:21 13.07.2022
1060 Clear 24 1017 59 10000 8.23 290 17:42 13.07.2022
1061 Clear 26 1017 50 10000 8.23 290 16:29 13.07.2022
1062 Clouds 27 1016 49 10000 7.72 300 15:24 13.07.2022
1063 Clear 26 1016 56 10000 5.66 250 12:55 13.07.2022
1064 Clear 22 1017 71 10000 3.6 260 10:45 13.07.2022
1065 Clear 22 1017 72 10000 3.09 240 10:24 13.07.2022
1066 Rain 21 1017 70 10000 3.09 230 09:24 13.07.2022
1067 Clear 19 1018 78 10000 3.09 220 06:20 13.07.2022
1068 Clear 18 1021 79 10000 2.06 230 02:21 13.07.2022
1069 Clear 18 1022 81 10000 1.54 220 23:51 12.07.2022
1070 Clear 20 1022 74 10000 2.06 290 21:58 12.07.2022
1071 Clear 22 1022 66 10000 3.09 310 21:32 12.07.2022
1072 Clear 23 1022 64 10000 2.06 300 20:41 12.07.2022
1073 Clear 24 1022 59 10000 3.09 290 19:36 12.07.2022
1074 Clear 25 1023 59 10000 4.63 300 17:54 12.07.2022
1075 Clear 25 1023 60 10000 4.63 310 16:20 12.07.2022
1076 Clear 25 1023 60 10000 4.63 310 16:20 12.07.2022
1077 Clear 25 1023 60 10000 4.63 310 16:20 12.07.2022
1078 Clear 24 1024 62 10000 4.12 300 14:31 12.07.2022
1079 Clear 22 1024 65 10000 3.6 290 13:20 12.07.2022
1080 Clouds 19 1024 70 10000 3.6 270 11:42 12.07.2022
1081 Clouds 18 1024 79 10000 3.09 280 10:18 12.07.2022
1082 Clouds 15 1024 92 10000 2.06 260 08:26 12.07.2022
1083 Clouds 14 1024 96 10000 1.54 230 07:38 12.07.2022
1084 Clear 11 1024 96 10000 2.06 240 05:44 12.07.2022
1085 Clear 12 1023 96 10000 2.06 240 03:50 12.07.2022
1086 Clear 15 1023 88 10000 3.09 280 23:50 11.07.2022
1087 Clear 16 1023 85 10000 4.63 290 22:37 11.07.2022
1088 Clouds 19 1022 72 10000 5.14 300 20:54 11.07.2022
1089 Clouds 20 1022 70 10000 6.17 290 20:29 11.07.2022
1090 Clouds 22 1022 60 10000 5.66 290 18:48 11.07.2022
1091 Clouds 23 1021 57 10000 6.69 270 18:23 11.07.2022
1092 Clouds 23 1022 56 10000 5.14 290 16:26 11.07.2022
1093 Clouds 21 1022 59 10000 4.63 290 14:58 11.07.2022
1094 Clouds 20 1022 66 10000 4.12 290 12:42 11.07.2022
1095 Clouds 18 1022 67 10000 4.63 310 11:23 11.07.2022
1096 Clouds 17 1022 73 10000 3.09 310 09:55 11.07.2022
1097 Clear 16 1022 75 10000 2.57 310 09:25 11.07.2022
1098 Clear 15 1021 82 10000 1.54 350 08:30 11.07.2022
1099 Clear 12 1021 87 10000 2.57 240 00:59 11.07.2022
1100 Clear 13 1021 80 10000 2.57 300 23:54 10.07.2022
1101 Clear 14 1021 73 10000 3.6 310 22:45 10.07.2022
1102 Clear 17 1021 60 10000 6.17 300 20:55 10.07.2022
1103 Clear 17 1021 59 10000 6.17 300 20:36 10.07.2022
1104 Clouds 18 1021 57 10000 7.2 300 19:29 10.07.2022
1105 Clouds 18 1021 57 10000 7.2 300 18:25 10.07.2022
1106 Clouds 19 1021 56 10000 8.23 300 17:33 10.07.2022
1107 Clouds 18 1021 55 10000 9.26 320 16:21 10.07.2022
1108 Clouds 19 1021 52 10000 9.26 290 14:47 10.07.2022
1109 Clouds 18 1020 54 10000 8.23 310 13:31 10.07.2022
1110 Clouds 18 1020 55 10000 9.26 290 11:57 10.07.2022
1111 Clouds 16 1021 62 10000 7.72 310 09:46 10.07.2022
1112 Clouds 15 1021 71 10000 6.17 310 08:44 10.07.2022
1113 Clear 14 1020 80 10000 5.66 310 07:24 10.07.2022
1114 Clouds 14 1022 75 10000 7.2 310 23:58 09.07.2022
1115 Clouds 15 1022 74 10000 5.14 300 22:27 09.07.2022
1116 Clouds 15 1022 70 10000 7.72 310 21:49 09.07.2022
1117 Clouds 16 1022 67 10000 7.72 300 20:23 09.07.2022
1118 Clouds 18 1022 62 10000 8.75 310 18:32 09.07.2022
1119 Clouds 19 1022 59 10000 7.72 300 17:33 09.07.2022
1120 Clouds 19 1022 61 10000 9.26 290 16:44 09.07.2022
1121 Clouds 21 1022 60 10000 8.75 290 15:40 09.07.2022
1122 Clouds 21 1022 67 10000 8.23 290 14:27 09.07.2022
1123 Clouds 21 1022 66 10000 8.75 290 13:49 09.07.2022
1124 Clouds 20 1022 69 10000 7.72 270 12:45 09.07.2022
1125 Clouds 20 1023 78 10000 6.17 270 11:22 09.07.2022
1126 Clouds 18 1023 85 10000 5.66 270 10:22 09.07.2022
1127 Clouds 15 1023 94 10000 3.09 260 07:45 09.07.2022
1128 Clouds 14 1024 91 10000 3.09 260 04:59 09.07.2022
1129 Clouds 14 1026 88 10000 3.6 260 02:34 09.07.2022
1130 Clouds 15 1026 80 10000 3.09 290 22:54 08.07.2022
1131 Clouds 16 1026 77 10000 5.66 290 21:59 08.07.2022
1132 Clouds 17 1026 71 10000 6.69 300 20:42 08.07.2022
1133 Clouds 18 1026 71 10000 6.69 310 20:23 08.07.2022
1134 Clouds 20 1026 68 10000 8.23 290 18:26 08.07.2022
1135 Clouds 21 1026 66 10000 8.75 280 17:21 08.07.2022
1136 Clouds 19 1027 80 10000 7.72 290 14:54 08.07.2022
1137 Clouds 18 1027 88 10000 6.69 280 13:45 08.07.2022
1138 Mist 16 1027 92 3100 4.63 280 11:59 08.07.2022
1139 Drizzle 16 1027 85 10000 7.2 280 10:37 08.07.2022
1140 Clouds 16 1026 74 10000 8.23 300 08:44 08.07.2022
1141 Clouds 14 1026 81 10000 3.6 290 06:50 08.07.2022
1142 Clouds 14 1025 81 10000 6.17 290 02:53 08.07.2022
1143 Clouds 15 1023 81 10000 6.17 290 23:41 07.07.2022
1144 Clouds 16 1022 81 10000 6.17 300 22:40 07.07.2022
1145 Clouds 17 1020 75 10000 7.2 300 20:56 07.07.2022
1146 Clouds 18 1019 66 10000 8.23 300 18:42 07.07.2022
1147 Clouds 18 1019 65 10000 9.77 310 17:41 07.07.2022
1148 Clouds 18 1017 73 10000 9.77 300 15:22 07.07.2022
1149 Clouds 19 1016 75 10000 7.72 310 13:26 07.07.2022
1150 Clouds 18 1015 83 10000 6.69 300 12:40 07.07.2022
1151 Clouds 18 1015 85 10000 6.69 300 12:20 07.07.2022
1152 Clouds 17 1014 91 10000 5.14 310 11:31 07.07.2022
1153 Clouds 17 1014 95 10000 5.14 340 10:44 07.07.2022
1154 Mist 16 1014 96 4400 5.66 290 10:25 07.07.2022
1155 Rain 15 1013 98 5000 3.09 240 07:40 07.07.2022
1156 Drizzle 15 1014 96 4300 4.63 230 04:44 07.07.2022
1157 Clouds 14 1017 88 10000 4.74 235 23:37 06.07.2022
1158 Clouds 14 1019 89 10000 4.12 230 23:19 06.07.2022
1159 Rain 14 1019 89 10000 4.12 230 22:57 06.07.2022
1160 Drizzle 15 1019 81 10000 7.2 270 22:39 06.07.2022
1161 Rain 17 1019 69 10000 5.66 270 21:46 06.07.2022
1162 Clouds 19 1020 58 10000 5.14 280 19:41 06.07.2022
1163 Clear 19 1021 55 10000 5.14 300 18:32 06.07.2022
1164 Clouds 20 1021 53 10000 6.69 290 16:43 06.07.2022
1165 Clouds 19 1022 56 10000 6.17 280 15:28 06.07.2022
1166 Rain 17 1022 80 10000 2.57 250 12:44 06.07.2022
1167 Clouds 16 1023 79 10000 4.12 290 11:49 06.07.2022
1168 Clouds 15 1022 78 10000 4.63 270 10:22 06.07.2022
1169 Clouds 14 1022 84 10000 4.63 260 08:41 06.07.2022
1170 Clouds 14 1021 87 10000 4.63 250 07:39 06.07.2022
1171 Clear 13 1021 90 10000 3.09 260 05:37 06.07.2022
1172 Clear 15 1021 76 10000 4.12 270 22:49 05.07.2022
1173 Clear 15 1021 75 10000 4.12 280 22:27 05.07.2022
1174 Clear 18 1021 61 10000 5.14 300 20:42 05.07.2022
1175 Clouds 19 1021 62 10000 6.17 300 19:44 05.07.2022
1176 Clouds 19 1021 62 10000 6.17 300 19:26 05.07.2022
1177 Clouds 20 1021 60 10000 4.63 290 17:48 05.07.2022
1178 Clear 19 1021 59 10000 6.69 310 16:57 05.07.2022
1179 Clear 20 1020 52 10000 5.66 280 15:38 05.07.2022
1180 Clear 21 1020 48 10000 6.17 270 14:39 05.07.2022
1181 Clouds 20 1021 50 10000 6.69 240 12:52 05.07.2022
1182 Clear 19 1021 53 10000 5.14 270 12:19 05.07.2022
1183 Clouds 19 1020 56 10000 5.66 250 10:44 05.07.2022
1184 Clear 17 1020 70 10000 5.66 260 09:28 05.07.2022
1185 Clear 15 1020 81 10000 3.6 240 08:19 05.07.2022
1186 Clear 12 1019 89 10000 2.06 220 06:22 05.07.2022
1187 Clear 12 1019 90 10000 2.57 240 04:28 05.07.2022
1188 Clear 13 1019 87 10000 2.06 230 00:43 05.07.2022
1189 Clear 15 1019 74 10000 3.09 240 23:36 04.07.2022
1190 Clear 15 1019 75 10000 1.54 260 22:54 04.07.2022
1191 Clouds 16 1019 69 10000 4.63 310 21:53 04.07.2022
1192 Clear 18 1018 65 10000 6.17 300 20:54 04.07.2022
1193 Clouds 19 1018 65 10000 6.69 310 20:35 04.07.2022
1194 Clouds 20 1018 62 10000 7.2 310 19:55 04.07.2022
1195 Clouds 20 1018 62 10000 7.2 310 19:36 04.07.2022
1196 Clouds 21 1017 61 10000 6.69 310 18:34 04.07.2022
1197 Clouds 22 1017 55 10000 5.66 250 16:36 04.07.2022
1198 Clear 22 1017 54 10000 6.17 240 15:34 04.07.2022
1199 Clouds 22 1018 56 10000 5.14 260 13:35 04.07.2022
1200 Clouds 21 1018 58 10000 5.14 250 12:38 04.07.2022
1201 Clouds 18 1018 70 10000 4.63 260 10:39 04.07.2022
1202 Clouds 18 1018 72 10000 4.63 260 10:18 04.07.2022
1203 Clear 16 1018 84 10000 4.63 250 08:31 04.07.2022
1204 Clouds 13 1017 97 9000 2.57 250 05:36 04.07.2022
1205 Clear 15 1017 90 10000 3.09 250 00:43 04.07.2022
1206 Clear 16 1017 89 10000 3.09 290 23:27 03.07.2022
1207 Clouds 17 1017 88 10000 2.06 340 22:23 03.07.2022
1208 Clear 20 1016 73 10000 2.06 340 20:42 03.07.2022
1209 Clear 21 1016 67 10000 5.14 310 19:42 03.07.2022
1210 Clear 21 1015 68 10000 4.63 310 19:23 03.07.2022
1211 Clear 24 1015 45 10000 4.12 250 17:45 03.07.2022
1212 Clear 26 1015 38 10000 3.09 310 17:18 03.07.2022
1213 Clear 26 1016 40 10000 4.12 320 15:26 03.07.2022
1214 Clear 26 1016 46 10000 4.12 300 14:37 03.07.2022
1215 Clear 26 1016 44 10000 4.63 280 13:49 03.07.2022
1216 Clear 26 1016 48 10000 2.57 330 12:42 03.07.2022
1217 Clear 23 1016 55 10000 3.6 310 11:46 03.07.2022
1218 Clear 23 1016 53 10000 3.6 270 10:40 03.07.2022
1219 Clear 23 1016 54 10000 2.57 310 10:20 03.07.2022
1220 Clear 19 1016 63 10000 3.09 170 07:38 03.07.2022
1221 Clear 18 1016 62 10000 2.57 140 05:34 03.07.2022
1222 Clear 18 1018 69 10000 3.6 60 00:26 03.07.2022
1223 Clear 20 1019 60 10000 3.6 40 22:37 02.07.2022
1224 Clear 20 1019 57 10000 2.57 40 22:18 02.07.2022
1225 Clear 24 1019 40 10000 2.57 150 20:21 02.07.2022
1226 Clear 24 1019 45 10000 2.06 320 19:49 02.07.2022
1227 Clear 25 1020 42 10000 3.6 250 18:20 02.07.2022
1228 Clear 25 1021 42 10000 5.66 230 17:37 02.07.2022
1229 Clear 24 1021 41 10000 4.63 210 15:46 02.07.2022
1230 Clear 22 1022 48 10000 5.14 240 12:56 02.07.2022
1231 Clouds 22 1022 53 10000 6.17 220 11:48 02.07.2022
1232 Clouds 20 1022 58 10000 5.14 230 10:50 02.07.2022
1233 Clear 19 1022 62 10000 4.63 230 09:49 02.07.2022
1234 Clear 17 1022 75 10000 3.09 220 08:37 02.07.2022
1235 Clear 15 1022 81 10000 3.09 220 08:19 02.07.2022
1236 Mist 12 1020 97 10000 1.03 270 02:59 02.07.2022
1237 Clear 14 1020 93 10000 1.03 0 00:28 02.07.2022
1238 Clouds 15 1020 91 10000 1.54 90 23:21 01.07.2022
1239 Clouds 16 1019 85 10000 2.06 320 22:29 01.07.2022
1240 Clouds 16 1018 83 10000 1.03 0 21:38 01.07.2022
1241 Clouds 18 1018 76 10000 5.14 310 20:58 01.07.2022
1242 Clouds 18 1018 71 10000 3.6 240 20:32 01.07.2022
1243 Clouds 18 1017 70 10000 4.12 250 19:36 01.07.2022
1244 Clouds 18 1017 67 10000 4.12 270 17:18 01.07.2022
1245 Rain 17 1016 89 10000 4.63 250 14:34 01.07.2022
1246 Rain 16 1016 92 10000 5.14 250 13:51 01.07.2022
1247 Rain 16 1015 94 10000 5.14 270 11:22 01.07.2022
1248 Clouds 16 1014 96 10000 5.14 260 10:19 01.07.2022
1249 Rain 17 1013 95 10000 6.17 250 07:38 01.07.2022
1250 Thunderstorm 20 1011 83 10000 6.17 230 02:43 01.07.2022
1251 Clear 20 1010 83 10000 3.6 70 00:21 01.07.2022
1252 Clear 22 1010 74 10000 3.6 60 22:52 30.06.2022
1253 Clear 22 1010 72 10000 4.63 60 22:32 30.06.2022
1254 Clear 22 1010 72 10000 4.63 60 22:32 30.06.2022
1255 Clear 22 1010 74 10000 5.14 50 21:54 30.06.2022
1256 Clear 25 1010 58 10000 5.14 60 20:53 30.06.2022
1257 Clear 25 1010 58 10000 5.66 50 20:22 30.06.2022
1258 Clear 26 1010 54 10000 5.66 60 19:51 30.06.2022
1259 Clear 27 1010 48 10000 4.63 40 19:18 30.06.2022
1260 Clear 28 1011 47 10000 5.66 60 18:34 30.06.2022
1261 Clear 28 1011 47 10000 4.12 50 17:37 30.06.2022
1262 Clear 29 1011 46 10000 4.12 70 16:28 30.06.2022
1263 Clouds 28 1012 47 10000 3.6 60 14:31 30.06.2022
1264 Clear 28 1012 49 10000 2.57 120 13:30 30.06.2022
1265 Clear 26 1012 51 10000 4.12 110 12:34 30.06.2022
1266 Clouds 25 1013 55 10000 4.12 90 11:28 30.06.2022
1267 Clear 22 1013 66 10000 2.57 110 09:53 30.06.2022
1268 Clear 21 1014 69 10000 4.12 80 09:32 30.06.2022
1269 Clear 18 1014 77 10000 3.09 70 07:41 30.06.2022
1270 Clear 15 1014 84 10000 2.57 60 05:57 30.06.2022
1271 Clear 19 1015 61 10000 4.12 100 00:32 30.06.2022
1272 Clear 20 1015 59 10000 3.6 80 23:21 29.06.2022
1273 Clear 21 1015 51 10000 4.12 80 22:39 29.06.2022
1274 Clear 23 1014 48 10000 5.14 80 21:37 29.06.2022
1275 Clear 25 1014 47 10000 6.17 80 20:34 29.06.2022
1276 Clear 26 1014 39 10000 5.66 90 19:37 29.06.2022
1277 Clear 27 1014 41 10000 4.63 130 17:45 29.06.2022
1278 Clear 28 1015 40 10000 4.63 130 16:41 29.06.2022
1279 Clear 27 1016 41 10000 4.63 110 15:19 29.06.2022
1280 Clouds 26 1017 51 10000 6.17 130 12:40 29.06.2022
1281 Clear 24 1017 56 10000 6.69 140 11:32 29.06.2022
1282 Clear 21 1018 63 10000 7.2 120 09:33 29.06.2022
1283 Clear 19 1018 64 10000 5.14 110 08:26 29.06.2022
1284 Clear 14 1019 85 10000 2.06 70 04:57 29.06.2022
1285 Clear 15 1020 85 10000 2.57 60 01:48 29.06.2022
1286 Clear 17 1020 76 10000 3.6 60 00:37 29.06.2022
1287 Clear 17 1020 72 10000 2.06 20 22:56 28.06.2022
1288 Clear 18 1020 70 10000 1.54 40 22:34 28.06.2022
1289 Clear 20 1020 61 10000 2.06 40 21:55 28.06.2022
1290 Clear 21 1020 51 10000 2.06 50 21:33 28.06.2022
1291 Clear 23 1019 48 10000 2.06 30 20:51 28.06.2022
1292 Clear 23 1019 47 10000 1.54 0 19:43 28.06.2022
1293 Clear 23 1019 45 10000 2.57 310 19:23 28.06.2022
1294 Clear 24 1020 44 10000 2.06 200 17:44 28.06.2022
1295 Clear 24 1021 45 10000 2.57 260 16:29 28.06.2022
1296 Clear 24 1021 46 10000 4.12 210 15:53 28.06.2022
1297 Clouds 22 1021 52 10000 3.09 290 14:21 28.06.2022
1298 Clouds 23 1021 51 10000 3.6 280 13:55 28.06.2022
1299 Clouds 22 1032 55 10000 4.12 220 13:26 28.06.2022
1300 Clouds 20 1032 63 10000 4.12 220 11:37 28.06.2022
1301 Clouds 18 1021 84 10000 4.12 270 09:46 28.06.2022
1302 Clouds 17 1020 90 10000 4.12 260 08:46 28.06.2022
1303 Clouds 16 1021 97 10000 2.57 250 07:58 28.06.2022
1304 Clouds 15 1021 97 10000 2.06 230 07:19 28.06.2022
1305 Clouds 15 1018 96 10000 5.14 270 01:36 28.06.2022
1306 Clouds 16 1018 96 10000 2.06 290 23:47 27.06.2022
1307 Clouds 16 1018 96 10000 3.09 280 22:55 27.06.2022
1308 Clouds 17 1017 94 10000 3.09 310 21:38 27.06.2022
1309 Clouds 17 1016 94 10000 5.66 310 20:55 27.06.2022
1310 Rain 18 1027 89 5000 4.12 320 19:48 27.06.2022
1311 Rain 19 1026 86 10000 4.63 290 18:40 27.06.2022
1312 Clouds 20 1025 84 10000 5.14 270 17:24 27.06.2022
1313 Clouds 20 1025 85 10000 3.09 290 15:43 27.06.2022
1314 Clouds 20 1014 97 10000 2.57 260 13:51 27.06.2022
1315 Clouds 20 1014 97 10000 3.09 300 12:57 27.06.2022
1316 Clouds 18 1025 88 10000 4.12 320 10:51 27.06.2022
1317 Clouds 18 1013 95 10000 3.09 280 09:45 27.06.2022
1318 Clouds 17 1013 95 10000 3.09 40 08:40 27.06.2022
1319 Rain 16 1014 95 10000 2.57 360 07:39 27.06.2022
1320 Rain 17 1014 87 10000 6.69 320 05:19 27.06.2022
1321 Clear 20 1015 69 10000 4.12 30 01:22 27.06.2022
1322 Clear 21 1016 73 10000 3.6 10 22:58 26.06.2022
1323 Clouds 23 1015 62 10000 3.6 330 21:37 26.06.2022
1324 Clear 23 1015 63 10000 3.6 360 20:28 26.06.2022
1325 Clouds 25 1015 62 10000 4.63 340 18:33 26.06.2022
1326 Clouds 25 1026 61 10000 6.17 320 17:40 26.06.2022
1327 Clouds 26 1026 57 10000 6.17 310 15:36 26.06.2022
1328 Clouds 27 1025 58 10000 5.14 300 14:23 26.06.2022
1329 Clear 27 1025 55 10000 5.66 290 13:24 26.06.2022
1330 Clear 27 1024 53 10000 4.63 240 11:41 26.06.2022
1331 Clear 27 1024 51 10000 4.63 210 10:42 26.06.2022
1332 Haze 26 1024 54 5000 4.12 220 10:19 26.06.2022
1333 Clear 22 1012 74 10000 2.57 110 08:27 26.06.2022
1334 Clear 18 1012 93 10000 2.06 70 06:19 26.06.2022
1335 Clear 19 1012 86 10000 2.57 70 00:37 26.06.2022
1336 Clear 20 1012 85 10000 1.03 50 00:19 26.06.2022
1337 Clear 20 1012 82 10000 1.03 0 23:31 25.06.2022
1338 Clear 21 1012 78 10000 2.06 70 22:48 25.06.2022
1339 Clear 22 1012 73 10000 3.09 90 22:25 25.06.2022
1340 Clear 24 1012 61 10000 4.63 80 21:21 25.06.2022
1341 Clear 25 1012 52 10000 4.63 80 20:48 25.06.2022
1342 Clear 26 1011 54 10000 2.57 50 20:25 25.06.2022
1343 Clear 26 1011 54 10000 2.57 50 20:25 25.06.2022
1344 Clear 28 1011 38 10000 2.57 310 18:24 25.06.2022
1345 Clear 28 1011 41 10000 3.6 250 17:27 25.06.2022
1346 Clear 28 1011 44 10000 4.12 300 16:28 25.06.2022
1347 Clear 27 1011 46 10000 3.09 240 14:41 25.06.2022
1348 Clouds 26 1023 56 10000 3.09 180 12:51 25.06.2022
1349 Clouds 26 1023 58 10000 2.57 0 12:31 25.06.2022
1350 Clear 22 1022 78 10000 2.57 250 09:35 25.06.2022
1351 Clear 20 1022 84 10000 1.54 230 08:55 25.06.2022
1352 Mist 18 1011 93 7000 2.06 250 08:20 25.06.2022
1353 Fog 17 1010 97 1900 1.54 310 06:36 25.06.2022
1354 Mist 18 1008 95 5000 2.06 240 01:31 25.06.2022
1355 Clouds 19 1007 94 10000 3.09 310 23:58 24.06.2022
1356 Clouds 20 1007 88 10000 2.57 330 22:29 24.06.2022
1357 Rain 21 1007 86 10000 4.63 260 21:28 24.06.2022
1358 Rain 23 1006 75 10000 1.54 290 20:24 24.06.2022
1359 Clouds 24 1006 67 10000 2.06 40 19:39 24.06.2022
1360 Clouds 24 1006 67 10000 2.06 40 19:18 24.06.2022
1361 Clouds 24 1006 65 10000 1.54 230 18:44 24.06.2022
1362 Clouds 23 1006 71 10000 3.6 240 18:24 24.06.2022
1363 Clear 26 1006 63 10000 5.14 200 16:47 24.06.2022
1364 Rain 29 1021 49 10000 7.2 170 14:57 24.06.2022
1365 Rain 31 1015 41 10000 7.72 140 14:24 24.06.2022
1366 Clear 31 1016 41 10000 6.17 140 13:46 24.06.2022
1367 Clear 28 1016 46 10000 4.63 120 11:42 24.06.2022
1368 Clear 25 1017 50 10000 4.12 150 10:39 24.06.2022
1369 Clear 24 1018 53 10000 4.63 140 09:42 24.06.2022
1370 Clear 24 1018 53 10000 4.63 140 09:42 24.06.2022
1371 Clear 22 1018 58 10000 5.66 120 08:54 24.06.2022
1372 Clear 21 1007 64 10000 6.17 120 08:19 24.06.2022
1373 Clear 19 1008 68 10000 5.14 100 06:44 24.06.2022
1374 Clear 19 1008 66 10000 5.14 90 06:25 24.06.2022
1375 Clear 18 1009 68 10000 3.6 90 04:50 24.06.2022
1376 Clear 18 1009 68 10000 3.6 90 04:50 24.06.2022
1377 Clear 19 1011 83 10000 3.6 70 23:43 23.06.2022
1378 Clear 19 1011 83 10000 3.6 70 23:43 23.06.2022
1379 Clear 21 1011 75 10000 4.63 70 22:43 23.06.2022
1380 Clear 23 1011 57 10000 5.66 60 21:22 23.06.2022
1381 Clear 27 1011 44 10000 5.66 60 20:37 23.06.2022
1382 Clear 28 1011 37 10000 6.69 60 19:55 23.06.2022
1383 Clear 29 1012 32 10000 3.6 90 18:38 23.06.2022
1384 Clear 30 1012 32 10000 5.14 70 17:34 23.06.2022
1385 Clear 30 1013 34 10000 3.09 140 16:32 23.06.2022
1386 Clear 29 1024 37 10000 3.09 90 15:26 23.06.2022
1387 Clear 28 1025 40 10000 3.6 140 14:36 23.06.2022
1388 Clear 24 1026 54 10000 3.09 90 11:42 23.06.2022
1389 Haze 22 1026 60 10000 2.57 160 10:42 23.06.2022
1390 Clear 19 1026 69 10000 3.6 140 09:19 23.06.2022
1391 Clear 12 1015 95 10000 1.54 70 05:37 23.06.2022
1392 Clear 15 1014 83 10000 3.09 20 00:28 23.06.2022
1393 Clear 16 1014 84 10000 2.57 20 23:59 22.06.2022
1394 Clear 16 1014 83 10000 2.57 30 23:18 22.06.2022
1395 Clear 19 1013 68 10000 4.12 330 21:44 22.06.2022
1396 Clouds 20 1013 64 10000 4.63 330 20:52 22.06.2022
1397 Clouds 22 1013 59 10000 4.12 310 20:20 22.06.2022
1398 Clouds 22 1013 56 10000 4.63 310 19:43 22.06.2022
1399 Clouds 24 1013 50 10000 3.6 350 17:40 22.06.2022
1400 Clouds 24 1013 48 10000 4.12 280 16:43 22.06.2022
1401 Clouds 24 1024 47 10000 3.6 280 15:29 22.06.2022
1402 Clouds 23 1024 49 10000 3.6 270 14:57 22.06.2022
1403 Clouds 22 1025 54 10000 3.6 270 13:49 22.06.2022
1404 Clear 22 1025 55 10000 3.6 310 13:24 22.06.2022
1405 Clouds 21 1025 60 10000 4.12 270 12:31 22.06.2022
1406 Clouds 20 1025 62 10000 3.6 290 11:45 22.06.2022
1407 Clear 18 1025 65 10000 2.06 0 10:50 22.06.2022
1408 Clouds 18 1025 70 10000 3.6 320 09:42 22.06.2022
1409 Clear 11 1014 91 10000 2.06 330 07:22 22.06.2022
1410 Clear 10 1014 89 10000 1.54 320 02:56 22.06.2022
1411 Clear 12 1014 85 10000 2.06 340 01:19 22.06.2022
1412 Clear 14 1014 73 10000 2.57 310 23:19 21.06.2022
1413 Clear 18 1013 61 10000 4.63 330 21:25 21.06.2022
1414 Clear 20 1013 60 10000 5.14 330 19:43 21.06.2022
1415 Clouds 22 1013 51 10000 4.12 310 17:57 21.06.2022
1416 Clouds 23 1014 51 10000 3.6 300 16:52 21.06.2022
1417 Clouds 20 1026 59 10000 4.63 280 12:36 21.06.2022
1418 Clouds 18 1026 67 10000 3.6 280 10:55 21.06.2022
1419 Clouds 16 1026 75 10000 4.63 320 09:40 21.06.2022
1420 Clear 14 1015 88 10000 3.09 310 08:22 21.06.2022
1421 Clouds 10 1014 96 10000 3.09 250 05:37 21.06.2022
1422 Clear 12 1014 92 10000 3.6 280 00:37 21.06.2022
1423 Clear 13 1013 85 10000 4.12 290 22:25 20.06.2022
1424 Clouds 14 1013 82 10000 8.23 290 21:50 20.06.2022
1425 Clouds 14 1013 77 10000 6.17 300 20:32 20.06.2022
1426 Clouds 15 1013 77 10000 8.23 290 20:32 20.06.2022
1427 Rain 14 1013 74 10000 7.2 300 19:38 20.06.2022
1428 Rain 15 1013 74 10000 8.75 290 18:44 20.06.2022
1429 Clouds 18 1023 59 10000 8.75 300 17:52 20.06.2022
1430 Clouds 18 1023 55 10000 7.2 280 17:29 20.06.2022
1431 Clouds 19 1023 54 10000 8.75 290 15:53 20.06.2022
1432 Clouds 18 1023 59 10000 7.2 300 12:44 20.06.2022
1433 Clouds 16 1023 66 10000 5.14 280 10:41 20.06.2022
1434 Clouds 15 1023 77 10000 4.63 300 09:30 20.06.2022
1435 Clouds 14 1012 80 10000 5.66 290 08:44 20.06.2022
1436 Clouds 11 1012 93 10000 2.06 230 05:55 20.06.2022
1437 Clouds 12 1013 86 10000 1.54 330 02:27 20.06.2022
1438 Clouds 13 1013 85 10000 3.09 310 00:26 20.06.2022
1439 Clouds 14 1013 85 9000 1.03 0 22:53 19.06.2022
1440 Clouds 14 1012 86 10000 3.09 360 21:58 19.06.2022
1441 Clouds 14 1012 86 10000 3.09 360 21:40 19.06.2022
1442 Clouds 14 1012 87 10000 2.06 20 20:39 19.06.2022
1443 Rain 15 1012 85 10000 3.6 330 19:48 19.06.2022
1444 Clouds 15 1012 81 10000 4.12 330 18:57 19.06.2022
1445 Clouds 15 1012 81 10000 4.12 320 18:30 19.06.2022
1446 Clouds 15 1012 87 10000 3.6 310 17:22 19.06.2022
1447 Rain 15 1011 87 10000 4.12 340 16:36 19.06.2022
1448 Clouds 15 1011 91 10000 3.6 320 15:43 19.06.2022
1449 Clouds 15 1010 89 10000 3.6 320 15:24 19.06.2022
1450 Rain 17 1021 74 10000 3.6 320 14:20 19.06.2022
1451 Rain 17 1011 75 10000 4.12 330 13:37 19.06.2022
1452 Clouds 18 1009 57 10000 3.09 340 11:52 19.06.2022
1453 Clouds 18 1009 56 10000 4.12 40 10:49 19.06.2022
1454 Clouds 15 1010 77 10000 6.69 20 08:54 19.06.2022
1455 Clouds 15 1010 77 10000 5.14 20 08:30 19.06.2022
1456 Clouds 14 1010 83 10000 6.17 20 06:41 19.06.2022
1457 Clear 14 1012 82 10000 3.6 10 03:19 19.06.2022
1458 Clear 15 1013 73 10000 3.09 330 00:27 19.06.2022
1459 Clear 15 1014 67 10000 2.57 340 23:37 18.06.2022
1460 Clear 16 1014 66 10000 2.06 320 23:19 18.06.2022
1461 Clear 18 1015 63 10000 4.12 310 21:54 18.06.2022
1462 Clear 20 1015 57 10000 5.14 310 20:50 18.06.2022
1463 Clear 20 1015 62 10000 4.63 320 20:18 18.06.2022
1464 Clear 22 1015 60 10000 5.14 300 18:55 18.06.2022
1465 Clear 22 1015 59 10000 5.66 280 18:30 18.06.2022
1466 Clear 24 1027 55 10000 5.66 310 17:29 18.06.2022
1467 Clouds 25 1027 55 10000 6.17 280 15:46 18.06.2022
1468 Clouds 25 1026 55 10000 6.17 300 14:50 18.06.2022
1469 Clear 25 1026 56 10000 6.17 290 13:58 18.06.2022
1470 Clear 25 1026 57 10000 6.69 290 12:28 18.06.2022
1471 Clear 25 1026 58 10000 5.14 270 11:20 18.06.2022
1472 Clear 23 1026 57 10000 4.63 270 09:39 18.06.2022
1473 Clear 22 1026 58 10000 4.12 250 08:46 18.06.2022
1474 Clear 20 1015 65 10000 3.6 230 07:34 18.06.2022
1475 Clear 17 1015 70 10000 3.09 150 05:20 18.06.2022
1476 Clear 18 1016 65 10000 3.6 160 02:51 18.06.2022
1477 Clear 18 1018 61 10000 4.12 160 01:21 18.06.2022
1478 Clear 19 1018 61 10000 3.6 160 00:32 18.06.2022
1479 Clear 19 1019 59 10000 3.6 170 23:40 17.06.2022
1480 Clear 20 1019 58 10000 4.12 160 22:33 17.06.2022
1481 Clear 22 1020 56 10000 3.6 180 20:29 17.06.2022
1482 Rain 23 1021 46 10000 2.57 220 19:24 17.06.2022
1483 Clear 23 1022 48 10000 2.06 240 18:19 17.06.2022
1484 Clear 23 1022 48 10000 2.06 260 16:51 17.06.2022
1485 Clear 23 1022 46 10000 2.57 270 16:25 17.06.2022
1486 Clear 23 1023 44 10000 3.09 260 15:41 17.06.2022
1487 Rain 23 1034 45 10000 3.09 260 14:37 17.06.2022
1488 Rain 23 1034 46 10000 3.09 260 14:18 17.06.2022
1489 Clear 23 1034 46 10000 3.6 240 13:39 17.06.2022
1490 Clear 22 1034 49 10000 3.6 270 12:42 17.06.2022
1491 Clear 22 1034 51 10000 3.6 230 11:56 17.06.2022
1492 Clear 21 1034 51 10000 3.09 250 11:34 17.06.2022
1493 Clear 19 1035 57 10000 4.12 260 09:49 17.06.2022
1494 Clear 16 1035 70 10000 3.6 240 08:27 17.06.2022
1495 Clear 11 1024 87 10000 1.54 250 06:51 17.06.2022
1496 Clear 10 1024 90 10000 2.06 220 04:49 17.06.2022
1497 Clear 12 1023 83 10000 1.54 220 01:57 17.06.2022
1498 Clear 14 1023 76 10000 1.03 0 00:26 17.06.2022
1499 Clear 16 1023 69 10000 3.6 310 22:43 16.06.2022
1500 Clear 17 1022 61 10000 3.09 300 21:23 16.06.2022
1501 Clear 18 1022 57 10000 5.14 310 20:58 16.06.2022
1502 Clear 18 1022 56 10000 5.66 310 20:36 16.06.2022
1503 Clear 19 1022 53 10000 6.69 300 19:53 16.06.2022
1504 Clear 21 1022 51 10000 7.2 290 18:27 16.06.2022
1505 Clear 21 1022 52 10000 7.2 300 17:43 16.06.2022
1506 Clouds 21 1033 50 10000 6.17 280 16:39 16.06.2022
1507 Clear 21 1033 48 10000 5.14 310 15:24 16.06.2022
1508 Clear 21 1032 49 10000 4.63 290 14:46 16.06.2022
1509 Clouds 21 1032 48 10000 4.63 310 13:34 16.06.2022
1510 Clouds 20 1032 52 10000 5.14 330 12:37 16.06.2022
1511 Clear 19 1032 53 10000 5.66 330 11:52 16.06.2022
1512 Clear 18 1032 57 10000 4.63 320 10:56 16.06.2022
1513 Clouds 17 1021 62 10000 4.63 320 10:32 16.06.2022
1514 Clear 16 1031 68 10000 3.6 360 09:22 16.06.2022
1515 Clear 14 1020 82 10000 3.6 330 08:36 16.06.2022
1516 Clouds 13 1020 86 10000 2.57 340 07:28 16.06.2022
1517 Clear 12 1019 85 10000 2.06 320 05:29 16.06.2022
1518 Clear 13 1019 81 10000 2.06 330 02:52 16.06.2022
1519 Clear 13 1019 77 10000 3.09 310 01:51 16.06.2022
1520 Clear 14 1019 76 10000 3.09 360 01:21 16.06.2022
1521 Clear 14 1019 76 10000 3.09 360 01:21 16.06.2022
1522 Clear 14 1019 72 10000 3.09 330 23:49 15.06.2022
1523 Clear 15 1019 63 10000 3.09 310 22:44 15.06.2022
1524 Clear 18 1018 56 10000 4.63 310 21:23 15.06.2022
1525 Clear 19 1018 54 10000 5.66 320 20:57 15.06.2022
1526 Clear 20 1018 52 10000 5.14 310 20:35 15.06.2022
1527 Clear 20 1018 52 10000 5.66 320 19:46 15.06.2022
1528 Clear 22 1019 47 10000 4.12 350 18:29 15.06.2022
1529 Clear 22 1019 46 10000 3.6 310 17:42 15.06.2022
1530 Clear 22 1019 45 10000 2.57 270 16:20 15.06.2022
1531 Clouds 22 1031 48 10000 3.09 310 14:33 15.06.2022
1532 Clouds 21 1031 50 10000 2.57 280 13:20 15.06.2022
1533 Clouds 20 1031 50 10000 3.6 320 12:39 15.06.2022
1534 Clouds 19 1032 55 10000 2.57 300 11:22 15.06.2022
1535 Clear 18 1032 59 10000 1.54 0 10:21 15.06.2022
1536 Clear 16 1021 71 10000 1.54 80 08:58 15.06.2022
1537 Clear 13 1020 87 10000 1.03 0 07:32 15.06.2022
1538 Clear 11 1020 90 10000 0.51 0 05:36 15.06.2022
1539 Clear 12 1021 88 10000 1.03 0 02:40 15.06.2022
1540 Clear 12 1021 83 10000 1.03 0 01:36 15.06.2022
1541 Clear 13 1021 80 10000 1.54 330 00:18 15.06.2022
1542 Clear 14 1021 76 10000 2.06 340 23:38 14.06.2022
1543 Clear 14 1021 72 10000 2.06 330 22:46 14.06.2022
1544 Clear 16 1021 62 10000 3.09 290 21:43 14.06.2022
1545 Clouds 17 1021 63 10000 2.06 320 20:58 14.06.2022
1546 Clear 17 1021 60 10000 4.12 290 20:38 14.06.2022
1547 Clouds 18 1021 59 10000 4.12 290 19:47 14.06.2022
1548 Clouds 18 1021 58 10000 3.6 320 18:39 14.06.2022
1549 Clouds 19 1033 54 10000 3.6 290 16:53 14.06.2022
1550 Clouds 19 1033 57 10000 4.63 300 16:34 14.06.2022
1551 Clouds 18 1033 56 10000 4.63 310 15:41 14.06.2022
1552 Clouds 18 1033 55 10000 4.63 320 14:53 14.06.2022
1553 Clouds 18 1033 55 10000 4.12 290 13:59 14.06.2022
1554 Clouds 18 1039 58 10000 4.63 290 13:24 14.06.2022
1555 Clouds 17 1034 59 10000 5.14 270 11:58 14.06.2022
1556 Clouds 16 1033 66 10000 4.63 290 10:55 14.06.2022
1557 Clouds 16 1033 65 10000 5.66 280 10:29 14.06.2022
1558 Clouds 14 1033 74 10000 4.12 270 09:22 14.06.2022
1559 Clouds 13 1022 81 10000 3.09 250 08:40 14.06.2022
1560 Clear 10 1022 89 10000 2.06 260 06:32 14.06.2022
1561 Clear 10 1021 88 10000 2.57 250 04:23 14.06.2022
1562 Clouds 10 1022 86 10000 2.57 260 01:38 14.06.2022
1563 Clear 11 1022 83 10000 4.63 270 00:24 14.06.2022
1564 Clouds 12 1021 75 10000 5.66 270 22:59 13.06.2022
1565 Clouds 13 1021 73 10000 5.14 300 22:23 13.06.2022
1566 Clear 14 1021 70 10000 6.17 290 21:41 13.06.2022
1567 Clear 16 1020 60 10000 8.75 290 19:59 13.06.2022
1568 Clouds 16 1020 60 10000 8.23 300 19:25 13.06.2022
1569 Clouds 17 1030 60 10000 8.75 300 17:57 13.06.2022
1570 Clouds 18 1019 60 10000 7.72 290 17:27 13.06.2022
1571 Clouds 18 1030 58 10000 9.26 280 16:31 13.06.2022
1572 Clouds 18 1030 61 10000 7.72 290 14:53 13.06.2022
1573 Clouds 18 1035 59 10000 8.23 280 14:33 13.06.2022
1574 Clouds 17 1029 60 10000 7.72 290 13:39 13.06.2022
1575 Clouds 16 1029 70 10000 6.17 290 12:25 13.06.2022
1576 Clouds 14 1035 79 10000 3.09 310 11:18 13.06.2022
1577 Rain 15 1034 73 10000 5.14 260 10:26 13.06.2022
1578 Rain 15 1017 79 10000 4.63 260 09:22 13.06.2022
1579 Clouds 13 1017 89 10000 3.09 220 07:34 13.06.2022
1580 Clear 11 1017 95 10000 2.06 230 05:39 13.06.2022
1581 Clear 11 1018 92 10000 2.06 240 02:47 13.06.2022
1582 Clouds 11 1019 89 10000 2.57 230 01:37 13.06.2022
1583 Clouds 13 1019 84 10000 3.09 310 23:52 12.06.2022
1584 Clear 14 1019 77 10000 3.09 290 23:24 12.06.2022
1585 Clear 15 1019 72 10000 4.12 290 22:22 12.06.2022
1586 Clear 16 1019 66 10000 4.63 290 21:20 12.06.2022
1587 Clear 18 1019 61 10000 6.69 310 20:29 12.06.2022
1588 Clear 19 1018 57 10000 6.69 300 19:30 12.06.2022
1589 Clouds 20 1030 60 10000 6.69 310 17:53 12.06.2022
1590 Clouds 21 1019 57 10000 5.14 300 16:24 12.06.2022
1591 Clouds 23 1019 41 10000 7.2 240 14:58 12.06.2022
1592 Clear 23 1019 44 10000 7.72 230 14:23 12.06.2022
1593 Clear 23 1019 46 10000 6.17 240 13:55 12.06.2022
1594 Clear 22 1031 47 10000 5.66 250 12:43 12.06.2022
1595 Clear 22 1031 50 10000 4.12 240 11:40 12.06.2022
1596 Clear 21 1031 51 10000 5.14 220 10:38 12.06.2022
1597 Clear 19 1032 57 10000 4.12 220 09:25 12.06.2022
1598 Clear 18 1021 67 10000 2.57 220 08:46 12.06.2022
1599 Clear 14 1021 84 10000 1.03 0 07:38 12.06.2022
1600 Clear 11 1021 91 10000 1.03 0 05:29 12.06.2022
1601 Clear 12 1021 90 10000 0.51 230 03:29 12.06.2022
1602 Clear 13 1022 86 10000 1.54 220 01:42 12.06.2022
1603 Clear 13 1022 82 10000 0.51 320 00:58 12.06.2022
1604 Clear 13 1022 81 10000 1.03 310 00:25 12.06.2022
1605 Clear 14 1021 74 10000 1.54 340 23:44 11.06.2022
1606 Clear 16 1021 65 10000 3.09 330 22:39 11.06.2022
1607 Clear 16 1021 63 10000 3.09 330 22:18 11.06.2022
1608 Clear 19 1021 57 10000 4.63 320 20:38 11.06.2022
1609 Clear 21 1021 55 10000 5.14 320 19:59 11.06.2022
1610 Clear 21 1021 52 10000 5.14 310 19:26 11.06.2022
1611 Clouds 22 1021 54 10000 5.66 340 18:34 11.06.2022
1612 Clouds 23 1021 57 10000 5.66 320 17:51 11.06.2022
1613 Clouds 23 1021 56 10000 5.14 290 17:29 11.06.2022
1614 Clouds 23 1021 49 10000 5.14 290 16:57 11.06.2022
1615 Clouds 24 1032 50 10000 4.63 290 16:30 11.06.2022
1616 Clouds 24 1032 52 10000 5.66 290 15:43 11.06.2022
1617 Clouds 23 1031 53 10000 6.17 270 13:53 11.06.2022
1618 Clouds 23 1031 54 10000 5.66 270 13:24 11.06.2022
1619 Clouds 21 1031 64 10000 6.69 240 10:55 11.06.2022
1620 Clouds 21 1031 68 10000 4.12 250 10:20 11.06.2022
1621 Clouds 20 1031 71 10000 4.63 250 09:29 11.06.2022
1622 Clouds 18 1019 86 10000 2.57 230 07:46 11.06.2022
1623 Clouds 17 1019 91 10000 1.03 240 06:30 11.06.2022
1624 Clouds 17 1019 91 10000 1.03 0 05:21 11.06.2022
1625 Clouds 17 1020 93 10000 1.03 230 01:53 11.06.2022
1626 Clouds 16 1020 92 10000 2.06 230 01:33 11.06.2022
1627 Clear 16 1020 93 10000 1.03 160 00:22 11.06.2022
1628 Clouds 18 1020 84 10000 2.06 220 22:33 10.06.2022
1629 Clouds 18 1020 87 10000 1.54 210 21:54 10.06.2022
1630 Clouds 21 1020 66 10000 3.6 220 20:43 10.06.2022
1631 Clouds 21 1020 66 10000 3.6 220 20:23 10.06.2022
1632 Clouds 22 1020 63 10000 3.6 220 19:48 10.06.2022
1633 Clouds 21 1020 64 10000 4.63 230 19:18 10.06.2022
1634 Clouds 21 1020 65 10000 4.63 260 18:20 10.06.2022
1635 Clouds 21 1020 62 10000 5.66 250 17:36 10.06.2022
1636 Clouds 21 1020 62 10000 6.69 240 16:58 10.06.2022
1637 Clouds 21 1020 54 10000 6.69 240 15:50 10.06.2022
1638 Clouds 22 1020 52 10000 6.69 230 15:30 10.06.2022
1639 Clear 22 1031 50 10000 7.2 220 13:49 10.06.2022
1640 Clouds 22 1032 53 10000 6.17 230 12:41 10.06.2022
1641 Clouds 21 1032 54 10000 5.66 220 11:40 10.06.2022
1642 Clear 20 1032 56 10000 4.63 210 10:43 10.06.2022
1643 Clear 18 1032 63 10000 4.63 210 09:44 10.06.2022
1644 Clear 15 1021 81 10000 3.6 220 08:30 10.06.2022
1645 Clear 12 1020 95 10000 2.57 210 07:20 10.06.2022
1646 Clear 11 1020 97 10000 1.54 190 06:43 10.06.2022
1647 Clear 10 1020 97 10000 1.03 180 06:24 10.06.2022
1648 Mist 11 1019 96 10000 1.54 230 03:50 10.06.2022
1649 Clouds 12 1019 92 10000 2.06 300 01:41 10.06.2022
1650 Clouds 14 1019 88 10000 3.6 290 00:28 10.06.2022
1651 Clouds 14 1018 88 10000 4.12 280 23:29 09.06.2022
1652 Clouds 15 1017 84 10000 4.63 290 21:58 09.06.2022
1653 Clouds 16 1017 81 10000 5.66 300 21:32 09.06.2022
1654 Clouds 17 1016 78 10000 5.66 310 20:54 09.06.2022
1655 Clouds 18 1015 73 10000 7.2 300 19:59 09.06.2022
1656 Clouds 19 1015 67 10000 7.2 300 18:54 09.06.2022
1657 Clouds 20 1014 64 10000 7.2 290 18:21 09.06.2022
1658 Clouds 21 1024 62 10000 6.17 280 16:50 09.06.2022
1659 Clouds 21 1024 63 10000 6.17 290 15:48 09.06.2022
1660 Clouds 20 1023 69 10000 6.17 260 14:35 09.06.2022
1661 Clouds 20 1022 69 10000 5.66 270 13:51 09.06.2022
1662 Clouds 19 1028 71 10000 6.17 270 13:27 09.06.2022
1663 Clouds 18 1021 78 10000 5.14 250 11:54 09.06.2022
1664 Clouds 17 1010 81 10000 4.12 260 11:18 09.06.2022
1665 Clouds 16 1009 86 10000 6.17 250 09:44 09.06.2022
1666 Clouds 16 1008 86 10000 5.14 260 09:23 09.06.2022
1667 Clouds 15 1007 95 10000 4.12 210 07:45 09.06.2022
1668 Clouds 15 1006 94 10000 3.6 190 06:33 09.06.2022
1669 Rain 15 1006 96 10000 2.06 130 02:52 09.06.2022
1670 Rain 16 1006 90 10000 3.09 280 23:39 08.06.2022
1671 Rain 17 1007 84 10000 5.66 220 22:58 08.06.2022
1672 Rain 18 1006 72 10000 4.63 220 22:27 08.06.2022
1673 Rain 19 1005 67 10000 7.2 240 21:55 08.06.2022
1674 Rain 20 1005 58 10000 3.09 180 21:21 08.06.2022
1675 Clouds 21 1005 57 10000 4.12 160 20:21 08.06.2022
1676 Clouds 22 1005 55 10000 3.6 170 19:38 08.06.2022
1677 Clear 23 1005 53 10000 2.57 160 18:45 08.06.2022
1678 Clouds 23 1006 50 10000 2.06 80 17:18 08.06.2022
1679 Clear 22 1007 57 10000 3.6 240 15:44 08.06.2022
1680 Clouds 21 1018 60 10000 3.09 200 13:52 08.06.2022
1681 Clear 20 1019 64 10000 3.09 180 12:20 08.06.2022
1682 Clouds 18 1019 69 10000 3.09 160 11:33 08.06.2022
1683 Clouds 16 1026 74 10000 3.09 170 10:20 08.06.2022
1684 Clear 15 1020 78 10000 2.57 170 09:22 08.06.2022
1685 Clear 14 1009 86 10000 2.06 170 08:40 08.06.2022
1686 Clear 10 1009 95 10000 0.51 140 06:35 08.06.2022
1687 Clouds 10 1010 96 10000 1.54 220 03:58 08.06.2022
1688 Clear 12 1010 90 10000 2.06 210 00:45 08.06.2022
1689 Clouds 13 1011 88 10000 2.06 240 23:29 07.06.2022
1690 Clouds 13 1011 85 10000 2.06 250 22:48 07.06.2022
1691 Clear 14 1011 80 10000 2.06 250 22:30 07.06.2022
1692 Clouds 15 1010 75 10000 4.12 250 21:35 07.06.2022
1693 Clouds 16 1010 71 10000 5.14 240 20:59 07.06.2022
1694 Clouds 16 1010 69 10000 6.69 240 20:33 07.06.2022
1695 Clear 17 1021 67 10000 7.2 240 19:48 07.06.2022
1696 Clouds 17 1021 67 10000 7.72 240 18:24 07.06.2022
1697 Clouds 17 1021 68 10000 6.17 250 17:27 07.06.2022
1698 Clouds 17 1021 68 10000 6.17 240 16:43 07.06.2022
1699 Clouds 17 1021 68 10000 6.17 250 15:57 07.06.2022
1700 Clouds 17 1021 68 10000 6.17 240 15:27 07.06.2022
1701 Clouds 17 1021 69 10000 6.17 240 14:52 07.06.2022
1702 Drizzle 16 1021 72 10000 6.69 240 14:34 07.06.2022
1703 Clouds 17 1021 70 10000 8.75 220 13:32 07.06.2022
1704 Clouds 17 1009 70 10000 9.77 220 12:54 07.06.2022
1705 Clouds 16 1010 77 10000 8.23 210 11:49 07.06.2022
1706 Clouds 15 1010 80 10000 7.2 190 10:27 07.06.2022
1707 Clouds 14 1010 86 10000 6.69 200 08:53 07.06.2022
1708 Rain 13 1010 87 10000 6.69 190 07:47 07.06.2022
1709 Rain 13 1011 86 10000 5.66 170 06:39 07.06.2022
1710 Rain 13 1011 89 10000 4.12 170 04:39 07.06.2022
1711 Rain 13 1013 89 10000 5.66 240 01:27 07.06.2022
1712 Drizzle 14 1012 89 10000 4.63 230 23:53 06.06.2022
1713 Rain 16 1012 79 10000 6.17 240 22:54 06.06.2022
1714 Rain 16 1012 79 10000 6.17 260 22:29 06.06.2022
1715 Clear 19 1011 52 10000 5.66 190 20:47 06.06.2022
1716 Clear 20 1011 48 10000 8.75 190 19:29 06.06.2022
1717 Clear 21 1011 49 10000 7.2 180 18:49 06.06.2022
1718 Clear 21 1011 47 10000 6.69 200 18:21 06.06.2022
1719 Clear 21 1012 45 10000 6.17 220 17:26 06.06.2022
1720 Clear 22 1023 54 10000 6.69 220 16:18 06.06.2022
1721 Rain 21 1023 54 10000 8.23 230 15:28 06.06.2022
1722 Clouds 21 1023 53 10000 7.72 220 14:32 06.06.2022
1723 Clouds 20 1023 66 10000 6.69 210 13:25 06.06.2022
1724 Clouds 19 1023 70 10000 5.66 230 12:36 06.06.2022
1725 Clouds 18 1023 71 10000 7.2 230 11:53 06.06.2022
1726 Clouds 17 1012 77 10000 8.23 210 10:40 06.06.2022
1727 Clouds 17 1011 81 10000 9.26 210 09:39 06.06.2022
1728 Clouds 17 1011 87 10000 6.69 210 08:32 06.06.2022
1729 Clouds 16 1010 90 10000 6.17 200 07:28 06.06.2022
1730 Clouds 17 1009 94 10000 5.66 180 05:27 06.06.2022
1731 Clouds 16 1010 95 10000 4.63 140 03:39 06.06.2022
1732 Clouds 16 1011 87 10000 4.12 70 01:23 06.06.2022
1733 Rain 17 1012 82 10000 4.63 110 00:39 06.06.2022
1734 Rain 18 1012 73 10000 4.63 60 23:40 05.06.2022
1735 Rain 18 1012 70 10000 4.63 70 22:45 05.06.2022
1736 Clear 19 1013 66 10000 5.14 50 20:57 05.06.2022
1737 Rain 20 1014 61 10000 5.14 50 19:44 05.06.2022
1738 Clear 22 1014 50 10000 5.14 40 18:30 05.06.2022
1739 Clear 23 1014 46 10000 5.66 50 17:55 05.06.2022
1740 Clear 24 1015 41 10000 5.66 70 17:26 05.06.2022
1741 Clear 24 1015 40 10000 5.14 70 16:52 05.06.2022
1742 Clear 24 1015 38 10000 5.14 70 16:34 05.06.2022
1743 Clear 24 1028 44 10000 5.66 120 14:27 05.06.2022
1744 Clear 22 1029 49 10000 5.14 80 12:57 05.06.2022
1745 Clear 21 1030 52 10000 4.12 100 11:47 05.06.2022
1746 Clear 20 1030 56 10000 3.6 120 10:42 05.06.2022
1747 Clear 19 1031 58 10000 4.12 110 10:20 05.06.2022
1748 Clear 16 1020 75 10000 3.6 110 08:40 05.06.2022
1749 Clear 15 1020 79 10000 3.09 100 08:20 05.06.2022
1750 Clear 9 1021 92 10000 2.06 60 05:23 05.06.2022
1751 Mist 9 1021 92 10000 1.03 0 04:30 05.06.2022
1752 Clear 12 1022 85 10000 2.06 80 01:33 05.06.2022
1753 Clear 13 1022 82 10000 2.57 80 00:52 05.06.2022
1754 Clear 15 1022 74 10000 3.09 60 22:43 04.06.2022
1755 Clear 19 1021 55 10000 4.12 70 20:42 04.06.2022
1756 Clear 21 1021 53 10000 4.12 290 18:51 04.06.2022
1757 Clear 22 1033 44 10000 2.57 300 16:47 04.06.2022
1758 Clear 22 1033 47 10000 3.6 300 16:19 04.06.2022
1759 Clear 22 1033 46 10000 3.6 280 15:22 04.06.2022
1760 Clear 20 1033 52 10000 3.6 340 13:46 04.06.2022
1761 Clear 17 1022 65 10000 2.57 330 11:23 04.06.2022
1762 Clouds 16 1022 71 10000 2.57 10 10:50 04.06.2022
1763 Clouds 14 1022 79 10000 3.6 360 09:45 04.06.2022
1764 Clear 13 1021 82 10000 3.6 20 08:44 04.06.2022
1765 Clear 13 1021 82 10000 3.6 20 08:44 04.06.2022
1766 Clouds 11 1021 89 10000 3.09 20 07:51 04.06.2022
1767 Clouds 9 1021 92 10000 2.06 320 06:20 04.06.2022
1768 Clear 11 1021 83 10000 2.57 360 02:36 04.06.2022
1769 Clear 14 1020 78 10000 3.09 20 00:20 04.06.2022
1770 Clear 16 1020 68 10000 4.63 10 22:49 03.06.2022
1771 Clear 17 1019 60 10000 4.63 350 21:43 03.06.2022
1772 Clear 20 1019 41 10000 4.63 360 20:40 03.06.2022
1773 Clear 21 1019 42 10000 4.12 340 19:19 03.06.2022
1774 Clear 22 1019 38 10000 3.09 80 16:54 03.06.2022
1775 Clear 22 1019 39 10000 2.57 300 15:51 03.06.2022
1776 Clear 21 1021 43 10000 1.54 190 13:58 03.06.2022
1777 Clear 18 1022 53 10000 1.54 0 11:54 03.06.2022
1778 Clear 15 1022 73 10000 2.06 70 09:56 03.06.2022
1779 Clear 14 1022 76 10000 1.54 350 09:29 03.06.2022
1780 Clear 10 1022 93 10000 0.51 0 07:43 03.06.2022
1781 Clear 7 1022 94 10000 1.03 220 06:49 03.06.2022
1782 Clear 6 1022 97 10000 0.51 0 06:27 03.06.2022
1783 Fog 7 1022 97 3300 1.03 0 02:58 03.06.2022
1784 Clear 10 1022 87 10000 2.06 310 23:52 02.06.2022
1785 Clear 11 1022 84 10000 2.06 320 22:23 02.06.2022
1786 Clear 15 1021 69 10000 3.6 310 20:56 02.06.2022
1787 Clear 16 1021 67 10000 4.63 300 19:56 02.06.2022
1788 Clear 16 1021 64 10000 4.63 300 19:38 02.06.2022
1789 Clouds 17 1021 60 10000 5.66 310 18:41 02.06.2022
1790 Clouds 17 1021 64 10000 5.66 300 16:28 02.06.2022
1791 Clouds 17 1021 66 10000 6.17 300 15:47 02.06.2022
1792 Clouds 14 1021 76 10000 5.66 270 13:31 02.06.2022
1793 Clouds 14 1020 81 10000 5.14 260 12:49 02.06.2022
1794 Clouds 12 1020 89 10000 4.12 250 10:45 02.06.2022
1795 Clouds 11 1019 89 10000 4.63 240 09:30 02.06.2022
1796 Clouds 10 1018 93 10000 3.6 240 08:45 02.06.2022
1797 Clouds 10 1018 93 10000 3.6 250 08:23 02.06.2022
1798 Clear 8 1017 94 10000 2.57 240 06:21 02.06.2022
1799 Clear 8 1017 96 10000 2.57 240 03:51 02.06.2022
1800 Clouds 10 1016 91 10000 3.09 280 01:33 02.06.2022
1801 Rain 11 1015 87 10000 5.14 270 23:22 01.06.2022
1802 Clouds 12 1015 90 10000 3.6 240 22:18 01.06.2022
1803 Clear 12 1014 91 10000 2.57 230 21:25 01.06.2022
1804 Clear 12 1014 89 10000 3.09 240 20:39 01.06.2022
1805 Clouds 13 1014 86 10000 2.57 310 19:52 01.06.2022
1806 Clouds 13 1014 87 10000 2.57 280 18:52 01.06.2022
1807 Rain 12 1014 84 10000 3.09 310 17:38 01.06.2022
1808 Clouds 13 1014 76 10000 5.14 340 16:22 01.06.2022
1809 Clouds 16 1012 66 10000 5.66 220 14:51 01.06.2022
1810 Clouds 16 1012 66 10000 3.6 240 13:44 01.06.2022
1811 Clouds 13 1013 88 10000 3.09 240 11:32 01.06.2022
1812 Rain 10 1013 95 8000 3.6 210 09:34 01.06.2022
1813 Rain 11 1012 91 10000 3.09 180 08:28 01.06.2022
1814 Rain 11 1012 87 10000 3.6 60 07:21 01.06.2022
1815 Clouds 9 1012 92 10000 2.57 330 04:59 01.06.2022
1816 Clouds 12 1013 78 10000 2.57 50 23:57 31.05.2022
1817 Clouds 13 1013 74 10000 2.57 40 22:59 31.05.2022
1818 Clouds 13 1013 70 10000 2.06 20 22:33 31.05.2022
1819 Clouds 14 1013 63 10000 1.54 40 21:45 31.05.2022
1820 Clear 15 1012 54 10000 2.06 40 20:45 31.05.2022
1821 Clear 15 1012 54 10000 2.06 40 20:45 31.05.2022
1822 Clear 16 1012 57 10000 2.06 60 19:53 31.05.2022
1823 Clear 16 1013 53 10000 1.54 0 18:45 31.05.2022
1824 Clear 17 1013 48 10000 2.06 0 17:49 31.05.2022
1825 Clear 17 1013 48 10000 2.06 0 17:49 31.05.2022
1826 Clear 17 1013 49 10000 1.54 0 16:53 31.05.2022
1827 Clear 17 1013 49 10000 2.06 0 15:40 31.05.2022
1828 Clouds 16 1014 52 10000 1.54 130 13:45 31.05.2022
1829 Clouds 15 1014 58 10000 1.54 0 12:20 31.05.2022
1830 Clouds 14 1015 64 10000 1.54 0 10:52 31.05.2022
1831 Clear 12 1015 77 10000 1.54 20 08:49 31.05.2022
1832 Clear 7 1015 92 10000 0.51 0 07:21 31.05.2022
1833 Clear 5 1015 95 10000 1.54 240 04:53 31.05.2022
1834 Clear 8 1015 87 10000 1.54 290 00:26 31.05.2022
1835 Clear 9 1015 81 10000 2.06 310 23:26 30.05.2022
1836 Clear 9 1015 79 10000 2.06 320 22:53 30.05.2022
1837 Clear 11 1014 70 10000 2.57 290 21:52 30.05.2022
1838 Clouds 12 1014 68 10000 3.09 290 21:32 30.05.2022
1839 Clouds 13 1013 67 10000 3.09 290 20:20 30.05.2022
1840 Clouds 13 1013 69 10000 2.57 310 18:40 30.05.2022
1841 Clouds 13 1013 67 10000 2.57 260 17:35 30.05.2022
1842 Clouds 13 1013 67 10000 4.12 270 16:41 30.05.2022
1843 Clouds 12 1012 74 10000 4.63 250 14:35 30.05.2022
1844 Clouds 11 1012 78 10000 4.12 310 12:24 30.05.2022
1845 Clouds 11 1012 83 10000 3.6 270 10:41 30.05.2022
1846 Drizzle 10 1011 89 10000 3.09 250 09:21 30.05.2022
1847 Rain 9 1011 90 10000 2.06 240 07:18 30.05.2022
1848 Drizzle 9 1010 88 10000 2.57 230 05:49 30.05.2022
1849 Clouds 10 1010 80 10000 3.6 300 01:48 30.05.2022
1850 Clouds 10 1010 77 10000 4.63 300 23:19 29.05.2022
1851 Clouds 11 1010 78 10000 5.14 290 22:37 29.05.2022
1852 Clouds 12 1010 82 10000 6.17 270 20:55 29.05.2022
1853 Clouds 12 1009 82 10000 6.69 270 19:33 29.05.2022
1854 Clouds 13 1010 83 10000 6.17 270 18:59 29.05.2022
1855 Clouds 13 1010 82 10000 5.66 260 17:31 29.05.2022
1856 Clouds 13 1010 80 10000 5.14 260 15:48 29.05.2022
1857 Clouds 13 1010 83 10000 5.14 280 15:23 29.05.2022
1858 Clouds 13 1010 81 10000 4.63 260 13:59 29.05.2022
1859 Rain 12 1010 87 10000 5.66 270 11:48 29.05.2022
1860 Rain 11 1011 90 10000 4.63 260 10:40 29.05.2022
1861 Clouds 11 1011 92 10000 5.14 250 09:31 29.05.2022
1862 Clouds 9 1011 94 10000 3.09 230 06:24 29.05.2022
1863 Clouds 9 1011 92 10000 2.57 240 04:47 29.05.2022
1864 Clouds 9 1011 92 10000 3.09 240 04:19 29.05.2022
1865 Clouds 10 1013 92 10000 5.66 290 23:53 28.05.2022
1866 Drizzle 10 1013 94 7000 7.2 280 23:34 28.05.2022
1867 Rain 10 1013 94 7000 6.17 270 22:40 28.05.2022
1868 Clouds 10 1014 91 10000 8.75 270 21:40 28.05.2022
1869 Rain 11 1014 83 10000 9.26 290 19:51 28.05.2022
1870 Rain 12 1014 81 10000 10.29 280 18:58 28.05.2022
1871 Rain 12 1014 76 10000 9.26 290 17:44 28.05.2022
1872 Drizzle 12 1015 75 10000 9.77 300 16:50 28.05.2022
1873 Rain 12 1015 70 10000 8.75 290 15:44 28.05.2022
1874 Clouds 13 1014 76 10000 10.29 290 14:35 28.05.2022
1875 Rain 13 1014 68 10000 9.77 290 13:21 28.05.2022
1876 Rain 13 1014 68 10000 11.83 300 12:40 28.05.2022
1877 Clouds 12 1014 76 10000 10.29 280 11:26 28.05.2022
1878 Clouds 12 1013 75 10000 10.29 300 10:25 28.05.2022
1879 Clouds 12 1013 75 10000 7.72 290 09:30 28.05.2022
1880 Clear 10 1013 89 10000 7.2 290 07:47 28.05.2022
1881 Clouds 8 1012 91 10000 8.23 270 06:32 28.05.2022
1882 Rain 8 1012 89 10000 5.14 270 04:21 28.05.2022
1883 Clouds 9 1014 87 10000 7.72 270 00:50 28.05.2022
1884 Clouds 9 1014 89 10000 7.72 270 23:42 27.05.2022
1885 Clouds 9 1014 92 10000 7.72 270 22:24 27.05.2022
1886 Clouds 9 1015 89 10000 9.77 290 20:59 27.05.2022
1887 Rain 10 1015 88 10000 9.77 290 20:40 27.05.2022
1888 Clouds 11 1014 81 10000 8.75 270 19:56 27.05.2022
1889 Clouds 11 1014 80 10000 8.75 270 19:34 27.05.2022
1890 Rain 13 1015 75 10000 9.77 280 18:41 27.05.2022
1891 Clouds 14 1014 63 10000 12.35 290 16:42 27.05.2022
1892 Clouds 14 1014 63 10000 14.4 280 15:46 27.05.2022
1893 Clouds 15 1014 59 10000 11.83 280 14:46 27.05.2022
1894 Clouds 14 1014 71 10000 9.26 280 13:36 27.05.2022
1895 Clouds 14 1014 55 10000 11.83 270 11:48 27.05.2022
1896 Clouds 14 1014 57 10000 12.35 280 11:26 27.05.2022
1897 Clouds 14 1014 62 10000 9.77 270 10:37 27.05.2022
1898 Clouds 14 1014 62 10000 8.75 280 09:52 27.05.2022
1899 Clouds 13 1014 64 10000 7.72 270 09:28 27.05.2022
1900 Clear 12 1014 81 10000 5.14 270 06:58 27.05.2022
1901 Clouds 13 1013 94 10000 4.63 250 02:59 27.05.2022
1902 Clouds 13 1014 96 10000 6.69 240 00:57 27.05.2022
1903 Clouds 12 1014 97 10000 5.14 210 23:23 26.05.2022
1904 Drizzle 12 1015 95 10000 3.6 260 21:53 26.05.2022
1905 Drizzle 12 1016 93 7000 3.09 280 21:27 26.05.2022
1906 Drizzle 13 1017 91 8000 3.6 280 19:34 26.05.2022
1907 Rain 14 1017 86 10000 4.63 290 18:31 26.05.2022
1908 Drizzle 15 1017 72 10000 7.2 290 17:36 26.05.2022
1909 Clouds 17 1016 63 10000 7.2 290 16:18 26.05.2022
1910 Clouds 17 1016 61 10000 9.77 270 15:24 26.05.2022
1911 Clouds 18 1017 54 10000 10.29 280 13:58 26.05.2022
1912 Clouds 17 1016 55 10000 10.29 280 11:59 26.05.2022
1913 Clouds 16 1016 58 10000 10.8 270 11:18 26.05.2022
1914 Clouds 15 1014 68 10000 8.75 270 09:38 26.05.2022
1915 Clouds 15 1014 75 10000 7.72 250 08:40 26.05.2022
1916 Clouds 15 1014 75 10000 7.72 250 08:40 26.05.2022
1917 Clouds 14 1013 85 10000 6.17 250 05:43 26.05.2022
1918 Clouds 13 1013 87 10000 6.69 230 02:23 26.05.2022
1919 Clouds 14 1013 74 10000 4.12 230 23:53 25.05.2022
1920 Clouds 14 1013 73 10000 4.63 250 22:52 25.05.2022
1921 Clouds 14 1013 74 10000 2.57 230 21:42 25.05.2022
1922 Clouds 14 1013 74 10000 3.6 220 20:49 25.05.2022
1923 Rain 15 1013 71 10000 3.09 220 19:45 25.05.2022
1924 Rain 16 1013 66 10000 8.23 290 18:48 25.05.2022
1925 Clear 19 1012 47 10000 8.23 220 17:24 25.05.2022
1926 Clear 19 1012 46 10000 9.26 220 16:34 25.05.2022
1927 Clear 19 1012 50 10000 7.2 230 15:36 25.05.2022
1928 Clouds 19 1012 52 10000 7.2 220 14:50 25.05.2022
1929 Clouds 19 1012 52 10000 7.72 220 14:32 25.05.2022
1930 Clouds 18 1013 54 10000 6.17 240 13:23 25.05.2022
1931 Clouds 17 1013 60 10000 5.24 242 11:50 25.05.2022
1932 Clouds 16 1013 64 10000 6.69 220 10:42 25.05.2022
1933 Clouds 14 1012 73 10000 4.63 220 09:45 25.05.2022
1934 Clouds 12 1012 87 10000 3.04 233 08:21 25.05.2022
1935 Clouds 10 1011 94 10000 2.06 240 05:57 25.05.2022
1936 Clouds 10 1011 89 10000 2.2 232 02:46 25.05.2022
1937 Clear 11 1009 86 10000 2.06 220 23:52 24.05.2022
1938 Clear 11 1009 89 10000 2.06 190 23:23 24.05.2022
1939 Clear 12 1009 84 10000 2.06 230 22:18 24.05.2022
1940 Clear 12 1008 82 10000 2.57 210 21:38 24.05.2022
1941 Clear 13 1008 77 10000 3.6 240 21:19 24.05.2022
1942 Clouds 15 1006 70 10000 7.2 230 19:28 24.05.2022
1943 Clouds 16 1006 72 10000 5.66 230 18:40 24.05.2022
1944 Clouds 19 1004 57 10000 7.72 220 16:40 24.05.2022
1945 Clouds 18 1004 65 10000 7.2 220 15:54 24.05.2022
1946 Clouds 16 1004 76 10000 7.2 210 14:45 24.05.2022
1947 Rain 15 1003 85 10000 6.17 230 13:48 24.05.2022
1948 Rain 16 1002 75 10000 8.23 240 12:42 24.05.2022
1949 Clouds 16 1001 78 10000 6.17 230 10:29 24.05.2022
1950 Clouds 15 1001 80 10000 5.66 230 09:42 24.05.2022
1951 Clouds 15 1000 83 10000 4.63 250 08:49 24.05.2022
1952 Clouds 14 999 90 10000 4.63 240 06:56 24.05.2022
1953 Clouds 16 996 91 10000 3.6 160 03:48 24.05.2022
1954 Rain 16 997 88 10000 3.09 110 01:49 24.05.2022
1955 Rain 16 997 86 10000 3.6 140 01:18 24.05.2022
1956 Clear 20 998 52 10000 6.17 110 22:51 23.05.2022
1957 Clear 20 998 52 10000 6.17 110 21:55 23.05.2022
1958 Clear 21 999 52 10000 6.69 110 21:26 23.05.2022
1959 Clear 22 999 50 10000 6.17 100 20:29 23.05.2022
1960 Clear 23 1000 48 10000 8.23 120 19:31 23.05.2022
1961 Clear 23 1000 47 10000 7.72 120 18:57 23.05.2022
1962 Clear 23 1001 48 10000 7.72 130 18:29 23.05.2022
1963 Clear 23 1002 45 10000 8.23 120 17:20 23.05.2022
1964 Clear 23 1004 45 10000 8.23 140 15:23 23.05.2022
1965 Clear 22 1006 48 10000 8.75 160 13:21 23.05.2022
1966 Clear 20 1007 53 10000 6.69 140 11:32 23.05.2022
1967 Clear 18 1008 58 10000 5.66 120 10:31 23.05.2022
1968 Clear 17 1008 61 10000 5.66 130 09:39 23.05.2022
1969 Clear 15 1009 66 10000 6.17 120 08:32 23.05.2022
1970 Clear 11 1010 83 10000 4.63 110 06:46 23.05.2022
1971 Clear 10 1010 88 10000 2.57 110 05:39 23.05.2022
1972 Clear 11 1012 84 10000 3.09 90 02:35 23.05.2022
1973 Clear 12 1013 83 10000 2.57 90 01:42 23.05.2022
1974 Clear 12 1013 83 10000 2.57 90 00:38 23.05.2022
1975 Clear 13 1014 72 10000 2.06 50 22:43 22.05.2022
1976 Clear 14 1014 63 10000 3.09 20 21:56 22.05.2022
1977 Clear 14 1014 62 10000 3.09 20 21:36 22.05.2022
1978 Clouds 17 1014 54 10000 2.57 300 20:37 22.05.2022
1979 Clouds 17 1014 55 10000 3.09 290 20:18 22.05.2022
1980 Clouds 18 1014 54 10000 4.12 270 18:58 22.05.2022
1981 Clear 18 1014 52 10000 4.12 340 18:31 22.05.2022
1982 Clear 19 1014 50 10000 3.09 330 17:51 22.05.2022
1983 Clear 18 1015 52 10000 4.12 300 16:51 22.05.2022
1984 Clear 18 1015 52 10000 4.12 300 16:51 22.05.2022
1985 Clouds 18 1016 54 10000 4.63 300 15:22 22.05.2022
1986 Clouds 18 1016 53 10000 4.63 320 14:35 22.05.2022
1987 Clouds 17 1017 58 10000 2.06 310 12:54 22.05.2022
1988 Clouds 15 1017 64 10000 3.09 280 11:53 22.05.2022
1989 Clouds 14 1017 77 10000 3.09 280 10:38 22.05.2022
1990 Clouds 13 1017 85 10000 2.57 270 09:27 22.05.2022
1991 Clouds 11 1017 90 10000 3.09 280 07:44 22.05.2022
1992 Clouds 10 1017 94 10000 1.54 230 06:41 22.05.2022
1993 Clear 10 1017 91 10000 3.09 240 03:53 22.05.2022
1994 Clear 11 1018 87 10000 4.12 280 00:59 22.05.2022
1995 Clear 12 1018 83 10000 5.14 300 23:56 21.05.2022
1996 Clouds 12 1018 84 10000 5.66 300 23:29 21.05.2022
1997 Clouds 13 1018 78 10000 6.17 300 21:59 21.05.2022
1998 Clouds 13 1018 77 10000 6.17 300 21:37 21.05.2022
1999 Clouds 14 1018 69 10000 7.2 300 20:47 21.05.2022
2000 Clouds 15 1018 67 10000 8.23 290 19:55 21.05.2022
2001 Clouds 16 1018 65 10000 8.75 290 19:20 21.05.2022
2002 Clouds 16 1017 65 10000 10.29 290 17:23 21.05.2022
2003 Clouds 17 1017 64 10000 9.26 290 14:58 21.05.2022
2004 Clouds 17 1016 64 10000 10.29 290 14:24 21.05.2022
2005 Clouds 16 1016 71 10000 9.26 290 13:34 21.05.2022
2006 Clouds 15 1015 78 10000 10.8 270 12:39 21.05.2022
2007 Clouds 14 1015 90 10000 8.75 270 11:52 21.05.2022
2008 Rain 14 1014 86 10000 7.72 240 10:22 21.05.2022
2009 Clouds 13 1014 93 10000 7.2 230 09:20 21.05.2022
2010 Clouds 12 1014 95 9000 6.17 220 08:47 21.05.2022
2011 Clouds 11 1015 89 10000 4.17 247 06:22 21.05.2022
2012 Clouds 11 1013 87 10000 7.72 270 02:24 21.05.2022
2013 Rain 14 1008 95 7000 12.35 290 23:45 20.05.2022
2014 Clouds 15 1006 94 10000 4.12 20 22:42 20.05.2022
2015 Clouds 16 1008 89 7000 4.12 0 22:22 20.05.2022
2016 Rain 17 1007 74 10000 5.66 90 21:32 20.05.2022
2017 Drizzle 17 1009 74 10000 5.14 80 20:53 20.05.2022
2018 Rain 18 1011 72 10000 4.12 100 19:56 20.05.2022
2019 Rain 19 1012 60 10000 4.12 130 18:59 20.05.2022
2020 Rain 20 1013 56 10000 4.12 100 18:27 20.05.2022
2021 Clear 21 1015 53 10000 2.57 50 16:51 20.05.2022
2022 Clear 20 1016 57 10000 1.03 0 15:57 20.05.2022
2023 Clear 20 1016 56 10000 1.03 0 15:39 20.05.2022
2024 Clear 19 1018 58 10000 3.09 0 14:29 20.05.2022
2025 Clouds 19 1019 61 10000 2.57 310 13:54 20.05.2022
2026 Clouds 16 1020 71 10000 3.09 300 11:22 20.05.2022
2027 Clouds 15 1021 77 10000 4.63 260 09:51 20.05.2022
2028 Clouds 14 1021 81 10000 5.66 260 08:43 20.05.2022
2029 Clouds 13 1020 90 10000 4.63 260 06:47 20.05.2022
2030 Clouds 13 1019 90 10000 5.66 270 06:24 20.05.2022
2031 Clouds 14 1019 93 9000 7.72 280 04:31 20.05.2022
2032 Clouds 18 1018 96 10000 3.09 250 00:43 20.05.2022
2033 Clouds 18 1017 95 7000 3.6 250 22:46 19.05.2022
2034 Clouds 18 1017 97 7000 2.57 240 22:19 19.05.2022
2035 Clouds 18 1016 95 10000 2.57 200 21:42 19.05.2022
2036 Clouds 18 1016 94 9000 3.09 190 21:22 19.05.2022
2037 Rain 18 1015 94 10000 3.09 50 20:32 19.05.2022
2038 Rain 18 1017 93 9000 3.6 320 19:40 19.05.2022
2039 Rain 26 1014 57 10000 5.14 260 18:19 19.05.2022
2040 Clear 28 1015 45 10000 2.06 270 16:35 19.05.2022
2041 Clear 29 1016 42 10000 2.06 240 14:52 19.05.2022
2042 Clear 28 1016 44 10000 3.09 210 14:24 19.05.2022
2043 Clear 27 1017 49 10000 5.66 260 13:20 19.05.2022
2044 Clear 27 1018 47 10000 6.69 210 11:29 19.05.2022
2045 Clear 23 1018 64 10000 4.12 170 09:27 19.05.2022
2046 Clear 19 1019 74 10000 2.06 170 07:50 19.05.2022
2047 Clear 18 1018 80 10000 2.06 130 06:18 19.05.2022
2048 Clear 20 1019 72 10000 3.6 140 02:23 19.05.2022
2049 Clear 22 1020 67 10000 4.12 150 23:57 18.05.2022
2050 Clear 23 1020 60 10000 5.14 150 22:47 18.05.2022
2051 Clear 24 1020 60 10000 5.66 140 21:51 18.05.2022
2052 Clear 24 1020 62 10000 4.63 140 21:29 18.05.2022
2053 Clear 25 1020 53 10000 4.63 140 20:47 18.05.2022
2054 Clear 25 1020 55 10000 4.12 130 20:18 18.05.2022
2055 Clear 25 1020 55 10000 4.12 130 20:18 18.05.2022
2056 Clear 28 1020 44 10000 2.06 210 18:33 18.05.2022
2057 Clear 27 1020 44 10000 3.09 240 17:41 18.05.2022
2058 Clear 28 1020 43 10000 3.09 240 17:23 18.05.2022
2059 Clear 28 1020 47 10000 5.66 140 16:34 18.05.2022
2060 Clear 27 1021 48 10000 5.14 150 15:42 18.05.2022
2061 Clear 26 1021 55 10000 6.17 150 14:35 18.05.2022
2062 Clear 25 1021 60 10000 6.69 130 13:44 18.05.2022
2063 Clear 23 1022 64 10000 6.69 150 12:48 18.05.2022
2064 Clear 20 1022 68 10000 6.69 120 11:36 18.05.2022
2065 Clear 19 1022 69 10000 6.69 120 11:18 18.05.2022
2066 Clear 16 1023 74 10000 4.63 140 09:50 18.05.2022
2067 Clear 14 1023 74 10000 5.14 120 07:54 18.05.2022
2068 Clouds 13 1023 70 10000 3.6 120 06:48 18.05.2022
2069 Clear 14 1022 87 10000 3.6 90 01:53 18.05.2022
2070 Clear 14 1022 94 10000 2.06 60 00:23 18.05.2022
2071 Clear 16 1021 87 10000 2.06 80 22:18 17.05.2022
2072 Clear 16 1021 85 10000 2.57 50 21:20 17.05.2022
2073 Clouds 18 1021 76 10000 2.57 50 20:29 17.05.2022
2074 Clouds 19 1020 72 10000 3.6 70 19:28 17.05.2022
2075 Clouds 19 1020 69 10000 3.09 30 17:52 17.05.2022
2076 Clouds 19 1021 73 10000 2.57 30 17:18 17.05.2022
2077 Clouds 19 1021 76 10000 3.09 40 16:31 17.05.2022
2078 Clouds 18 1021 81 10000 2.57 60 15:32 17.05.2022
2079 Clouds 18 1021 84 10000 2.57 350 14:31 17.05.2022
2080 Clouds 18 1021 82 10000 2.57 320 13:38 17.05.2022
2081 Clouds 17 1020 86 10000 2.57 270 12:23 17.05.2022
2082 Clouds 15 1019 96 10000 1.54 10 09:53 17.05.2022
2083 Rain 14 1019 97 6000 1.03 0 08:44 17.05.2022
2084 Rain 14 1018 96 5000 1.03 0 07:18 17.05.2022
2085 Rain 13 1018 96 10000 2.06 90 04:28 17.05.2022
2086 Rain 16 1017 71 10000 3.09 180 00:47 17.05.2022
2087 Clear 16 1016 69 10000 4.12 80 22:45 16.05.2022
2088 Clear 17 1016 66 10000 4.63 70 22:18 16.05.2022
2089 Clear 18 1016 60 10000 5.66 60 20:50 16.05.2022
2090 Clear 19 1016 55 10000 6.69 60 19:59 16.05.2022
2091 Clear 21 1016 52 10000 7.2 40 18:39 16.05.2022
2092 Clear 24 1016 39 10000 5.14 100 16:37 16.05.2022
2093 Clear 24 1017 37 10000 4.63 110 14:47 16.05.2022
2094 Clear 23 1017 43 10000 6.69 80 13:27 16.05.2022
2095 Clear 20 1018 50 10000 5.66 90 11:42 16.05.2022
2096 Clear 18 1018 58 10000 3.6 100 10:30 16.05.2022
2097 Clear 13 1019 71 10000 4.63 90 07:47 16.05.2022
2098 Clear 10 1019 76 10000 4.12 100 05:40 16.05.2022
2099 Clear 11 1020 68 10000 2.06 80 00:35 16.05.2022
2100 Clear 14 1020 60 10000 4.12 70 22:39 15.05.2022
2101 Clear 15 1020 58 10000 5.14 60 21:54 15.05.2022
2102 Clear 16 1020 58 10000 5.14 60 21:34 15.05.2022
2103 Clear 17 1019 55 10000 5.66 70 20:38 15.05.2022
2104 Clear 21 1020 37 10000 3.09 60 18:37 15.05.2022
2105 Clear 21 1021 37 10000 2.06 0 16:52 15.05.2022
2106 Clear 20 1022 42 10000 1.54 0 14:26 15.05.2022
2107 Clear 20 1022 43 10000 3.6 40 13:45 15.05.2022
2108 Clear 17 1023 50 10000 2.57 50 11:55 15.05.2022
2109 Clear 16 1023 57 10000 2.06 100 10:47 15.05.2022
2110 Clear 13 1023 73 10000 1.54 0 09:46 15.05.2022
2111 Fog 7 1023 97 350 1.03 0 07:23 15.05.2022
2112 Fog 7 1022 97 350 1.03 320 06:55 15.05.2022
2113 Mist 7 1022 94 10000 1.03 0 02:55 15.05.2022
2114 Clear 9 1022 88 10000 1.54 310 00:24 15.05.2022
2115 Clear 9 1022 86 10000 1.54 330 23:37 14.05.2022
2116 Clear 13 1021 76 10000 2.57 310 21:51 14.05.2022
2117 Clear 14 1021 68 10000 3.6 300 21:26 14.05.2022
2118 Clouds 16 1021 60 10000 5.14 290 20:27 14.05.2022
2119 Clouds 17 1020 54 10000 6.17 290 19:21 14.05.2022
2120 Clouds 17 1020 55 10000 6.69 300 18:58 14.05.2022
2121 Clouds 18 1020 53 10000 7.72 280 17:47 14.05.2022
2122 Clouds 18 1020 58 10000 7.2 290 15:58 14.05.2022
2123 Clouds 18 1020 58 10000 8.75 300 14:40 14.05.2022
2124 Clouds 17 1020 60 10000 8.23 290 14:22 14.05.2022
2125 Clouds 17 1018 63 10000 6.69 280 11:48 14.05.2022
2126 Clouds 16 1018 67 10000 6.69 270 10:45 14.05.2022
2127 Clouds 15 1018 72 10000 6.17 270 10:19 14.05.2022
2128 Clear 14 1018 80 10000 5.66 270 09:34 14.05.2022
2129 Clouds 11 1018 86 10000 3.6 260 07:43 14.05.2022
2130 Clear 11 1016 78 10000 4.63 250 04:49 14.05.2022
2131 Clear 11 1017 83 10000 3.6 230 01:57 14.05.2022
2132 Clear 12 1018 79 10000 3.6 280 23:28 13.05.2022
2133 Clear 12 1018 79 10000 3.6 280 23:28 13.05.2022
2134 Clouds 12 1018 76 10000 3.6 290 22:56 13.05.2022
2135 Clear 13 1018 77 10000 4.63 300 22:22 13.05.2022
2136 Clouds 14 1017 77 10000 3.6 280 21:24 13.05.2022
2137 Clouds 14 1017 75 10000 4.12 290 20:43 13.05.2022
2138 Clouds 14 1017 74 10000 5.14 280 20:22 13.05.2022
2139 Clouds 15 1017 72 10000 5.14 280 19:19 13.05.2022
2140 Clouds 15 1016 70 10000 7.2 280 17:50 13.05.2022
2141 Clouds 16 1016 66 10000 8.23 280 17:24 13.05.2022
2142 Clouds 15 1016 69 10000 7.72 270 15:53 13.05.2022
2143 Clouds 15 1016 72 10000 7.72 260 14:50 13.05.2022
2144 Clouds 15 1015 76 10000 6.17 250 12:58 13.05.2022
2145 Clouds 15 1015 69 10000 7.2 250 12:25 13.05.2022
2146 Clear 13 1015 76 10000 5.66 240 10:42 13.05.2022
2147 Clear 12 1014 78 10000 4.63 230 09:29 13.05.2022
2148 Clear 11 1015 81 10000 4.12 230 08:23 13.05.2022
2149 Clear 11 1014 82 10000 3.09 230 07:31 13.05.2022
2150 Clear 9 1015 89 10000 2.06 220 05:59 13.05.2022
2151 Clear 10 1016 84 10000 1.54 230 02:43 13.05.2022
2152 Clear 10 1016 81 10000 2.06 220 23:44 12.05.2022
2153 Clear 11 1016 76 10000 2.57 300 22:44 12.05.2022
2154 Clear 13 1016 73 10000 3.09 300 21:46 12.05.2022
2155 Clear 15 1016 65 10000 4.12 290 20:25 12.05.2022
2156 Clouds 17 1016 55 10000 5.66 320 18:41 12.05.2022
2157 Clouds 18 1016 52 10000 5.66 290 16:58 12.05.2022
2158 Clear 19 1016 48 10000 7.72 250 15:50 12.05.2022
2159 Clouds 18 1016 52 10000 6.17 260 14:20 12.05.2022
2160 Clouds 17 1016 55 10000 6.69 270 13:34 12.05.2022
2161 Clouds 15 1015 67 10000 6.69 260 10:43 12.05.2022
2162 Clouds 13 1014 77 10000 5.14 260 09:24 12.05.2022
2163 Clouds 12 1013 80 10000 6.69 270 08:50 12.05.2022
2164 Clouds 11 1012 84 10000 9.77 280 07:38 12.05.2022
2165 Clouds 12 1008 86 10000 10.29 310 05:35 12.05.2022
2166 Clouds 13 1006 84 10000 6.17 220 02:49 12.05.2022
2167 Clouds 13 1007 79 10000 1.54 170 00:35 12.05.2022
2168 Clear 13 1008 72 10000 2.06 340 22:34 11.05.2022
2169 Clear 14 1008 67 10000 4.12 310 21:46 11.05.2022
2170 Clear 14 1008 71 10000 4.12 310 21:21 11.05.2022
2171 Clear 21 1007 52 10000 5.14 300 18:33 11.05.2022
2172 Clear 22 1007 47 10000 5.66 250 16:53 11.05.2022
2173 Clear 22 1008 50 10000 10.8 230 15:31 11.05.2022
2174 Clear 22 1008 50 10000 10.8 230 15:31 11.05.2022
2175 Clear 22 1008 50 10000 10.8 230 15:31 11.05.2022
2176 Clear 22 1008 50 10000 10.8 230 15:31 11.05.2022
2177 Clear 22 1008 50 10000 10.8 230 15:31 11.05.2022
2178 Clear 22 1008 50 10000 10.8 230 15:31 11.05.2022
2179 Clouds 21 1008 55 10000 7.72 240 14:39 11.05.2022
2180 Clouds 21 1008 55 10000 7.72 240 14:18 11.05.2022
2181 Clear 17 1009 74 10000 5.14 210 11:54 11.05.2022
2182 Clear 16 1009 81 10000 4.12 220 11:19 11.05.2022
2183 Clear 13 1010 90 10000 3.09 160 08:40 11.05.2022
2184 Mist 12 1011 94 6000 2.06 110 05:31 11.05.2022
2185 Fog 11 1013 96 600 1.03 0 00:45 11.05.2022
2186 Clear 13 1014 92 10000 2.06 150 22:32 10.05.2022
2187 Rain 13 1014 92 10000 1.03 0 21:57 10.05.2022
2188 Rain 13 1013 85 10000 4.63 330 20:58 10.05.2022
2189 Rain 15 1014 82 10000 8.23 310 19:47 10.05.2022
2190 Clear 20 1012 71 10000 2.57 180 18:27 10.05.2022
2191 Rain 19 1012 77 10000 2.06 150 17:34 10.05.2022
2192 Rain 24 1013 43 10000 6.17 220 15:41 10.05.2022
2193 Clear 24 1016 42 10000 6.17 220 12:47 10.05.2022
2194 Clear 22 1017 50 10000 5.14 210 11:51 10.05.2022
2195 Clear 21 1017 56 10000 4.12 220 11:21 10.05.2022
2196 Clear 20 1017 55 10000 3.6 180 10:54 10.05.2022
2197 Clear 18 1018 60 10000 4.12 170 09:26 10.05.2022
2198 Clear 13 1018 69 10000 2.57 150 07:32 10.05.2022
2199 Clear 13 1019 64 10000 3.09 140 04:34 10.05.2022
2200 Clear 14 1021 55 10000 4.63 160 01:34 10.05.2022
2201 Clear 14 1022 53 10000 3.6 140 23:26 09.05.2022
2202 Clear 16 1022 50 10000 3.09 120 22:29 09.05.2022
2203 Clear 18 1022 44 10000 3.6 110 21:21 09.05.2022
2204 Clear 21 1023 34 10000 4.63 150 19:37 09.05.2022
2205 Clear 22 1024 31 10000 3.6 130 17:56 09.05.2022
2206 Clear 22 1025 31 10000 4.12 0 16:49 09.05.2022
2207 Clear 21 1025 32 10000 3.6 80 15:53 09.05.2022
2208 Clear 21 1026 32 10000 3.6 0 15:34 09.05.2022
2209 Clear 20 1027 34 10000 3.6 180 14:33 09.05.2022
2210 Clear 20 1027 36 10000 4.63 160 13:51 09.05.2022
2211 Clear 17 1028 42 10000 3.6 180 12:32 09.05.2022
2212 Clear 16 1028 48 10000 2.57 0 11:43 09.05.2022
2213 Clear 15 1028 52 10000 3.09 120 10:45 09.05.2022
2214 Clear 13 1029 57 10000 4.12 110 09:39 09.05.2022
2215 Clear 9 1029 73 10000 3.09 110 07:56 09.05.2022
2216 Clear 5 1029 88 10000 2.06 100 04:33 09.05.2022
2217 Clear 5 1029 84 10000 0.51 0 04:33 09.05.2022
2218 Clear 5 1029 88 10000 2.06 100 04:33 09.05.2022
2219 Clear 7 1028 84 10000 1.54 340 00:22 09.05.2022
2220 Clear 9 1028 82 10000 2.57 320 22:57 08.05.2022
2221 Clear 10 1028 79 10000 2.57 320 22:27 08.05.2022
2222 Clear 14 1027 64 10000 5.14 300 20:41 08.05.2022
2223 Clear 15 1027 62 10000 5.14 290 19:53 08.05.2022
2224 Clear 16 1026 50 10000 5.66 280 18:59 08.05.2022
2225 Clear 17 1026 50 10000 5.66 270 18:25 08.05.2022
2226 Clear 18 1026 45 10000 4.63 290 17:21 08.05.2022
2227 Clear 17 1027 47 10000 4.63 280 15:43 08.05.2022
2228 Clear 17 1027 45 10000 4.63 270 15:20 08.05.2022
2229 Clear 14 1028 55 10000 4.12 310 12:45 08.05.2022
2230 Clouds 11 1027 64 10000 4.12 290 10:46 08.05.2022
2231 Clear 11 1027 66 10000 4.12 330 10:21 08.05.2022
2232 Clouds 10 1027 69 10000 4.63 330 09:46 08.05.2022
2233 Clear 5 1026 92 10000 2.06 250 07:33 08.05.2022
2234 Clear 4 1026 90 10000 2.06 310 04:56 08.05.2022
2235 Clear 6 1026 85 10000 3.09 320 03:20 08.05.2022
2236 Clear 8 1025 76 10000 4.12 330 00:31 08.05.2022
2237 Clear 9 1025 75 10000 4.63 320 23:54 07.05.2022
2238 Clear 10 1024 71 10000 5.66 310 22:58 07.05.2022
2239 Clear 12 1024 77 10000 4.12 300 22:34 07.05.2022
2240 Clear 12 1024 75 10000 3.09 310 21:55 07.05.2022
2241 Clear 14 1023 73 10000 4.12 310 21:20 07.05.2022
2242 Clear 15 1023 67 10000 4.12 300 19:59 07.05.2022
2243 Clear 16 1023 69 10000 4.12 310 18:41 07.05.2022
2244 Clouds 16 1023 69 10000 6.17 310 16:19 07.05.2022
2245 Clouds 17 1023 63 10000 4.63 310 14:51 07.05.2022
2246 Clear 17 1023 66 10000 3.6 270 11:21 07.05.2022
2247 Clouds 15 1023 73 10000 3.09 270 09:39 07.05.2022
2248 Clear 13 1022 85 10000 1.54 260 08:28 07.05.2022
2249 Mist 10 1022 90 10000 1.03 210 06:44 07.05.2022
2250 Clear 10 1021 90 10000 1.03 0 06:24 07.05.2022
2251 Clouds 11 1022 84 10000 2.06 260 03:54 07.05.2022
2252 Clear 13 1022 75 10000 1.03 260 23:41 06.05.2022
2253 Clear 14 1023 66 10000 1.54 310 22:34 06.05.2022
2254 Clear 15 1023 57 10000 3.6 290 21:52 06.05.2022
2255 Clear 17 1022 61 10000 4.12 300 20:39 06.05.2022
2256 Clear 18 1022 61 10000 5.14 320 19:43 06.05.2022
2257 Clear 19 1022 56 10000 3.09 300 19:19 06.05.2022
2258 Clear 19 1022 53 10000 4.12 300 18:29 06.05.2022
2259 Clear 20 1023 50 10000 4.12 300 17:34 06.05.2022
2260 Clouds 20 1023 48 10000 4.12 280 15:51 06.05.2022
2261 Clouds 19 1023 52 10000 3.6 270 14:58 06.05.2022
2262 Clouds 19 1024 55 10000 3.6 320 13:45 06.05.2022
2263 Clouds 18 1024 57 10000 4.63 310 12:47 06.05.2022
2264 Clear 17 1025 62 10000 2.57 0 11:58 06.05.2022
2265 Clear 14 1025 70 10000 1.03 0 10:41 06.05.2022
2266 Clouds 12 1025 77 10000 1.03 0 09:47 06.05.2022
2267 Fog 10 1025 88 4200 1.54 240 08:59 06.05.2022
2268 Fog 7 1025 95 500 1.54 240 07:40 06.05.2022
2269 Fog 6 1024 93 300 2.06 320 06:25 06.05.2022
2270 Clear 7 1024 91 10000 1.54 230 02:54 06.05.2022
2271 Clear 7 1024 91 10000 1.54 250 01:58 06.05.2022
2272 Clear 10 1024 77 10000 3.09 320 22:50 05.05.2022
2273 Clear 12 1023 66 10000 3.09 300 21:46 05.05.2022
2274 Clear 15 1022 60 10000 4.63 310 20:36 05.05.2022
2275 Clouds 17 1022 56 10000 4.63 290 18:54 05.05.2022
2276 Clear 17 1022 53 10000 4.63 300 16:40 05.05.2022
2277 Clouds 17 1022 51 10000 3.6 280 15:30 05.05.2022
2278 Clear 16 1022 52 10000 3.09 330 13:30 05.05.2022
2279 Clear 14 1022 56 10000 4.63 270 12:56 05.05.2022
2280 Clear 12 1022 61 10000 2.57 270 11:22 05.05.2022
2281 Clear 10 1021 68 10000 2.57 330 09:40 05.05.2022
2282 Clear 8 1021 77 10000 2.06 340 08:40 05.05.2022
2283 Mist 2 1020 94 10000 1.54 200 06:24 05.05.2022
2284 Clear 4 1019 85 10000 1.54 320 02:25 05.05.2022
2285 Clear 5 1019 82 10000 1.54 350 01:40 05.05.2022
2286 Clear 5 1019 81 10000 2.06 320 00:43 05.05.2022
2287 Clear 7 1019 75 10000 2.57 340 23:18 04.05.2022
2288 Clear 9 1018 66 10000 3.6 320 21:59 04.05.2022
2289 Clear 9 1018 66 10000 3.6 320 21:34 04.05.2022
2290 Clear 10 1018 62 10000 4.12 310 20:55 04.05.2022
2291 Clear 11 1017 59 10000 4.63 320 20:18 04.05.2022
2292 Clear 13 1017 57 10000 5.14 320 19:35 04.05.2022
2293 Clear 13 1017 55 10000 4.63 310 18:43 04.05.2022
2294 Clear 13 1017 55 10000 4.63 310 18:43 04.05.2022
2295 Clouds 14 1017 53 10000 5.14 310 18:19 04.05.2022
2296 Clouds 15 1017 49 10000 4.12 310 17:22 04.05.2022
2297 Clouds 15 1018 50 10000 3.6 290 15:34 04.05.2022
2298 Clouds 14 1018 53 10000 4.12 320 14:45 04.05.2022
2299 Clouds 14 1018 52 10000 4.12 310 14:19 04.05.2022
2300 Clouds 13 1019 57 10000 3.6 300 12:50 04.05.2022
2301 Clouds 11 1019 61 10000 3.6 270 11:59 04.05.2022
2302 Clouds 10 1019 62 10000 3.09 300 10:28 04.05.2022
2303 Clouds 9 1019 71 10000 3.09 270 09:22 04.05.2022
2304 Clouds 5 1019 91 10000 1.03 0 07:59 04.05.2022
2305 Clouds 2 1019 93 10000 1.54 230 05:42 04.05.2022
2306 Clear 3 1019 92 10000 2.06 240 02:42 04.05.2022
2307 Clear 7 1019 77 10000 3.09 300 23:23 03.05.2022
2308 Clear 8 1018 68 10000 4.12 290 21:55 03.05.2022
2309 Clear 9 1018 69 10000 4.12 290 21:32 03.05.2022
2310 Clear 10 1018 63 10000 4.63 290 20:52 03.05.2022
2311 Clear 11 1018 59 10000 4.63 300 19:39 03.05.2022
2312 Clear 13 1018 53 10000 4.63 280 18:48 03.05.2022
2313 Clear 14 1018 54 10000 5.14 300 17:34 03.05.2022
2314 Clear 14 1018 54 10000 6.17 290 16:28 03.05.2022
2315 Clouds 14 1018 57 10000 6.17 280 14:43 03.05.2022
2316 Clouds 13 1018 65 10000 5.66 290 12:46 03.05.2022
2317 Clouds 12 1018 69 10000 4.63 290 12:22 03.05.2022
2318 Clouds 10 1018 87 10000 2.57 290 10:52 03.05.2022
2319 Clouds 8 1018 89 10000 2.06 280 08:38 03.05.2022
2320 Clouds 5 1017 91 10000 2.57 250 06:46 03.05.2022
2321 Clear 4 1018 87 10000 1.54 240 03:34 03.05.2022
2322 Clear 8 1018 61 10000 3.09 300 23:32 02.05.2022
2323 Clear 8 1018 58 10000 2.06 320 22:34 02.05.2022
2324 Clear 11 1018 46 10000 3.6 320 21:48 02.05.2022
2325 Clear 13 1018 44 10000 4.12 300 20:50 02.05.2022
2326 Clear 16 1018 43 10000 5.66 310 18:35 02.05.2022
2327 Clear 16 1018 45 10000 6.17 310 17:44 02.05.2022
2328 Clear 16 1018 46 10000 5.14 290 16:50 02.05.2022
2329 Clear 17 1018 45 10000 5.14 290 16:20 02.05.2022
2330 Clear 16 1019 45 10000 4.12 290 15:19 02.05.2022
2331 Clear 16 1020 43 10000 4.12 280 13:48 02.05.2022
2332 Clear 15 1020 46 10000 2.57 240 12:18 02.05.2022
2333 Clear 13 1021 52 10000 1.54 200 10:25 02.05.2022
2334 Clear 10 1021 66 10000 0.51 0 08:46 02.05.2022
2335 Clear 6 1021 87 10000 0.51 0 07:39 02.05.2022
2336 Clear 9 1022 72 10000 1.54 10 02:51 02.05.2022
2337 Clear 9 1023 71 10000 1.54 10 00:24 02.05.2022
2338 Clear 10 1023 68 10000 2.57 340 23:47 01.05.2022
2339 Clear 10 1023 67 10000 3.09 340 22:20 01.05.2022
2340 Clear 12 1022 59 10000 2.06 30 20:58 01.05.2022
2341 Clear 12 1022 57 10000 2.57 360 19:50 01.05.2022
2342 Clear 13 1022 57 10000 3.09 350 18:55 01.05.2022
2343 Clear 13 1022 56 10000 4.63 300 18:22 01.05.2022
2344 Clear 13 1023 56 10000 4.12 330 17:18 01.05.2022
2345 Clear 13 1023 51 10000 3.6 260 16:23 01.05.2022
2346 Clear 14 1023 46 10000 2.57 310 15:24 01.05.2022
2347 Clear 14 1023 48 10000 3.09 310 13:42 01.05.2022
2348 Clear 12 1024 63 10000 2.57 0 11:18 01.05.2022
2349 Clear 8 1024 87 10000 2.06 330 08:53 01.05.2022
2350 Fog 6 1024 95 9000 2.06 240 07:55 01.05.2022
2351 Clear 5 1024 93 10000 2.06 320 03:31 01.05.2022
2352 Clear 8 1024 83 10000 4.12 310 00:18 01.05.2022
2353 Clear 10 1024 64 10000 4.63 310 21:47 30.04.2022
2354 Clear 12 1023 54 10000 4.63 300 20:58 30.04.2022
2355 Clouds 12 1023 54 10000 4.12 290 19:41 30.04.2022
2356 Clouds 14 1024 53 10000 5.66 290 17:45 30.04.2022
2357 Clouds 14 1024 53 10000 5.66 290 16:44 30.04.2022
2358 Clear 14 1024 49 10000 5.66 270 15:46 30.04.2022
2359 Clouds 14 1024 50 10000 3.6 280 14:44 30.04.2022
2360 Clouds 14 1025 55 10000 4.12 280 12:55 30.04.2022
2361 Clear 12 1026 55 10000 3.09 310 11:34 30.04.2022
2362 Clear 11 1026 63 10000 3.09 320 10:44 30.04.2022
2363 Clear 8 1026 80 10000 3.09 320 09:25 30.04.2022
2364 Fog 2 1025 97 10000 2.06 200 06:43 30.04.2022
2365 Clear 4 1027 91 10000 2.06 240 02:36 30.04.2022
2366 Clear 6 1027 83 10000 3.09 310 23:37 29.04.2022
2367 Clear 8 1027 78 10000 3.6 320 22:31 29.04.2022
2368 Clouds 9 1027 72 10000 3.09 290 21:39 29.04.2022
2369 Clear 10 1027 69 10000 4.12 310 20:49 29.04.2022
2370 Clear 10 1027 67 10000 5.66 310 19:47 29.04.2022
2371 Clear 12 1027 60 10000 4.12 300 17:59 29.04.2022
2372 Clear 13 1027 57 10000 3.6 300 17:23 29.04.2022
2373 Clear 13 1028 56 10000 5.14 280 15:49 29.04.2022
2374 Clear 14 1029 52 10000 4.63 280 14:22 29.04.2022
2375 Clear 13 1029 57 10000 3.09 310 13:21 29.04.2022
2376 Clear 11 1030 61 10000 3.09 310 11:49 29.04.2022
2377 Clear 6 1030 87 10000 2.57 320 08:53 29.04.2022
2378 Clear 5 1029 90 10000 2.06 350 07:28 29.04.2022
2379 Clear 4 1029 92 10000 1.54 340 06:45 29.04.2022
2380 Clouds 4 1029 92 10000 1.54 10 05:44 29.04.2022
2381 Clear 6 1030 87 10000 2.06 320 00:46 29.04.2022
2382 Clear 7 1030 85 10000 2.57 320 23:34 28.04.2022
2383 Clear 8 1030 79 10000 3.09 280 22:45 28.04.2022
2384 Clear 9 1030 70 10000 3.6 290 21:47 28.04.2022
2385 Clear 10 1030 68 10000 4.12 310 21:22 28.04.2022
2386 Clear 12 1029 59 10000 4.63 290 20:35 28.04.2022
2387 Clear 12 1029 49 10000 6.17 290 19:46 28.04.2022
2388 Clear 14 1029 45 10000 6.69 300 19:23 28.04.2022
2389 Clear 15 1029 44 10000 6.69 300 18:37 28.04.2022
2390 Clouds 16 1029 49 10000 7.2 300 17:32 28.04.2022
2391 Clouds 16 1029 53 10000 7.2 280 16:41 28.04.2022
2392 Clouds 17 1029 53 10000 6.69 270 16:19 28.04.2022
2393 Clouds 17 1029 51 10000 5.14 290 15:40 28.04.2022
2394 Clouds 16 1029 52 10000 5.14 270 14:38 28.04.2022
2395 Clouds 15 1029 55 10000 2.57 0 13:19 28.04.2022
2396 Clouds 14 1029 60 10000 3.09 260 12:28 28.04.2022
2397 Clouds 11 1029 68 10000 2.06 290 10:47 28.04.2022
2398 Clouds 11 1029 68 10000 3.09 320 10:26 28.04.2022
2399 Clear 9 1029 73 10000 2.06 230 09:41 28.04.2022
2400 Clear 4 1029 90 10000 1.54 230 07:38 28.04.2022
2401 Clear 2 1028 93 10000 1.54 240 06:37 28.04.2022
2402 Clear 2 1028 92 10000 2.06 230 05:39 28.04.2022
2403 Clear 2 1028 92 10000 2.06 230 04:41 28.04.2022
2404 Clear 6 1028 80 10000 2.06 310 00:51 28.04.2022
2405 Clear 7 1027 73 10000 3.09 300 22:52 27.04.2022
2406 Clear 8 1027 70 10000 4.12 310 21:58 27.04.2022
2407 Clear 9 1027 66 10000 4.12 310 21:29 27.04.2022
2408 Clear 11 1026 60 10000 4.63 310 20:44 27.04.2022
2409 Clear 12 1026 56 10000 5.66 300 19:41 27.04.2022
2410 Clear 12 1026 55 10000 5.14 290 19:22 27.04.2022
2411 Clear 13 1026 54 10000 5.14 290 19:22 27.04.2022
2412 Clear 13 1025 50 10000 5.14 290 18:38 27.04.2022
2413 Clouds 15 1025 49 10000 5.14 290 17:26 27.04.2022
2414 Clouds 14 1025 49 10000 3.6 280 15:56 27.04.2022
2415 Clouds 12 1025 57 10000 3.6 290 12:50 27.04.2022
2416 Clouds 11 1025 64 10000 2.57 320 11:23 27.04.2022
2417 Clear 10 1025 68 10000 3.6 320 10:26 27.04.2022
2418 Clear 6 1024 83 10000 1.54 340 07:41 27.04.2022
2419 Clear 5 1023 85 10000 1.54 310 06:36 27.04.2022
2420 Clear 6 1022 81 10000 2.57 330 02:25 27.04.2022
2421 Clear 7 1022 79 10000 3.09 280 01:18 27.04.2022
2422 Clear 7 1021 76 10000 3.09 320 00:27 27.04.2022
2423 Clear 8 1020 72 10000 2.57 330 23:24 26.04.2022
2424 Clouds 9 1020 71 10000 4.12 320 22:44 26.04.2022
2425 Clear 10 1020 62 10000 4.63 310 21:57 26.04.2022
2426 Clear 12 1019 58 10000 2.57 310 21:18 26.04.2022
2427 Clear 12 1019 56 10000 4.12 330 20:36 26.04.2022
2428 Clear 14 1018 49 10000 6.17 320 19:44 26.04.2022
2429 Clear 14 1017 49 10000 6.69 330 19:24 26.04.2022
2430 Clear 15 1017 42 10000 5.14 340 18:20 26.04.2022
2431 Clear 16 1017 40 10000 4.12 330 17:38 26.04.2022
2432 Clear 16 1017 41 10000 3.09 260 14:59 26.04.2022
2433 Clear 15 1017 43 10000 2.06 0 13:38 26.04.2022
2434 Clear 15 1017 46 10000 3.09 0 12:47 26.04.2022
2435 Clear 13 1017 52 10000 3.09 40 11:20 26.04.2022
2436 Clear 12 1016 58 10000 4.63 80 10:30 26.04.2022
2437 Clear 8 1016 72 10000 1.54 100 08:32 26.04.2022
2438 Clear 4 1015 82 10000 3.09 60 04:53 26.04.2022
2439 Clear 4 1015 81 10000 3.09 50 03:59 26.04.2022
2440 Clear 6 1015 77 10000 0.51 0 00:46 26.04.2022
2441 Clear 7 1015 67 10000 1.54 90 23:49 25.04.2022
2442 Clear 10 1015 54 10000 3.6 70 21:51 25.04.2022
2443 Clear 10 1014 58 10000 3.09 60 21:25 25.04.2022
2444 Clear 13 1013 46 10000 3.6 70 19:53 25.04.2022
2445 Clear 14 1013 46 10000 3.09 60 18:34 25.04.2022
2446 Clear 15 1013 45 10000 4.63 60 17:39 25.04.2022
2447 Clear 15 1013 46 10000 4.12 70 16:42 25.04.2022
2448 Clear 15 1013 47 10000 4.12 50 15:22 25.04.2022
2449 Clear 15 1013 48 10000 4.63 60 14:32 25.04.2022
2450 Clear 13 1013 56 10000 6.17 70 12:47 25.04.2022
2451 Clear 10 1012 66 10000 5.14 60 10:42 25.04.2022
2452 Clear 9 1012 70 10000 5.66 80 09:41 25.04.2022
2453 Clear 6 1011 79 10000 5.66 80 07:49 25.04.2022
2454 Clouds 6 1011 81 10000 5.66 50 05:54 25.04.2022
2455 Clouds 7 1010 82 10000 6.69 60 01:28 25.04.2022
2456 Clouds 7 1009 85 10000 5.66 50 23:54 24.04.2022
2457 Clouds 7 1009 84 10000 5.66 50 23:24 24.04.2022
2458 Clouds 7 1009 83 10000 6.17 50 22:39 24.04.2022
2459 Clouds 7 1009 81 10000 7.2 50 21:56 24.04.2022
2460 Clouds 8 1008 81 10000 8.23 40 21:22 24.04.2022
2461 Clouds 8 1008 79 10000 8.23 40 20:46 24.04.2022
2462 Clouds 9 1008 79 10000 7.72 40 20:20 24.04.2022
2463 Clouds 10 1008 73 10000 7.2 40 18:44 24.04.2022
2464 Clouds 11 1007 69 10000 7.2 40 17:49 24.04.2022
2465 Clouds 11 1007 70 10000 7.72 40 17:21 24.04.2022
2466 Clouds 11 1007 70 10000 7.72 40 17:21 24.04.2022
2467 Clouds 11 1007 70 10000 7.2 30 16:51 24.04.2022
2468 Clouds 11 1007 68 10000 7.2 50 16:25 24.04.2022
2469 Clouds 12 1008 65 10000 7.2 40 15:43 24.04.2022
2470 Clouds 12 1008 63 10000 8.75 40 14:36 24.04.2022
2471 Clouds 12 1008 61 10000 9.26 50 13:27 24.04.2022
2472 Clouds 12 1008 60 10000 7.72 50 12:56 24.04.2022
2473 Clear 11 1008 62 10000 7.2 40 11:50 24.04.2022
2474 Clear 11 1008 64 10000 7.2 50 10:47 24.04.2022
2475 Clear 10 1008 69 10000 7.2 50 09:47 24.04.2022
2476 Clear 7 1008 81 10000 5.14 60 08:18 24.04.2022
2477 Clear 6 1008 85 10000 3.6 50 05:45 24.04.2022
2478 Clear 7 1009 81 10000 5.14 60 02:48 24.04.2022
2479 Clear 8 1009 72 10000 4.12 60 00:45 24.04.2022
2480 Clear 9 1009 66 10000 4.63 80 23:52 23.04.2022
2481 Clear 9 1009 68 10000 3.6 60 23:25 23.04.2022
2482 Clear 10 1009 65 10000 5.66 70 22:39 23.04.2022
2483 Clear 11 1009 60 10000 7.72 50 21:41 23.04.2022
2484 Clear 11 1009 61 10000 7.72 50 21:22 23.04.2022
2485 Clear 13 1009 54 10000 8.23 60 19:56 23.04.2022
2486 Clear 14 1009 53 10000 8.75 50 19:20 23.04.2022
2487 Clear 14 1009 51 10000 9.26 50 18:54 23.04.2022
2488 Clear 15 1009 49 10000 8.23 60 18:32 23.04.2022
2489 Clear 16 1009 50 10000 6.69 70 17:47 23.04.2022
2490 Clear 16 1009 46 10000 7.2 60 16:46 23.04.2022
2491 Clouds 16 1010 47 10000 7.72 70 15:51 23.04.2022
2492 Clear 16 1011 43 10000 6.69 100 13:33 23.04.2022
2493 Clear 15 1012 48 10000 7.2 90 11:30 23.04.2022
2494 Clear 13 1012 54 10000 5.66 90 10:32 23.04.2022
2495 Clear 7 1012 87 10000 4.12 60 08:18 23.04.2022
2496 Clear 6 1012 89 10000 4.63 60 04:18 23.04.2022
2497 Clear 7 1012 85 10000 4.63 50 03:27 23.04.2022
2498 Clear 11 1011 77 10000 4.12 60 23:37 22.04.2022
2499 Clear 10 1011 78 10000 4.12 60 23:18 22.04.2022
2500 Clear 11 1011 75 10000 5.66 50 21:58 22.04.2022
2501 Clear 11 1011 75 10000 5.66 50 21:39 22.04.2022
2502 Clear 12 1011 69 10000 5.66 50 20:34 22.04.2022
2503 Clear 14 1010 61 10000 6.69 50 19:27 22.04.2022
2504 Clear 14 1010 59 10000 6.69 70 18:57 22.04.2022
2505 Clear 15 1010 58 10000 8.23 60 18:26 22.04.2022
2506 Clouds 15 1010 60 10000 7.2 50 17:24 22.04.2022
2507 Clear 15 1011 58 10000 5.66 60 15:59 22.04.2022
2508 Clear 15 1011 62 10000 5.66 70 15:30 22.04.2022
2509 Clear 13 1011 64 10000 6.17 70 14:38 22.04.2022
2510 Clear 12 1011 66 10000 6.69 70 13:42 22.04.2022
2511 Clear 13 1012 65 10000 6.17 60 12:48 22.04.2022
2512 Clear 13 1012 65 10000 5.66 60 11:24 22.04.2022
2513 Clear 12 1012 70 10000 5.14 60 10:58 22.04.2022
2514 Clear 11 1012 71 10000 5.14 60 10:40 22.04.2022
2515 Clear 11 1012 71 10000 5.14 50 10:20 22.04.2022
2516 Clear 9 1012 76 10000 5.66 50 09:30 22.04.2022
2517 Clouds 8 1012 81 10000 6.69 60 08:49 22.04.2022
2518 Clear 6 1012 88 10000 4.12 40 06:54 22.04.2022
2519 Clear 7 1014 81 10000 4.12 50 01:41 22.04.2022
2520 Clear 8 1015 78 10000 4.63 60 23:39 21.04.2022
2521 Clear 9 1015 80 10000 4.12 50 22:48 21.04.2022
2522 Clear 9 1015 79 10000 5.14 50 21:49 21.04.2022
2523 Clear 11 1015 71 10000 4.63 50 20:34 21.04.2022
2524 Clear 11 1015 70 10000 4.12 60 19:36 21.04.2022
2525 Clear 12 1015 63 10000 6.17 50 18:32 21.04.2022
2526 Clear 13 1015 60 10000 5.66 50 17:46 21.04.2022
2527 Clear 14 1015 53 10000 6.17 50 16:24 21.04.2022
2528 Clear 15 1015 50 10000 6.17 50 15:19 21.04.2022
2529 Clear 15 1015 49 10000 6.17 50 14:31 21.04.2022
2530 Clear 16 1015 48 10000 6.69 60 13:22 21.04.2022
2531 Clear 14 1016 49 10000 6.17 50 12:29 21.04.2022
2532 Clear 12 1016 58 10000 5.14 50 10:19 21.04.2022
2533 Clear 9 1016 70 10000 4.63 50 08:53 21.04.2022
2534 Clear 5 1016 85 10000 2.57 40 06:55 21.04.2022
2535 Clear 5 1016 83 10000 2.57 10 04:34 21.04.2022
2536 Clear 5 1017 82 10000 2.06 20 03:24 21.04.2022
2537 Clear 6 1017 79 10000 3.09 40 02:46 21.04.2022
2538 Clear 7 1017 73 10000 4.12 50 00:43 21.04.2022
2539 Clear 8 1017 71 10000 4.12 30 23:48 20.04.2022
2540 Clear 8 1017 71 10000 2.06 30 23:21 20.04.2022
2541 Clear 9 1017 68 10000 4.12 50 22:45 20.04.2022
2542 Clear 9 1017 67 10000 3.6 40 22:26 20.04.2022
2543 Clear 10 1017 62 10000 5.66 50 21:24 20.04.2022
2544 Clear 12 1017 56 10000 5.66 60 20:23 20.04.2022
2545 Clear 12 1017 56 10000 5.66 60 20:23 20.04.2022
2546 Clear 13 1017 52 10000 5.14 50 19:51 20.04.2022
2547 Clear 14 1017 48 10000 6.69 60 18:55 20.04.2022
2548 Clear 15 1017 46 10000 5.66 60 17:55 20.04.2022
2549 Clear 16 1017 44 10000 5.14 50 16:40 20.04.2022
2550 Clear 16 1018 45 10000 5.14 60 16:18 20.04.2022
2551 Clear 15 1019 46 10000 4.12 50 13:50 20.04.2022
2552 Clear 13 1019 49 10000 6.69 60 11:47 20.04.2022
2553 Clear 12 1020 52 10000 5.66 70 10:56 20.04.2022
2554 Clear 11 1020 54 10000 5.66 60 10:19 20.04.2022
2555 Clear 9 1019 63 10000 4.63 60 09:25 20.04.2022
2556 Clear 7 1020 71 10000 4.63 40 08:22 20.04.2022
2557 Clear 7 1020 71 10000 4.63 40 08:22 20.04.2022
2558 Clear 4 1019 81 10000 4.12 40 07:36 20.04.2022
2559 Clear 5 1019 83 10000 3.6 50 03:38 20.04.2022
2560 Clear 7 1019 73 10000 3.09 40 00:23 20.04.2022
2561 Clear 7 1019 70 10000 4.12 40 23:41 19.04.2022
2562 Clear 8 1019 63 10000 4.63 50 22:26 19.04.2022
2563 Clear 9 1018 57 10000 4.63 40 21:57 19.04.2022
2564 Clear 10 1018 56 10000 5.14 50 21:24 19.04.2022
2565 Clear 11 1018 50 10000 5.66 50 20:46 19.04.2022
2566 Clear 12 1017 47 10000 6.17 50 19:57 19.04.2022
2567 Clear 13 1017 47 10000 6.17 60 19:19 19.04.2022
2568 Clear 14 1017 39 10000 6.17 40 17:50 19.04.2022
2569 Clear 15 1017 34 10000 7.2 70 16:43 19.04.2022
2570 Clear 16 1017 34 10000 7.2 70 16:23 19.04.2022
2571 Clear 16 1017 42 10000 6.17 60 14:50 19.04.2022
2572 Clear 15 1017 44 10000 6.69 70 14:27 19.04.2022
2573 Clear 14 1017 44 10000 6.69 40 12:51 19.04.2022
2574 Clear 14 1017 48 10000 5.66 60 12:26 19.04.2022
2575 Clear 12 1017 53 10000 3.6 60 10:50 19.04.2022
2576 Clear 8 1018 64 10000 3.09 60 09:23 19.04.2022
2577 Clear 3 1017 87 10000 1.03 50 06:30 19.04.2022
2578 Clear 6 1017 72 10000 2.57 70 03:59 19.04.2022
2579 Clear 7 1018 67 10000 2.57 60 00:56 19.04.2022
2580 Clear 8 1018 59 10000 3.6 70 23:36 18.04.2022
2581 Clear 11 1018 49 10000 4.63 70 21:38 18.04.2022
2582 Clear 11 1018 50 10000 4.12 70 21:20 18.04.2022
2583 Clear 14 1018 45 10000 5.14 60 20:36 18.04.2022
2584 Clear 14 1018 44 10000 4.63 60 19:57 18.04.2022
2585 Clear 16 1018 42 10000 3.6 70 18:58 18.04.2022
2586 Clear 16 1018 42 10000 4.63 70 18:33 18.04.2022
2587 Clear 16 1018 41 10000 4.63 80 17:38 18.04.2022
2588 Clear 17 1019 39 10000 3.09 120 17:18 18.04.2022
2589 Clear 16 1019 39 10000 3.09 90 16:35 18.04.2022
2590 Clear 16 1020 40 10000 3.6 130 15:27 18.04.2022
2591 Clear 16 1021 39 10000 3.09 110 13:42 18.04.2022
2592 Clear 16 1021 40 10000 3.09 110 13:42 18.04.2022
2593 Clear 14 1022 45 10000 3.6 90 12:40 18.04.2022
2594 Clear 14 1022 47 10000 3.09 160 11:42 18.04.2022
2595 Clear 12 1022 53 10000 3.6 150 10:43 18.04.2022
2596 Clear 9 1022 64 10000 2.57 140 09:31 18.04.2022
2597 Clear 6 1022 71 10000 1.54 90 08:29 18.04.2022
2598 Clear 2 1023 78 10000 1.54 80 05:58 18.04.2022
2599 Clear 5 1024 60 10000 0.51 0 02:22 18.04.2022
2600 Clear 8 1025 57 10000 3.09 70 22:53 17.04.2022
2601 Clear 10 1025 44 10000 3.09 70 22:31 17.04.2022
2602 Clear 11 1025 41 10000 2.57 100 21:33 17.04.2022
2603 Clear 13 1025 34 10000 3.6 100 20:51 17.04.2022
2604 Clear 14 1025 31 10000 4.12 90 19:55 17.04.2022
2605 Clear 15 1026 30 10000 3.6 100 18:42 17.04.2022
2606 Clear 16 1027 29 10000 3.09 110 17:20 17.04.2022
2607 Clear 16 1028 30 10000 3.6 0 15:34 17.04.2022
2608 Clear 15 1029 30 10000 3.09 160 14:45 17.04.2022
2609 Clear 14 1030 32 10000 4.12 150 13:28 17.04.2022
2610 Clear 13 1031 36 10000 3.6 140 12:31 17.04.2022
2611 Clear 11 1032 42 10000 3.6 160 10:51 17.04.2022
2612 Clear 10 1032 46 10000 4.12 150 10:29 17.04.2022
2613 Clear 8 1032 53 10000 3.6 160 09:51 17.04.2022
2614 Clear 8 1032 56 10000 3.6 160 09:20 17.04.2022
2615 Clear 4 1033 73 10000 1.54 80 08:31 17.04.2022
2616 Clear 1 1032 79 10000 1.54 90 05:34 17.04.2022
2617 Clear 4 1034 71 10000 1.03 100 02:26 17.04.2022
2618 Clear 5 1034 69 10000 2.06 80 00:41 17.04.2022
2619 Clear 6 1034 64 10000 1.54 70 23:30 16.04.2022
2620 Clear 8 1035 57 10000 4.63 50 21:47 16.04.2022
2621 Clear 9 1034 57 10000 4.63 50 20:54 16.04.2022
2622 Clear 12 1034 48 10000 4.12 50 19:28 16.04.2022
2623 Clear 13 1034 45 10000 3.6 60 18:43 16.04.2022
2624 Clear 13 1035 44 10000 4.63 70 17:20 16.04.2022
2625 Clear 13 1035 42 10000 4.12 60 15:51 16.04.2022
2626 Clear 13 1036 41 10000 4.63 40 14:58 16.04.2022
2627 Clear 13 1036 42 10000 5.66 100 14:40 16.04.2022
2628 Clear 12 1036 44 10000 4.12 90 13:50 16.04.2022
2629 Clear 12 1036 46 10000 4.12 80 13:18 16.04.2022
2630 Clear 10 1036 51 10000 5.14 110 11:43 16.04.2022
2631 Clear 9 1036 56 10000 5.14 100 10:35 16.04.2022
2632 Clear 7 1036 71 10000 4.12 90 09:37 16.04.2022
2633 Clear 6 1036 75 10000 3.09 80 08:52 16.04.2022
2634 Clear 1 1035 89 10000 2.57 60 07:22 16.04.2022
2635 Clear 2 1035 87 10000 1.54 50 05:45 16.04.2022
2636 Clear 5 1033 84 10000 3.6 70 01:49 16.04.2022
2637 Clouds 6 1032 87 10000 3.09 60 23:52 15.04.2022
2638 Clouds 7 1032 85 10000 3.6 60 22:51 15.04.2022
2639 Clouds 7 1032 84 10000 3.09 50 22:29 15.04.2022
2640 Clouds 7 1031 84 10000 3.6 50 21:34 15.04.2022
2641 Clouds 7 1030 83 10000 3.09 60 20:38 15.04.2022
2642 Clouds 8 1030 83 10000 4.12 60 19:49 15.04.2022
2643 Clouds 8 1030 84 10000 3.6 40 19:30 15.04.2022
2644 Clouds 8 1029 83 10000 4.12 50 18:45 15.04.2022
2645 Clouds 8 1029 86 10000 3.09 40 18:23 15.04.2022
2646 Clouds 9 1028 86 10000 3.6 50 17:28 15.04.2022
2647 Clouds 10 1028 85 10000 2.57 20 16:25 15.04.2022
2648 Clouds 10 1028 85 10000 4.12 40 15:52 15.04.2022
2649 Clouds 10 1027 83 10000 4.12 340 14:20 15.04.2022
2650 Clouds 9 1027 84 10000 4.12 330 12:53 15.04.2022
2651 Clouds 9 1026 84 10000 4.12 340 12:28 15.04.2022
2652 Clouds 9 1026 85 10000 4.12 340 11:54 15.04.2022
2653 Clouds 8 1025 89 10000 3.6 330 10:48 15.04.2022
2654 Clouds 8 1025 90 10000 4.12 340 10:21 15.04.2022
2655 Clouds 8 1024 90 10000 5.14 320 09:23 15.04.2022
2656 Clouds 8 1024 90 10000 4.12 310 08:57 15.04.2022
2657 Clouds 7 1023 92 10000 4.12 300 06:55 15.04.2022
2658 Clouds 7 1023 88 10000 4.63 300 05:56 15.04.2022
2659 Clouds 8 1022 84 10000 5.14 300 01:33 15.04.2022
2660 Clouds 8 1021 88 10000 6.17 290 23:30 14.04.2022
2661 Clouds 9 1021 82 10000 6.69 290 22:46 14.04.2022
2662 Clouds 9 1021 81 10000 6.69 280 22:27 14.04.2022
2663 Clouds 9 1021 81 10000 6.69 280 22:27 14.04.2022
2664 Clouds 9 1021 82 10000 6.17 290 21:53 14.04.2022
2665 Clouds 10 1020 82 10000 5.66 290 20:35 14.04.2022
2666 Clouds 13 1020 73 10000 7.2 300 19:22 14.04.2022
2667 Clouds 14 1019 72 10000 6.69 280 17:58 14.04.2022
2668 Clouds 14 1019 73 10000 6.17 290 17:28 14.04.2022
2669 Clear 15 1019 72 10000 5.66 290 16:33 14.04.2022
2670 Clouds 16 1018 66 10000 4.12 260 14:23 14.04.2022
2671 Clouds 16 1019 71 10000 4.12 270 13:31 14.04.2022
2672 Clouds 15 1019 76 10000 3.6 250 12:51 14.04.2022
2673 Clouds 14 1019 79 10000 4.12 270 12:30 14.04.2022
2674 Clouds 13 1019 91 10000 4.12 270 11:23 14.04.2022
2675 Clouds 12 1019 95 10000 4.12 260 10:36 14.04.2022
2676 Clouds 12 1019 96 8000 3.6 240 09:56 14.04.2022
2677 Mist 11 1018 98 5000 3.09 220 08:44 14.04.2022
2678 Mist 11 1018 97 6000 1.54 220 06:51 14.04.2022
2679 Rain 11 1019 97 10000 1.03 190 02:53 14.04.2022
2680 Rain 13 1019 90 10000 3.6 290 22:56 13.04.2022
2681 Clouds 14 1018 79 10000 3.09 330 22:19 13.04.2022
2682 Clouds 14 1018 77 10000 2.57 320 21:34 13.04.2022
2683 Clear 16 1017 67 10000 5.14 320 20:22 13.04.2022
2684 Clear 17 1016 71 10000 5.14 320 19:32 13.04.2022
2685 Clouds 19 1016 66 10000 6.69 320 18:20 13.04.2022
2686 Clouds 21 1015 56 10000 3.09 250 17:24 13.04.2022
2687 Clear 21 1015 52 10000 2.57 300 16:34 13.04.2022
2688 Clear 21 1015 50 10000 3.6 230 15:40 13.04.2022
2689 Clear 21 1015 47 10000 1.54 0 14:51 13.04.2022
2690 Clear 21 1015 49 10000 1.54 0 14:26 13.04.2022
2691 Clear 19 1015 49 10000 2.06 250 13:29 13.04.2022
2692 Clear 17 1015 52 10000 3.09 170 12:27 13.04.2022
2693 Clear 14 1015 55 10000 2.57 160 10:54 13.04.2022
2694 Clear 11 1014 59 10000 4.12 150 09:44 13.04.2022
2695 Clear 10 1014 61 10000 4.12 150 08:43 13.04.2022
2696 Clear 9 1013 60 10000 4.12 140 06:52 13.04.2022
2697 Clear 10 1013 60 10000 4.12 130 06:26 13.04.2022
2698 Clear 10 1013 58 10000 4.12 130 05:52 13.04.2022
2699 Clear 12 1014 51 10000 5.14 110 00:23 13.04.2022
2700 Clear 12 1014 51 10000 5.66 120 23:46 12.04.2022
2701 Clear 14 1014 45 10000 4.63 120 22:19 12.04.2022
2702 Clear 14 1014 47 10000 5.66 120 21:32 12.04.2022
2703 Clear 15 1013 44 10000 7.72 120 20:42 12.04.2022
2704 Clear 15 1014 41 10000 6.17 110 19:53 12.04.2022
2705 Clear 15 1014 43 10000 6.69 110 19:32 12.04.2022
2706 Clear 16 1014 40 10000 5.14 120 18:42 12.04.2022
2707 Clear 17 1014 40 10000 7.72 130 17:30 12.04.2022
2708 Clear 17 1014 41 10000 7.72 130 16:23 12.04.2022
2709 Clear 16 1015 40 10000 7.72 120 15:33 12.04.2022
2710 Clear 16 1015 42 10000 8.75 110 14:32 12.04.2022
2711 Clear 15 1016 45 10000 7.2 130 13:38 12.04.2022
2712 Clear 13 1016 46 10000 8.75 140 12:53 12.04.2022
2713 Clear 12 1017 51 10000 6.69 120 11:47 12.04.2022
2714 Clear 10 1017 54 10000 6.17 110 11:20 12.04.2022
2715 Clear 6 1017 68 10000 4.63 100 09:25 12.04.2022
2716 Clear 5 1017 73 10000 3.09 110 08:18 12.04.2022
2717 Clear 4 1017 76 10000 3.6 100 06:33 12.04.2022
2718 Clear 4 1017 78 10000 4.12 110 05:35 12.04.2022
2719 Clear 4 1018 77 10000 4.12 80 00:59 12.04.2022
2720 Clear 5 1018 74 10000 4.63 80 23:19 11.04.2022
2721 Clear 6 1018 73 10000 1.54 30 21:49 11.04.2022
2722 Clear 8 1018 62 10000 2.06 30 21:18 11.04.2022
2723 Clear 9 1017 57 10000 3.6 40 20:30 11.04.2022
2724 Clear 10 1017 54 10000 2.57 340 19:57 11.04.2022
2725 Clear 11 1017 49 10000 2.06 310 19:22 11.04.2022
2726 Clear 11 1017 49 10000 2.57 330 18:49 11.04.2022
2727 Clear 12 1017 45 10000 4.63 320 17:57 11.04.2022
2728 Clouds 12 1018 45 10000 3.6 320 16:57 11.04.2022
2729 Clouds 12 1018 43 10000 3.6 310 16:25 11.04.2022
2730 Clouds 11 1018 48 10000 3.09 270 14:36 11.04.2022
2731 Clouds 10 1019 53 10000 3.6 330 13:19 11.04.2022
2732 Clouds 9 1019 59 10000 4.63 320 12:36 11.04.2022
2733 Clouds 9 1019 65 10000 5.14 280 11:42 11.04.2022
2734 Clouds 7 1019 72 10000 3.6 310 10:34 11.04.2022
2735 Clear 5 1019 78 10000 3.09 270 09:34 11.04.2022
2736 Clear 1 1019 90 10000 3.09 240 07:24 11.04.2022
2737 Clear 2 1019 89 10000 2.06 250 02:36 11.04.2022
2738 Clouds 3 1019 86 10000 2.06 240 22:58 10.04.2022
2739 Clouds 4 1018 87 10000 3.09 310 22:26 10.04.2022
2740 Clouds 5 1018 84 10000 5.66 280 21:35 10.04.2022
2741 Clouds 5 1018 81 10000 8.23 280 20:39 10.04.2022
2742 Clouds 6 1018 78 10000 7.2 290 19:53 10.04.2022
2743 Clouds 6 1017 73 10000 7.72 290 19:30 10.04.2022
2744 Rain 7 1017 74 10000 8.75 290 18:46 10.04.2022
2745 Clouds 7 1017 78 10000 9.77 270 17:58 10.04.2022
2746 Clouds 7 1017 78 10000 9.77 270 17:58 10.04.2022
2747 Clouds 7 1017 66 10000 9.26 290 17:39 10.04.2022
2748 Clouds 8 1017 61 10000 9.77 300 16:47 10.04.2022
2749 Clouds 8 1016 66 10000 9.77 290 15:37 10.04.2022
2750 Clouds 7 1016 62 10000 10.8 300 14:34 10.04.2022
2751 Clouds 7 1015 67 10000 8.75 270 12:50 10.04.2022
2752 Clouds 7 1014 70 10000 7.72 270 12:26 10.04.2022
2753 Clouds 6 1014 81 10000 7.72 270 11:29 10.04.2022
2754 Clouds 5 1014 85 10000 10.29 260 10:57 10.04.2022
2755 Rain 5 1014 85 10000 6.17 260 10:20 10.04.2022
2756 Clear 4 1014 90 10000 5.14 260 09:40 10.04.2022
2757 Clouds 3 1013 93 10000 4.63 240 08:25 10.04.2022
2758 Clouds 2 1013 93 10000 4.63 250 07:47 10.04.2022
2759 Clouds 2 1011 94 10000 3.6 250 06:19 10.04.2022
2760 Clouds 3 1011 88 10000 6.17 260 02:48 10.04.2022
2761 Clouds 3 1010 88 10000 6.17 250 00:51 10.04.2022
2762 Rain 3 1009 83 10000 4.63 250 23:50 09.04.2022
2763 Clouds 4 1009 82 10000 8.75 280 22:50 09.04.2022
2764 Clouds 5 1009 76 10000 7.72 270 21:48 09.04.2022
2765 Clear 5 1008 71 10000 8.75 280 20:57 09.04.2022
2766 Clouds 6 1008 70 10000 9.26 280 20:26 09.04.2022
2767 Clouds 6 1007 68 10000 8.75 290 19:42 09.04.2022
2768 Clouds 7 1007 65 10000 9.77 290 19:18 09.04.2022
2769 Clouds 7 1007 65 10000 9.77 290 19:18 09.04.2022
2770 Clouds 7 1007 68 10000 10.29 270 18:22 09.04.2022
2771 Clouds 7 1006 61 10000 11.83 300 17:40 09.04.2022
2772 Clouds 8 1006 60 10000 10.29 280 16:55 09.04.2022
2773 Clouds 8 1005 62 10000 11.83 290 16:24 09.04.2022
2774 Clouds 8 1005 58 10000 10.29 290 15:43 09.04.2022
2775 Clouds 8 1004 66 10000 9.77 290 14:44 09.04.2022
2776 Clouds 8 1004 66 10000 9.77 290 14:44 09.04.2022
2777 Clouds 8 1004 66 10000 10.29 300 14:23 09.04.2022
2778 Clouds 8 1003 81 10000 7.72 280 13:21 09.04.2022
2779 Clouds 7 1003 77 10000 8.75 280 12:52 09.04.2022
2780 Clouds 6 1002 81 10000 9.77 260 11:41 09.04.2022
2781 Clouds 5 1002 88 10000 8.75 270 10:21 09.04.2022
2782 Drizzle 5 1001 88 10000 7.72 260 09:52 09.04.2022
2783 Clouds 3 1001 89 10000 9.26 250 08:57 09.04.2022
2784 Clouds 3 1000 88 10000 6.17 240 07:44 09.04.2022
2785 Clouds 2 996 93 10000 3.6 270 03:21 09.04.2022
2786 Clouds 3 994 90 10000 5.14 270 00:30 09.04.2022
2787 Clouds 4 994 86 10000 6.69 260 22:58 08.04.2022
2788 Clouds 5 994 78 10000 4.63 260 21:35 08.04.2022
2789 Clouds 6 994 71 10000 6.17 280 20:41 08.04.2022
2790 Clouds 7 994 66 10000 7.2 280 19:41 08.04.2022
2791 Clouds 8 993 59 10000 8.23 280 18:38 08.04.2022
2792 Clouds 9 993 58 10000 7.72 290 17:59 08.04.2022
2793 Clouds 9 993 56 10000 8.23 270 17:27 08.04.2022
2794 Clouds 10 993 57 10000 8.75 290 16:52 08.04.2022
2795 Clouds 9 993 59 10000 8.75 280 16:22 08.04.2022
2796 Clouds 9 993 69 10000 6.69 240 15:28 08.04.2022
2797 Rain 9 993 61 10000 8.23 250 14:44 08.04.2022
2798 Clouds 8 993 60 10000 8.75 250 13:55 08.04.2022
2799 Clouds 8 993 63 10000 8.23 260 13:30 08.04.2022
2800 Clouds 8 993 63 10000 9.77 250 12:45 08.04.2022
2801 Clouds 6 993 81 10000 9.26 250 10:56 08.04.2022
2802 Clouds 5 993 83 10000 9.26 240 09:41 08.04.2022
2803 Clouds 4 992 86 10000 8.75 240 08:59 08.04.2022
2804 Clouds 4 991 86 10000 7.2 250 07:43 08.04.2022
2805 Clouds 4 990 80 10000 6.69 250 06:44 08.04.2022
2806 Clouds 5 986 88 10000 6.17 300 02:53 08.04.2022
2807 Clouds 6 980 91 10000 8.75 260 00:29 08.04.2022
2808 Clouds 6 980 92 10000 9.26 250 23:43 07.04.2022
2809 Clouds 6 979 86 10000 9.26 220 22:44 07.04.2022
2810 Clouds 7 979 85 10000 8.75 240 22:23 07.04.2022
2811 Clouds 7 979 85 10000 7.2 240 21:58 07.04.2022
2812 Clouds 7 979 83 10000 9.77 260 21:30 07.04.2022
2813 Clouds 6 979 87 10000 5.66 250 20:42 07.04.2022
2814 Mist 7 978 87 4300 9.77 250 20:20 07.04.2022
2815 Rain 7 977 86 10000 9.77 260 17:43 07.04.2022
2816 Rain 7 977 84 10000 13.89 270 17:22 07.04.2022
2817 Clouds 9 977 81 10000 9.26 240 16:34 07.04.2022
2818 Clouds 8 977 82 10000 8.75 220 15:52 07.04.2022
2819 Clouds 7 978 87 10000 7.2 210 13:59 07.04.2022
2820 Clouds 5 978 90 10000 8.75 220 13:24 07.04.2022
2821 Clouds 5 978 90 10000 8.75 220 13:24 07.04.2022
2822 Clouds 6 979 89 10000 10.29 270 11:53 07.04.2022
2823 Clouds 9 978 88 10000 10.29 200 10:55 07.04.2022
2824 Clouds 10 981 82 10000 11.83 210 09:28 07.04.2022
2825 Clouds 9 983 86 10000 9.77 200 07:38 07.04.2022
2826 Clouds 9 986 87 10000 8.23 210 05:32 07.04.2022
2827 Clouds 9 988 86 10000 8.23 210 02:37 07.04.2022
2828 Drizzle 9 990 88 10000 9.77 210 00:44 07.04.2022
2829 Clouds 9 990 87 10000 9.77 210 23:36 06.04.2022
2830 Clouds 9 991 87 10000 9.77 220 22:45 06.04.2022
2831 Drizzle 9 992 88 10000 8.75 220 22:21 06.04.2022
2832 Clouds 9 992 89 10000 8.75 220 20:53 06.04.2022
2833 Clouds 9 992 93 6000 7.72 220 20:26 06.04.2022
2834 Clouds 9 992 93 8000 7.2 210 19:48 06.04.2022
2835 Clouds 10 993 87 10000 9.26 210 18:48 06.04.2022
2836 Clouds 9 994 94 10000 7.72 210 17:51 06.04.2022
2837 Clouds 9 994 93 10000 8.23 220 17:21 06.04.2022
2838 Drizzle 9 995 91 9000 7.2 230 16:34 06.04.2022
2839 Clouds 10 995 85 10000 7.72 220 15:46 06.04.2022
2840 Clouds 10 995 85 10000 8.23 230 14:20 06.04.2022
2841 Clouds 9 996 89 6000 8.75 240 12:58 06.04.2022
2842 Drizzle 9 996 84 10000 9.77 240 11:54 06.04.2022
2843 Clouds 9 996 87 10000 9.26 240 10:45 06.04.2022
2844 Clouds 9 996 88 10000 8.75 230 10:20 06.04.2022
2845 Clouds 9 996 89 10000 7.72 240 09:40 06.04.2022
2846 Clouds 9 997 92 10000 8.23 240 08:30 06.04.2022
2847 Clouds 8 997 94 8000 7.2 240 07:47 06.04.2022
2848 Clouds 8 998 96 6000 7.2 250 03:37 06.04.2022
2849 Clouds 5 999 95 7000 1.54 140 23:51 05.04.2022
2850 Drizzle 5 1000 95 8000 0.51 0 22:30 05.04.2022
2851 Drizzle 5 1000 95 4200 2.06 340 21:19 05.04.2022
2852 Clouds 5 1000 94 10000 1.03 0 20:25 05.04.2022
2853 Clouds 6 1000 92 10000 1.54 310 19:41 05.04.2022
2854 Clouds 6 1001 90 10000 4.12 280 17:55 05.04.2022
2855 Clouds 6 1001 90 10000 5.14 290 16:54 05.04.2022
2856 Clouds 6 1002 89 10000 6.17 290 15:53 05.04.2022
2857 Clouds 6 1002 87 10000 5.66 280 15:34 05.04.2022
2858 Clouds 6 1002 85 10000 5.66 300 14:35 05.04.2022
2859 Clouds 7 1002 82 10000 6.17 290 13:21 05.04.2022
2860 Clouds 7 1002 79 10000 6.69 280 11:51 05.04.2022
2861 Mist 6 1002 83 5000 8.23 290 11:32 05.04.2022
2862 Clouds 6 1002 83 10000 5.66 270 09:59 05.04.2022
2863 Clouds 5 1001 84 10000 4.63 270 08:54 05.04.2022
2864 Clear 4 1000 88 10000 6.17 270 07:22 05.04.2022
2865 Clouds 5 998 89 10000 6.69 280 01:58 05.04.2022
2866 Clouds 6 997 92 10000 9.77 280 22:44 04.04.2022
2867 Clouds 6 997 92 10000 9.77 280 22:26 04.04.2022
2868 Drizzle 7 996 92 10000 10.29 280 21:21 04.04.2022
2869 Mist 7 996 93 4200 10.29 280 20:50 04.04.2022
2870 Clouds 7 995 95 7000 11.32 270 20:22 04.04.2022
2871 Mist 7 995 93 6000 9.77 280 19:26 04.04.2022
2872 Mist 7 994 94 2500 10.8 250 18:37 04.04.2022
2873 Clouds 6 995 93 10000 12.35 240 16:37 04.04.2022
2874 Clouds 5 995 92 10000 12.86 230 15:58 04.04.2022
2875 Clouds 5 996 91 10000 12.35 230 15:33 04.04.2022
2876 Rain 5 996 91 10000 13.38 230 14:46 04.04.2022
2877 Rain 4 998 90 8000 12.35 230 13:40 04.04.2022
2878 Clouds 3 1000 91 8000 12.86 220 12:26 04.04.2022
2879 Clouds 3 1001 91 10000 11.32 220 11:29 04.04.2022
2880 Clouds 3 1004 90 10000 9.77 210 09:51 04.04.2022
2881 Clear 3 1010 86 10000 6.69 230 05:33 04.04.2022
2882 Clouds 3 1013 84 10000 5.66 250 02:47 04.04.2022
2883 Clear 3 1015 81 10000 4.12 250 22:49 03.04.2022
2884 Clouds 4 1016 80 10000 5.66 270 21:58 03.04.2022
2885 Clouds 4 1016 76 10000 4.12 270 21:25 03.04.2022
2886 Clouds 5 1016 73 10000 5.66 290 20:21 03.04.2022
2887 Clouds 7 1016 66 10000 9.26 290 18:37 03.04.2022
2888 Clouds 7 1016 66 10000 9.77 290 17:55 03.04.2022
2889 Clouds 7 1016 65 10000 9.77 290 17:35 03.04.2022
2890 Clouds 7 1017 66 10000 7.72 280 16:49 03.04.2022
2891 Clouds 7 1017 67 10000 8.23 310 15:46 03.04.2022
2892 Clouds 6 1017 75 10000 5.14 310 14:20 03.04.2022
2893 Clouds 6 1018 77 10000 3.6 290 12:59 03.04.2022
2894 Clouds 5 1019 82 10000 3.6 270 11:39 03.04.2022
2895 Clouds 2 1019 87 10000 4.12 250 09:57 03.04.2022
2896 Clouds 1 1019 85 10000 2.06 260 08:57 03.04.2022
2897 Clear -2 1019 87 10000 1.03 230 05:45 03.04.2022
2898 Clear -2 1020 79 10000 1.54 200 02:55 03.04.2022
2899 Clear -1 1020 67 10000 2.06 310 23:48 02.04.2022
2900 Clear 0 1020 59 10000 1.54 340 22:45 02.04.2022
2901 Clear 1 1020 52 10000 2.06 10 21:56 02.04.2022
2902 Clear 2 1020 50 10000 3.09 30 21:21 02.04.2022
2903 Clear 3 1019 43 10000 4.63 30 20:36 02.04.2022
2904 Clear 3 1019 46 10000 3.6 30 20:36 02.04.2022
2905 Clear 5 1018 37 10000 6.17 50 18:49 02.04.2022
2906 Clear 6 1018 36 10000 6.17 10 18:20 02.04.2022
2907 Clear 6 1018 38 10000 6.17 10 17:23 02.04.2022
2908 Clouds 7 1018 38 10000 6.69 30 15:55 02.04.2022
2909 Clouds 6 1018 41 10000 6.69 20 15:20 02.04.2022
2910 Clouds 6 1018 39 10000 6.17 40 14:32 02.04.2022
2911 Clear 6 1018 38 10000 7.2 40 13:34 02.04.2022
2912 Clear 5 1018 40 10000 7.2 40 12:32 02.04.2022
2913 Clear 4 1018 49 10000 7.2 30 10:46 02.04.2022
2914 Clear 1 1017 76 10000 3.6 10 08:44 02.04.2022
2915 Clouds 1 1015 78 10000 3.6 20 05:58 02.04.2022
2916 Clouds 1 1015 71 10000 4.12 20 03:31 02.04.2022
2917 Clear 2 1014 63 10000 5.14 40 23:55 01.04.2022
2918 Clear 3 1014 60 10000 6.69 40 22:55 01.04.2022
2919 Clear 3 1014 59 10000 7.72 50 21:31 01.04.2022
2920 Clear 3 1013 61 10000 7.72 50 20:50 01.04.2022
2921 Clouds 4 1012 57 10000 9.77 50 19:51 01.04.2022
2922 Clouds 4 1012 57 10000 9.26 40 19:30 01.04.2022
2923 Clouds 4 1011 56 10000 10.29 40 18:44 01.04.2022
2924 Clouds 4 1011 56 10000 9.77 50 17:46 01.04.2022
2925 Clouds 5 1011 54 10000 9.77 40 16:42 01.04.2022
2926 Clouds 5 1011 54 10000 9.77 50 15:23 01.04.2022
2927 Clouds 5 1011 55 10000 10.29 50 14:20 01.04.2022
2928 Clouds 5 1011 55 10000 10.29 50 14:20 01.04.2022
2929 Clouds 5 1011 57 10000 9.77 50 13:33 01.04.2022
2930 Clouds 4 1011 57 10000 9.26 50 12:32 01.04.2022
2931 Clouds 4 1011 57 10000 9.26 50 12:32 01.04.2022
2932 Clouds 4 1010 58 10000 8.23 60 11:37 01.04.2022
2933 Clouds 3 1010 64 10000 8.23 50 10:18 01.04.2022
2934 Clear 2 1009 65 10000 7.72 50 08:30 01.04.2022
2935 Clear 2 1008 61 10000 10.29 50 06:39 01.04.2022
2936 Clouds 2 1007 60 10000 7.72 50 04:49 01.04.2022
2937 Clear 2 1007 58 10000 7.72 40 04:30 01.04.2022
2938 Clear 2 1008 54 10000 5.14 60 01:56 01.04.2022
2939 Clear 2 1007 49 10000 7.2 80 22:58 31.03.2022
2940 Clear 3 1007 49 10000 6.17 70 21:51 31.03.2022
2941 Clear 3 1006 45 10000 7.72 60 21:32 31.03.2022
2942 Clouds 3 1006 45 10000 8.23 70 20:29 31.03.2022
2943 Clouds 4 1005 41 10000 9.77 70 19:49 31.03.2022
2944 Clear 4 1005 44 10000 8.23 70 18:44 31.03.2022
2945 Clear 5 1004 37 10000 9.77 70 17:49 31.03.2022
2946 Clear 6 1004 38 10000 7.72 70 16:38 31.03.2022
2947 Clear 5 1005 44 10000 7.72 80 15:45 31.03.2022
2948 Clear 5 1005 49 10000 7.72 70 15:19 31.03.2022
2949 Clear 4 1005 59 10000 8.23 70 14:36 31.03.2022
2950 Clear 1 1005 87 10000 5.66 70 12:19 31.03.2022
2951 Clouds 0 1005 93 10000 6.17 70 11:22 31.03.2022
2952 Fog 0 1005 95 900 6.69 60 09:45 31.03.2022
2953 Fog 0 1004 95 750 6.69 70 08:20 31.03.2022
2954 Mist 1 1004 91 5000 5.66 70 05:42 31.03.2022
2955 Clouds 3 1004 90 10000 2.06 20 00:32 31.03.2022
2956 Clouds 4 1005 91 10000 3.6 60 22:44 30.03.2022
2957 Clouds 4 1004 88 10000 4.12 60 21:39 30.03.2022
2958 Clouds 5 1004 82 10000 4.12 60 20:54 30.03.2022
2959 Clouds 5 1004 76 10000 4.63 60 20:20 30.03.2022
2960 Clouds 5 1004 77 10000 4.63 60 20:20 30.03.2022
2961 Clouds 6 1004 72 10000 2.57 50 19:35 30.03.2022
2962 Clouds 6 1004 67 10000 2.06 150 18:28 30.03.2022
2963 Clouds 7 1004 64 10000 2.06 110 17:47 30.03.2022
2964 Clouds 7 1004 66 10000 2.06 110 16:57 30.03.2022
2965 Clouds 7 1005 67 10000 2.57 60 16:38 30.03.2022
2966 Clouds 7 1005 72 10000 1.54 10 15:24 30.03.2022
2967 Clouds 5 1006 81 10000 2.06 0 13:44 30.03.2022
2968 Clouds 5 1006 83 10000 1.54 50 12:58 30.03.2022
2969 Clouds 4 1006 87 10000 1.54 60 11:34 30.03.2022
2970 Clouds 4 1006 89 10000 1.54 0 11:34 30.03.2022
2971 Clouds 3 1006 89 10000 2.57 40 10:28 30.03.2022
2972 Clouds 3 1007 91 10000 2.57 40 09:25 30.03.2022
2973 Clouds 3 1007 89 10000 2.57 50 07:33 30.03.2022
2974 Drizzle 3 1007 85 10000 1.03 0 05:41 30.03.2022
2975 Clear 3 1007 82 10000 0.51 10 03:59 30.03.2022
2976 Clear 4 1008 74 10000 2.57 290 00:42 30.03.2022
2977 Clear 5 1009 70 10000 3.6 300 22:34 29.03.2022
2978 Clear 5 1009 69 10000 4.12 300 21:45 29.03.2022
2979 Clear 6 1009 64 10000 5.66 310 20:54 29.03.2022
2980 Clear 6 1009 63 10000 5.66 310 20:20 29.03.2022
2981 Clouds 8 1009 57 10000 7.72 290 18:56 29.03.2022
2982 Clouds 8 1009 57 10000 7.72 300 18:31 29.03.2022
2983 Clear 9 1009 54 10000 7.2 290 17:36 29.03.2022
2984 Clear 10 1010 54 10000 6.69 290 16:58 29.03.2022
2985 Clouds 10 1010 54 10000 7.2 290 15:58 29.03.2022
2986 Clouds 10 1011 54 10000 6.17 310 14:53 29.03.2022
2987 Clouds 10 1011 55 10000 6.69 290 14:18 29.03.2022
2988 Clouds 9 1012 60 10000 6.69 300 12:55 29.03.2022
2989 Clouds 8 1012 64 10000 6.69 300 11:44 29.03.2022
2990 Clouds 7 1013 70 10000 6.69 300 10:55 29.03.2022
2991 Clear 6 1013 74 10000 4.63 310 09:49 29.03.2022
2992 Clouds 4 1013 87 10000 3.09 310 08:20 29.03.2022
2993 Clouds 5 1014 82 10000 5.14 320 05:35 29.03.2022
2994 Clouds 6 1016 87 10000 4.63 290 00:50 29.03.2022
2995 Clouds 6 1017 89 10000 6.69 300 23:24 28.03.2022
2996 Clouds 6 1017 87 10000 6.17 300 22:54 28.03.2022
2997 Clouds 7 1017 85 10000 5.66 300 22:26 28.03.2022
2998 Clouds 7 1017 81 10000 5.66 280 20:58 28.03.2022
2999 Clouds 8 1018 82 10000 5.14 280 20:23 28.03.2022
3000 Clouds 8 1018 81 10000 4.63 290 19:46 28.03.2022
3001 Clouds 8 1018 80 10000 5.66 300 19:27 28.03.2022
3002 Clouds 8 1018 80 10000 6.17 290 18:40 28.03.2022
3003 Clouds 8 1019 79 10000 6.17 290 17:39 28.03.2022
3004 Clouds 9 1020 75 10000 6.17 300 16:33 28.03.2022
3005 Clouds 10 1021 74 10000 5.66 280 14:49 28.03.2022
3006 Clouds 10 1021 73 10000 4.63 280 14:22 28.03.2022
3007 Clouds 8 1022 79 10000 3.6 280 12:41 28.03.2022
3008 Clouds 6 1023 84 10000 4.12 290 11:32 28.03.2022
3009 Clouds 5 1024 91 10000 3.09 300 09:43 28.03.2022
3010 Clouds 5 1024 91 10000 3.6 330 09:19 28.03.2022
3011 Clouds 5 1024 95 10000 4.63 320 08:22 28.03.2022
3012 Clouds 5 1025 94 10000 4.12 310 07:40 28.03.2022
3013 Clouds 5 1026 95 8000 3.09 280 04:18 28.03.2022
3014 Clouds 5 1028 96 10000 5.14 290 23:33 27.03.2022
3015 Clouds 6 1028 93 10000 4.63 290 22:25 27.03.2022
3016 Clear 7 1028 84 10000 4.63 290 21:42 27.03.2022
3017 Clear 9 1028 74 10000 4.12 290 20:58 27.03.2022
3018 Clear 11 1028 61 10000 4.63 300 19:49 27.03.2022
3019 Clear 12 1028 61 10000 4.63 300 19:30 27.03.2022
3020 Clear 13 1029 65 10000 3.6 260 18:28 27.03.2022
3021 Clear 14 1029 68 10000 4.12 260 17:40 27.03.2022
3022 Clear 14 1029 68 10000 4.63 280 17:20 27.03.2022
3023 Clear 14 1031 68 10000 4.12 290 15:28 27.03.2022
3024 Clear 12 1031 73 10000 3.6 280 13:56 27.03.2022
3025 Clear 9 1032 88 10000 2.57 260 12:41 27.03.2022
3026 Mist 7 1032 93 5000 2.57 260 11:21 27.03.2022
3027 Fog 2 1032 100 300 2.57 250 09:21 27.03.2022
3028 Fog 2 1031 98 400 2.06 240 06:44 27.03.2022
3029 Fog 3 1032 94 700 1.54 240 01:41 27.03.2022
3030 Mist 4 1032 96 9000 2.06 270 00:24 27.03.2022
3031 Fog 5 1032 92 10000 2.57 290 22:43 26.03.2022
3032 Clear 6 1031 91 10000 2.57 290 21:50 26.03.2022
3033 Clear 6 1031 91 10000 4.12 290 21:26 26.03.2022
3034 Clouds 8 1030 86 10000 4.12 290 19:31 26.03.2022
3035 Clouds 10 1030 80 10000 5.14 280 18:24 26.03.2022
3036 Clouds 11 1030 81 10000 5.66 280 17:33 26.03.2022
3037 Clouds 12 1029 80 10000 6.69 280 16:27 26.03.2022
3038 Clouds 12 1029 78 10000 7.2 280 15:35 26.03.2022
3039 Clouds 12 1029 78 10000 6.17 270 13:55 26.03.2022
3040 Clouds 13 1029 77 10000 6.69 270 13:19 26.03.2022
3041 Clouds 12 1029 73 10000 6.69 290 11:42 26.03.2022
3042 Clouds 12 1029 74 10000 6.17 290 10:32 26.03.2022
3043 Haze 9 1029 81 5000 4.63 300 08:44 26.03.2022
3044 Mist 4 1029 90 4600 3.6 250 06:30 26.03.2022
3045 Mist 4 1029 89 5000 2.57 260 05:29 26.03.2022
3046 Mist 6 1030 86 4500 2.06 250 00:41 26.03.2022
3047 Clear 8 1030 77 7000 2.57 300 21:56 25.03.2022
3048 Clear 9 1030 74 9000 3.09 290 20:47 25.03.2022
3049 Clear 10 1030 72 10000 3.09 290 20:20 25.03.2022
3050 Clear 12 1029 58 10000 4.12 300 18:59 25.03.2022
3051 Clear 15 1029 48 10000 5.14 300 17:53 25.03.2022
3052 Clear 16 1029 48 10000 5.14 300 17:27 25.03.2022
3053 Clear 17 1029 47 10000 5.14 290 16:21 25.03.2022
3054 Clear 17 1030 43 10000 4.63 270 14:54 25.03.2022
3055 Clear 16 1031 46 10000 3.6 280 13:28 25.03.2022
3056 Clear 12 1031 61 10000 2.06 260 10:49 25.03.2022
3057 Clouds 9 1030 76 6000 1.54 260 09:28 25.03.2022
3058 Clear 6 1030 85 6000 1.54 240 08:36 25.03.2022
3059 Mist 3 1030 93 5000 1.03 310 07:30 25.03.2022
3060 Mist 2 1029 93 5000 0.51 310 06:29 25.03.2022
3061 Mist 5 1029 85 8000 1.03 250 01:57 25.03.2022
3062 Clear 7 1029 74 10000 0.51 0 22:56 24.03.2022
3063 Clear 8 1029 70 10000 0.51 0 21:56 24.03.2022
3064 Clear 9 1029 64 10000 1.54 70 20:45 24.03.2022
3065 Clear 11 1029 56 10000 1.54 50 19:49 24.03.2022
3066 Clear 11 1029 56 10000 1.54 50 19:49 24.03.2022
3067 Clear 15 1028 46 10000 2.06 320 18:22 24.03.2022
3068 Clear 16 1028 39 10000 2.06 360 17:32 24.03.2022
3069 Clear 17 1029 39 10000 2.06 140 15:56 24.03.2022
3070 Clear 17 1029 39 10000 1.54 0 14:51 24.03.2022
3071 Clear 17 1029 38 10000 1.54 50 14:21 24.03.2022
3072 Clear 16 1030 39 10000 2.06 110 13:31 24.03.2022
3073 Clear 15 1030 43 10000 3.09 80 12:23 24.03.2022
3074 Clear 12 1031 48 10000 3.09 140 10:32 24.03.2022
3075 Clear 9 1030 60 10000 1.54 80 09:24 24.03.2022
3076 Clear 6 1030 76 9000 1.54 140 08:32 24.03.2022
3077 Clear 4 1030 78 8000 1.54 70 04:52 24.03.2022
3078 Clear 7 1031 66 10000 1.54 90 23:41 23.03.2022
3079 Clear 8 1031 64 10000 2.06 60 22:18 23.03.2022
3080 Clear 9 1031 59 10000 3.09 90 21:21 23.03.2022
3081 Clear 11 1031 57 10000 3.6 60 19:51 23.03.2022
3082 Clear 12 1031 53 10000 4.12 60 19:25 23.03.2022
3083 Clear 16 1030 41 10000 4.63 70 17:48 23.03.2022
3084 Clear 16 1030 41 10000 3.6 70 17:18 23.03.2022
3085 Clear 17 1031 36 10000 3.6 50 15:25 23.03.2022
3086 Clear 17 1031 35 10000 4.12 60 14:47 23.03.2022
3087 Clear 17 1032 35 10000 2.57 0 13:30 23.03.2022
3088 Clear 15 1033 33 10000 3.09 130 10:50 23.03.2022
3089 Clear 5 1032 71 10000 1.03 80 08:29 23.03.2022
3090 Clear 2 1032 81 10000 1.54 90 05:50 23.03.2022
3091 Clear 4 1032 73 10000 2.57 50 02:28 23.03.2022
3092 Clear 6 1032 62 10000 1.54 80 00:26 23.03.2022
3093 Clear 9 1032 50 10000 1.54 90 21:40 22.03.2022
3094 Clear 9 1032 49 10000 1.54 70 20:59 22.03.2022
3095 Clear 10 1032 46 10000 1.54 90 20:18 22.03.2022
3096 Clear 13 1032 38 10000 2.57 100 19:27 22.03.2022
3097 Clear 14 1032 36 10000 2.57 100 18:48 22.03.2022
3098 Clear 16 1032 30 10000 2.06 100 17:43 22.03.2022
3099 Clear 17 1032 27 10000 1.54 100 16:39 22.03.2022
3100 Clear 18 1032 29 10000 3.09 100 15:42 22.03.2022
3101 Clear 18 1032 31 10000 3.09 90 15:20 22.03.2022
3102 Clear 17 1032 32 10000 3.09 80 14:44 22.03.2022
3103 Clear 17 1033 33 10000 3.6 80 13:42 22.03.2022
3104 Clear 16 1033 37 10000 2.57 160 12:34 22.03.2022
3105 Clear 14 1034 40 10000 1.03 0 11:24 22.03.2022
3106 Clear 8 1034 51 10000 2.06 90 09:42 22.03.2022
3107 Clear 3 1033 60 10000 2.57 100 07:35 22.03.2022
3108 Clear 4 1033 54 10000 2.57 90 04:29 22.03.2022
3109 Clear 5 1033 54 10000 2.06 90 02:52 22.03.2022
3110 Clear 6 1033 51 10000 2.06 80 23:19 21.03.2022
3111 Clear 7 1033 49 10000 1.54 110 21:39 21.03.2022
3112 Clear 9 1033 44 10000 3.09 120 20:45 21.03.2022
3113 Clear 9 1033 43 10000 3.09 110 20:24 21.03.2022
3114 Clear 10 1033 45 10000 3.09 110 19:48 21.03.2022
3115 Clear 11 1033 43 10000 3.6 100 19:22 21.03.2022
3116 Clear 13 1032 38 10000 5.14 150 17:36 21.03.2022
3117 Clear 13 1032 37 10000 4.63 150 16:59 21.03.2022
3118 Clear 14 1032 36 10000 5.66 160 16:36 21.03.2022
3119 Clear 14 1032 36 10000 5.66 150 15:45 21.03.2022
3120 Clear 13 1032 36 10000 5.66 130 14:48 21.03.2022
3121 Clear 13 1033 37 10000 5.66 130 13:35 21.03.2022
3122 Clear 12 1033 39 10000 5.66 150 12:31 21.03.2022
3123 Clear 10 1033 41 10000 6.17 150 11:39 21.03.2022
3124 Clear 8 1034 44 10000 5.66 130 10:20 21.03.2022
3125 Clear 4 1034 54 10000 4.63 140 08:26 21.03.2022
3126 Clear 4 1033 52 10000 4.12 130 06:31 21.03.2022
3127 Clear 6 1033 45 10000 5.14 120 02:33 21.03.2022
3128 Clear 8 1033 40 10000 6.69 120 23:40 20.03.2022
3129 Clear 8 1033 40 10000 7.72 120 22:43 20.03.2022
3130 Clear 9 1033 39 10000 7.2 120 21:50 20.03.2022
3131 Clear 9 1033 39 10000 7.2 120 21:20 20.03.2022
3132 Clear 9 1033 39 10000 7.72 120 20:42 20.03.2022
3133 Clear 10 1032 37 10000 8.23 110 19:57 20.03.2022
3134 Clear 10 1033 37 10000 8.23 120 19:26 20.03.2022
3135 Clear 12 1032 31 10000 9.77 120 17:52 20.03.2022
3136 Clear 12 1032 30 10000 10.29 120 17:30 20.03.2022
3137 Clear 12 1032 30 10000 11.83 120 16:57 20.03.2022
3138 Clear 13 1033 31 10000 9.77 120 15:28 20.03.2022
3139 Clear 12 1034 32 10000 10.29 110 14:23 20.03.2022
3140 Clear 10 1036 41 10000 8.75 100 12:30 20.03.2022
3141 Clear 9 1037 46 10000 8.75 100 11:22 20.03.2022
3142 Clear 4 1038 62 10000 5.66 90 08:59 20.03.2022
3143 Clear 2 1038 77 10000 6.17 80 07:28 20.03.2022
3144 Clear 2 1039 83 10000 5.66 70 05:40 20.03.2022
3145 Clear 3 1041 86 10000 5.14 80 01:50 20.03.2022
3146 Clouds 3 1041 85 10000 5.14 80 00:45 20.03.2022
3147 Clouds 4 1042 81 10000 6.17 80 23:19 19.03.2022
3148 Clear 4 1042 84 10000 6.17 70 21:28 19.03.2022
3149 Clear 5 1043 81 10000 6.17 70 20:58 19.03.2022
3150 Clear 7 1043 74 10000 5.66 50 18:58 19.03.2022
3151 Clear 7 1043 70 10000 6.69 50 18:24 19.03.2022
3152 Clear 9 1043 64 10000 6.69 50 17:35 19.03.2022
3153 Clouds 10 1043 60 10000 7.72 70 15:46 19.03.2022
3154 Clouds 10 1044 58 10000 7.2 50 14:57 19.03.2022
3155 Clear 11 1045 50 10000 8.23 40 13:20 19.03.2022
3156 Clear 11 1046 52 10000 9.26 50 12:40 19.03.2022
3157 Clear 10 1046 59 10000 6.17 60 11:54 19.03.2022
3158 Clear 9 1047 64 10000 5.66 70 11:25 19.03.2022
3159 Clear 1 1047 90 10000 1.54 90 07:59 19.03.2022
3160 Clear 2 1047 86 10000 2.57 60 03:53 19.03.2022
3161 Clear 2 1047 85 10000 2.06 20 02:30 19.03.2022
3162 Clear 4 1047 87 10000 1.54 60 23:46 18.03.2022
3163 Clear 6 1047 80 10000 2.06 70 22:29 18.03.2022
3164 Clear 6 1047 78 10000 2.06 40 21:55 18.03.2022
3165 Clouds 9 1046 71 10000 5.66 60 19:57 18.03.2022
3166 Clouds 10 1045 73 10000 4.63 60 19:22 18.03.2022
3167 Clouds 12 1044 65 10000 3.09 10 18:27 18.03.2022
3168 Clouds 13 1044 61 10000 3.09 330 16:52 18.03.2022
3169 Clouds 14 1044 62 10000 2.57 280 15:52 18.03.2022
3170 Clouds 14 1044 62 10000 3.6 270 14:25 18.03.2022
3171 Clear 13 1044 63 10000 1.54 270 13:18 18.03.2022
3172 Clear 9 1044 76 10000 2.57 300 11:28 18.03.2022
3173 Clouds 4 1042 91 10000 2.06 270 09:41 18.03.2022
3174 Clouds 2 1042 96 10000 1.03 0 08:45 18.03.2022
3175 Mist 0 1040 97 10000 1.03 0 06:45 18.03.2022
3176 Mist 0 1039 97 5000 1.54 260 04:38 18.03.2022
3177 Mist 0 1039 97 5000 1.54 260 04:38 18.03.2022
3178 Fog 1 1037 96 4900 1.03 260 00:55 18.03.2022
3179 Mist 1 1037 94 6000 1.54 230 23:52 17.03.2022
3180 Mist 1 1037 94 6000 1.54 230 23:52 17.03.2022
3181 Mist 1 1037 94 6000 1.54 230 23:52 17.03.2022
3182 Mist 1 1037 94 6000 1.54 230 23:52 17.03.2022
3183 Clear 2 1036 92 10000 1.54 250 22:43 17.03.2022
3184 Clear 2 1036 91 10000 1.54 250 22:18 17.03.2022
3185 Clear 3 1035 90 10000 2.06 270 21:27 17.03.2022
3186 Clear 4 1034 88 10000 2.06 270 20:53 17.03.2022
3187 Clouds 5 1034 84 10000 2.06 300 20:19 17.03.2022
3188 Clear 6 1033 79 10000 4.63 290 19:37 17.03.2022
3189 Clear 7 1032 76 10000 5.14 300 18:51 17.03.2022
3190 Clouds 8 1031 75 10000 4.12 300 17:28 17.03.2022
3191 Clouds 8 1030 75 10000 6.17 290 16:20 17.03.2022
3192 Clouds 8 1029 78 10000 5.66 290 15:43 17.03.2022
3193 Clouds 8 1028 82 10000 5.66 270 14:59 17.03.2022
3194 Clouds 8 1027 87 10000 6.69 280 13:35 17.03.2022
3195 Rain 7 1026 94 7000 7.2 270 12:46 17.03.2022
3196 Clouds 8 1024 89 6000 4.63 170 11:33 17.03.2022
3197 Clouds 8 1024 84 8000 5.66 170 10:43 17.03.2022
3198 Clear 8 1023 79 10000 7.72 150 09:37 17.03.2022
3199 Clear 7 1023 81 10000 7.72 140 08:19 17.03.2022
3200 Clear 6 1023 85 10000 6.69 120 05:51 17.03.2022
3201 Clouds 6 1024 85 9000 5.66 120 04:40 17.03.2022
3202 Clear 7 1026 82 10000 6.17 120 00:27 17.03.2022
3203 Clear 7 1026 82 10000 5.66 110 22:57 16.03.2022
3204 Clear 7 1026 81 10000 5.66 120 22:36 16.03.2022
3205 Clear 7 1026 79 10000 5.66 110 21:56 16.03.2022
3206 Clear 8 1026 78 10000 5.14 100 20:47 16.03.2022
3207 Clear 9 1026 77 10000 4.63 90 19:24 16.03.2022
3208 Clear 9 1026 74 10000 4.63 100 18:43 16.03.2022
3209 Clear 10 1027 69 10000 6.17 90 17:50 16.03.2022
3210 Clear 11 1027 67 10000 5.14 90 17:31 16.03.2022
3211 Clear 11 1027 69 10000 5.66 100 16:36 16.03.2022
3212 Clear 11 1028 68 10000 4.12 110 15:34 16.03.2022
3213 Clear 11 1028 71 10000 3.09 120 13:41 16.03.2022
3214 Clear 10 1029 74 10000 2.06 100 12:56 16.03.2022
3215 Clear 8 1029 81 10000 2.57 110 11:24 16.03.2022
3216 Clear 7 1029 84 10000 2.57 90 10:43 16.03.2022
3217 Clear 6 1028 93 10000 2.57 60 09:57 16.03.2022
3218 Clear 4 1028 96 8000 1.54 60 08:33 16.03.2022
3219 Fog 3 1026 98 650 0.51 50 02:46 16.03.2022
3220 Fog 6 1025 97 350 1.54 60 22:58 15.03.2022
3221 Fog 7 1025 97 2000 1.03 0 22:36 15.03.2022
3222 Clouds 7 1025 93 8000 1.03 140 21:27 15.03.2022
3223 Clouds 8 1025 92 6000 2.57 10 19:47 15.03.2022
3224 Clouds 9 1025 85 10000 2.06 10 18:35 15.03.2022
3225 Clouds 11 1024 74 10000 1.54 60 16:42 15.03.2022
3226 Clouds 11 1024 74 10000 1.54 90 15:44 15.03.2022
3227 Clouds 11 1025 78 10000 2.06 60 14:54 15.03.2022
3228 Clouds 10 1025 79 10000 2.06 70 14:30 15.03.2022
3229 Clear 10 1026 82 10000 1.03 0 13:24 15.03.2022
3230 Clouds 8 1027 90 6000 2.06 170 11:48 15.03.2022
3231 Mist 7 1027 91 4300 1.03 0 10:56 15.03.2022
3232 Fog 4 1028 98 500 1.54 160 09:30 15.03.2022
3233 Fog 4 1028 98 450 1.54 190 08:32 15.03.2022
3234 Fog 3 1028 98 450 1.54 180 07:39 15.03.2022
3235 Fog 3 1028 97 700 1.03 0 06:32 15.03.2022
3236 Clouds 5 1028 95 6000 2.57 240 01:59 15.03.2022
3237 Clouds 7 1027 95 10000 3.09 260 23:32 14.03.2022
3238 Clouds 7 1027 93 10000 3.09 260 22:54 14.03.2022
3239 Clouds 8 1027 93 10000 4.12 250 21:56 14.03.2022
3240 Clouds 8 1026 93 10000 4.63 270 21:20 14.03.2022
3241 Mist 8 1026 93 6000 2.06 230 20:31 14.03.2022
3242 Clouds 7 1026 96 6000 1.54 240 19:47 14.03.2022
3243 Clouds 8 1025 92 7000 3.09 220 18:20 14.03.2022
3244 Clouds 8 1025 89 10000 4.12 230 17:42 14.03.2022
3245 Drizzle 9 1024 86 10000 4.12 230 16:54 14.03.2022
3246 Clouds 10 1024 74 10000 2.06 240 15:20 14.03.2022
3247 Clouds 10 1023 72 10000 2.57 230 14:00 14.03.2022
3248 Clouds 9 1023 47 10000 2.06 180 11:36 14.03.2022
3249 Clear 7 1022 46 10000 4.63 160 10:23 14.03.2022
3250 Clear 5 1022 47 10000 3.6 150 09:38 14.03.2022
3251 Clear 5 1022 49 10000 3.6 150 09:18 14.03.2022
3252 Clear 4 1022 48 10000 3.09 130 08:46 14.03.2022
3253 Clear 2 1021 51 10000 2.57 120 07:21 14.03.2022
3254 Clear 4 1020 46 10000 4.12 120 04:27 14.03.2022
3255 Clear 5 1020 40 10000 4.63 120 01:51 14.03.2022
3256 Clear 6 1019 38 10000 5.14 100 00:38 14.03.2022
3257 Clear 7 1019 40 10000 5.66 130 21:56 13.03.2022
3258 Clear 7 1019 38 10000 6.17 120 21:28 13.03.2022
3259 Clear 8 1018 34 10000 6.17 110 20:53 13.03.2022
3260 Clear 8 1018 37 10000 5.14 120 20:28 13.03.2022
3261 Clear 9 1018 34 10000 5.14 110 19:43 13.03.2022
3262 Clear 9 1018 35 10000 4.12 120 19:25 13.03.2022
3263 Clear 10 1018 33 10000 5.66 110 18:50 13.03.2022
3264 Clear 10 1018 33 10000 4.63 120 18:27 13.03.2022
3265 Clear 12 1018 28 10000 6.69 120 17:40 13.03.2022
3266 Clear 12 1018 28 10000 6.17 130 16:49 13.03.2022
3267 Clear 12 1018 28 10000 6.69 120 16:27 13.03.2022
3268 Clear 12 1018 27 10000 6.69 130 15:44 13.03.2022
3269 Clear 12 1018 27 10000 6.69 120 14:50 13.03.2022
3270 Clear 12 1018 27 10000 6.69 120 14:50 13.03.2022
3271 Clear 11 1018 29 10000 6.17 100 13:33 13.03.2022
3272 Clear 10 1019 30 10000 6.69 110 12:37 13.03.2022
3273 Clear 8 1019 32 10000 5.66 120 11:51 13.03.2022
3274 Clear 8 1019 36 10000 6.69 120 11:31 13.03.2022
3275 Clear 8 1019 36 10000 6.69 120 11:31 13.03.2022
3276 Clear 6 1019 37 10000 6.17 130 10:46 13.03.2022
3277 Clear 5 1019 40 10000 5.66 120 09:59 13.03.2022
3278 Clear 4 1019 40 10000 5.66 120 09:40 13.03.2022
3279 Clear 3 1020 44 10000 5.66 110 08:45 13.03.2022
3280 Clear 0 1019 50 10000 4.12 110 07:40 13.03.2022
3281 Clear 1 1019 50 10000 4.12 120 05:40 13.03.2022
3282 Clear 3 1019 46 10000 3.6 120 02:39 13.03.2022
3283 Clear 5 1020 39 10000 3.6 110 23:33 12.03.2022
3284 Clear 6 1021 36 10000 3.6 110 22:27 12.03.2022
3285 Clear 6 1021 36 10000 3.6 110 20:34 12.03.2022
3286 Clear 7 1021 36 10000 3.6 100 19:47 12.03.2022
3287 Clear 8 1021 34 10000 2.57 120 18:58 12.03.2022
3288 Clear 10 1021 31 10000 4.12 130 18:23 12.03.2022
3289 Clear 11 1020 30 10000 6.17 130 17:31 12.03.2022
3290 Clear 12 1020 28 10000 6.69 160 16:23 12.03.2022
3291 Clear 12 1020 29 10000 7.2 140 15:23 12.03.2022
3292 Clear 11 1020 29 10000 7.72 140 14:28 12.03.2022
3293 Clear 9 1021 30 10000 6.69 140 12:56 12.03.2022
3294 Clear 8 1021 33 10000 7.2 130 11:56 12.03.2022
3295 Clear 7 1021 33 10000 7.2 130 11:35 12.03.2022
3296 Clear 6 1022 35 10000 6.69 140 10:58 12.03.2022
3297 Clear 4 1022 37 10000 8.23 140 09:45 12.03.2022
3298 Clear 3 1021 40 10000 7.72 140 08:56 12.03.2022
3299 Clear 1 1021 45 10000 6.17 130 07:20 12.03.2022
3300 Clear 3 1021 41 10000 8.75 130 03:36 12.03.2022
3301 Clear 4 1021 37 10000 9.26 130 23:56 11.03.2022
3302 Clear 4 1021 37 10000 9.26 130 23:56 11.03.2022
3303 Clear 5 1021 35 10000 9.26 130 23:18 11.03.2022
3304 Clear 5 1021 35 10000 9.26 130 23:18 11.03.2022
3305 Clear 6 1021 35 10000 8.75 130 21:35 11.03.2022
3306 Clear 6 1021 36 10000 9.77 120 20:55 11.03.2022
3307 Clear 6 1021 36 10000 9.77 120 20:34 11.03.2022
3308 Clear 6 1021 35 10000 9.77 120 19:49 11.03.2022
3309 Clear 7 1021 35 10000 8.75 120 19:22 11.03.2022
3310 Clear 9 1021 29 10000 8.75 120 17:30 11.03.2022
3311 Clear 9 1021 29 10000 10.8 130 16:36 11.03.2022
3312 Clear 9 1021 28 10000 10.8 140 15:53 11.03.2022
3313 Clear 9 1022 30 10000 10.29 120 14:19 11.03.2022
3314 Clear 7 1023 34 10000 8.75 120 12:45 11.03.2022
3315 Clear 7 1023 35 10000 9.26 120 12:21 11.03.2022
3316 Clear 6 1024 37 10000 8.75 110 11:51 11.03.2022
3317 Clear 3 1025 48 10000 10.29 120 09:59 11.03.2022
3318 Clear 1 1025 58 10000 7.72 120 08:56 11.03.2022
3319 Clear 0 1025 60 10000 8.23 120 08:24 11.03.2022
3320 Clear 0 1025 61 10000 7.2 120 07:45 11.03.2022
3321 Clear 1 1025 62 10000 5.14 120 05:44 11.03.2022
3322 Clear 2 1026 60 10000 6.17 120 03:48 11.03.2022
3323 Clear 4 1026 64 10000 6.69 130 23:38 10.03.2022
3324 Clear 6 1027 65 10000 6.17 120 22:30 10.03.2022
3325 Clear 6 1027 66 10000 6.69 120 21:40 10.03.2022
3326 Clear 7 1027 64 10000 8.75 120 21:18 10.03.2022
3327 Clear 8 1027 62 10000 8.23 120 19:43 10.03.2022
3328 Clear 9 1027 56 10000 7.72 120 18:40 10.03.2022
3329 Clear 11 1027 42 10000 7.72 130 17:28 10.03.2022
3330 Clear 12 1027 36 10000 7.72 120 15:55 10.03.2022
3331 Clear 12 1027 38 10000 7.2 120 14:44 10.03.2022
3332 Clear 12 1028 43 10000 7.72 150 13:19 10.03.2022
3333 Clear 10 1028 50 10000 6.69 140 11:58 10.03.2022
3334 Clear 8 1028 58 10000 5.14 130 10:53 10.03.2022
3335 Clear 4 1029 66 10000 3.6 130 09:18 10.03.2022
3336 Clear 1 1028 75 10000 4.12 120 07:33 10.03.2022
3337 Clear 1 1027 77 10000 2.57 120 04:36 10.03.2022
3338 Clear 3 1027 68 10000 3.09 110 01:46 10.03.2022
3339 Clear 4 1026 65 10000 3.09 100 23:18 09.03.2022
3340 Clear 4 1026 60 10000 2.57 80 21:49 09.03.2022
3341 Clear 5 1026 59 10000 2.57 100 21:31 09.03.2022
3342 Clear 7 1026 49 10000 2.57 100 19:44 09.03.2022
3343 Clear 10 1025 43 10000 4.12 110 18:33 09.03.2022
3344 Clear 11 1025 39 10000 4.63 120 17:27 09.03.2022
3345 Clear 12 1025 36 10000 4.12 130 16:31 09.03.2022
3346 Clear 12 1025 34 10000 4.12 0 15:19 09.03.2022
3347 Clear 12 1025 38 10000 3.6 150 13:53 09.03.2022
3348 Clear 11 1026 39 10000 3.09 150 12:47 09.03.2022
3349 Clear 9 1026 48 10000 3.09 150 11:54 09.03.2022
3350 Clear 9 1026 50 10000 3.6 160 11:35 09.03.2022
3351 Clear 6 1026 60 10000 2.57 140 10:26 09.03.2022
3352 Clear 2 1025 77 10000 2.57 100 08:54 09.03.2022
3353 Clear -1 1025 83 10000 2.06 90 07:38 09.03.2022
3354 Clear 0 1025 79 10000 1.54 90 02:46 09.03.2022
3355 Clear 1 1025 73 10000 1.54 90 00:42 09.03.2022
3356 Clear 3 1024 66 10000 2.57 110 22:47 08.03.2022
3357 Clear 3 1024 66 10000 3.09 110 22:26 08.03.2022
3358 Clear 4 1024 64 10000 3.09 100 21:23 08.03.2022
3359 Clear 5 1025 61 10000 3.09 100 20:42 08.03.2022
3360 Clear 6 1024 59 10000 3.09 110 19:42 08.03.2022
3361 Clear 7 1024 52 10000 2.57 100 18:44 08.03.2022
3362 Clear 9 1024 47 10000 4.12 140 17:32 08.03.2022
3363 Clear 11 1024 44 10000 4.63 150 15:56 08.03.2022
3364 Clear 10 1025 43 10000 3.6 110 14:19 08.03.2022
3365 Clear 9 1026 44 10000 3.09 140 12:43 08.03.2022
3366 Clear 8 1026 48 10000 2.57 170 11:45 08.03.2022
3367 Clear 6 1026 57 10000 3.09 160 10:48 08.03.2022
3368 Clear 4 1026 66 10000 1.54 140 09:57 08.03.2022
3369 Clear -3 1026 88 10000 1.54 70 07:32 08.03.2022
3370 Clear -3 1026 86 10000 1.54 60 05:43 08.03.2022
3371 Clear -1 1027 81 10000 1.54 40 23:52 07.03.2022
3372 Clear 1 1027 70 10000 0.51 0 21:59 07.03.2022
3373 Clear 1 1027 67 10000 1.54 50 21:32 07.03.2022
3374 Clear 2 1027 69 10000 1.54 70 20:48 07.03.2022
3375 Clear 2 1026 70 10000 0.51 0 20:20 07.03.2022
3376 Clear 4 1026 56 10000 1.54 90 19:33 07.03.2022
3377 Clear 5 1026 50 10000 2.57 50 18:46 07.03.2022
3378 Clear 7 1026 38 10000 2.57 50 17:52 07.03.2022
3379 Clear 8 1026 41 10000 2.57 40 16:56 07.03.2022
3380 Clear 9 1026 41 10000 2.57 100 15:59 07.03.2022
3381 Clear 8 1027 47 10000 3.6 60 13:52 07.03.2022
3382 Clear 7 1028 58 10000 4.12 60 12:33 07.03.2022
3383 Clear 3 1028 88 10000 1.54 320 10:39 07.03.2022
3384 Clear 1 1028 90 10000 1.03 0 09:25 07.03.2022
3385 Fog -3 1027 95 10000 1.03 310 06:20 07.03.2022
3386 Clear -2 1027 92 8000 1.54 220 00:23 07.03.2022
3387 Clear -1 1027 93 10000 1.54 220 23:35 06.03.2022
3388 Clear -1 1027 93 10000 1.54 190 22:57 06.03.2022
3389 Clear -1 1027 91 10000 1.03 310 22:24 06.03.2022
3390 Clear -1 1027 91 10000 1.03 310 22:24 06.03.2022
3391 Clear 0 1027 84 10000 1.54 310 20:51 06.03.2022
3392 Clear 1 1027 80 10000 3.09 320 20:26 06.03.2022
3393 Clear 2 1026 75 10000 2.57 330 19:29 06.03.2022
3394 Clouds 3 1026 68 10000 2.57 340 18:25 06.03.2022
3395 Clouds 5 1026 59 10000 3.09 330 17:22 06.03.2022
3396 Clouds 5 1026 58 10000 3.09 350 16:44 06.03.2022
3397 Clouds 6 1026 58 10000 3.09 350 16:44 06.03.2022
3398 Clouds 6 1026 57 10000 3.09 10 16:20 06.03.2022
3399 Clouds 5 1026 57 10000 3.09 350 14:57 06.03.2022
3400 Clouds 5 1026 57 10000 3.09 350 14:38 06.03.2022
3401 Clouds 5 1027 57 10000 4.12 350 13:36 06.03.2022
3402 Clouds 5 1027 55 10000 2.57 0 12:35 06.03.2022
3403 Clouds 3 1027 55 10000 3.6 20 11:27 06.03.2022
3404 Clouds 3 1027 56 10000 2.06 60 10:29 06.03.2022
3405 Clouds 1 1027 72 10000 3.6 360 08:40 06.03.2022
3406 Clouds 1 1027 73 10000 3.6 360 08:20 06.03.2022
3407 Clouds 0 1026 79 10000 3.6 20 06:33 06.03.2022
3408 Clouds 0 1026 78 10000 2.06 90 01:32 06.03.2022
3409 Clouds 0 1026 76 10000 2.06 90 00:33 06.03.2022
3410 Clouds 0 1026 79 10000 2.57 70 23:41 05.03.2022
3411 Clouds 1 1026 76 10000 3.09 80 23:18 05.03.2022
3412 Clouds 1 1026 75 10000 3.09 60 22:25 05.03.2022
3413 Clouds 1 1025 75 10000 3.6 60 21:24 05.03.2022
3414 Clouds 2 1025 73 10000 4.63 60 19:53 05.03.2022
3415 Clouds 3 1025 72 10000 3.6 50 18:56 05.03.2022
3416 Clouds 4 1024 64 10000 4.63 50 18:34 05.03.2022
3417 Clouds 5 1024 59 10000 4.63 60 16:57 05.03.2022
3418 Clouds 5 1024 57 10000 3.6 80 15:43 05.03.2022
3419 Clouds 5 1024 57 10000 2.57 100 14:53 05.03.2022
3420 Clouds 6 1025 58 10000 4.12 140 14:34 05.03.2022
3421 Clouds 5 1025 59 10000 5.14 150 13:35 05.03.2022
3422 Clouds 5 1025 65 10000 3.09 120 11:55 05.03.2022
3423 Clear 4 1025 72 10000 3.6 90 11:20 05.03.2022
3424 Clouds 3 1026 78 10000 3.09 110 10:23 05.03.2022
3425 Clouds 0 1026 87 10000 2.57 110 09:28 05.03.2022
3426 Clear -2 1025 92 10000 1.54 60 07:59 05.03.2022
3427 Clear -3 1025 89 10000 1.54 90 05:47 05.03.2022
3428 Clear -2 1025 85 10000 2.57 80 04:38 05.03.2022
3429 Clouds 0 1025 81 10000 3.09 100 23:59 04.03.2022
3430 Clouds 0 1025 86 10000 3.09 70 22:45 04.03.2022
3431 Clouds 1 1025 86 10000 3.6 60 22:23 04.03.2022
3432 Clouds 1 1025 83 10000 2.57 70 21:39 04.03.2022
3433 Clouds 2 1025 80 10000 3.6 70 20:36 04.03.2022
3434 Clouds 2 1024 77 10000 4.63 60 19:36 04.03.2022
3435 Clouds 3 1024 70 10000 2.57 90 18:47 04.03.2022
3436 Clouds 4 1024 69 10000 3.09 100 18:27 04.03.2022
3437 Clouds 5 1024 68 10000 4.12 100 17:29 04.03.2022
3438 Clouds 6 1025 70 10000 3.09 60 15:48 04.03.2022
3439 Clouds 5 1025 70 10000 4.63 100 14:45 04.03.2022
3440 Clouds 5 1025 80 10000 4.12 80 13:35 04.03.2022
3441 Clouds 3 1026 90 10000 3.09 110 12:38 04.03.2022
3442 Clouds 1 1026 100 10000 3.09 100 11:37 04.03.2022
3443 Mist 0 1026 100 6000 2.06 130 10:24 04.03.2022
3444 Mist -1 1025 98 1600 3.09 80 09:27 04.03.2022
3445 Fog -1 1024 97 600 2.06 80 07:48 04.03.2022
3446 Fog -1 1024 97 650 1.03 0 06:21 04.03.2022
3447 Fog -1 1024 95 1000 2.06 110 01:46 04.03.2022
3448 Clear -1 1024 94 7000 2.06 70 23:35 03.03.2022
3449 Clear 0 1024 93 10000 2.57 40 22:18 03.03.2022
3450 Clear 0 1023 91 10000 3.09 60 21:36 03.03.2022
3451 Clear 1 1023 91 10000 3.09 70 20:48 03.03.2022
3452 Clear 2 1023 86 10000 2.57 50 19:29 03.03.2022
3453 Clear 3 1022 81 10000 2.57 30 18:33 03.03.2022
3454 Clear 5 1022 76 10000 3.09 50 17:39 03.03.2022
3455 Clear 5 1022 75 10000 3.09 50 17:18 03.03.2022
3456 Clouds 6 1022 74 10000 4.12 60 15:46 03.03.2022
3457 Clouds 5 1022 76 10000 4.12 50 14:51 03.03.2022
3458 Clouds 5 1022 78 10000 3.6 40 14:32 03.03.2022
3459 Clouds 1 1023 97 10000 2.57 70 12:44 03.03.2022
3460 Mist 1 1023 100 1300 2.57 60 11:32 03.03.2022
3461 Mist 1 1023 100 2700 2.57 60 10:39 03.03.2022
3462 Fog -1 1023 99 600 2.57 60 08:44 03.03.2022
3463 Fog -2 1022 97 450 2.06 100 06:58 03.03.2022
3464 Fog -2 1022 97 500 1.54 150 06:33 03.03.2022
3465 Mist 0 1024 93 2700 2.06 50 00:43 03.03.2022
3466 Mist 0 1024 94 5000 1.03 0 23:28 02.03.2022
3467 Mist 1 1024 90 6000 1.54 80 22:48 02.03.2022
3468 Clouds 2 1024 85 9000 2.06 60 21:25 02.03.2022
3469 Clear 3 1024 82 10000 3.6 50 20:40 02.03.2022
3470 Clear 3 1024 79 10000 2.57 50 19:56 02.03.2022
3471 Clear 4 1024 73 10000 3.09 40 19:33 02.03.2022
3472 Clear 5 1024 68 10000 3.6 40 18:44 02.03.2022
3473 Clear 6 1024 62 10000 3.09 50 17:57 02.03.2022
3474 Clear 8 1024 56 10000 2.57 50 17:21 02.03.2022
3475 Clear 9 1024 52 10000 3.09 50 16:42 02.03.2022
3476 Clear 9 1025 46 10000 2.57 90 14:44 02.03.2022
3477 Clear 8 1026 47 10000 2.57 60 13:24 02.03.2022
3478 Clear 8 1026 51 10000 2.06 50 12:42 02.03.2022
3479 Clear 7 1027 56 10000 2.57 100 11:40 02.03.2022
3480 Clear 6 1027 60 10000 2.57 70 11:22 02.03.2022
3481 Clear 3 1027 75 10000 2.57 60 09:42 02.03.2022
3482 Clear 1 1027 87 10000 3.09 50 08:55 02.03.2022
3483 Clear 0 1027 86 10000 1.03 0 07:38 02.03.2022
3484 Clear 0 1027 86 10000 0.51 50 06:51 02.03.2022
3485 Clear 1 1028 85 10000 1.54 30 02:35 02.03.2022
3486 Clear 2 1029 80 10000 1.54 50 23:55 01.03.2022
3487 Clear 3 1029 79 10000 1.54 50 22:46 01.03.2022
3488 Clear 3 1029 76 10000 1.54 30 22:19 01.03.2022
3489 Clear 3 1029 77 10000 1.54 40 21:25 01.03.2022
3490 Clear 3 1029 75 10000 2.57 140 20:32 01.03.2022
3491 Clear 3 1028 74 10000 2.57 100 19:44 01.03.2022
3492 Clear 5 1029 68 10000 1.03 0 18:51 01.03.2022
3493 Clear 5 1029 67 10000 2.57 120 18:21 01.03.2022
3494 Clear 6 1029 62 10000 2.06 120 17:30 01.03.2022
3495 Clear 7 1029 59 10000 2.06 80 16:35 01.03.2022
3496 Clear 7 1029 58 10000 2.06 150 15:42 01.03.2022
3497 Clear 7 1029 57 10000 3.09 160 14:41 01.03.2022
3498 Clear 7 1029 57 10000 3.09 160 14:23 01.03.2022
3499 Clear 6 1030 58 10000 3.6 160 13:26 01.03.2022
3500 Clear 5 1030 60 10000 3.09 150 12:35 01.03.2022
3501 Clear 3 1030 68 10000 5.14 150 10:38 01.03.2022
3502 Clear 1 1030 73 10000 4.63 150 09:25 01.03.2022
3503 Clear -1 1030 76 10000 5.14 140 07:55 01.03.2022
3504 Clear -1 1030 74 10000 4.63 140 06:28 01.03.2022
3505 Clear 1 1031 70 10000 5.66 140 02:48 01.03.2022
3506 Clear 2 1032 75 10000 6.69 150 00:40 01.03.2022
3507 Clear 2 1032 78 10000 6.69 140 23:35 28.02.2022
3508 Clear 2 1032 78 10000 5.66 140 22:30 28.02.2022
3509 Clear 2 1032 78 10000 6.69 140 21:43 28.02.2022
3510 Clear 2 1033 78 10000 7.2 140 20:34 28.02.2022
3511 Clear 2 1032 79 10000 6.17 130 19:51 28.02.2022
3512 Clear 4 1033 74 10000 5.14 120 18:50 28.02.2022
3513 Clear 6 1033 67 10000 6.69 140 17:37 28.02.2022
3514 Clear 6 1033 65 10000 6.69 140 17:18 28.02.2022
3515 Clear 7 1033 62 10000 6.69 150 16:21 28.02.2022
3516 Clear 7 1034 64 10000 5.14 140 14:32 28.02.2022
3517 Clear 7 1034 66 10000 5.66 160 13:53 28.02.2022
3518 Clear 7 1034 68 10000 5.66 160 13:19 28.02.2022
3519 Clear 5 1034 73 10000 5.66 150 12:25 28.02.2022
3520 Clear 4 1034 77 10000 4.63 140 11:19 28.02.2022
3521 Clear 2 1034 81 10000 3.6 140 10:23 28.02.2022
3522 Clear 1 1034 87 10000 4.63 140 09:44 28.02.2022
3523 Clear 1 1034 88 10000 4.12 140 09:23 28.02.2022
3524 Clear 0 1034 89 10000 3.6 140 08:21 28.02.2022
3525 Clear 0 1034 91 10000 3.6 130 06:31 28.02.2022
3526 Clear 0 1034 92 10000 2.57 110 04:31 28.02.2022
3527 Clear 1 1035 89 10000 2.57 130 01:24 28.02.2022
3528 Clear 2 1035 81 10000 3.09 120 22:55 27.02.2022
3529 Clear 3 1035 79 10000 3.6 100 22:32 27.02.2022
3530 Clear 3 1035 75 10000 4.12 110 21:42 27.02.2022
3531 Clear 3 1035 73 10000 4.63 120 20:50 27.02.2022
3532 Clear 3 1035 72 10000 4.12 110 20:22 27.02.2022
3533 Clear 4 1035 70 10000 3.6 110 19:50 27.02.2022
3534 Clear 4 1035 68 10000 3.6 120 19:24 27.02.2022
3535 Clear 5 1035 65 10000 4.12 120 18:37 27.02.2022
3536 Clear 6 1034 61 10000 7.2 140 17:53 27.02.2022
3537 Clouds 8 1035 60 10000 5.66 150 16:31 27.02.2022
3538 Clouds 8 1035 59 10000 6.17 140 15:39 27.02.2022
3539 Clouds 7 1037 68 10000 5.66 160 12:43 27.02.2022
3540 Clouds 6 1037 71 10000 4.63 150 12:25 27.02.2022
3541 Clear 4 1037 80 10000 3.09 140 10:47 27.02.2022
3542 Clear 2 1037 89 10000 3.09 130 09:58 27.02.2022
3543 Clear 1 1037 90 10000 3.09 130 09:27 27.02.2022
3544 Clear 0 1037 92 10000 2.57 120 08:54 27.02.2022
3545 Clear -1 1036 91 10000 2.57 120 06:43 27.02.2022
3546 Clear -1 1036 90 10000 2.57 90 05:35 27.02.2022
3547 Clear 1 1036 81 10000 1.03 0 00:37 27.02.2022
3548 Clear 2 1036 73 10000 3.09 100 22:51 26.02.2022
3549 Clear 2 1036 73 10000 2.06 80 21:38 26.02.2022
3550 Clear 3 1036 67 10000 2.57 90 20:48 26.02.2022
3551 Clear 4 1035 71 10000 2.06 90 19:59 26.02.2022
3552 Clear 4 1035 68 10000 2.06 70 19:37 26.02.2022
3553 Clear 5 1035 63 10000 2.57 340 18:49 26.02.2022
3554 Clear 6 1034 61 10000 3.09 80 17:42 26.02.2022
3555 Clear 9 1034 51 10000 2.57 290 16:49 26.02.2022
3556 Clouds 9 1034 49 10000 1.54 0 15:57 26.02.2022
3557 Clear 10 1034 49 10000 2.06 320 15:23 26.02.2022
3558 Clouds 9 1034 53 10000 2.57 280 14:54 26.02.2022
3559 Clouds 9 1034 53 10000 3.09 270 14:36 26.02.2022
3560 Clear 9 1034 61 10000 2.57 260 13:19 26.02.2022
3561 Clear 8 1034 67 10000 2.06 310 12:29 26.02.2022
3562 Clear 6 1034 76 10000 2.06 310 11:28 26.02.2022
3563 Clear 6 1034 80 10000 3.6 330 10:49 26.02.2022
3564 Clear 2 1032 93 10000 3.09 270 08:59 26.02.2022
3565 Clear 1 1031 94 10000 3.09 270 07:43 26.02.2022
3566 Clouds 4 1026 86 10000 6.17 300 01:53 26.02.2022
3567 Clouds 5 1023 84 10000 6.17 290 22:57 25.02.2022
3568 Clouds 5 1022 85 10000 6.17 290 21:46 25.02.2022
3569 Clouds 5 1022 86 10000 5.66 290 21:26 25.02.2022
3570 Clear 5 1020 84 10000 6.69 300 20:33 25.02.2022
3571 Clouds 5 1019 87 10000 7.2 290 19:39 25.02.2022
3572 Clouds 5 1016 86 10000 8.23 300 17:33 25.02.2022
3573 Clouds 6 1015 88 10000 9.26 290 16:44 25.02.2022
3574 Clouds 6 1014 87 10000 10.29 270 15:48 25.02.2022
3575 Clouds 6 1013 86 10000 7.2 260 15:23 25.02.2022
3576 Clouds 6 1013 88 10000 7.2 260 14:45 25.02.2022
3577 Clouds 5 1013 88 10000 11.83 280 14:18 25.02.2022
3578 Clouds 5 1012 87 10000 8.23 230 13:20 25.02.2022
3579 Rain 4 1012 87 10000 8.23 240 11:39 25.02.2022
3580 Clouds 4 1012 84 10000 9.26 230 11:18 25.02.2022
3581 Clouds 3 1012 86 10000 9.77 230 10:23 25.02.2022
3582 Clouds 4 1011 81 10000 9.77 230 09:36 25.02.2022
3583 Clouds 3 1011 82 10000 8.23 230 07:47 25.02.2022
3584 Clouds 3 1011 85 10000 9.26 230 06:45 25.02.2022
3585 Clouds 3 1010 88 10000 8.23 230 05:38 25.02.2022
3586 Clouds 2 1008 90 10000 8.23 240 00:46 25.02.2022
3587 Clouds 3 1005 92 10000 7.2 270 22:30 24.02.2022
3588 Clouds 3 1005 94 10000 8.75 260 21:43 24.02.2022
3589 Clouds 3 1005 94 10000 8.75 260 21:43 24.02.2022
3590 Clouds 3 1004 93 8000 8.23 250 21:21 24.02.2022
3591 Clouds 3 1004 94 10000 7.72 260 20:44 24.02.2022
3592 Clouds 4 1001 90 10000 12.86 280 19:31 24.02.2022
3593 Clouds 9 998 70 10000 10.29 200 18:20 24.02.2022
3594 Clouds 9 998 67 10000 9.26 210 17:52 24.02.2022
3595 Clouds 10 999 66 10000 9.26 210 17:19 24.02.2022
3596 Clouds 10 1000 64 10000 9.26 220 16:28 24.02.2022
3597 Clouds 10 1001 64 10000 10.29 210 15:43 24.02.2022
3598 Clouds 10 1002 67 10000 10.8 220 14:45 24.02.2022
3599 Clouds 10 1004 67 10000 9.26 210 13:59 24.02.2022
3600 Clouds 10 1005 68 10000 7.72 220 13:37 24.02.2022
3601 Clouds 9 1007 67 10000 8.75 210 11:38 24.02.2022
3602 Clouds 8 1008 71 10000 8.75 210 10:32 24.02.2022
3603 Clouds 7 1010 73 10000 8.23 210 08:43 24.02.2022
3604 Clouds 7 1010 73 10000 8.23 200 07:22 24.02.2022
3605 Clouds 7 1011 68 10000 8.23 220 05:40 24.02.2022
3606 Clouds 7 1016 71 10000 6.69 210 00:32 24.02.2022
3607 Clouds 7 1018 71 10000 6.69 210 22:25 23.02.2022
3608 Clouds 6 1019 72 10000 3.6 220 20:48 23.02.2022
3609 Clouds 6 1019 74 10000 3.6 210 20:28 23.02.2022
3610 Clouds 6 1019 69 10000 3.6 220 19:35 23.02.2022
3611 Clouds 8 1019 64 10000 5.66 220 18:27 23.02.2022
3612 Clouds 10 1020 57 10000 9.77 240 16:43 23.02.2022
3613 Clouds 10 1021 59 10000 9.26 250 14:33 23.02.2022
3614 Clouds 9 1021 70 10000 7.72 260 12:37 23.02.2022
3615 Clouds 7 1021 81 10000 7.2 270 11:23 23.02.2022
3616 Clouds 7 1020 83 10000 7.2 260 10:30 23.02.2022
3617 Clouds 6 1019 84 10000 5.66 250 08:57 23.02.2022
3618 Clouds 6 1019 84 10000 7.2 260 07:57 23.02.2022
3619 Clouds 6 1014 87 10000 7.72 280 03:48 23.02.2022
3620 Clouds 6 1011 85 10000 8.75 280 00:19 23.02.2022
3621 Clouds 6 1010 83 10000 9.77 290 23:35 22.02.2022
3622 Clouds 7 1008 84 10000 11.32 280 22:31 22.02.2022
3623 Clouds 7 1007 87 10000 11.32 290 21:49 22.02.2022
3624 Clouds 7 1006 89 6000 12.35 280 21:28 22.02.2022
3625 Clouds 7 1005 91 10000 12.86 270 20:52 22.02.2022
3626 Clouds 7 1005 96 3900 7.72 230 20:29 22.02.2022
3627 Clouds 7 1005 95 5000 7.72 220 19:36 22.02.2022
3628 Clouds 7 1006 97 5000 7.72 220 19:18 22.02.2022
3629 Clouds 6 1007 92 10000 8.75 210 17:48 22.02.2022
3630 Clouds 6 1008 92 7000 7.2 200 17:21 22.02.2022
3631 Clouds 6 1009 91 5000 7.72 210 16:37 22.02.2022
3632 Clouds 7 1010 79 8000 7.2 200 15:40 22.02.2022
3633 Clouds 7 1011 73 10000 6.17 220 14:44 22.02.2022
3634 Clouds 7 1013 71 10000 6.69 260 12:23 22.02.2022
3635 Clouds 6 1013 74 10000 6.69 270 10:50 22.02.2022
3636 Clouds 5 1011 77 10000 6.17 280 08:41 22.02.2022
3637 Clouds 4 1010 84 10000 6.69 310 07:26 22.02.2022
3638 Clouds 5 1008 80 10000 7.72 290 04:59 22.02.2022
3639 Clouds 5 1005 84 10000 7.72 310 01:45 22.02.2022
3640 Clouds 5 1005 84 10000 7.72 310 01:45 22.02.2022
3641 Clouds 6 1001 90 10000 7.2 280 22:46 21.02.2022
3642 Clouds 6 999 90 10000 6.17 280 21:33 21.02.2022
3643 Clouds 5 998 91 10000 5.66 280 20:35 21.02.2022
3644 Clouds 4 995 93 10000 4.12 270 18:46 21.02.2022
3645 Clouds 4 992 93 10000 4.63 270 16:58 21.02.2022
3646 Clouds 3 991 93 10000 5.66 230 15:22 21.02.2022
3647 Clouds 4 990 89 10000 8.23 230 14:21 21.02.2022
3648 Clouds 4 990 89 10000 8.23 230 14:21 21.02.2022
3649 Clouds 4 990 86 10000 10.29 230 13:22 21.02.2022
3650 Clouds 5 990 84 10000 10.8 240 12:23 21.02.2022
3651 Clouds 3 989 89 10000 11.83 240 11:19 21.02.2022
3652 Snow 3 990 90 3000 8.75 250 09:50 21.02.2022
3653 Clouds 5 987 84 10000 11.83 260 05:35 21.02.2022
3654 Clouds 10 983 90 10000 12.86 210 23:44 20.02.2022
3655 Clouds 9 986 95 10000 10.8 210 22:27 20.02.2022
3656 Clouds 9 988 95 10000 10.8 210 21:42 20.02.2022
3657 Clouds 9 990 97 10000 10.8 210 20:59 20.02.2022
3658 Clouds 9 990 97 10000 10.8 210 20:41 20.02.2022
3659 Clouds 9 992 95 9000 9.77 220 19:36 20.02.2022
3660 Clouds 9 993 97 9000 8.23 220 18:51 20.02.2022
3661 Clouds 9 993 97 7000 8.23 230 18:31 20.02.2022
3662 Clouds 9 994 97 5000 8.75 230 17:49 20.02.2022
3663 Clouds 8 996 98 6000 8.23 230 15:41 20.02.2022
3664 Clouds 7 997 96 4500 8.23 220 14:48 20.02.2022
3665 Clouds 5 999 96 8000 6.17 170 13:23 20.02.2022
3666 Clouds 4 1000 95 6000 7.2 180 12:34 20.02.2022
3667 Clouds 3 1003 93 10000 7.2 210 10:47 20.02.2022
3668 Clouds 3 1004 92 10000 9.26 210 10:20 20.02.2022
3669 Clouds 3 1005 93 10000 6.17 220 08:51 20.02.2022
3670 Clouds 3 1004 94 10000 4.12 170 00:54 20.02.2022
3671 Clouds 3 1004 94 10000 4.12 180 00:30 20.02.2022
3672 Clouds 3 1005 92 10000 6.17 200 23:18 19.02.2022
3673 Clouds 4 1006 85 10000 5.66 220 22:22 19.02.2022
3674 Clouds 5 1006 78 10000 7.72 220 21:34 19.02.2022
3675 Clouds 5 1007 73 10000 5.14 220 19:54 19.02.2022
3676 Clouds 5 1007 71 10000 4.63 230 19:33 19.02.2022
3677 Clouds 5 1007 69 10000 6.17 240 18:35 19.02.2022
3678 Clouds 5 1007 74 10000 7.2 240 17:37 19.02.2022
3679 Clouds 6 1007 73 10000 9.26 250 16:28 19.02.2022
3680 Clouds 5 1007 82 10000 8.75 260 15:19 19.02.2022
3681 Clouds 5 1007 87 8000 8.75 240 14:52 19.02.2022
3682 Clouds 5 1007 84 10000 9.77 260 13:45 19.02.2022
3683 Clouds 4 1005 92 10000 9.26 270 11:39 19.02.2022
3684 Clouds 4 1003 88 10000 11.83 260 10:30 19.02.2022
3685 Rain 3 999 92 10000 9.26 260 07:56 19.02.2022
3686 Clouds 5 990 86 10000 14.92 260 04:32 19.02.2022
3687 Clouds 6 985 74 10000 17.49 240 23:45 18.02.2022
3688 Clouds 6 983 82 10000 15.43 250 21:54 18.02.2022
3689 Clouds 7 982 79 8000 15.95 240 20:57 18.02.2022
3690 Clouds 8 981 79 10000 18.01 240 19:55 18.02.2022
3691 Clouds 9 982 73 10000 12.86 230 18:50 18.02.2022
3692 Clouds 9 983 77 10000 11.32 230 18:24 18.02.2022
3693 Clouds 9 984 83 10000 17.49 250 17:55 18.02.2022
3694 Clouds 8 987 94 10000 9.77 200 15:23 18.02.2022
3695 Clouds 6 992 95 4900 8.75 170 13:56 18.02.2022
3696 Clouds 6 993 93 6000 9.26 150 13:25 18.02.2022
3697 Clouds 6 995 91 10000 7.2 150 12:40 18.02.2022
3698 Clouds 5 998 93 10000 5.14 160 11:40 18.02.2022
3699 Clouds 5 1001 91 10000 6.17 210 10:24 18.02.2022
3700 Clear 4 1005 88 10000 4.63 230 06:58 18.02.2022
3701 Clear 4 1005 88 10000 4.63 240 05:41 18.02.2022
3702 Clouds 6 1004 78 10000 8.75 260 23:53 17.02.2022
3703 Clouds 6 1002 78 10000 12.35 270 21:50 17.02.2022
3704 Clouds 6 1002 77 10000 12.86 270 21:26 17.02.2022
3705 Clouds 6 1001 77 10000 11.83 270 20:40 17.02.2022
3706 Clouds 6 1000 78 10000 12.86 270 19:54 17.02.2022
3707 Clouds 6 1000 81 10000 13.38 270 18:57 17.02.2022
3708 Clouds 6 998 84 8000 12.35 280 17:59 17.02.2022
3709 Rain 6 997 84 9000 9.77 280 16:43 17.02.2022
3710 Clouds 6 997 84 10000 16.46 270 15:44 17.02.2022
3711 Rain 5 995 92 5000 12.35 290 14:29 17.02.2022
3712 Clouds 6 993 87 10000 11.32 280 12:51 17.02.2022
3713 Clouds 6 993 90 8255 9.97 280 11:36 17.02.2022
3714 Clouds 6 987 88 7000 17.49 270 09:38 17.02.2022
3715 Clouds 8 981 76 10000 17.49 260 06:44 17.02.2022
3716 Clouds 11 978 94 10000 14.92 250 23:23 16.02.2022
3717 Clouds 11 979 96 5000 10.29 220 22:27 16.02.2022
3718 Rain 10 985 90 8000 9.26 230 20:22 16.02.2022
3719 Clouds 12 986 85 10000 8.75 230 18:56 16.02.2022
3720 Clouds 12 987 84 10000 10.29 240 18:27 16.02.2022
3721 Clouds 12 987 84 10000 9.26 230 17:22 16.02.2022
3722 Clouds 11 988 93 10000 8.75 240 15:22 16.02.2022
3723 Clouds 10 988 98 6000 9.77 230 13:46 16.02.2022
3724 Clouds 9 988 96 5000 11.32 210 12:26 16.02.2022
3725 Clouds 8 989 96 5000 11.32 210 11:46 16.02.2022
3726 Clouds 8 991 94 8000 8.23 200 10:34 16.02.2022
3727 Clouds 7 992 94 10000 7.72 200 09:38 16.02.2022
3728 Clouds 7 997 95 10000 5.14 210 06:44 16.02.2022
3729 Clouds 7 997 95 10000 5.14 210 06:44 16.02.2022
3730 Clouds 6 1000 95 10000 5.14 220 02:47 16.02.2022
3731 Clouds 5 1002 88 10000 9.77 200 22:34 15.02.2022
3732 Clouds 5 1002 86 10000 9.26 200 21:50 15.02.2022
3733 Clouds 6 1003 83 10000 10.8 190 21:30 15.02.2022
3734 Clouds 6 1003 78 10000 10.8 200 20:58 15.02.2022
3735 Clouds 7 1004 71 10000 9.77 200 20:26 15.02.2022
3736 Clouds 7 1004 72 10000 8.23 200 19:45 15.02.2022
3737 Clouds 7 1005 73 10000 7.2 210 18:26 15.02.2022
3738 Clouds 7 1005 73 10000 7.2 210 17:55 15.02.2022
3739 Clouds 8 1005 73 10000 7.2 210 17:37 15.02.2022
3740 Clouds 8 1007 75 10000 7.2 220 15:43 15.02.2022
3741 Clouds 8 1007 76 10000 7.2 230 14:31 15.02.2022
3742 Clouds 8 1007 76 10000 7.72 230 13:25 15.02.2022
3743 Clouds 7 1007 83 10000 7.2 230 11:41 15.02.2022
3744 Clouds 6 1007 91 8000 6.17 230 10:30 15.02.2022
3745 Clouds 6 1006 91 10000 7.2 230 08:48 15.02.2022
3746 Clouds 6 1004 90 10000 7.2 240 06:47 15.02.2022
3747 Clear 6 1002 80 10000 5.66 200 00:26 15.02.2022
3748 Clear 7 1002 76 10000 5.14 220 21:58 14.02.2022
3749 Clear 8 1001 75 10000 6.17 210 20:57 14.02.2022
3750 Clouds 8 1001 77 10000 5.14 220 19:52 14.02.2022
3751 Clouds 9 1001 76 10000 4.63 220 19:30 14.02.2022
3752 Clouds 9 1001 75 10000 7.2 220 18:24 14.02.2022
3753 Clouds 10 1000 72 10000 6.69 220 17:37 14.02.2022
3754 Clouds 11 1000 71 10000 6.17 220 17:18 14.02.2022
3755 Clouds 11 999 82 10000 7.2 240 15:52 14.02.2022
3756 Clouds 12 998 67 10000 10.29 210 13:37 14.02.2022
3757 Clouds 12 998 64 10000 10.8 210 12:59 14.02.2022
3758 Clouds 12 998 65 10000 11.83 210 12:32 14.02.2022
3759 Clear 12 998 62 10000 10.29 210 11:43 14.02.2022
3760 Clear 9 998 66 10000 8.75 200 10:22 14.02.2022
3761 Clear 8 999 67 10000 7.72 190 08:32 14.02.2022
3762 Clear 7 999 71 10000 6.17 160 07:26 14.02.2022
3763 Clear 7 1004 70 10000 8.23 200 23:37 13.02.2022
3764 Clear 6 1004 70 10000 7.72 200 22:41 13.02.2022
3765 Clear 6 1005 71 10000 7.2 200 22:23 13.02.2022
3766 Clear 6 1005 70 10000 5.66 170 21:27 13.02.2022
3767 Clear 5 1006 64 10000 5.66 160 20:30 13.02.2022
3768 Clear 5 1007 62 10000 6.69 160 19:24 13.02.2022
3769 Clear 6 1007 60 10000 6.17 170 18:42 13.02.2022
3770 Clear 6 1008 60 10000 6.17 170 17:54 13.02.2022
3771 Clear 7 1009 57 10000 7.72 200 15:54 13.02.2022
3772 Clear 7 1009 57 10000 7.72 200 15:54 13.02.2022
3773 Clear 7 1009 57 10000 7.72 200 15:54 13.02.2022
3774 Clear 7 1009 57 10000 7.72 200 15:54 13.02.2022
3775 Clear 7 1010 57 10000 7.72 210 14:58 13.02.2022
3776 Clear 7 1011 56 10000 7.72 210 13:59 13.02.2022
3777 Clear 6 1012 59 10000 6.69 210 12:50 13.02.2022
3778 Clear 5 1013 60 10000 6.17 200 11:26 13.02.2022
3779 Clear 3 1013 64 10000 5.14 200 10:30 13.02.2022
3780 Clear 2 1014 70 10000 6.17 200 09:41 13.02.2022
3781 Clear 1 1014 76 10000 6.69 210 07:21 13.02.2022
3782 Clear 1 1019 77 10000 5.14 200 00:35 13.02.2022
3783 Clear 1 1019 77 10000 5.14 200 23:39 12.02.2022
3784 Clear 1 1021 78 10000 5.14 170 22:33 12.02.2022
3785 Clear 2 1022 78 10000 4.63 170 21:20 12.02.2022
3786 Clear 2 1022 76 10000 4.12 180 20:34 12.02.2022
3787 Clear 2 1023 74 10000 4.63 170 19:27 12.02.2022
3788 Clear 3 1023 71 10000 5.14 170 18:53 12.02.2022
3789 Clear 3 1023 71 10000 5.14 170 18:35 12.02.2022
3790 Clear 5 1024 60 10000 6.69 200 16:58 12.02.2022
3791 Clear 5 1025 58 10000 6.17 210 16:26 12.02.2022
3792 Clear 5 1025 57 10000 7.72 210 15:51 12.02.2022
3793 Clear 5 1025 57 10000 7.72 210 15:51 12.02.2022
3794 Clear 5 1026 56 10000 9.26 210 14:31 12.02.2022
3795 Clear 5 1027 57 10000 9.26 210 13:22 12.02.2022
3796 Clear 2 1029 76 10000 6.17 220 10:42 12.02.2022
3797 Clear 1 1030 88 10000 4.12 200 09:50 12.02.2022
3798 Clear 0 1030 88 10000 5.14 200 09:26 12.02.2022
3799 Clear -1 1030 90 10000 4.63 200 08:44 12.02.2022
3800 Clouds -1 1031 93 10000 2.57 170 05:40 12.02.2022
3801 Clouds -1 1032 95 10000 1.03 150 04:33 12.02.2022
3802 Clouds -1 1032 94 10000 1.54 200 02:18 12.02.2022
3803 Clear 0 1032 90 10000 2.57 250 22:55 11.02.2022
3804 Clear 0 1031 89 10000 2.57 260 22:18 11.02.2022
3805 Clear 1 1031 84 10000 2.57 290 20:43 11.02.2022
3806 Clear 2 1030 81 10000 4.12 280 19:50 11.02.2022
3807 Clear 2 1030 80 10000 3.6 290 19:27 11.02.2022
3808 Clear 3 1028 69 10000 5.66 310 18:28 11.02.2022
3809 Clouds 4 1027 66 10000 5.66 310 17:26 11.02.2022
3810 Clouds 5 1026 67 10000 7.2 320 16:26 11.02.2022
3811 Clouds 4 1024 83 10000 8.75 340 14:59 11.02.2022
3812 Clouds 4 1023 84 10000 5.14 290 14:37 11.02.2022
3813 Clouds 4 1023 84 10000 5.14 290 14:18 11.02.2022
3814 Clouds 5 1022 89 10000 6.69 320 13:40 11.02.2022
3815 Clouds 4 1021 90 10000 4.12 330 12:37 11.02.2022
3816 Clouds 3 1017 93 10000 2.57 70 10:30 11.02.2022
3817 Clouds 2 1016 90 10000 2.57 200 09:22 11.02.2022
3818 Clouds 2 1015 91 10000 4.63 190 08:31 11.02.2022
3819 Clouds 2 1015 93 10000 5.14 200 07:40 11.02.2022
3820 Clouds 3 1016 89 10000 3.6 230 02:40 11.02.2022
3821 Clouds 3 1017 87 10000 4.63 230 02:20 11.02.2022
3822 Clear 4 1017 87 10000 4.12 250 23:41 10.02.2022
3823 Clouds 4 1017 87 10000 3.6 240 21:55 10.02.2022
3824 Clouds 4 1017 87 10000 3.6 240 21:35 10.02.2022
3825 Clear 4 1017 86 10000 3.09 270 20:48 10.02.2022
3826 Clear 4 1017 88 10000 3.09 250 19:49 10.02.2022
3827 Clear 4 1017 86 10000 3.09 260 19:21 10.02.2022
3828 Clouds 5 1016 86 10000 5.66 260 17:53 10.02.2022
3829 Clouds 5 1016 85 10000 8.23 260 17:21 10.02.2022
3830 Rain 7 1016 81 10000 5.66 270 16:30 10.02.2022
3831 Clouds 7 1016 81 10000 5.14 270 15:37 10.02.2022
3832 Clouds 7 1016 79 10000 5.66 280 15:18 10.02.2022
3833 Clouds 7 1016 80 10000 6.17 280 14:33 10.02.2022
3834 Clouds 7 1016 90 10000 5.14 270 13:37 10.02.2022
3835 Clouds 7 1016 90 10000 5.14 270 13:18 10.02.2022
3836 Rain 6 1016 96 10000 4.12 230 11:50 10.02.2022
3837 Clouds 6 1016 97 10000 3.09 270 11:28 10.02.2022
3838 Clouds 6 1016 98 10000 2.06 250 10:21 10.02.2022
3839 Rain 6 1016 98 9000 1.54 240 09:37 10.02.2022
3840 Drizzle 6 1016 97 4000 1.54 320 08:21 10.02.2022
3841 Clouds 5 1017 97 5000 1.03 200 06:19 10.02.2022
3842 Clouds 6 1019 96 10000 2.57 230 02:43 10.02.2022
3843 Clouds 5 1020 97 10000 3.09 240 00:52 10.02.2022
3844 Clouds 6 1020 94 10000 3.6 240 00:30 10.02.2022
3845 Clouds 6 1020 94 10000 3.6 240 00:30 10.02.2022
3846 Clouds 6 1020 97 10000 3.6 250 23:53 09.02.2022
3847 Clouds 6 1021 95 10000 3.09 240 22:51 09.02.2022
3848 Clouds 7 1021 93 10000 3.6 240 22:30 09.02.2022
3849 Clouds 7 1020 93 10000 4.12 260 21:46 09.02.2022
3850 Clouds 7 1020 95 10000 4.12 270 21:26 09.02.2022
3851 Clouds 7 1020 95 10000 3.6 260 20:42 09.02.2022
3852 Clouds 7 1020 95 10000 3.6 260 20:22 09.02.2022
3853 Clouds 7 1020 94 10000 4.12 270 19:39 09.02.2022
3854 Clouds 8 1020 95 10000 5.66 270 18:31 09.02.2022
3855 Clouds 9 1019 94 3500 6.69 250 16:54 09.02.2022
3856 Drizzle 9 1019 93 8000 7.72 250 15:59 09.02.2022
3857 Drizzle 9 1019 93 8000 8.75 250 15:22 09.02.2022
3858 Drizzle 9 1019 87 10000 8.23 250 12:43 09.02.2022
3859 Clouds 9 1019 89 10000 7.72 240 11:23 09.02.2022
3860 Clouds 9 1019 89 10000 8.23 240 10:33 09.02.2022
3861 Clouds 8 1020 93 10000 7.72 240 09:47 09.02.2022
3862 Clouds 8 1020 94 10000 8.75 240 09:21 09.02.2022
3863 Drizzle 8 1020 96 8000 7.72 240 08:43 09.02.2022
3864 Drizzle 8 1020 96 7000 8.23 240 05:57 09.02.2022
3865 Drizzle 9 1021 96 5000 7.72 240 03:51 09.02.2022
3866 Clouds 9 1021 98 10000 8.75 240 03:25 09.02.2022
3867 Drizzle 9 1021 95 5000 6.69 250 23:45 08.02.2022
3868 Drizzle 9 1021 95 5000 6.17 250 23:19 08.02.2022
3869 Drizzle 9 1021 95 5000 6.17 250 23:19 08.02.2022
3870 Clouds 8 1021 97 4500 5.66 250 22:38 08.02.2022
3871 Drizzle 8 1021 98 4800 5.14 250 22:19 08.02.2022
3872 Clouds 8 1021 98 7000 4.63 260 21:22 08.02.2022
3873 Clouds 8 1021 96 10000 5.14 260 20:58 08.02.2022
3874 Clouds 8 1021 96 10000 5.14 260 20:37 08.02.2022
3875 Clouds 8 1021 96 10000 5.14 260 20:37 08.02.2022
3876 Clouds 8 1021 98 7000 4.63 280 19:27 08.02.2022
3877 Clouds 8 1021 98 5000 5.66 280 18:19 08.02.2022
3878 Clouds 8 1020 96 3500 7.2 270 17:30 08.02.2022
3879 Clouds 8 1019 96 3200 6.17 270 15:47 08.02.2022
3880 Clouds 8 1019 96 3200 6.69 260 14:59 08.02.2022
3881 Clouds 8 1019 96 3500 6.69 260 13:50 08.02.2022
3882 Drizzle 8 1018 97 4500 8.23 260 12:24 08.02.2022
3883 Drizzle 8 1018 97 3500 8.75 250 10:52 08.02.2022
3884 Clouds 8 1018 94 3000 8.23 250 09:49 08.02.2022
3885 Drizzle 7 1018 94 4500 7.2 230 08:53 08.02.2022
3886 Clouds 6 1019 93 10000 8.75 240 06:49 08.02.2022
3887 Clouds 5 1019 93 10000 8.23 240 04:40 08.02.2022
3888 Clouds 4 1019 93 10000 6.69 230 04:22 08.02.2022
3889 Clouds 4 1020 89 10000 6.69 230 03:36 08.02.2022
3890 Clouds 4 1020 88 10000 6.69 230 03:18 08.02.2022
3891 Clouds 4 1020 85 10000 5.66 230 02:59 08.02.2022
3892 Clouds 4 1020 85 10000 5.66 230 02:36 08.02.2022
3893 Clouds 4 1021 88 10000 5.66 240 02:18 08.02.2022
3894 Clear 4 1021 87 10000 5.66 240 01:45 08.02.2022
3895 Clear 4 1021 88 10000 5.14 250 01:25 08.02.2022
3896 Clouds 4 1022 86 10000 5.14 250 00:55 08.02.2022
3897 Clouds 4 1021 87 10000 6.17 260 00:32 08.02.2022
3898 Clouds 4 1021 87 10000 6.69 250 23:44 07.02.2022
3899 Clouds 5 1022 90 10000 6.17 250 23:18 07.02.2022
3900 Clouds 5 1022 89 10000 5.14 240 22:59 07.02.2022
3901 Clouds 5 1022 89 10000 5.14 240 22:59 07.02.2022
3902 Clouds 4 1021 89 10000 4.63 250 22:19 07.02.2022
3903 Clouds 4 1021 88 10000 4.12 260 21:51 07.02.2022
3904 Clouds 4 1021 90 10000 5.14 270 21:27 07.02.2022
3905 Clouds 4 1021 90 10000 6.17 270 20:47 07.02.2022
3906 Clouds 4 1021 90 10000 4.12 260 20:29 07.02.2022
3907 Clouds 4 1020 90 10000 4.12 260 19:47 07.02.2022
3908 Clouds 4 1020 86 10000 6.69 290 18:40 07.02.2022
3909 Clouds 4 1018 79 10000 9.26 290 17:33 07.02.2022
3910 Clouds 5 1018 77 10000 10.8 300 16:52 07.02.2022
3911 Clouds 6 1017 73 10000 9.26 300 15:48 07.02.2022
3912 Clouds 6 1015 73 10000 10.29 290 14:30 07.02.2022
3913 Clouds 6 1014 69 10000 10.8 300 13:27 07.02.2022
3914 Clouds 6 1014 70 10000 8.75 290 12:36 07.02.2022
3915 Clouds 6 1013 74 10000 8.23 290 11:52 07.02.2022
3916 Clouds 6 1013 74 10000 7.72 290 11:24 07.02.2022
3917 Clouds 5 1012 77 10000 6.69 290 10:43 07.02.2022
3918 Clouds 5 1011 77 10000 7.72 300 10:24 07.02.2022
3919 Clouds 4 1010 80 10000 7.72 290 09:52 07.02.2022
3920 Clouds 4 1009 84 10000 7.2 290 09:18 07.02.2022
3921 Clouds 4 1007 86 10000 7.2 290 07:58 07.02.2022
3922 Clouds 3 1005 92 10000 5.14 280 06:35 07.02.2022
3923 Clouds 2 1002 91 10000 5.14 280 05:18 07.02.2022
3924 Clouds 2 998 91 10000 5.66 280 02:56 07.02.2022
3925 Clouds 3 995 90 10000 6.69 280 00:29 07.02.2022
3926 Clouds 3 994 90 10000 5.14 280 23:40 06.02.2022
3927 Clouds 2 993 93 10000 4.63 270 22:46 06.02.2022
3928 Rain 3 992 92 8000 8.23 280 21:51 06.02.2022
3929 Rain 4 991 87 10000 6.17 240 21:26 06.02.2022
3930 Clouds 4 992 88 10000 5.66 260 20:52 06.02.2022
3931 Clouds 4 992 91 10000 5.66 250 20:24 06.02.2022
3932 Rain 5 991 90 9000 5.14 240 19:32 06.02.2022
3933 Clouds 5 992 93 10000 4.12 250 18:38 06.02.2022
3934 Clouds 5 991 93 10000 4.12 260 17:54 06.02.2022
3935 Clouds 5 991 94 10000 5.14 260 16:56 06.02.2022
3936 Clouds 5 991 96 7000 5.66 250 16:38 06.02.2022
3937 Rain 4 990 94 7000 4.63 250 15:47 06.02.2022
3938 Rain 4 990 94 8000 4.12 230 15:26 06.02.2022
3939 Rain 4 991 93 7000 3.6 270 14:33 06.02.2022
3940 Drizzle 5 992 93 6000 3.09 280 13:25 06.02.2022
3941 Drizzle 6 993 97 5000 2.57 310 12:50 06.02.2022
3942 Rain 6 995 95 10000 4.12 240 11:27 06.02.2022
3943 Rain 6 996 92 10000 4.63 240 10:29 06.02.2022
3944 Rain 6 997 94 10000 6.17 260 08:49 06.02.2022
3945 Rain 7 998 96 10000 7.72 240 07:37 06.02.2022
3946 Rain 7 1000 94 10000 8.75 230 05:30 06.02.2022
3947 Rain 7 1000 94 10000 8.75 230 05:30 06.02.2022
3948 Rain 7 1000 94 10000 8.75 230 05:30 06.02.2022
3949 Rain 7 1000 94 10000 8.75 230 05:30 06.02.2022
3950 Rain 6 1003 93 10000 9.77 230 02:26 06.02.2022
3951 Rain 6 1004 93 10000 9.26 230 01:47 06.02.2022
3952 Rain 5 1005 93 10000 9.77 230 00:26 06.02.2022
3953 Rain 5 1007 89 10000 9.26 220 22:20 05.02.2022
3954 Clouds 5 1008 83 10000 9.77 230 21:18 05.02.2022
3955 Clouds 6 1009 75 10000 8.23 230 20:24 05.02.2022
3956 Clouds 5 1010 77 10000 8.23 220 19:46 05.02.2022
3957 Clouds 5 1011 77 10000 7.2 220 18:52 05.02.2022
3958 Clouds 6 1012 75 10000 8.23 230 17:39 05.02.2022
3959 Clouds 6 1012 75 10000 8.23 230 17:39 05.02.2022
3960 Clouds 6 1012 75 10000 8.75 240 16:58 05.02.2022
3961 Clouds 6 1012 73 10000 7.72 240 15:34 05.02.2022
3962 Clouds 6 1012 73 10000 8.23 240 14:55 05.02.2022
3963 Clouds 6 1013 78 10000 7.2 240 12:47 05.02.2022
3964 Clouds 5 1013 82 10000 6.17 250 12:22 05.02.2022
3965 Clouds 4 1013 88 10000 6.69 250 10:48 05.02.2022
3966 Clouds 3 1013 89 10000 6.17 240 10:20 05.02.2022
3967 Clouds 3 1012 92 10000 5.14 250 09:43 05.02.2022
3968 Clear 2 1011 93 10000 5.14 250 07:51 05.02.2022
3969 Clear 2 1011 93 10000 5.14 250 07:51 05.02.2022
3970 Clouds 2 1010 93 10000 3.6 250 06:57 05.02.2022
3971 Clouds 3 1008 93 10000 6.17 240 04:29 05.02.2022
3972 Clouds 3 1007 93 10000 6.17 250 01:19 05.02.2022
3973 Clouds 3 1006 93 10000 6.17 250 00:53 05.02.2022
3974 Clouds 3 1005 93 10000 5.66 250 23:41 04.02.2022
3975 Clouds 3 1005 94 10000 5.66 260 23:23 04.02.2022
3976 Clouds 3 1004 95 10000 4.12 280 21:54 04.02.2022
3977 Clouds 3 1003 93 10000 5.14 290 21:36 04.02.2022
3978 Clouds 2 1003 93 10000 5.14 290 21:18 04.02.2022
3979 Rain 3 1001 94 10000 7.2 290 19:59 04.02.2022
3980 Clouds 8 998 83 10000 9.77 210 17:43 04.02.2022
3981 Clouds 8 1001 81 10000 7.2 220 15:39 04.02.2022
3982 Clouds 9 1001 80 10000 8.23 210 14:54 04.02.2022
3983 Clouds 9 1002 80 10000 8.75 210 13:33 04.02.2022
3984 Clouds 8 1003 85 10000 8.23 220 12:43 04.02.2022
3985 Clouds 8 1004 88 10000 9.26 220 11:42 04.02.2022
3986 Clouds 7 1005 92 10000 8.23 220 10:36 04.02.2022
3987 Clouds 6 1006 93 9000 6.17 220 08:36 04.02.2022
3988 Clouds 6 1007 93 7000 6.17 220 06:57 04.02.2022
3989 Clouds 6 1008 97 10000 5.14 230 02:46 04.02.2022
3990 Rain 6 1008 94 10000 4.12 230 01:52 04.02.2022
3991 Clouds 6 1008 95 10000 4.63 230 23:29 03.02.2022
3992 Clouds 6 1008 95 10000 4.63 230 22:40 03.02.2022
3993 Clouds 7 1009 94 10000 5.14 230 21:49 03.02.2022
3994 Clouds 7 1009 94 10000 4.63 230 20:39 03.02.2022
3995 Clouds 7 1009 94 10000 4.63 220 20:18 03.02.2022
3996 Clouds 7 1009 94 10000 5.66 220 19:32 03.02.2022
3997 Drizzle 7 1009 94 10000 4.12 230 18:38 03.02.2022
3998 Drizzle 7 1010 94 3900 5.14 220 17:33 03.02.2022
3999 Clouds 7 1010 95 10000 4.12 230 16:35 03.02.2022
4000 Clouds 8 1011 94 6000 5.66 230 14:49 03.02.2022
4001 Rain 8 1012 98 5000 5.14 230 12:58 03.02.2022
4002 Clouds 7 1012 96 6000 4.63 220 11:23 03.02.2022
4003 Rain 5 1014 97 6000 4.12 210 08:37 03.02.2022
4004 Drizzle 4 1015 92 10000 3.09 210 05:26 03.02.2022
4005 Clouds 2 1018 94 10000 2.57 220 00:32 03.02.2022
4006 Clouds 2 1018 92 10000 3.09 220 23:43 02.02.2022
4007 Clear 2 1018 91 10000 3.09 240 22:32 02.02.2022
4008 Clear 2 1018 89 10000 3.6 240 21:34 02.02.2022
4009 Clear 2 1018 88 10000 2.57 240 20:51 02.02.2022
4010 Clear 3 1018 86 10000 2.57 250 19:59 02.02.2022
4011 Clear 4 1018 84 10000 3.6 280 19:27 02.02.2022
4012 Clear 4 1017 82 10000 4.12 290 18:46 02.02.2022
4013 Clouds 4 1017 79 10000 5.14 290 18:22 02.02.2022
4014 Clouds 5 1016 74 10000 7.2 290 17:19 02.02.2022
4015 Clouds 6 1015 72 10000 7.2 300 16:42 02.02.2022
4016 Clouds 7 1013 69 10000 9.77 300 13:35 02.02.2022
4017 Clouds 7 1011 70 10000 8.23 310 12:25 02.02.2022
4018 Clouds 6 1010 74 10000 9.77 300 11:34 02.02.2022
4019 Clouds 6 1010 76 10000 7.72 310 10:38 02.02.2022
4020 Clouds 6 1006 83 10000 9.77 300 07:40 02.02.2022
4021 Clouds 6 1001 82 10000 11.32 300 22:53 01.02.2022
4022 Clouds 6 1000 81 10000 10.29 290 21:55 01.02.2022
4023 Clouds 6 1000 84 10000 10.8 300 20:47 01.02.2022
4024 Rain 7 999 87 10000 9.26 290 17:59 01.02.2022
4025 Clouds 7 999 88 10000 10.8 290 16:42 01.02.2022
4026 Rain 6 1000 97 10000 7.72 260 14:56 01.02.2022
4027 Drizzle 4 1003 95 6000 9.26 230 12:48 01.02.2022
4028 Drizzle 4 1006 93 4500 8.23 230 11:48 01.02.2022
4029 Clouds 3 1012 89 10000 4.63 260 06:57 01.02.2022
4030 Clouds 1 1012 93 10000 2.57 270 23:53 31.01.2022
4031 Clouds 2 1012 93 10000 2.57 270 23:34 31.01.2022
4032 Clouds 2 1012 93 10000 2.57 270 23:34 31.01.2022
4033 Clouds 2 1012 90 10000 3.09 280 22:27 31.01.2022
4034 Clouds 2 1012 89 10000 3.6 300 21:34 31.01.2022
4035 Clouds 3 1011 88 10000 2.57 300 20:34 31.01.2022
4036 Clouds 2 1010 89 10000 3.09 300 19:46 31.01.2022
4037 Clouds 3 1009 84 10000 2.57 320 18:31 31.01.2022
4038 Clouds 3 1008 84 10000 2.57 340 17:53 31.01.2022
4039 Clouds 3 1007 87 10000 3.09 10 16:58 31.01.2022
4040 Clouds 3 1005 88 10000 3.09 30 15:44 31.01.2022
4041 Clouds 3 1004 89 10000 2.57 30 14:27 31.01.2022
4042 Clouds 3 1003 91 10000 2.57 70 12:55 31.01.2022
4043 Clouds 2 1002 95 10000 2.57 110 11:59 31.01.2022
4044 Clouds 2 1001 93 10000 3.09 100 10:54 31.01.2022
4045 Clouds 2 1001 93 10000 3.09 100 10:36 31.01.2022
4046 Clouds 2 1001 95 7000 2.57 110 09:34 31.01.2022
4047 Clouds 1 1002 96 6000 3.09 130 08:53 31.01.2022
4048 Clouds 2 1002 93 10000 4.12 140 08:20 31.01.2022
4049 Rain 2 1003 86 10000 4.63 150 06:53 31.01.2022
4050 Clouds 2 1006 85 10000 3.09 170 05:24 31.01.2022
4051 Clouds 4 1017 80 10000 3.6 250 23:30 30.01.2022
4052 Clouds 4 1018 82 10000 4.12 290 22:30 30.01.2022
4053 Clouds 4 1019 81 10000 4.12 290 21:44 30.01.2022
4054 Clouds 4 1019 81 10000 4.12 290 21:44 30.01.2022
4055 Clouds 5 1019 81 10000 6.17 280 21:22 30.01.2022
4056 Rain 5 1019 77 10000 4.12 280 20:51 30.01.2022
4057 Clouds 5 1020 73 10000 5.66 280 20:30 30.01.2022
4058 Clouds 5 1020 70 10000 6.69 290 19:54 30.01.2022
4059 Clouds 5 1020 68 10000 7.2 290 18:51 30.01.2022
4060 Clouds 5 1020 66 10000 9.26 300 18:22 30.01.2022
4061 Clouds 6 1020 68 10000 10.29 300 17:30 30.01.2022
4062 Clouds 6 1020 65 10000 11.32 310 16:42 30.01.2022
4063 Clouds 6 1020 64 10000 13.89 310 16:22 30.01.2022
4064 Clouds 6 1020 64 10000 8.23 310 15:54 30.01.2022
4065 Clouds 6 1020 64 10000 8.23 310 15:54 30.01.2022
4066 Clouds 6 1020 62 10000 10.8 300 15:32 30.01.2022
4067 Clouds 6 1020 62 10000 12.35 300 14:47 30.01.2022
4068 Clouds 7 1020 62 10000 14.4 310 13:44 30.01.2022
4069 Clouds 7 1019 63 10000 13.38 310 12:44 30.01.2022
4070 Clouds 6 1017 65 10000 11.32 300 10:47 30.01.2022
4071 Clouds 6 1017 65 10000 11.83 310 10:25 30.01.2022
4072 Clouds 6 1016 70 10000 13.38 300 09:22 30.01.2022
4073 Clouds 6 1014 76 10000 14.4 290 07:58 30.01.2022
4074 Clouds 6 1012 75 10000 13.38 290 02:44 30.01.2022
4075 Clouds 6 1012 77 10000 13.38 290 01:54 30.01.2022
4076 Clouds 6 1011 76 10000 13.89 280 23:49 29.01.2022
4077 Clouds 7 1010 74 10000 11.83 280 22:57 29.01.2022
4078 Clouds 7 1010 77 10000 13.38 290 21:35 29.01.2022
4079 Clouds 7 1009 77 10000 13.89 280 20:57 29.01.2022
4080 Clouds 8 1009 77 10000 14.4 290 20:20 29.01.2022
4081 Clouds 8 1008 76 10000 15.95 280 19:33 29.01.2022
4082 Clouds 9 1007 78 10000 16.46 280 18:44 29.01.2022
4083 Clouds 10 1007 77 10000 20.58 280 17:55 29.01.2022
4084 Clouds 10 1006 78 10000 13.38 270 17:19 29.01.2022
4085 Clouds 10 1008 85 10000 9.26 260 15:35 29.01.2022
4086 Drizzle 9 1010 92 10000 9.77 260 13:58 29.01.2022
4087 Clouds 9 1011 93 10000 9.77 250 13:28 29.01.2022
4088 Drizzle 8 1011 95 8000 9.77 250 12:59 29.01.2022
4089 Drizzle 8 1013 98 8000 8.23 250 11:39 29.01.2022
4090 Clouds 8 1014 97 9000 7.72 250 10:34 29.01.2022
4091 Mist 7 1015 97 5000 7.72 250 08:20 29.01.2022
4092 Rain 5 1021 92 6000 6.17 230 03:25 29.01.2022
4093 Rain 5 1024 80 10000 7.2 220 00:32 29.01.2022
4094 Clouds 4 1026 82 10000 5.66 220 23:32 28.01.2022
4095 Clouds 4 1026 82 10000 5.66 220 23:32 28.01.2022
4096 Clouds 4 1026 82 10000 5.14 220 22:47 28.01.2022
4097 Rain 4 1027 80 10000 4.12 220 22:19 28.01.2022
4098 Clouds 4 1028 79 10000 4.12 230 20:41 28.01.2022
4099 Clouds 5 1029 78 10000 3.6 250 19:59 28.01.2022
4100 Clouds 5 1029 78 10000 3.6 250 19:18 28.01.2022
4101 Clouds 5 1029 77 10000 2.57 270 18:35 28.01.2022
4102 Clouds 5 1029 75 10000 5.66 290 16:37 28.01.2022
4103 Clouds 7 1029 71 10000 6.17 280 14:59 28.01.2022
4104 Clouds 7 1028 68 10000 5.66 310 13:23 28.01.2022
4105 Clear 6 1028 69 10000 6.17 320 11:52 28.01.2022
4106 Clear 5 1026 73 10000 5.66 300 10:32 28.01.2022
4107 Clear 4 1026 72 10000 5.66 300 09:47 28.01.2022
4108 Clouds 5 1023 66 10000 7.2 300 07:43 28.01.2022
4109 Clouds 5 1022 73 10000 8.23 300 06:31 28.01.2022
4110 Clouds 5 1019 79 10000 8.23 300 03:52 28.01.2022
4111 Clouds 5 1018 80 10000 9.77 300 02:29 28.01.2022
4112 Clouds 5 1017 80 10000 8.75 290 01:57 28.01.2022
4113 Clouds 5 1017 81 10000 8.75 290 01:57 28.01.2022
4114 Clouds 5 1017 81 10000 8.75 290 01:29 28.01.2022
4115 Clouds 5 1015 82 10000 9.77 280 22:40 27.01.2022
4116 Rain 5 1014 79 10000 10.8 290 21:41 27.01.2022
4117 Clouds 5 1014 82 10000 8.75 290 21:21 27.01.2022
4118 Clouds 6 1013 82 10000 9.77 280 20:23 27.01.2022
4119 Clouds 6 1013 80 10000 9.77 280 18:23 27.01.2022
4120 Clouds 7 1012 82 10000 9.26 280 17:18 27.01.2022
4121 Clouds 8 1012 85 10000 9.77 270 14:24 27.01.2022
4122 Clouds 8 1012 92 10000 8.75 280 13:19 27.01.2022
4123 Clouds 7 1013 95 10000 7.2 260 12:20 27.01.2022
4124 Clouds 5 1013 96 4800 8.23 240 09:51 27.01.2022
4125 Clouds 5 1014 94 3800 8.75 240 08:41 27.01.2022
4126 Clouds 5 1014 94 6000 8.23 240 07:58 27.01.2022
4127 Drizzle 5 1018 94 5000 7.72 240 03:37 27.01.2022
4128 Drizzle 4 1021 97 4000 6.69 230 00:25 27.01.2022
4129 Drizzle 4 1023 97 4500 5.66 230 22:31 26.01.2022
4130 Clouds 4 1023 95 6000 5.14 230 21:44 26.01.2022
4131 Mist 4 1023 94 5000 5.66 240 20:59 26.01.2022
4132 Mist 4 1023 94 5000 5.66 240 20:35 26.01.2022
4133 Mist 4 1024 94 5000 5.66 250 19:52 26.01.2022
4134 Drizzle 4 1024 94 6000 5.14 250 18:52 26.01.2022
4135 Drizzle 4 1024 94 6000 5.14 250 18:25 26.01.2022
4136 Drizzle 4 1024 94 6000 5.66 250 17:49 26.01.2022
4137 Drizzle 4 1025 95 6000 6.17 250 17:19 26.01.2022
4138 Mist 3 1025 95 5000 5.14 250 16:26 26.01.2022
4139 Mist 3 1025 94 4500 4.63 250 15:24 26.01.2022
4140 Drizzle 3 1027 94 4500 5.66 240 12:52 26.01.2022
4141 Drizzle 3 1027 94 7000 6.69 240 11:34 26.01.2022
4142 Drizzle 3 1027 94 6000 5.14 250 10:19 26.01.2022
4143 Drizzle 3 1027 94 6000 6.17 240 09:42 26.01.2022
4144 Drizzle 3 1028 96 7000 4.12 250 07:31 26.01.2022
4145 Drizzle 4 1030 96 4000 3.09 260 00:44 26.01.2022
4146 Drizzle 4 1030 97 4000 3.6 260 23:48 25.01.2022
4147 Drizzle 4 1030 97 7000 3.09 250 22:50 25.01.2022
4148 Drizzle 4 1030 97 7000 3.09 250 22:50 25.01.2022
4149 Drizzle 4 1030 97 7000 2.57 260 22:21 25.01.2022
4150 Drizzle 4 1031 96 6000 3.6 270 21:37 25.01.2022
4151 Drizzle 5 1031 95 6000 3.09 270 20:46 25.01.2022
4152 Clouds 5 1031 95 8000 2.57 260 19:59 25.01.2022
4153 Clouds 5 1031 95 8000 2.57 260 19:40 25.01.2022
4154 Drizzle 5 1031 94 5000 2.57 260 18:22 25.01.2022
4155 Drizzle 5 1031 95 5000 3.09 270 17:42 25.01.2022
4156 Drizzle 5 1031 97 5000 3.6 260 16:35 25.01.2022
4157 Drizzle 5 1031 97 5000 3.6 270 15:44 25.01.2022
4158 Drizzle 5 1031 97 5000 3.6 270 15:26 25.01.2022
4159 Drizzle 5 1031 97 5000 4.12 260 14:57 25.01.2022
4160 Drizzle 5 1031 97 5000 4.12 260 14:57 25.01.2022
4161 Mist 5 1032 97 2200 3.09 260 13:18 25.01.2022
4162 Mist 4 1032 96 1800 2.06 260 10:35 25.01.2022
4163 Drizzle 4 1032 92 5000 2.57 270 08:33 25.01.2022
4164 Drizzle 4 1032 89 6000 2.57 260 07:28 25.01.2022
4165 Drizzle 4 1032 89 5000 2.57 260 06:22 25.01.2022
4166 Clouds 4 1033 88 10000 2.57 250 01:36 25.01.2022
4167 Clouds 4 1033 87 10000 2.57 250 23:37 24.01.2022
4168 Clouds 4 1033 85 10000 2.57 240 23:18 24.01.2022
4169 Clouds 4 1033 86 10000 3.09 240 22:59 24.01.2022
4170 Clouds 4 1033 86 10000 3.09 240 22:41 24.01.2022
4171 Clouds 4 1033 87 10000 2.57 240 21:49 24.01.2022
4172 Clouds 4 1033 86 10000 2.06 250 21:28 24.01.2022
4173 Clouds 4 1033 84 10000 2.06 230 20:29 24.01.2022
4174 Clouds 4 1033 85 10000 2.57 230 19:39 24.01.2022
4175 Clouds 4 1033 84 10000 2.57 240 19:20 24.01.2022
4176 Clouds 4 1034 83 10000 2.57 250 17:45 24.01.2022
4177 Clouds 4 1034 83 10000 3.09 250 17:23 24.01.2022
4178 Clouds 4 1034 83 10000 3.09 250 17:23 24.01.2022
4179 Clouds 5 1033 83 10000 3.6 260 16:40 24.01.2022
4180 Clouds 5 1033 82 10000 4.12 250 16:18 24.01.2022
4181 Clouds 5 1034 84 9000 5.14 260 14:28 24.01.2022
4182 Clouds 5 1034 86 10000 3.09 270 12:38 24.01.2022
4183 Clouds 5 1034 87 10000 2.57 260 11:59 24.01.2022
4184 Clouds 5 1034 87 10000 2.06 270 10:25 24.01.2022
4185 Clouds 5 1034 87 10000 2.06 250 09:47 24.01.2022
4186 Drizzle 4 1034 95 10000 3.09 250 08:24 24.01.2022
4187 Clouds 5 1034 93 10000 2.57 240 04:50 24.01.2022
4188 Clouds 5 1034 93 10000 2.57 250 01:30 24.01.2022
4189 Clouds 5 1035 95 10000 1.54 240 00:35 24.01.2022
4190 Clouds 5 1035 94 10000 2.06 270 23:49 23.01.2022
4191 Clouds 5 1035 94 10000 2.06 270 23:49 23.01.2022
4192 Clouds 5 1035 95 10000 1.54 290 22:28 23.01.2022
4193 Clouds 6 1035 90 10000 2.06 300 21:46 23.01.2022
4194 Clouds 6 1035 92 10000 3.09 300 21:25 23.01.2022
4195 Clouds 6 1035 90 10000 3.09 280 20:44 23.01.2022
4196 Clouds 6 1034 91 10000 2.57 290 19:43 23.01.2022
4197 Clouds 6 1034 90 10000 3.09 300 18:50 23.01.2022
4198 Clouds 7 1034 89 10000 4.12 300 17:44 23.01.2022
4199 Clouds 7 1034 89 10000 4.12 310 16:47 23.01.2022
4200 Clouds 8 1033 93 10000 6.69 310 14:59 23.01.2022
4201 Clouds 8 1033 90 10000 5.66 310 14:25 23.01.2022
4202 Clouds 8 1033 90 10000 5.66 310 14:25 23.01.2022
4203 Clouds 7 1034 98 10000 4.12 290 12:54 23.01.2022
4204 Clouds 7 1034 96 9000 3.09 290 12:22 23.01.2022
4205 Clouds 7 1034 98 9000 3.09 300 11:59 23.01.2022
4206 Clouds 7 1034 97 9000 3.6 310 11:19 23.01.2022
4207 Mist 7 1033 98 4000 3.6 300 10:27 23.01.2022
4208 Mist 6 1033 96 4500 4.12 310 09:51 23.01.2022
4209 Drizzle 6 1032 98 2900 4.12 290 08:59 23.01.2022
4210 Drizzle 6 1031 98 4800 4.12 290 05:58 23.01.2022
4211 Drizzle 5 1031 97 5000 3.6 270 01:53 23.01.2022
4212 Drizzle 5 1031 97 5000 3.6 270 01:53 23.01.2022
4213 Drizzle 5 1031 97 6000 3.6 270 01:33 23.01.2022
4214 Drizzle 5 1031 97 6000 3.09 270 00:23 23.01.2022
4215 Drizzle 5 1031 97 10000 3.6 270 23:57 22.01.2022
4216 Clouds 5 1030 97 10000 3.6 290 22:46 22.01.2022
4217 Clouds 5 1030 97 10000 4.12 280 21:38 22.01.2022
4218 Drizzle 6 1030 95 9000 4.63 280 20:23 22.01.2022
4219 Clouds 6 1030 94 10000 5.14 290 19:27 22.01.2022
4220 Clouds 6 1030 94 8000 4.63 290 18:29 22.01.2022
4221 Drizzle 6 1029 95 8000 4.63 290 17:41 22.01.2022
4222 Drizzle 6 1029 95 10000 4.12 290 16:57 22.01.2022
4223 Clouds 6 1029 96 10000 4.12 290 16:20 22.01.2022
4224 Clouds 7 1029 95 10000 4.12 290 15:42 22.01.2022
4225 Drizzle 7 1029 94 10000 4.12 290 13:59 22.01.2022
4226 Drizzle 6 1029 98 2900 3.6 280 12:58 22.01.2022
4227 Drizzle 6 1028 96 10000 3.6 280 12:30 22.01.2022
4228 Drizzle 6 1028 98 9000 3.6 290 11:57 22.01.2022
4229 Drizzle 6 1028 98 9000 3.09 300 10:39 22.01.2022
4230 Drizzle 6 1028 98 8000 3.6 310 10:19 22.01.2022
4231 Drizzle 5 1027 98 4500 3.09 290 08:54 22.01.2022
4232 Clouds 6 1027 98 9000 2.57 280 08:31 22.01.2022
4233 Clouds 6 1026 98 10000 2.57 310 05:20 22.01.2022
4234 Drizzle 6 1025 98 8000 3.6 320 02:27 22.01.2022
4235 Clouds 6 1024 98 8000 5.66 300 23:49 21.01.2022
4236 Clouds 6 1024 98 8000 5.66 300 23:49 21.01.2022
4237 Clouds 6 1024 98 6000 6.69 300 22:58 21.01.2022
4238 Drizzle 5 1024 97 7000 4.63 300 20:48 21.01.2022
4239 Clouds 4 1024 96 6000 4.12 260 19:20 21.01.2022
4240 Drizzle 4 1025 92 5000 3.09 260 17:50 21.01.2022
4241 Clouds 4 1026 85 10000 4.63 270 15:54 21.01.2022
4242 Clouds 5 1027 84 10000 4.12 280 14:41 21.01.2022
4243 Clouds 4 1028 69 10000 4.63 290 12:43 21.01.2022
4244 Clear 2 1028 67 10000 5.14 300 11:29 21.01.2022
4245 Clear 1 1027 71 10000 4.12 300 10:33 21.01.2022
4246 Clear 0 1027 79 10000 4.63 300 08:58 21.01.2022
4247 Clouds 0 1026 78 10000 5.66 310 07:48 21.01.2022
4248 Clear -2 1026 76 10000 4.63 280 01:51 21.01.2022
4249 Clear -1 1025 67 10000 2.06 300 22:47 20.01.2022
4250 Clear -1 1024 64 10000 3.09 310 21:49 20.01.2022
4251 Clear 0 1024 62 10000 4.12 320 21:25 20.01.2022
4252 Clear 0 1022 63 10000 5.66 320 19:54 20.01.2022
4253 Clear 0 1022 62 10000 5.66 310 19:18 20.01.2022
4254 Clouds 1 1020 65 10000 5.14 310 17:37 20.01.2022
4255 Clouds 2 1019 69 10000 6.69 310 16:24 20.01.2022
4256 Clouds 2 1018 73 10000 11.32 320 15:31 20.01.2022
4257 Clouds 3 1018 68 8000 9.26 340 14:20 20.01.2022
4258 Clouds 3 1018 69 10000 6.17 290 12:53 20.01.2022
4259 Clouds 2 1018 80 10000 7.2 300 12:29 20.01.2022
4260 Clouds 2 1018 76 10000 7.72 290 11:19 20.01.2022
4261 Clouds 2 1017 73 10000 5.66 290 10:18 20.01.2022
4262 Clouds 2 1017 71 10000 6.17 290 08:51 20.01.2022
4263 Clouds 2 1016 72 10000 6.69 300 07:23 20.01.2022
4264 Clear 3 1014 84 10000 6.17 290 00:40 20.01.2022
4265 Clouds 5 1013 76 10000 8.75 290 22:39 19.01.2022
4266 Clouds 5 1012 89 10000 7.2 290 21:40 19.01.2022
4267 Drizzle 5 1011 91 10000 6.69 290 21:21 19.01.2022
4268 Clouds 5 1011 95 9000 7.2 280 20:45 19.01.2022
4269 Clouds 5 1011 95 5000 7.72 240 19:18 19.01.2022
4270 Clouds 4 1013 93 4000 7.72 230 17:51 19.01.2022
4271 Drizzle 4 1013 92 4000 7.72 240 17:18 19.01.2022
4272 Clouds 4 1016 88 10000 6.17 220 15:36 19.01.2022
4273 Clouds 4 1019 90 7000 8.23 220 13:38 19.01.2022
4274 Clouds 4 1020 88 7000 6.17 230 12:20 19.01.2022
4275 Clouds 4 1021 89 8000 5.14 230 11:38 19.01.2022
4276 Clouds 4 1023 90 7000 5.14 240 09:52 19.01.2022
4277 Clouds 4 1023 92 8000 4.63 240 09:33 19.01.2022
4278 Clouds 4 1026 92 10000 4.12 220 06:34 19.01.2022
4279 Clouds 5 1032 88 10000 4.63 240 00:33 19.01.2022
4280 Clouds 5 1033 89 10000 4.12 240 23:18 18.01.2022
4281 Clouds 5 1034 90 10000 3.6 260 21:55 18.01.2022
4282 Clouds 6 1034 88 10000 3.6 250 20:47 18.01.2022
4283 Clouds 6 1034 89 10000 3.09 250 19:53 18.01.2022
4284 Clouds 6 1035 89 10000 3.6 260 19:35 18.01.2022
4285 Clouds 6 1035 89 10000 3.6 260 18:36 18.01.2022
4286 Clouds 6 1035 89 10000 3.09 270 17:48 18.01.2022
4287 Clouds 6 1035 88 10000 5.14 290 16:35 18.01.2022
4288 Clouds 7 1035 88 10000 6.17 280 15:26 18.01.2022
4289 Clouds 7 1035 88 10000 5.66 290 14:54 18.01.2022
4290 Clouds 7 1036 91 10000 3.09 270 11:52 18.01.2022
4291 Clouds 6 1036 95 10000 2.57 270 10:43 18.01.2022
4292 Drizzle 6 1035 95 9000 1.54 270 08:49 18.01.2022
4293 Clouds 6 1035 94 10000 2.57 260 07:46 18.01.2022
4294 Clouds 5 1033 85 10000 4.63 310 02:31 18.01.2022
4295 Clouds 4 1032 84 10000 4.12 280 23:22 17.01.2022
4296 Clouds 3 1032 87 10000 3.6 290 22:23 17.01.2022
4297 Clear 3 1031 85 10000 4.12 290 21:33 17.01.2022
4298 Clear 3 1030 83 10000 3.6 300 19:56 17.01.2022
4299 Clear 4 1029 79 10000 3.6 300 18:29 17.01.2022
4300 Clouds 4 1028 75 10000 6.69 310 17:25 17.01.2022
4301 Clouds 5 1027 73 10000 6.69 310 16:35 17.01.2022
4302 Clouds 6 1025 74 10000 7.2 320 14:59 17.01.2022
4303 Clouds 6 1024 76 10000 7.72 310 14:33 17.01.2022
4304 Clouds 7 1024 77 10000 9.77 310 13:20 17.01.2022
4305 Clouds 7 1023 79 10000 11.83 330 12:55 17.01.2022
4306 Clouds 7 1022 83 10000 10.8 320 11:48 17.01.2022
4307 Clouds 8 1020 93 10000 10.29 300 10:21 17.01.2022
4308 Clouds 7 1019 93 6000 11.32 290 09:34 17.01.2022
4309 Clouds 7 1019 84 10000 11.83 280 07:23 17.01.2022
4310 Clouds 6 1020 81 10000 9.26 280 02:55 17.01.2022
4311 Clouds 6 1021 84 10000 8.23 280 00:55 17.01.2022
4312 Clouds 6 1020 93 10000 6.17 270 22:22 16.01.2022
4313 Clouds 6 1019 95 6000 7.72 290 20:35 16.01.2022
4314 Clouds 6 1018 92 10000 6.17 270 18:51 16.01.2022
4315 Clouds 6 1018 93 8000 4.63 260 17:59 16.01.2022
4316 Rain 6 1018 94 7000 5.14 250 16:59 16.01.2022
4317 Clouds 5 1018 94 6000 5.14 260 16:31 16.01.2022
4318 Mist 4 1018 98 4300 4.63 250 14:31 16.01.2022
4319 Drizzle 4 1018 96 4500 4.63 250 13:46 16.01.2022
4320 Drizzle 3 1018 97 3000 5.14 240 12:46 16.01.2022
4321 Drizzle 3 1018 96 2900 5.66 230 11:41 16.01.2022
4322 Mist 3 1018 96 4500 5.14 250 10:53 16.01.2022
4323 Mist 3 1018 95 4800 6.17 240 10:19 16.01.2022
4324 Mist 3 1018 95 5000 4.12 240 09:40 16.01.2022
4325 Clouds 3 1018 93 6000 4.63 230 09:22 16.01.2022
4326 Clouds 3 1019 93 7000 4.63 240 07:30 16.01.2022
4327 Clouds 3 1022 92 10000 4.12 160 00:38 16.01.2022
4328 Clouds 3 1023 90 10000 4.63 190 23:40 15.01.2022
4329 Clouds 3 1024 95 10000 1.54 140 21:23 15.01.2022
4330 Clouds 3 1025 97 10000 1.54 130 20:56 15.01.2022
4331 Clouds 3 1025 97 10000 1.03 80 20:38 15.01.2022
4332 Clouds 3 1026 95 10000 0.51 0 19:28 15.01.2022
4333 Clouds 3 1026 95 10000 0.51 0 18:37 15.01.2022
4334 Clouds 4 1026 91 10000 3.09 210 16:57 15.01.2022
4335 Clouds 5 1027 88 10000 1.54 230 15:42 15.01.2022
4336 Clouds 5 1028 88 10000 1.54 220 13:52 15.01.2022
4337 Clouds 4 1029 95 10000 2.06 220 11:46 15.01.2022
4338 Clouds 2 1029 96 10000 0.51 0 10:25 15.01.2022
4339 Clouds 1 1030 97 10000 0.51 0 06:40 15.01.2022
4340 Clouds 2 1031 97 9000 1.03 0 23:50 14.01.2022
4341 Clear 3 1032 95 10000 1.03 0 21:41 14.01.2022
4342 Clear 3 1032 97 10000 1.03 0 20:37 14.01.2022
4343 Clear 4 1031 97 10000 2.57 290 19:58 14.01.2022
4344 Clear 5 1031 93 10000 3.09 290 18:48 14.01.2022
4345 Clouds 6 1030 95 10000 5.14 290 17:57 14.01.2022
4346 Clouds 7 1030 93 10000 5.66 300 16:48 14.01.2022
4347 Drizzle 8 1030 96 10000 6.17 290 15:37 14.01.2022
4348 Drizzle 7 1030 96 8000 6.17 280 14:38 14.01.2022
4349 Drizzle 7 1030 97 5000 6.17 280 13:35 14.01.2022
4350 Drizzle 6 1030 97 3000 5.66 270 12:24 14.01.2022
4351 Drizzle 6 1030 96 4000 4.12 260 10:50 14.01.2022
4352 Clouds 6 1030 92 10000 4.63 270 08:54 14.01.2022
4353 Drizzle 6 1029 92 7000 5.14 270 08:34 14.01.2022
4354 Clouds 6 1030 91 10000 7.2 270 05:29 14.01.2022
4355 Clouds 7 1032 90 10000 6.17 270 00:59 14.01.2022
4356 Clouds 7 1032 86 10000 7.72 270 22:52 13.01.2022
4357 Clouds 7 1032 89 10000 7.2 280 21:31 13.01.2022
4358 Clouds 7 1032 89 10000 6.17 270 20:57 13.01.2022
4359 Clouds 7 1033 90 10000 6.17 270 19:40 13.01.2022
4360 Clouds 7 1033 90 10000 5.66 270 19:22 13.01.2022
4361 Clouds 7 1034 90 10000 6.69 280 17:52 13.01.2022
4362 Clouds 7 1033 92 10000 7.2 280 16:21 13.01.2022
4363 Clouds 7 1033 94 10000 6.17 270 15:37 13.01.2022
4364 Drizzle 6 1034 96 4700 5.66 270 14:40 13.01.2022
4365 Drizzle 6 1034 96 3500 5.66 260 12:44 13.01.2022
4366 Clouds 6 1035 94 7000 6.69 270 10:25 13.01.2022
4367 Clouds 6 1035 96 7000 5.14 270 09:20 13.01.2022
4368 Clouds 6 1034 98 7000 6.17 260 08:27 13.01.2022
4369 Mist 6 1034 97 5000 5.14 260 07:23 13.01.2022
4370 Mist 5 1035 98 4500 5.66 250 05:59 13.01.2022
4371 Mist 5 1035 98 4500 5.66 250 05:59 13.01.2022
4372 Mist 5 1035 98 4500 5.66 260 05:19 13.01.2022
4373 Mist 5 1036 96 2500 5.14 260 01:58 13.01.2022
4374 Mist 5 1036 96 4900 5.14 260 00:54 13.01.2022
4375 Clouds 5 1036 97 6000 5.14 250 23:49 12.01.2022
4376 Clouds 5 1036 97 6000 5.14 250 23:49 12.01.2022
4377 Clouds 5 1036 97 7000 4.63 260 23:19 12.01.2022
4378 Clouds 5 1036 95 8000 4.63 260 21:57 12.01.2022
4379 Clouds 5 1036 94 8000 4.12 260 21:22 12.01.2022
4380 Clouds 5 1036 95 9000 4.63 270 20:56 12.01.2022
4381 Clouds 5 1036 95 9000 4.63 250 19:45 12.01.2022
4382 Clouds 5 1036 93 10000 4.63 260 18:42 12.01.2022
4383 Clouds 5 1036 94 10000 4.63 270 17:38 12.01.2022
4384 Clouds 6 1036 89 10000 3.6 260 16:33 12.01.2022
4385 Clouds 6 1036 90 10000 3.6 260 14:48 12.01.2022
4386 Clouds 6 1036 91 10000 3.6 250 13:24 12.01.2022
4387 Clouds 4 1037 97 8000 3.6 290 11:59 12.01.2022
4388 Mist 4 1035 98 2800 2.06 270 08:43 12.01.2022
4389 Drizzle 3 1034 98 2000 2.57 260 07:50 12.01.2022
4390 Drizzle 3 1034 98 2500 2.57 250 07:31 12.01.2022
4391 Clear 3 1033 85 10000 3.09 220 23:53 11.01.2022
4392 Clear 3 1033 87 10000 3.09 180 22:57 11.01.2022
4393 Clear 3 1033 88 10000 3.09 170 22:23 11.01.2022
4394 Clear 3 1033 89 10000 4.63 170 21:25 11.01.2022
4395 Clear 3 1033 90 10000 3.6 170 20:21 11.01.2022
4396 Clear 3 1033 92 10000 4.12 170 18:48 11.01.2022
4397 Clear 3 1033 93 10000 4.63 170 17:42 11.01.2022
4398 Clouds 3 1033 89 10000 5.14 170 16:38 11.01.2022
4399 Clouds 4 1033 86 10000 3.6 170 15:59 11.01.2022
4400 Clouds 4 1033 86 10000 5.14 160 14:43 11.01.2022
4401 Clouds 4 1033 86 10000 4.12 170 13:58 11.01.2022
4402 Clouds 4 1033 87 10000 4.12 170 13:39 11.01.2022
4403 Clouds 4 1033 87 10000 4.63 170 13:21 11.01.2022
4404 Clouds 4 1033 90 10000 4.12 190 12:23 11.01.2022
4405 Clouds 3 1033 97 7000 4.12 170 10:25 11.01.2022
4406 Clouds 3 1032 98 6000 3.6 150 07:35 11.01.2022
4407 Clouds 3 1031 94 10000 3.6 150 02:57 11.01.2022
4408 Clouds 4 1030 94 9000 2.06 140 00:24 11.01.2022
4409 Clouds 3 1030 95 9000 2.06 140 23:38 10.01.2022
4410 Clouds 3 1029 95 8000 2.57 150 22:20 10.01.2022
4411 Clouds 3 1029 94 8000 3.09 150 21:56 10.01.2022
4412 Clouds 3 1028 92 8000 3.6 160 21:33 10.01.2022
4413 Clouds 3 1028 92 7000 3.6 160 20:58 10.01.2022
4414 Clouds 3 1028 92 7000 3.6 160 20:36 10.01.2022
4415 Clouds 4 1028 92 7000 2.06 120 20:18 10.01.2022
4416 Clouds 4 1028 92 7000 1.54 90 19:37 10.01.2022
4417 Clouds 4 1027 91 6000 1.54 90 19:18 10.01.2022
4418 Clouds 4 1027 92 6000 1.54 90 18:46 10.01.2022
4419 Clouds 4 1025 91 7000 1.03 0 16:48 10.01.2022
4420 Clouds 4 1024 91 7000 1.54 70 16:20 10.01.2022
4421 Clouds 4 1022 91 9000 2.57 60 14:42 10.01.2022
4422 Clouds 4 1021 94 7000 1.03 0 12:50 10.01.2022
4423 Drizzle 3 1020 94 6000 1.03 0 11:56 10.01.2022
4424 Drizzle 3 1019 95 7000 1.54 50 10:48 10.01.2022
4425 Clouds 2 1017 98 8000 1.03 340 09:33 10.01.2022
4426 Clouds 3 1012 96 10000 1.54 50 05:51 10.01.2022
4427 Clouds 3 1008 95 10000 2.06 280 02:32 10.01.2022
4428 Clouds 4 1007 96 10000 2.57 270 01:21 10.01.2022
4429 Clear 4 1006 97 10000 3.6 270 00:20 10.01.2022
4430 Clouds 4 1004 96 10000 4.12 260 22:47 09.01.2022
4431 Clouds 4 1003 94 10000 3.09 260 22:18 09.01.2022
4432 Clouds 4 1003 95 10000 3.6 270 21:41 09.01.2022
4433 Clouds 4 1003 95 10000 3.6 270 21:41 09.01.2022
4434 Clouds 4 1002 94 10000 2.57 280 21:22 09.01.2022
4435 Clouds 4 1002 94 10000 2.57 280 21:22 09.01.2022
4436 Clouds 4 1001 94 10000 3.09 270 20:46 09.01.2022
4437 Clouds 4 1001 95 10000 2.57 270 20:28 09.01.2022
4438 Clouds 4 1000 95 10000 1.54 280 19:39 09.01.2022
4439 Clouds 4 1000 94 10000 1.54 280 19:20 09.01.2022
4440 Clouds 4 999 96 10000 1.54 340 18:41 09.01.2022
4441 Clouds 4 998 96 9000 2.57 320 18:23 09.01.2022
4442 Clouds 4 997 96 8000 4.12 290 17:30 09.01.2022
4443 Rain 4 997 96 6000 2.06 320 16:50 09.01.2022
4444 Drizzle 4 996 96 6000 2.57 320 15:52 09.01.2022
4445 Rain 4 995 96 7000 2.57 290 15:33 09.01.2022
4446 Rain 4 994 97 8000 3.6 290 14:39 09.01.2022
4447 Drizzle 3 994 97 10000 1.54 180 13:49 09.01.2022
4448 Clouds 2 993 97 4200 4.12 150 12:26 09.01.2022
4449 Clouds 2 993 97 4500 4.12 150 11:47 09.01.2022
4450 Clouds 1 992 97 7000 6.17 150 09:56 09.01.2022
4451 Snow 1 991 95 8000 5.66 150 09:29 09.01.2022
4452 Clouds 1 991 97 8000 5.66 140 08:25 09.01.2022
4453 Clouds 2 992 88 10000 6.17 140 01:43 09.01.2022
4454 Clouds 2 992 88 10000 6.17 140 01:19 09.01.2022
4455 Clouds 2 994 91 10000 7.72 150 23:38 08.01.2022
4456 Clouds 2 995 91 10000 8.23 160 22:59 08.01.2022
4457 Rain 2 997 81 10000 8.23 160 21:33 08.01.2022
4458 Rain 2 998 80 10000 7.72 160 20:45 08.01.2022
4459 Clouds 2 998 81 10000 7.72 160 20:24 08.01.2022
4460 Clear 2 999 85 10000 7.72 160 19:58 08.01.2022
4461 Clouds 2 1002 83 10000 6.17 180 18:21 08.01.2022
4462 Clouds 3 1003 83 10000 6.69 190 17:21 08.01.2022
4463 Clouds 3 1004 84 10000 6.69 210 15:47 08.01.2022
4464 Clouds 4 1005 82 10000 5.14 220 14:41 08.01.2022
4465 Clouds 4 1006 85 10000 5.14 220 13:25 08.01.2022
4466 Clouds 3 1007 91 10000 5.14 230 11:24 08.01.2022
4467 Clouds 2 1007 93 10000 5.66 220 10:25 08.01.2022
4468 Clouds 2 1007 93 10000 5.66 220 09:47 08.01.2022
4469 Clouds 2 1007 92 10000 4.63 220 07:21 08.01.2022
4470 Clouds 1 1007 93 10000 4.63 230 02:45 08.01.2022
4471 Clouds 1 1007 91 10000 4.12 230 00:41 08.01.2022
4472 Clouds 3 1007 95 10000 5.14 220 22:47 07.01.2022
4473 Clouds 3 1007 93 10000 6.17 210 20:58 07.01.2022
4474 Clouds 3 1007 95 10000 6.69 210 20:19 07.01.2022
4475 Clouds 3 1007 93 10000 5.66 210 19:18 07.01.2022
4476 Clouds 3 1007 93 10000 6.17 210 18:44 07.01.2022
4477 Clouds 4 1007 92 10000 6.69 210 17:26 07.01.2022
4478 Clouds 4 1007 92 10000 6.17 210 16:39 07.01.2022
4479 Clouds 3 1008 96 10000 5.14 210 13:56 07.01.2022
4480 Clouds 3 1008 96 10000 5.14 210 13:38 07.01.2022
4481 Clouds 2 1007 97 10000 5.66 210 12:49 07.01.2022
4482 Snow 2 1008 93 6000 7.72 210 09:42 07.01.2022
4483 Clouds 2 1013 89 10000 6.69 210 02:56 07.01.2022
4484 Clear 1 1014 94 10000 6.69 210 01:55 07.01.2022
4485 Clear 1 1014 94 10000 6.17 210 01:28 07.01.2022
4486 Clear 2 1014 94 10000 6.17 210 00:59 07.01.2022
4487 Clear 2 1015 91 10000 6.17 220 00:28 07.01.2022
4488 Clear 1 1016 93 10000 4.12 220 21:39 06.01.2022
4489 Clear 1 1016 93 10000 3.6 220 20:25 06.01.2022
4490 Clear 1 1016 92 10000 3.09 230 19:45 06.01.2022
4491 Clouds 2 1016 89 10000 3.09 220 18:59 06.01.2022
4492 Clouds 2 1017 84 10000 2.06 220 17:42 06.01.2022
4493 Clouds 2 1017 87 10000 3.6 220 17:42 06.01.2022
4494 Clouds 2 1017 84 10000 2.06 220 17:19 06.01.2022
4495 Clouds 3 1016 78 10000 1.54 240 16:21 06.01.2022
4496 Clear 4 1016 75 10000 3.09 250 15:39 06.01.2022
4497 Clear 4 1016 70 10000 3.09 270 15:19 06.01.2022
4498 Clear 4 1016 72 10000 3.6 270 14:19 06.01.2022
4499 Clear 3 1016 77 10000 3.09 280 12:59 06.01.2022
4500 Clear 2 1015 85 10000 2.06 270 11:58 06.01.2022
4501 Clear 1 1015 85 10000 1.54 280 11:29 06.01.2022
4502 Clouds -1 1014 93 10000 1.03 220 09:33 06.01.2022
4503 Clear 1 1008 85 10000 3.6 310 01:57 06.01.2022
4504 Clear 2 1005 80 10000 4.12 310 23:54 05.01.2022
4505 Clouds 2 1005 82 10000 5.14 320 23:21 05.01.2022
4506 Clouds 3 1004 85 10000 7.72 310 22:41 05.01.2022
4507 Clouds 4 1002 87 10000 4.63 290 21:59 05.01.2022
4508 Clouds 4 1001 88 10000 5.14 300 21:23 05.01.2022
4509 Clouds 4 1000 89 10000 3.09 300 20:30 05.01.2022
4510 Clouds 4 999 86 10000 5.66 290 19:29 05.01.2022
4511 Rain 5 998 84 10000 5.14 290 18:20 05.01.2022
4512 Clouds 5 996 88 10000 6.17 290 16:56 05.01.2022
4513 Clouds 5 996 92 10000 3.09 300 16:18 05.01.2022
4514 Clouds 4 994 93 10000 3.6 290 14:56 05.01.2022
4515 Rain 3 994 93 10000 6.69 240 13:34 05.01.2022
4516 Clouds 4 993 89 10000 8.23 230 12:20 05.01.2022
4517 Clouds 3 993 87 10000 8.75 230 08:35 05.01.2022
4518 Clouds 3 993 84 10000 8.23 240 06:46 05.01.2022
4519 Clouds 2 994 90 10000 5.66 240 01:46 05.01.2022
4520 Clouds 2 994 91 10000 4.12 240 23:43 04.01.2022
4521 Clouds 2 994 93 10000 4.12 230 23:21 04.01.2022
4522 Clear 3 994 90 10000 3.6 240 21:50 04.01.2022
4523 Clear 3 994 91 10000 4.12 250 20:45 04.01.2022
4524 Clouds 4 994 91 10000 4.63 240 18:41 04.01.2022
4525 Clouds 4 993 91 10000 2.06 260 17:33 04.01.2022
4526 Clouds 4 992 91 10000 3.09 300 16:39 04.01.2022
4527 Clouds 4 992 91 10000 3.09 300 16:20 04.01.2022
4528 Clouds 6 992 91 10000 5.66 290 14:42 04.01.2022
4529 Clouds 7 991 94 10000 4.63 270 13:57 04.01.2022
4530 Rain 8 992 93 7000 3.6 240 12:24 04.01.2022
4531 Clouds 7 992 96 9000 4.63 220 10:28 04.01.2022
4532 Clouds 7 993 93 8000 3.6 210 08:59 04.01.2022
4533 Clouds 7 994 92 10000 4.12 230 06:46 04.01.2022
4534 Clouds 8 999 89 10000 5.66 230 00:44 04.01.2022
4535 Clouds 8 1000 89 10000 4.63 240 23:56 03.01.2022
4536 Clouds 8 1000 89 10000 6.17 230 22:30 03.01.2022
4537 Clouds 8 1000 89 10000 6.17 230 21:41 03.01.2022
4538 Clouds 7 1001 90 10000 5.66 220 20:51 03.01.2022
4539 Clouds 8 1001 87 10000 4.63 230 19:44 03.01.2022
4540 Clouds 7 1002 91 10000 4.12 230 18:33 03.01.2022
4541 Clouds 7 1002 89 7000 4.63 270 17:40 03.01.2022
4542 Clouds 8 1003 89 10000 2.57 260 16:57 03.01.2022
4543 Clouds 9 1003 83 10000 6.17 240 14:54 03.01.2022
4544 Clouds 9 1004 80 10000 7.2 250 13:53 03.01.2022
4545 Clouds 9 1004 92 10000 6.69 240 12:33 03.01.2022
4546 Clouds 9 1005 93 10000 6.69 230 11:33 03.01.2022
4547 Clouds 9 1005 89 10000 6.17 240 09:49 03.01.2022
4548 Clouds 9 1005 89 10000 5.66 250 08:46 03.01.2022
4549 Drizzle 8 1004 97 8000 5.66 250 06:47 03.01.2022
4550 Clouds 9 1005 86 10000 4.12 230 23:47 02.01.2022
4551 Clouds 9 1005 87 10000 3.6 230 23:18 02.01.2022
4552 Clouds 9 1005 87 10000 4.63 230 22:43 02.01.2022
4553 Clouds 10 1006 85 10000 5.14 260 21:38 02.01.2022
4554 Clouds 10 1006 84 10000 6.69 260 20:31 02.01.2022
4555 Clouds 10 1006 84 10000 5.14 260 19:53 02.01.2022
4556 Clouds 10 1006 84 10000 7.2 260 19:26 02.01.2022
4557 Clouds 10 1006 83 10000 7.72 260 18:38 02.01.2022
4558 Clouds 10 1005 82 10000 9.77 270 17:43 02.01.2022
4559 Clouds 11 1005 80 10000 10.29 260 17:22 02.01.2022
4560 Clouds 11 1004 83 10000 9.26 250 16:53 02.01.2022
4561 Clouds 12 1004 86 10000 8.23 240 16:23 02.01.2022
4562 Clouds 12 1005 94 10000 6.17 230 14:21 02.01.2022
4563 Clouds 12 1006 95 10000 7.72 230 12:39 02.01.2022
4564 Rain 12 1007 94 10000 8.23 220 11:57 02.01.2022
4565 Rain 12 1007 95 10000 5.66 210 11:23 02.01.2022
4566 Clouds 11 1008 95 10000 4.63 220 10:44 02.01.2022
4567 Clouds 11 1010 96 7000 4.63 230 08:42 02.01.2022
4568 Rain 11 1014 94 8000 5.14 220 03:49 02.01.2022
4569 Clear 11 1016 86 10000 5.14 210 00:58 02.01.2022
4570 Clear 12 1017 85 10000 5.14 200 23:39 01.01.2022
4571 Clear 12 1017 85 10000 5.14 200 23:39 01.01.2022
4572 Clouds 11 1017 88 10000 5.66 210 22:57 01.01.2022
4573 Clear 12 1017 86 10000 5.66 200 22:21 01.01.2022
4574 Clouds 12 1017 88 10000 5.14 200 21:43 01.01.2022
4575 Clouds 12 1018 89 10000 3.6 210 20:53 01.01.2022
4576 Clouds 12 1019 90 10000 5.14 200 19:58 01.01.2022
4577 Clear 12 1019 90 10000 5.66 200 19:19 01.01.2022
4578 Clear 12 1020 94 10000 3.6 190 17:58 01.01.2022
4579 Clouds 12 1020 95 10000 3.6 200 16:37 01.01.2022
4580 Clouds 12 1020 94 10000 4.12 210 16:19 01.01.2022
4581 Clouds 12 1020 94 6000 3.09 190 15:26 01.01.2022
4582 Clouds 12 1021 94 10000 4.12 220 13:58 01.01.2022
4583 Clouds 11 1022 94 7000 3.6 250 12:50 01.01.2022
4584 Clouds 12 1022 94 6000 3.6 240 11:56 01.01.2022
4585 Clouds 11 1021 96 8000 4.12 240 11:23 01.01.2022
4586 Clouds 11 1021 95 9000 4.63 250 10:27 01.01.2022
4587 Clouds 11 1021 95 10000 4.63 250 09:46 01.01.2022
4588 Clouds 11 1020 95 10000 5.14 260 08:26 01.01.2022
4589 Clouds 11 1019 95 10000 5.66 260 07:54 01.01.2022
4590 Clouds 11 1019 96 10000 4.63 260 07:34 01.01.2022
4591 Clouds 11 1019 96 10000 5.14 260 06:41 01.01.2022
4592 Clouds 11 1018 96 10000 5.14 260 04:38 01.01.2022
4593 Clouds 11 1018 96 10000 5.14 260 02:44 01.01.2022
4594 Clouds 11 1016 96 10000 5.14 270 23:44 31.12.2021
4595 Drizzle 11 1015 95 7000 5.66 270 21:53 31.12.2021
4596 Clouds 11 1014 96 6000 5.14 260 20:41 31.12.2021
4597 Clouds 11 1013 96 6000 5.14 270 19:31 31.12.2021
4598 Clouds 11 1012 97 10000 6.17 270 18:44 31.12.2021
4599 Clouds 11 1012 96 4000 6.17 260 17:45 31.12.2021
4600 Rain 12 1011 95 6000 5.66 250 17:19 31.12.2021
4601 Rain 12 1011 96 7000 5.66 250 16:44 31.12.2021
4602 Rain 12 1011 94 8000 5.14 240 15:58 31.12.2021
4603 Rain 12 1011 93 9000 6.17 250 15:31 31.12.2021
4604 Clouds 12 1011 93 8000 6.17 240 14:57 31.12.2021
4605 Clouds 12 1011 93 8000 6.17 250 14:33 31.12.2021
4606 Clouds 12 1011 92 10000 6.69 250 13:44 31.12.2021
4607 Clouds 13 1011 85 10000 7.72 240 12:49 31.12.2021
4608 Clouds 13 1011 86 10000 7.2 240 12:19 31.12.2021
4609 Clouds 13 1011 87 10000 7.72 240 11:33 31.12.2021
4610 Clouds 13 1011 88 10000 7.2 240 10:48 31.12.2021
4611 Clouds 13 1011 88 10000 7.72 240 10:25 31.12.2021
4612 Clouds 13 1011 90 10000 7.72 230 09:34 31.12.2021
4613 Clouds 12 1011 91 10000 7.2 230 08:50 31.12.2021
4614 Clouds 12 1011 91 10000 6.17 230 07:49 31.12.2021
4615 Drizzle 12 1011 99 3200 5.66 240 01:38 31.12.2021
4616 Drizzle 12 1011 98 5000 5.14 240 23:18 30.12.2021
4617 Drizzle 12 1011 99 5000 5.14 240 22:27 30.12.2021
4618 Drizzle 12 1011 99 4000 5.66 240 21:39 30.12.2021
4619 Drizzle 12 1011 99 4000 5.66 240 20:59 30.12.2021
4620 Drizzle 12 1011 99 4500 5.66 250 20:38 30.12.2021
4621 Drizzle 12 1011 99 4900 6.17 250 19:53 30.12.2021
4622 Drizzle 12 1010 97 5000 6.17 250 19:28 30.12.2021
4623 Drizzle 12 1010 97 6000 6.17 250 18:26 30.12.2021
4624 Drizzle 12 1009 99 10000 6.69 250 16:50 30.12.2021
4625 Clouds 12 1008 99 6000 6.17 250 15:53 30.12.2021
4626 Mist 12 1008 99 3200 5.66 250 14:55 30.12.2021
4627 Mist 12 1008 99 3200 5.66 250 14:36 30.12.2021
4628 Mist 11 1008 99 3500 4.12 230 13:25 30.12.2021
4629 Mist 9 1009 99 2000 4.12 210 11:57 30.12.2021
4630 Mist 8 1009 98 8000 4.12 220 10:35 30.12.2021
4631 Mist 8 1009 98 9000 4.12 230 09:47 30.12.2021
4632 Clouds 7 1008 97 10000 4.12 220 06:58 30.12.2021
4633 Clouds 8 1008 98 10000 4.63 250 05:20 30.12.2021
4634 Clouds 8 1007 99 7000 4.63 250 03:40 30.12.2021
4635 Drizzle 7 1005 99 6000 4.12 230 02:28 30.12.2021
4636 Drizzle 5 1004 99 2200 3.6 150 23:37 29.12.2021
4637 Mist 5 1005 99 4000 3.6 170 22:42 29.12.2021
4638 Fog 5 1005 98 1400 3.6 150 21:56 29.12.2021
4639 Fog 5 1005 98 500 2.57 130 20:59 29.12.2021
4640 Fog 4 1005 98 1100 3.6 160 20:30 29.12.2021
4641 Fog 4 1005 98 1100 3.6 160 20:30 29.12.2021
4642 Fog 4 1005 98 600 2.06 140 19:38 29.12.2021
4643 Fog 4 1005 98 400 2.06 150 18:43 29.12.2021
4644 Fog 4 1006 98 450 2.06 160 17:52 29.12.2021
4645 Mist 4 1006 98 2500 2.57 140 17:27 29.12.2021
4646 Mist 3 1005 98 3000 1.03 150 16:22 29.12.2021
4647 Mist 3 1005 98 3000 1.03 120 15:26 29.12.2021
4648 Mist 3 1005 98 3800 0.51 0 13:42 29.12.2021
4649 Mist 3 1004 98 3500 1.03 0 12:36 29.12.2021
4650 Drizzle 2 1004 98 2800 1.03 240 11:26 29.12.2021
4651 Drizzle 2 1003 98 2000 1.03 0 09:46 29.12.2021
4652 Drizzle 2 1001 98 1700 0.51 310 07:51 29.12.2021
4653 Drizzle 2 1000 98 2000 1.03 350 06:38 29.12.2021
4654 Drizzle 2 999 98 1500 1.03 0 05:58 29.12.2021
4655 Drizzle 2 999 98 1500 1.03 0 05:36 29.12.2021
4656 Drizzle 2 996 98 2500 1.54 40 02:22 29.12.2021
4657 Drizzle 2 995 96 1800 1.54 90 00:22 29.12.2021
4658 Drizzle 2 994 96 2000 2.06 90 23:34 28.12.2021
4659 Drizzle 2 994 96 3500 2.06 100 22:42 28.12.2021
4660 Drizzle 2 993 97 3500 2.57 110 22:24 28.12.2021
4661 Clouds 3 993 96 6000 3.6 110 21:36 28.12.2021
4662 Clouds 3 993 96 6000 4.12 110 20:39 28.12.2021
4663 Clouds 3 992 97 6000 3.6 110 19:24 28.12.2021
4664 Rain 3 992 96 7000 3.6 120 18:37 28.12.2021
4665 Clouds 2 992 96 7000 4.12 110 17:59 28.12.2021
4666 Mist 2 992 97 5000 4.63 110 16:34 28.12.2021
4667 Mist 2 992 97 5000 4.12 110 15:50 28.12.2021
4668 Mist 2 993 97 5000 4.63 120 15:21 28.12.2021
4669 Mist 2 993 97 4800 4.63 110 14:48 28.12.2021
4670 Mist 2 994 98 4800 5.14 120 14:21 28.12.2021
4671 Mist 2 994 98 4800 4.63 120 13:42 28.12.2021
4672 Mist 2 994 98 4500 5.14 120 13:24 28.12.2021
4673 Mist 2 995 98 4000 4.63 140 12:49 28.12.2021
4674 Mist 2 995 97 3800 4.63 140 11:46 28.12.2021
4675 Drizzle 1 997 95 3500 4.63 140 08:53 28.12.2021
4676 Clouds 1 997 93 10000 4.63 130 06:58 28.12.2021
4677 Clouds 1 1000 91 10000 4.63 130 00:34 28.12.2021
4678 Clouds 1 1001 91 10000 4.12 130 23:24 27.12.2021
4679 Clouds 0 1001 91 10000 4.63 130 21:46 27.12.2021
4680 Clouds 0 1001 92 10000 4.63 130 21:24 27.12.2021
4681 Clouds 0 1002 92 10000 4.12 130 20:24 27.12.2021
4682 Clouds 0 1002 89 10000 4.12 130 19:43 27.12.2021
4683 Clouds -1 1002 91 10000 5.14 130 18:54 27.12.2021
4684 Clouds -1 1002 92 9000 4.63 110 17:50 27.12.2021
4685 Clouds -1 1002 91 8000 3.6 130 17:18 27.12.2021
4686 Clouds -1 1002 86 10000 5.14 130 15:53 27.12.2021
4687 Clouds -2 1003 85 10000 5.66 130 14:34 27.12.2021
4688 Clouds -2 1003 84 10000 5.14 130 13:58 27.12.2021
4689 Clouds -2 1004 84 10000 5.14 130 12:47 27.12.2021
4690 Clouds -4 1005 82 10000 4.63 110 10:36 27.12.2021
4691 Clouds -4 1005 82 10000 4.12 120 10:18 27.12.2021
4692 Clouds -4 1005 80 10000 3.6 120 08:41 27.12.2021
4693 Clouds -4 1006 78 10000 4.63 120 07:33 27.12.2021
4694 Clouds -6 1008 70 10000 4.63 110 02:29 27.12.2021
4695 Clear -6 1009 70 10000 5.14 110 00:57 27.12.2021
4696 Clear -6 1009 68 10000 5.14 110 23:43 26.12.2021
4697 Clear -6 1010 69 10000 4.63 110 23:18 26.12.2021
4698 Clear -5 1011 66 10000 5.66 120 21:33 26.12.2021
4699 Clear -5 1011 67 10000 5.14 120 19:55 26.12.2021
4700 Clear -5 1011 67 10000 5.14 100 18:39 26.12.2021
4701 Clear -5 1011 68 10000 4.63 100 18:19 26.12.2021
4702 Clear -3 1012 61 10000 4.63 110 15:38 26.12.2021
4703 Clear -3 1012 63 10000 3.6 120 13:49 26.12.2021
4704 Clear -3 1013 63 10000 3.6 130 13:31 26.12.2021
4705 Clear -4 1013 70 10000 3.6 100 12:36 26.12.2021
4706 Clear -6 1014 82 10000 2.06 120 11:20 26.12.2021
4707 Clear -8 1014 89 10000 2.57 140 09:35 26.12.2021
4708 Clear -9 1014 90 10000 1.54 90 08:50 26.12.2021
4709 Clear -8 1013 89 10000 1.54 100 08:27 26.12.2021
4710 Clear -8 1014 92 10000 1.03 0 05:59 26.12.2021
4711 Clear -8 1014 92 10000 0.51 60 00:44 26.12.2021
4712 Clear -7 1014 93 10000 0.51 0 23:48 25.12.2021
4713 Clear -7 1014 93 10000 0.51 0 23:25 25.12.2021
4714 Clear -7 1015 93 10000 0.51 70 22:21 25.12.2021
4715 Clear -7 1015 94 10000 0.51 0 20:36 25.12.2021
4716 Clear -6 1014 93 10000 1.03 70 19:20 25.12.2021
4717 Clear -6 1014 91 10000 0 0 18:51 25.12.2021
4718 Clear -4 1014 86 10000 1.54 230 16:52 25.12.2021
4719 Clear -2 1014 76 10000 1.54 220 15:54 25.12.2021
4720 Clear -1 1013 74 10000 2.06 230 14:25 25.12.2021
4721 Clear -2 1014 79 10000 1.03 0 12:42 25.12.2021
4722 Clear -4 1014 83 10000 0.51 0 11:27 25.12.2021
4723 Clear -7 1013 86 10000 0.51 0 09:49 25.12.2021
4724 Clear -8 1013 87 10000 0.51 20 07:51 25.12.2021
4725 Clear -7 1011 83 10000 0.51 230 02:18 25.12.2021
4726 Clear -6 1010 76 10000 1.54 30 00:30 25.12.2021
4727 Clear -5 1009 66 10000 1.54 40 22:40 24.12.2021
4728 Clouds -2 1006 75 10000 6.69 40 19:38 24.12.2021
4729 Clouds -2 1006 77 10000 6.69 40 19:19 24.12.2021
4730 Clouds 1 1003 92 10000 5.14 20 16:50 24.12.2021
4731 Clouds 1 1002 96 10000 2.57 10 16:19 24.12.2021
4732 Snow 1 1002 98 6000 2.06 350 15:45 24.12.2021
4733 Snow 1 1001 98 4800 2.57 340 14:46 24.12.2021
4734 Snow 1 1001 98 3800 2.57 310 14:22 24.12.2021
4735 Snow 1 1000 98 5000 3.6 290 13:37 24.12.2021
4736 Snow 1 999 98 8000 2.57 300 12:48 24.12.2021
4737 Snow 1 999 96 4200 2.06 300 11:52 24.12.2021
4738 Snow 1 999 96 3500 2.57 310 11:26 24.12.2021
4739 Snow 1 999 98 7000 2.57 300 10:50 24.12.2021
4740 Snow 1 998 98 8000 2.57 310 10:18 24.12.2021
4741 Drizzle 2 998 98 10000 2.57 350 08:24 24.12.2021
4742 Clouds 3 997 98 10000 4.12 320 07:48 24.12.2021
4743 Clouds 4 998 98 4500 4.12 260 02:52 24.12.2021
4744 Rain 3 998 98 8000 4.12 250 00:19 24.12.2021
4745 Rain 2 999 98 5000 3.6 250 23:23 23.12.2021
4746 Rain 2 999 96 5000 3.6 240 22:39 23.12.2021
4747 Drizzle 1 999 98 4800 3.6 240 22:20 23.12.2021
4748 Rain 1 1000 97 4000 3.6 230 21:33 23.12.2021
4749 Rain 1 1001 95 4900 3.09 240 20:20 23.12.2021
4750 Rain 0 1002 97 6000 3.6 220 18:53 23.12.2021
4751 Rain 0 1003 97 6000 4.12 220 17:57 23.12.2021
4752 Snow 0 1004 95 6000 5.14 210 16:57 23.12.2021
4753 Snow 0 1004 95 3500 4.63 200 16:25 23.12.2021
4754 Snow 0 1006 92 2800 3.09 210 15:32 23.12.2021
4755 Snow 0 1006 90 3900 5.14 210 14:55 23.12.2021
4756 Snow 0 1006 90 3900 5.14 210 14:37 23.12.2021
4757 Clouds 0 1008 88 10000 2.57 180 13:22 23.12.2021
4758 Clouds -2 1011 91 10000 2.57 160 10:54 23.12.2021
4759 Clouds -2 1011 91 10000 2.57 160 10:54 23.12.2021
4760 Clear -2 1012 93 10000 2.06 200 09:49 23.12.2021
4761 Clear -2 1012 93 10000 2.57 190 09:26 23.12.2021
4762 Snow -2 1012 90 10000 4.63 160 08:25 23.12.2021
4763 Clear -3 1016 94 10000 3.09 150 04:36 23.12.2021
4764 Clouds -3 1020 94 8000 3.6 150 23:43 22.12.2021
4765 Clouds -3 1021 98 7000 4.12 150 22:49 22.12.2021
4766 Mist -3 1022 98 4000 4.63 150 21:57 22.12.2021
4767 Mist -3 1022 97 3500 4.12 140 21:30 22.12.2021
4768 Mist -3 1022 97 4500 4.63 160 20:52 22.12.2021
4769 Mist -3 1022 97 4500 3.6 140 20:33 22.12.2021
4770 Mist -3 1023 97 4900 3.09 150 19:42 22.12.2021
4771 Mist -3 1024 95 5000 3.09 160 18:25 22.12.2021
4772 Clouds -3 1024 96 6000 3.6 140 17:38 22.12.2021
4773 Mist -3 1024 95 7000 2.06 230 15:50 22.12.2021
4774 Mist -2 1025 95 6000 3.6 230 13:57 22.12.2021
4775 Mist -3 1026 96 7000 3.09 170 12:48 22.12.2021
4776 Mist -4 1026 96 6000 2.57 190 11:39 22.12.2021
4777 Clouds -5 1026 93 6000 4.63 160 09:52 22.12.2021
4778 Mist -6 1026 97 10000 2.57 150 07:56 22.12.2021
4779 Clear -5 1026 97 10000 2.06 150 05:51 22.12.2021
4780 Clear -5 1026 100 10000 2.06 140 05:33 22.12.2021
4781 Clouds -4 1026 93 10000 2.57 140 04:55 22.12.2021
4782 Clouds -4 1026 93 10000 2.57 140 04:37 22.12.2021
4783 Clouds -4 1027 94 9000 2.06 250 03:37 22.12.2021
4784 Clouds -4 1027 94 9000 2.06 250 03:18 22.12.2021
4785 Clouds -3 1026 96 10000 1.54 160 23:48 21.12.2021
4786 Clear -3 1026 96 10000 3.09 200 22:41 21.12.2021
4787 Fog -3 1026 96 10000 1.54 210 21:56 21.12.2021
4788 Fog -3 1026 96 10000 1.03 0 21:32 21.12.2021
4789 Clear -2 1026 96 10000 1.54 210 20:39 21.12.2021
4790 Clear -2 1026 96 10000 2.06 210 20:18 21.12.2021
4791 Clear -2 1026 92 10000 0.51 0 19:33 21.12.2021
4792 Clear -2 1026 97 10000 1.03 0 18:23 21.12.2021
4793 Clear -2 1026 93 10000 0.51 0 17:58 21.12.2021
4794 Clear -2 1026 93 10000 0.51 0 17:39 21.12.2021
4795 Clear 1 1026 88 10000 1.03 0 15:39 21.12.2021
4796 Clear 2 1026 88 10000 2.06 330 14:21 21.12.2021
4797 Clear 2 1026 86 10000 0.51 0 13:42 21.12.2021
4798 Clear 0 1027 96 10000 1.03 330 12:26 21.12.2021
4799 Clear -1 1026 91 10000 0 0 10:39 21.12.2021
4800 Clear -4 1027 96 10000 0.51 0 09:56 21.12.2021
4801 Clear -4 1027 96 10000 0.51 0 08:57 21.12.2021
4802 Clear -4 1026 96 10000 1.03 310 07:44 21.12.2021
4803 Clear -4 1026 96 10000 0.51 0 07:22 21.12.2021
4804 Clear -3 1027 97 10000 0.51 0 04:26 21.12.2021
4805 Fog -3 1027 95 10000 0.51 360 02:30 21.12.2021
4806 Clear -2 1027 96 10000 0.51 0 23:54 20.12.2021
4807 Clear -2 1028 95 10000 0.51 0 22:36 20.12.2021
4808 Clear -2 1028 94 10000 0 0 21:59 20.12.2021
4809 Clear -2 1028 94 10000 0.51 0 21:27 20.12.2021
4810 Clear -1 1027 91 10000 1.03 220 20:54 20.12.2021
4811 Clear 0 1027 88 10000 1.03 0 20:24 20.12.2021
4812 Clear 0 1027 90 10000 1.54 320 19:38 20.12.2021
4813 Clear 0 1027 89 10000 2.06 320 19:19 20.12.2021
4814 Clear 0 1027 89 10000 2.06 320 18:33 20.12.2021
4815 Clear 1 1027 87 10000 2.06 310 17:51 20.12.2021
4816 Clear 2 1027 83 10000 2.57 310 16:47 20.12.2021
4817 Clear 2 1027 78 10000 2.06 310 16:25 20.12.2021
4818 Clear 3 1027 76 10000 2.57 300 15:40 20.12.2021
4819 Clear 4 1027 73 10000 3.09 300 14:26 20.12.2021
4820 Clear 2 1027 79 10000 3.09 290 12:40 20.12.2021
4821 Clear 1 1027 87 10000 0.51 0 10:50 20.12.2021
4822 Clear -1 1027 88 10000 1.03 290 09:40 20.12.2021
4823 Clear -1 1026 90 10000 3.09 270 08:56 20.12.2021
4824 Clear -1 1026 89 10000 3.09 270 08:37 20.12.2021
4825 Clear -1 1026 90 10000 2.06 310 07:38 20.12.2021
4826 Clear -1 1026 87 10000 2.57 310 06:39 20.12.2021
4827 Clear 0 1025 94 10000 2.57 280 01:33 20.12.2021
4828 Clear 1 1025 90 10000 3.09 330 23:28 19.12.2021
4829 Clear 2 1025 93 10000 2.06 320 22:44 19.12.2021
4830 Clear 3 1025 91 10000 2.57 330 21:44 19.12.2021
4831 Clear 3 1024 91 10000 2.57 330 21:25 19.12.2021
4832 Clear 3 1024 91 10000 2.06 310 20:24 19.12.2021
4833 Clear 4 1024 89 10000 2.57 330 19:43 19.12.2021
4834 Clouds 5 1023 89 10000 3.09 330 18:50 19.12.2021
4835 Clouds 6 1023 88 10000 4.12 310 18:20 19.12.2021
4836 Clouds 7 1023 85 10000 4.63 310 17:45 19.12.2021
4837 Clouds 7 1022 83 10000 7.72 320 16:46 19.12.2021
4838 Clouds 8 1022 78 10000 7.72 310 15:58 19.12.2021
4839 Clouds 8 1022 79 10000 7.72 310 15:25 19.12.2021
4840 Clouds 8 1022 79 10000 9.26 320 14:49 19.12.2021
4841 Clouds 8 1023 84 10000 8.75 310 13:41 19.12.2021
4842 Clouds 8 1023 85 10000 7.72 300 13:20 19.12.2021
4843 Clouds 8 1024 86 10000 9.26 300 12:33 19.12.2021
4844 Clouds 8 1024 85 10000 6.69 290 11:39 19.12.2021
4845 Clouds 8 1025 86 10000 6.17 290 10:52 19.12.2021
4846 Clouds 8 1025 88 10000 7.2 300 10:23 19.12.2021
4847 Clouds 7 1025 88 10000 7.2 300 09:20 19.12.2021
4848 Clouds 7 1025 91 10000 8.23 300 07:35 19.12.2021
4849 Clouds 7 1029 92 10000 9.26 290 02:35 19.12.2021
4850 Clouds 7 1030 93 10000 7.72 290 00:55 19.12.2021
4851 Clouds 7 1031 91 10000 7.72 290 23:31 18.12.2021
4852 Clouds 7 1031 91 10000 7.72 300 22:30 18.12.2021
4853 Clouds 8 1031 90 10000 6.17 300 21:54 18.12.2021
4854 Clouds 8 1032 91 10000 6.69 290 21:33 18.12.2021
4855 Clouds 8 1032 90 10000 6.69 290 20:43 18.12.2021
4856 Clouds 8 1032 94 10000 6.69 300 19:50 18.12.2021
4857 Clouds 7 1032 94 10000 6.17 290 19:19 18.12.2021
4858 Clouds 7 1032 95 10000 5.14 290 18:19 18.12.2021
4859 Clouds 7 1033 95 10000 5.14 290 17:47 18.12.2021
4860 Clouds 8 1033 94 10000 4.63 290 16:25 18.12.2021
4861 Clouds 9 1033 92 10000 5.14 280 15:26 18.12.2021
4862 Clouds 9 1034 93 10000 4.63 290 14:32 18.12.2021
4863 Clouds 8 1034 96 10000 5.66 300 13:18 18.12.2021
4864 Drizzle 7 1036 98 6000 5.14 290 11:21 18.12.2021
4865 Drizzle 7 1036 95 6000 4.63 290 09:37 18.12.2021
4866 Drizzle 7 1036 96 8000 5.14 300 08:43 18.12.2021
4867 Drizzle 7 1036 96 8000 4.63 290 08:19 18.12.2021
4868 Clouds 7 1037 98 6000 4.12 300 02:20 18.12.2021
4869 Drizzle 7 1038 98 3500 2.57 280 00:27 18.12.2021
4870 Drizzle 7 1038 98 4000 2.57 310 23:39 17.12.2021
4871 Clouds 7 1038 96 10000 4.63 320 21:56 17.12.2021
4872 Clouds 7 1038 96 10000 4.63 320 21:56 17.12.2021
4873 Clouds 7 1038 96 8000 4.63 310 20:58 17.12.2021
4874 Clouds 7 1038 96 8000 4.63 310 20:38 17.12.2021
4875 Drizzle 7 1038 98 2000 5.66 320 19:19 17.12.2021
4876 Drizzle 7 1038 98 2000 3.6 290 18:38 17.12.2021
4877 Drizzle 7 1038 96 10000 5.66 290 17:31 17.12.2021
4878 Drizzle 8 1038 96 7000 4.63 300 16:46 17.12.2021
4879 Drizzle 8 1038 98 4000 3.09 300 16:22 17.12.2021
4880 Drizzle 7 1038 98 4000 2.57 270 15:21 17.12.2021
4881 Drizzle 7 1038 98 4000 2.57 270 15:21 17.12.2021
4882 Mist 7 1038 96 4000 2.57 300 14:39 17.12.2021
4883 Clouds 6 1038 96 10000 3.09 270 12:47 17.12.2021
4884 Clouds 6 1039 96 10000 3.09 290 11:46 17.12.2021
4885 Mist 6 1038 96 7000 4.63 300 10:37 17.12.2021
4886 Clouds 6 1038 96 6000 4.63 320 09:33 17.12.2021
4887 Drizzle 6 1038 97 10000 4.12 290 08:30 17.12.2021
4888 Clouds 6 1038 96 8000 4.12 290 06:22 17.12.2021
4889 Drizzle 7 1038 97 7000 2.57 280 02:53 17.12.2021
4890 Clouds 7 1038 93 10000 5.14 290 23:40 16.12.2021
4891 Clouds 7 1037 93 10000 4.12 270 22:24 16.12.2021
4892 Clouds 7 1037 93 10000 4.12 270 22:24 16.12.2021
4893 Clouds 7 1037 93 10000 4.12 270 22:24 16.12.2021
4894 Clouds 7 1037 92 10000 4.12 270 22:24 16.12.2021
4895 Clouds 7 1037 93 10000 4.12 270 22:23 16.12.2021
4896 Clouds 7 1037 93 10000 4.12 270 22:23 16.12.2021
4897 Clouds 7 1038 92 10000 4.12 290 21:44 16.12.2021
4898 Clouds 7 1038 92 10000 4.12 290 20:55 16.12.2021
4899 Clouds 7 1038 92 10000 4.63 290 20:27 16.12.2021
4900 Clouds 7 1038 92 10000 3.6 290 19:33 16.12.2021
4901 Clouds 7 1037 91 10000 4.12 300 18:37 16.12.2021
4902 Clouds 7 1037 90 10000 4.12 280 17:49 16.12.2021
4903 Clouds 8 1036 90 10000 5.14 290 16:55 16.12.2021
4904 Clouds 8 1036 90 10000 4.63 290 16:20 16.12.2021
4905 Clouds 9 1036 88 10000 3.6 290 14:32 16.12.2021
4906 Clouds 9 1035 93 10000 4.12 300 12:48 16.12.2021
4907 Clouds 9 1035 96 10000 4.12 290 11:19 16.12.2021
4908 Clouds 9 1034 96 10000 2.57 280 10:46 16.12.2021
4909 Drizzle 9 1034 96 6000 3.6 300 09:52 16.12.2021
4910 Mist 8 1032 96 2500 3.09 270 07:21 16.12.2021
4911 Drizzle 8 1031 97 2300 3.09 270 06:19 16.12.2021
4912 Clouds 8 1030 87 10000 4.63 260 00:53 16.12.2021
4913 Clouds 9 1029 87 10000 4.63 270 23:21 15.12.2021
4914 Clouds 9 1029 85 10000 5.66 260 22:26 15.12.2021
4915 Clouds 9 1029 85 10000 4.63 270 21:49 15.12.2021
4916 Clouds 9 1028 86 10000 5.66 260 21:26 15.12.2021
4917 Clouds 9 1029 86 10000 4.63 260 19:55 15.12.2021
4918 Clouds 9 1028 88 10000 4.12 270 19:35 15.12.2021
4919 Clouds 9 1028 88 10000 3.09 250 18:36 15.12.2021
4920 Clouds 10 1027 87 10000 3.6 250 17:49 15.12.2021
4921 Clouds 10 1027 88 10000 3.09 260 17:28 15.12.2021
4922 Clouds 10 1027 86 10000 3.6 250 16:27 15.12.2021
4923 Clouds 10 1027 88 10000 3.6 240 15:46 15.12.2021
4924 Clouds 10 1027 88 10000 4.12 250 15:27 15.12.2021
4925 Clouds 10 1026 91 9000 5.66 250 14:18 15.12.2021
4926 Clouds 10 1027 92 8000 4.12 250 12:32 15.12.2021
4927 Clouds 10 1027 94 7000 4.63 240 10:25 15.12.2021
4928 Mist 10 1026 96 5000 4.12 240 08:55 15.12.2021
4929 Drizzle 9 1026 96 5000 3.6 230 06:54 15.12.2021
4930 Clouds 8 1025 96 7000 4.12 230 01:20 15.12.2021
4931 Mist 9 1025 96 4800 4.63 230 23:42 14.12.2021
4932 Mist 8 1025 98 5000 3.6 230 22:49 14.12.2021
4933 Mist 8 1025 98 5000 3.6 230 22:19 14.12.2021
4934 Drizzle 8 1025 98 4500 3.09 220 20:29 14.12.2021
4935 Drizzle 8 1025 98 5000 3.09 220 19:43 14.12.2021
4936 Drizzle 8 1025 98 5000 3.09 220 19:19 14.12.2021
4937 Drizzle 8 1025 97 6000 1.54 220 18:25 14.12.2021
4938 Mist 8 1025 97 9000 2.06 240 17:33 14.12.2021
4939 Clouds 8 1024 97 9000 1.03 210 16:40 14.12.2021
4940 Drizzle 8 1024 97 8000 2.06 270 15:36 14.12.2021
4941 Drizzle 8 1024 97 3500 3.09 270 13:31 14.12.2021
4942 Mist 8 1024 96 2500 3.6 260 12:00 14.12.2021
4943 Clouds 8 1023 96 2900 3.6 250 11:24 14.12.2021
4944 Clouds 8 1023 93 3500 4.63 240 10:24 14.12.2021
4945 Clouds 8 1023 93 6000 4.12 250 09:51 14.12.2021
4946 Drizzle 8 1023 90 8000 5.14 240 08:28 14.12.2021
4947 Drizzle 8 1023 89 10000 6.17 240 07:43 14.12.2021
4948 Clouds 8 1023 89 10000 4.63 220 05:38 14.12.2021
4949 Clouds 8 1025 95 10000 3.09 220 22:59 13.12.2021
4950 Clouds 8 1025 95 10000 4.12 220 21:53 13.12.2021
4951 Clouds 8 1025 95 10000 4.12 220 21:34 13.12.2021
4952 Clouds 9 1025 94 10000 3.6 230 20:45 13.12.2021
4953 Clouds 9 1025 94 10000 3.6 230 19:57 13.12.2021
4954 Clouds 9 1025 94 10000 4.12 230 19:19 13.12.2021
4955 Clouds 9 1025 94 10000 3.09 230 17:26 13.12.2021
4956 Clouds 9 1025 94 10000 3.6 230 16:20 13.12.2021
4957 Clouds 10 1025 94 10000 3.6 220 15:38 13.12.2021
4958 Clouds 10 1024 95 10000 3.6 230 13:49 13.12.2021
4959 Clouds 10 1024 96 10000 4.63 230 13:18 13.12.2021
4960 Clouds 10 1025 97 10000 3.6 230 12:22 13.12.2021
4961 Clouds 10 1025 97 10000 4.12 240 11:40 13.12.2021
4962 Clouds 10 1024 99 9000 3.6 230 11:19 13.12.2021
4963 Clouds 10 1024 99 8000 3.09 240 10:21 13.12.2021
4964 Drizzle 10 1023 98 5000 3.09 230 08:31 13.12.2021
4965 Drizzle 9 1022 99 3500 2.57 240 05:37 13.12.2021
4966 Mist 9 1022 99 1400 2.06 220 03:32 13.12.2021
4967 Fog 8 1021 98 700 2.06 240 23:39 12.12.2021
4968 Mist 8 1021 98 2000 2.57 260 21:56 12.12.2021
4969 Mist 8 1020 98 1000 2.06 240 20:46 12.12.2021
4970 Drizzle 7 1020 98 5000 3.09 230 19:33 12.12.2021
4971 Clouds 7 1019 98 10000 2.57 230 17:54 12.12.2021
4972 Clouds 6 1018 96 10000 4.12 230 16:29 12.12.2021
4973 Drizzle 6 1018 98 10000 3.09 220 15:53 12.12.2021
4974 Clouds 6 1018 98 3800 4.12 230 15:28 12.12.2021
4975 Clouds 6 1018 98 3800 4.12 220 14:38 12.12.2021
4976 Drizzle 5 1017 98 3500 6.17 210 13:47 12.12.2021
4977 Drizzle 5 1018 98 6000 5.66 210 12:47 12.12.2021
4978 Clouds 5 1018 96 5000 6.69 200 11:45 12.12.2021
4979 Clouds 5 1018 96 5000 6.69 200 11:45 12.12.2021
4980 Clouds 5 1018 95 5000 5.14 200 11:25 12.12.2021
4981 Clouds 5 1018 95 5000 5.14 200 11:25 12.12.2021
4982 Clouds 4 1018 97 4000 6.17 190 10:43 12.12.2021
4983 Clouds 4 1018 97 7000 5.66 170 09:48 12.12.2021
4984 Clouds 4 1019 94 8000 5.14 180 08:42 12.12.2021
4985 Clouds 3 1019 94 6000 3.6 160 06:55 12.12.2021
4986 Clouds 3 1020 96 7000 4.12 190 05:28 12.12.2021
4987 Mist 2 1020 97 5000 4.12 210 04:18 12.12.2021
4988 Mist 2 1020 94 5000 3.6 210 00:54 12.12.2021
4989 Clouds 2 1018 93 9000 4.12 240 22:56 11.12.2021
4990 Drizzle 2 1018 92 10000 3.6 250 22:20 11.12.2021
4991 Drizzle 3 1017 92 10000 3.09 240 21:35 11.12.2021
4992 Clouds 3 1017 90 10000 4.12 230 20:18 11.12.2021
4993 Clouds 3 1016 88 10000 3.6 230 19:21 11.12.2021
4994 Clouds 4 1016 85 10000 4.12 230 18:45 11.12.2021
4995 Clouds 4 1015 86 10000 2.57 230 17:53 11.12.2021
4996 Clouds 4 1014 84 10000 4.12 210 15:59 11.12.2021
4997 Clouds 4 1014 84 10000 3.09 230 15:40 11.12.2021
4998 Clouds 4 1013 84 10000 2.57 220 14:35 11.12.2021
4999 Clouds 3 1012 86 10000 2.06 220 12:31 11.12.2021
5000 Clouds 2 1012 94 10000 3.14 246 10:50 11.12.2021
5001 Clouds 1 1010 97 10000 0.51 230 09:43 11.12.2021
5002 Mist 1 1006 95 5000 1.54 300 03:58 11.12.2021
5003 Clouds 1 1003 94 7000 0.51 350 00:49 11.12.2021
5004 Clouds 1 1002 96 7000 1.54 140 23:44 10.12.2021
5005 Clouds 1 1001 96 7000 1.03 60 22:50 10.12.2021
5006 Clouds 2 1001 91 8000 1.54 100 21:51 10.12.2021
5007 Clouds 2 1000 92 9000 2.06 80 20:32 10.12.2021
5008 Clouds 2 999 92 10000 1.03 0 19:19 10.12.2021
5009 Clouds 2 998 90 10000 2.57 80 17:54 10.12.2021
5010 Clouds 2 998 89 10000 3.09 80 16:41 10.12.2021
5011 Clouds 3 997 88 10000 2.57 80 15:47 10.12.2021
5012 Clouds 3 997 88 10000 2.57 90 15:28 10.12.2021
5013 Clouds 3 996 87 10000 2.06 90 14:57 10.12.2021
5014 Clouds 3 996 88 10000 2.57 100 13:50 10.12.2021
5015 Clouds 3 996 87 10000 3.09 90 13:20 10.12.2021
5016 Clouds 2 996 91 10000 3.09 120 12:23 10.12.2021
5017 Mist 2 997 91 10000 3.6 110 11:27 10.12.2021
5018 Mist 1 997 95 7000 2.57 110 09:54 10.12.2021
5019 Mist 1 997 95 7000 2.57 110 09:54 10.12.2021
5020 Mist 1 997 96 5000 2.57 110 08:30 10.12.2021
5021 Clouds 2 999 93 6000 3.6 120 05:56 10.12.2021
5022 Mist 2 1000 93 5000 2.57 140 02:47 10.12.2021
5023 Mist 2 1002 93 5000 3.09 140 23:46 09.12.2021
5024 Mist 2 1003 95 5000 2.57 140 22:59 09.12.2021
5025 Mist 2 1003 95 5000 2.57 140 22:24 09.12.2021
5026 Mist 2 1003 93 5000 3.09 120 21:49 09.12.2021
5027 Mist 2 1003 95 5000 2.06 150 20:41 09.12.2021
5028 Mist 2 1003 95 5000 2.06 150 20:41 09.12.2021
5029 Mist 2 1004 95 5000 3.09 150 20:20 09.12.2021
5030 Mist 2 1004 92 5000 3.09 150 19:21 09.12.2021
5031 Mist 2 1004 91 5000 4.12 130 18:36 09.12.2021
5032 Mist 2 1004 91 5000 4.12 150 17:51 09.12.2021
5033 Mist 2 1004 91 6000 4.12 150 17:25 09.12.2021
5034 Mist 1 1003 92 6000 4.12 160 16:53 09.12.2021
5035 Mist 2 1004 91 6000 4.12 150 15:34 09.12.2021
5036 Mist 2 1003 89 6000 3.09 140 14:46 09.12.2021
5037 Mist 1 1004 91 7000 4.12 160 13:20 09.12.2021
5038 Mist 1 1004 92 7000 4.12 160 12:40 09.12.2021
5039 Mist 1 1005 91 7000 4.12 150 11:24 09.12.2021
5040 Mist 1 1005 91 7000 5.14 140 09:21 09.12.2021
5041 Clouds 1 1004 91 7000 4.12 130 06:44 09.12.2021
5042 Clouds 1 1003 93 10000 4.12 120 03:41 09.12.2021
5043 Clouds 1 1003 92 10000 4.63 130 23:44 08.12.2021
5044 Clouds 1 1003 90 10000 4.12 130 23:21 08.12.2021
5045 Clouds 1 1003 93 10000 4.63 130 22:48 08.12.2021
5046 Clouds 1 1003 92 10000 4.63 130 21:42 08.12.2021
5047 Clouds 2 1003 90 10000 4.63 130 21:24 08.12.2021
5048 Clouds 2 1002 91 10000 5.66 140 19:59 08.12.2021
5049 Clouds 2 1002 91 10000 4.63 130 19:36 08.12.2021
5050 Clouds 2 1001 92 10000 4.63 130 18:46 08.12.2021
5051 Clouds 2 1001 91 10000 5.14 130 17:37 08.12.2021
5052 Clouds 3 1000 91 10000 5.66 120 15:57 08.12.2021
5053 Clouds 3 1000 91 10000 4.63 130 15:29 08.12.2021
5054 Clouds 3 1000 91 10000 5.66 140 14:40 08.12.2021
5055 Clouds 2 1000 93 10000 7.72 150 12:32 08.12.2021
5056 Rain 1 999 95 9000 8.23 140 10:32 08.12.2021
5057 Snow 1 999 95 4200 7.72 140 09:30 08.12.2021
5058 Snow 1 999 95 3500 8.23 130 07:29 08.12.2021
5059 Clouds 2 998 88 10000 9.26 130 04:57 08.12.2021
5060 Clouds 1 1004 93 10000 5.66 130 23:48 07.12.2021
5061 Clouds 2 1005 92 10000 6.17 130 22:27 07.12.2021
5062 Clouds 1 1006 95 7000 5.66 130 21:23 07.12.2021
5063 Clouds 1 1007 93 7000 5.66 130 20:24 07.12.2021
5064 Mist 1 1008 95 7000 5.14 130 18:55 07.12.2021
5065 Mist 1 1008 95 6000 5.66 150 18:18 07.12.2021
5066 Snow 1 1008 94 6000 5.14 140 17:20 07.12.2021
5067 Snow 1 1009 94 4500 5.14 150 16:36 07.12.2021
5068 Clouds 2 1008 89 9000 6.17 140 15:37 07.12.2021
5069 Clouds 2 1009 89 10000 5.66 150 14:37 07.12.2021
5070 Clouds 1 1009 89 10000 5.66 140 13:19 07.12.2021
5071 Clouds 1 1009 90 10000 4.63 140 12:21 07.12.2021
5072 Clouds 1 1009 89 10000 4.63 130 10:45 07.12.2021
5073 Clouds 0 1009 91 10000 4.12 130 09:19 07.12.2021
5074 Clouds 0 1008 92 10000 5.14 120 06:39 07.12.2021
5075 Clouds 0 1007 92 10000 5.14 130 05:47 07.12.2021
5076 Clouds 0 1008 91 10000 6.17 130 01:43 07.12.2021
5077 Clouds 0 1009 90 10000 6.69 130 23:21 06.12.2021
5078 Clouds 0 1010 92 10000 6.69 130 22:40 06.12.2021
5079 Clouds 0 1011 90 10000 7.2 140 21:59 06.12.2021
5080 Clouds 1 1011 91 10000 7.72 140 21:21 06.12.2021
5081 Clouds 1 1012 89 10000 6.69 130 20:32 06.12.2021
5082 Clouds 1 1012 89 10000 7.2 130 19:24 06.12.2021
5083 Clouds 1 1012 89 10000 6.69 130 18:34 06.12.2021
5084 Clouds 1 1013 89 10000 6.69 130 17:53 06.12.2021
5085 Clouds 1 1013 89 10000 5.66 130 17:33 06.12.2021
5086 Clouds 1 1014 89 10000 5.66 130 15:51 06.12.2021
5087 Clouds 1 1015 91 10000 5.66 130 14:35 06.12.2021
5088 Clouds 1 1015 93 10000 5.66 140 13:23 06.12.2021
5089 Clouds 1 1015 94 10000 5.14 130 12:37 06.12.2021
5090 Clouds 1 1016 95 10000 3.09 90 09:56 06.12.2021
5091 Clouds 1 1016 95 10000 3.09 90 07:38 06.12.2021
5092 Clouds 1 1013 95 7000 1.03 0 02:26 06.12.2021
5093 Snow 1 1011 98 8000 2.57 60 22:25 05.12.2021
5094 Clouds 1 1011 96 9000 3.6 50 21:25 05.12.2021
5095 Clouds 1 1010 96 10000 3.6 60 20:52 05.12.2021
5096 Clouds 1 1010 96 10000 4.12 60 20:18 05.12.2021
5097 Snow 1 1009 96 10000 3.6 60 19:24 05.12.2021
5098 Snow 1 1009 96 7000 3.09 60 18:29 05.12.2021
5099 Snow 1 1008 96 3500 3.6 60 17:49 05.12.2021
5100 Snow 1 1008 96 3500 3.6 60 17:20 05.12.2021
5101 Snow 1 1007 94 2000 3.09 60 16:36 05.12.2021
5102 Snow 1 1007 95 2000 3.09 60 16:18 05.12.2021
5103 Snow 2 1006 95 6000 3.6 70 14:48 05.12.2021
5104 Snow 2 1005 95 6000 4.12 80 14:30 05.12.2021
5105 Snow 2 1005 94 7000 3.6 90 13:35 05.12.2021
5106 Snow 1 1005 96 4800 4.12 90 12:47 05.12.2021
5107 Snow 1 1004 98 3500 3.09 90 12:27 05.12.2021
5108 Snow 1 1004 98 2800 3.6 80 11:46 05.12.2021
5109 Mist 1 1003 98 4800 3.6 90 10:43 05.12.2021
5110 Snow 1 1002 98 7000 3.6 80 09:51 05.12.2021
5111 Drizzle 1 999 97 4800 4.12 110 06:31 05.12.2021
5112 Snow 0 997 97 2800 3.09 70 01:38 05.12.2021
5113 Rain 2 996 93 8000 4.12 90 23:25 04.12.2021
5114 Clouds 3 996 93 10000 4.63 100 21:52 04.12.2021
5115 Clouds 3 996 91 10000 7.2 110 20:47 04.12.2021
5116 Clouds 4 996 91 10000 5.66 110 19:54 04.12.2021
5117 Clouds 4 996 92 10000 4.12 110 19:31 04.12.2021
5118 Clouds 4 996 93 10000 4.63 100 17:58 04.12.2021
5119 Clouds 4 996 93 10000 4.63 120 17:36 04.12.2021
5120 Clouds 4 996 93 10000 3.09 110 16:48 04.12.2021
5121 Clouds 4 996 93 10000 4.12 110 16:29 04.12.2021
5122 Clouds 4 996 94 10000 4.12 150 14:39 04.12.2021
5123 Clouds 4 998 95 10000 4.12 150 11:46 04.12.2021
5124 Clouds 4 998 95 10000 3.09 160 11:25 04.12.2021
5125 Clouds 4 998 96 10000 2.57 180 10:43 04.12.2021
5126 Clouds 4 998 95 7000 3.6 220 08:45 04.12.2021
5127 Mist 4 998 98 4800 3.09 210 06:24 04.12.2021
5128 Drizzle 4 998 97 5000 4.63 220 04:41 04.12.2021
5129 Drizzle 4 999 94 6000 6.17 240 23:49 03.12.2021
5130 Drizzle 4 999 94 6000 6.17 240 23:49 03.12.2021
5131 Clouds 4 999 94 5000 7.2 230 22:57 03.12.2021
5132 Clouds 4 999 94 5000 7.2 230 22:38 03.12.2021
5133 Clouds 3 999 97 4000 7.2 230 21:25 03.12.2021
5134 Clouds 3 999 97 7000 9.26 220 20:48 03.12.2021
5135 Clouds 3 999 94 10000 9.26 220 19:50 03.12.2021
5136 Drizzle 2 1000 97 5000 8.75 210 18:34 03.12.2021
5137 Clouds 2 1000 93 6000 8.23 210 17:59 03.12.2021
5138 Rain 3 1002 85 10000 8.75 210 15:36 03.12.2021
5139 Clouds 2 1004 91 10000 7.72 220 12:54 03.12.2021
5140 Clouds 1 1005 91 10000 7.72 220 11:49 03.12.2021
5141 Clouds 1 1005 92 10000 7.72 220 10:55 03.12.2021
5142 Clouds 1 1005 93 10000 5.14 230 08:26 03.12.2021
5143 Clouds 1 1005 93 10000 4.12 230 07:43 03.12.2021
5144 Snow 1 1005 93 10000 3.09 260 04:35 03.12.2021
5145 Snow 0 1005 91 10000 4.12 250 00:48 03.12.2021
5146 Clear 0 1004 91 10000 4.63 250 23:47 02.12.2021
5147 Clear -1 1004 93 10000 4.12 240 22:36 02.12.2021
5148 Clear -1 1004 94 10000 2.57 260 21:41 02.12.2021
5149 Clear -1 1004 91 10000 2.06 240 20:44 02.12.2021
5150 Clear -1 1004 89 10000 2.57 240 20:20 02.12.2021
5151 Clear -1 1003 86 10000 2.06 250 18:35 02.12.2021
5152 Clear 1 1001 79 10000 3.6 300 16:33 02.12.2021
5153 Clouds 2 1000 76 10000 3.09 300 15:37 02.12.2021
5154 Clouds 2 1000 73 10000 5.14 320 14:51 02.12.2021
5155 Clear 2 999 71 10000 5.66 310 13:26 02.12.2021
5156 Clear 3 998 70 10000 5.14 310 12:23 02.12.2021
5157 Clear 1 997 75 10000 4.63 290 10:42 02.12.2021
5158 Clear 0 995 84 10000 3.6 280 09:26 02.12.2021
5159 Clear 1 993 82 10000 5.66 290 06:59 02.12.2021
5160 Clouds 3 986 79 10000 12.35 290 00:59 02.12.2021
5161 Clouds 2 986 80 10000 11.83 290 00:26 02.12.2021
5162 Snow 2 982 93 9000 13.89 280 22:25 01.12.2021
5163 Drizzle 3 980 89 10000 13.89 270 21:44 01.12.2021
5164 Drizzle 6 978 85 10000 11.32 250 20:23 01.12.2021
5165 Rain 6 977 85 10000 11.83 240 19:40 01.12.2021
5166 Clouds 6 978 84 10000 12.86 240 18:47 01.12.2021
5167 Clouds 7 978 82 10000 11.32 230 17:24 01.12.2021
5168 Rain 8 979 81 10000 14.4 240 16:21 01.12.2021
5169 Clouds 9 980 87 10000 9.77 220 14:30 01.12.2021
5170 Clouds 9 981 91 10000 11.32 220 13:37 01.12.2021
5171 Clouds 8 985 94 8000 10.8 210 10:44 01.12.2021
5172 Drizzle 8 985 96 10000 11.32 210 10:22 01.12.2021
5173 Drizzle 8 987 95 10000 9.77 210 08:52 01.12.2021
5174 Clouds 8 989 97 10000 5.66 170 07:59 01.12.2021
5175 Clouds 7 990 98 4500 6.17 160 07:31 01.12.2021
5176 Rain 5 997 97 10000 4.63 150 03:57 01.12.2021
5177 Rain 4 997 95 10000 4.12 150 03:28 01.12.2021
5178 Clouds 3 1001 92 10000 2.57 200 00:44 01.12.2021
5179 Clouds 3 1002 88 10000 2.06 230 23:33 30.11.2021
5180 Clouds 3 1002 89 10000 1.54 230 22:34 30.11.2021
5181 Clear 4 1002 85 10000 1.54 320 20:47 30.11.2021
5182 Clear 4 1002 83 10000 3.09 290 20:27 30.11.2021
5183 Clear 4 1001 82 10000 3.09 280 19:47 30.11.2021
5184 Clear 5 1001 79 10000 5.14 300 19:24 30.11.2021
5185 Clouds 5 999 77 10000 7.2 300 17:57 30.11.2021
5186 Clouds 6 998 74 10000 8.75 300 16:25 30.11.2021
5187 Clouds 7 996 73 10000 11.32 290 14:35 30.11.2021
5188 Clouds 7 995 73 10000 11.32 290 13:52 30.11.2021
5189 Clouds 7 995 71 10000 9.77 290 13:24 30.11.2021
5190 Clouds 7 995 77 10000 9.77 300 12:44 30.11.2021
5191 Clouds 6 995 85 10000 8.23 280 11:27 30.11.2021
5192 Clouds 6 995 86 10000 7.2 280 10:47 30.11.2021
5193 Rain 6 995 88 10000 7.2 300 10:29 30.11.2021
5194 Clouds 6 995 94 7000 6.69 270 08:51 30.11.2021
5195 Clouds 5 995 98 5000 6.69 260 08:20 30.11.2021
5196 Rain 5 994 94 7000 7.72 250 07:39 30.11.2021
5197 Clouds 2 1004 95 10000 5.14 220 01:58 30.11.2021
5198 Rain 2 1004 95 10000 5.14 220 01:38 30.11.2021
5199 Clouds 1 1006 92 10000 2.57 220 23:57 29.11.2021
5200 Clouds 1 1007 92 10000 3.09 230 23:22 29.11.2021
5201 Clouds 1 1007 95 10000 3.09 230 22:48 29.11.2021
5202 Clouds 1 1007 95 10000 1.54 240 22:29 29.11.2021
5203 Clouds 1 1007 96 10000 1.03 250 21:22 29.11.2021
5204 Clouds 1 1007 97 10000 2.57 280 20:57 29.11.2021
5205 Clouds 1 1008 95 10000 2.57 280 20:23 29.11.2021
5206 Clouds 1 1008 95 10000 3.09 280 19:54 29.11.2021
5207 Clouds 1 1007 95 10000 1.54 280 19:33 29.11.2021
5208 Clouds 1 1008 85 10000 1.69 304 18:48 29.11.2021
5209 Clouds 2 1007 84 10000 1.9 331 17:49 29.11.2021
5210 Clouds 2 1007 83 10000 2.89 336 17:18 29.11.2021
5211 Clouds 3 1006 90 10000 2.84 345 16:29 29.11.2021
5212 Clouds 3 1006 90 10000 2.84 345 15:45 29.11.2021
5213 Clouds 3 1006 94 4697 2.72 348 14:42 29.11.2021
5214 Clouds 3 1005 90 2308 3.16 351 13:33 29.11.2021
5215 Clouds 4 1004 83 10000 3.59 354 12:28 29.11.2021
5216 Clouds 4 1004 83 10000 3.59 354 11:36 29.11.2021
5217 Clouds 4 1004 87 10000 3.6 355 10:51 29.11.2021
5218 Mist 0 1003 100 2500 2.06 300 09:34 29.11.2021
5219 Snow 0 1000 100 4500 2.57 310 06:20 29.11.2021
5220 Fog -1 998 100 350 0.51 0 02:28 29.11.2021
5221 Fog 1 998 100 600 1.54 20 00:42 29.11.2021
5222 Fog 0 998 100 350 1.03 0 23:44 28.11.2021
5223 Fog 0 997 100 300 1.03 0 23:23 28.11.2021
5224 Mist 1 997 100 2800 1.03 0 21:49 28.11.2021
5225 Mist 1 997 100 3200 1.03 0 21:23 28.11.2021
5226 Mist 0 997 100 2500 1.03 0 20:34 28.11.2021
5227 Fog 0 996 100 7000 2.06 50 19:25 28.11.2021
5228 Clouds 0 996 100 8000 1.54 320 18:35 28.11.2021
5229 Clouds 0 996 100 8000 1.03 300 17:56 28.11.2021
5230 Clouds 0 996 100 8000 1.03 300 17:32 28.11.2021
5231 Clouds 2 995 97 9000 0.51 0 16:44 28.11.2021
5232 Clouds 2 995 93 10000 2.06 290 16:22 28.11.2021
5233 Clouds 2 995 93 10000 3.6 310 15:32 28.11.2021
5234 Clouds 3 995 90 10000 4.12 290 14:48 28.11.2021
5235 Clouds 4 995 87 10000 2.57 300 13:49 28.11.2021
5236 Clouds 4 995 90 10000 3.09 290 12:51 28.11.2021
5237 Clouds 3 995 96 10000 3.09 270 11:18 28.11.2021
5238 Clouds 3 995 100 8000 2.57 270 10:22 28.11.2021
5239 Drizzle 3 995 93 7000 2.06 270 09:40 28.11.2021
5240 Mist 2 994 100 5000 2.57 250 08:19 28.11.2021
5241 Snow 1 993 100 6000 1.03 310 00:39 28.11.2021
5242 Rain 2 993 100 4200 1.54 320 21:40 27.11.2021
5243 Rain 2 992 100 6000 1.03 0 19:49 27.11.2021
5244 Rain 2 992 100 8000 1.03 20 18:20 27.11.2021
5245 Snow 1 991 100 7000 2.06 80 15:59 27.11.2021
5246 Rain 2 990 97 8000 3.6 100 14:30 27.11.2021
5247 Rain 3 990 93 9000 3.6 110 13:20 27.11.2021
5248 Drizzle 3 989 93 10000 4.12 110 10:57 27.11.2021
5249 Clouds 3 989 93 8000 4.12 100 09:54 27.11.2021
5250 Rain 2 988 97 10000 4.12 100 08:51 27.11.2021
5251 Clouds 3 987 93 8000 5.14 120 06:35 27.11.2021
5252 Clouds 3 987 93 10000 4.63 110 03:52 27.11.2021
5253 Clouds 3 988 93 10000 6.17 120 00:23 27.11.2021
5254 Clouds 3 988 93 10000 6.17 140 22:41 26.11.2021
5255 Rain 3 988 90 10000 6.17 140 22:20 26.11.2021
5256 Drizzle 3 989 87 10000 6.17 150 21:23 26.11.2021
5257 Clouds 4 989 87 10000 5.66 140 20:40 26.11.2021
5258 Clouds 4 989 87 10000 6.17 150 19:55 26.11.2021
5259 Clouds 4 990 87 10000 6.17 150 18:47 26.11.2021
5260 Clouds 4 990 87 10000 6.69 160 17:40 26.11.2021
5261 Clouds 4 990 87 10000 7.2 160 17:20 26.11.2021
5262 Clouds 5 991 87 10000 5.66 180 15:21 26.11.2021
5263 Clouds 5 993 90 10000 4.63 190 13:35 26.11.2021
5264 Clouds 4 996 96 10000 5.14 210 10:45 26.11.2021
5265 Clouds 4 997 96 7000 5.66 210 09:54 26.11.2021
5266 Rain 3 997 97 5000 4.63 210 08:53 26.11.2021
5267 Mist 3 998 97 5000 4.63 210 08:20 26.11.2021
5268 Clouds 3 999 97 8000 5.14 210 06:41 26.11.2021
5269 Clouds 3 999 97 8000 4.12 210 06:22 26.11.2021
5270 Clouds 4 1001 95 10000 4.12 230 03:47 26.11.2021
5271 Clouds 3 1003 96 10000 3.6 240 00:57 26.11.2021
5272 Clouds 4 1004 93 10000 4.12 240 22:38 25.11.2021
5273 Clouds 4 1004 92 10000 3.09 240 21:21 25.11.2021
5274 Clouds 5 1004 91 10000 4.12 250 19:55 25.11.2021
5275 Clouds 5 1004 93 10000 3.6 250 18:45 25.11.2021
5276 Clouds 5 1004 95 10000 3.6 240 17:41 25.11.2021
5277 Clouds 6 1005 93 10000 4.12 240 17:18 25.11.2021
5278 Clouds 6 1005 95 10000 4.63 240 16:30 25.11.2021
5279 Drizzle 6 1005 96 7000 4.12 240 14:59 25.11.2021
5280 Drizzle 6 1006 92 4500 4.63 240 13:26 25.11.2021
5281 Rain 6 1006 88 8000 4.12 230 12:23 25.11.2021
5282 Drizzle 6 1007 83 10000 4.12 240 11:48 25.11.2021
5283 Clouds 5 1008 83 10000 3.6 220 09:25 25.11.2021
5284 Clouds 4 1010 89 10000 2.57 210 05:48 25.11.2021
5285 Clouds 5 1013 87 10000 2.06 210 02:48 25.11.2021
5286 Clouds 6 1015 84 10000 2.57 220 22:55 24.11.2021
5287 Clouds 6 1016 83 10000 2.57 220 22:24 24.11.2021
5288 Clouds 6 1016 83 10000 1.54 230 21:32 24.11.2021
5289 Clouds 6 1016 81 10000 4.12 190 20:50 24.11.2021
5290 Clouds 6 1017 81 10000 3.6 180 20:19 24.11.2021
5291 Clouds 7 1018 81 10000 4.12 210 18:30 24.11.2021
5292 Clouds 7 1018 82 10000 3.6 230 17:57 24.11.2021
5293 Clouds 8 1019 85 10000 4.12 230 15:39 24.11.2021
5294 Clouds 8 1019 88 10000 4.63 220 14:47 24.11.2021
5295 Clouds 8 1020 89 10000 4.63 230 14:20 24.11.2021
5296 Clouds 8 1021 92 10000 4.12 230 12:47 24.11.2021
5297 Drizzle 7 1022 98 8000 4.12 230 11:21 24.11.2021
5298 Drizzle 7 1023 98 8000 3.6 230 10:49 24.11.2021
5299 Drizzle 7 1023 96 6000 3.09 250 10:23 24.11.2021
5300 Drizzle 7 1023 98 8000 3.09 240 07:55 24.11.2021
5301 Drizzle 7 1023 96 9000 2.57 260 06:55 24.11.2021
5302 Clouds 6 1024 96 7000 2.57 250 03:55 24.11.2021
5303 Clouds 6 1025 97 7000 2.06 260 00:53 24.11.2021
5304 Clouds 6 1026 95 10000 3.09 260 22:40 23.11.2021
5305 Clouds 6 1026 97 10000 3.09 250 22:20 23.11.2021
5306 Clouds 6 1026 95 10000 2.57 250 21:44 23.11.2021
5307 Clouds 7 1026 95 10000 2.06 270 20:19 23.11.2021
5308 Drizzle 8 1026 93 10000 3.6 280 18:43 23.11.2021
5309 Clouds 8 1026 93 10000 3.6 270 18:24 23.11.2021
5310 Clouds 8 1026 90 10000 2.06 270 17:23 23.11.2021
5311 Clouds 8 1026 89 10000 3.6 280 16:34 23.11.2021
5312 Clouds 9 1026 83 10000 4.12 290 15:23 23.11.2021
5313 Clouds 9 1026 88 10000 2.06 280 14:26 23.11.2021
5314 Clouds 9 1026 93 10000 3.6 270 11:57 23.11.2021
5315 Clouds 7 1026 96 10000 3.09 270 10:24 23.11.2021
5316 Clouds 7 1026 96 10000 2.06 260 09:23 23.11.2021
5317 Clouds 7 1025 98 10000 3.6 260 07:28 23.11.2021
5318 Clouds 7 1025 97 10000 3.09 270 03:58 23.11.2021
5319 Clouds 7 1025 97 10000 3.6 260 03:25 23.11.2021
5320 Clouds 4 1025 95 10000 3.6 250 23:23 22.11.2021
5321 Clouds 4 1025 93 10000 2.57 250 22:53 22.11.2021
5322 Clouds 3 1025 94 10000 3.6 240 22:29 22.11.2021
5323 Clouds 3 1026 92 10000 3.09 240 21:44 22.11.2021
5324 Clouds 3 1026 93 10000 2.57 230 20:56 22.11.2021
5325 Clouds 3 1026 91 10000 2.06 240 20:21 22.11.2021
5326 Clouds 3 1026 90 10000 2.57 250 19:19 22.11.2021
5327 Clouds 4 1026 85 10000 2.57 260 18:40 22.11.2021
5328 Clouds 4 1026 85 10000 3.09 270 17:46 22.11.2021
5329 Clouds 5 1025 77 10000 2.06 250 16:30 22.11.2021
5330 Clouds 7 1025 71 10000 3.6 300 14:28 22.11.2021
5331 Clear 6 1025 77 10000 2.57 290 12:47 22.11.2021
5332 Clear 4 1026 89 10000 2.57 310 11:27 22.11.2021
5333 Clear 1 1025 96 10000 1.03 0 09:56 22.11.2021
5334 Fog 0 1024 95 10000 2.57 320 08:42 22.11.2021
5335 Fog 1 1023 97 10000 2.06 320 07:24 22.11.2021
5336 Clouds 4 1017 93 10000 3.6 360 00:21 22.11.2021
5337 Clear 4 1016 91 10000 2.57 10 23:19 21.11.2021
5338 Clear 5 1016 93 10000 3.09 10 22:42 21.11.2021
5339 Clouds 6 1014 91 10000 2.06 360 20:44 21.11.2021
5340 Clouds 6 1013 91 10000 2.57 350 20:26 21.11.2021
5341 Clouds 6 1011 90 10000 2.57 340 18:49 21.11.2021
5342 Clouds 6 1010 90 10000 1.03 310 17:52 21.11.2021
5343 Clouds 6 1010 92 10000 1.03 310 17:29 21.11.2021
5344 Clouds 10 1008 82 10000 6.17 270 14:49 21.11.2021
5345 Clouds 10 1008 80 10000 4.12 280 14:18 21.11.2021
5346 Clouds 9 1008 81 10000 3.6 260 12:55 21.11.2021
5347 Clouds 9 1008 86 10000 2.57 260 12:20 21.11.2021
5348 Clouds 9 1008 88 10000 3.6 250 11:37 21.11.2021
5349 Clouds 8 1008 96 10000 3.09 250 10:19 21.11.2021
5350 Clouds 8 1008 94 10000 2.57 250 09:45 21.11.2021
5351 Clouds 8 1007 97 10000 2.06 250 08:31 21.11.2021
5352 Clouds 8 1007 97 10000 2.57 260 07:52 21.11.2021
5353 Clouds 8 1007 97 10000 2.57 270 06:26 21.11.2021
5354 Rain 9 1007 94 10000 2.06 280 05:41 21.11.2021
5355 Clouds 9 1008 89 10000 5.66 240 03:22 21.11.2021
5356 Clouds 9 1008 89 10000 6.17 240 02:55 21.11.2021
5357 Clouds 9 1010 93 10000 5.66 250 01:28 21.11.2021
5358 Clouds 9 1010 93 10000 6.17 250 00:43 21.11.2021
5359 Drizzle 9 1012 95 8000 5.66 250 22:35 20.11.2021
5360 Drizzle 10 1013 93 8000 6.17 250 21:32 20.11.2021
5361 Clouds 10 1013 95 10000 5.14 240 20:32 20.11.2021
5362 Drizzle 10 1015 95 6000 5.66 250 18:45 20.11.2021
5363 Drizzle 10 1015 93 6000 6.69 240 18:24 20.11.2021
5364 Drizzle 10 1015 93 6000 6.17 240 17:22 20.11.2021
5365 Drizzle 11 1017 90 9000 6.69 240 15:40 20.11.2021
5366 Clouds 11 1017 87 10000 6.17 240 14:39 20.11.2021
5367 Clouds 11 1018 87 10000 5.66 240 14:20 20.11.2021
5368 Clouds 11 1021 87 10000 5.14 250 11:56 20.11.2021
5369 Clouds 11 1021 93 10000 4.63 250 09:59 20.11.2021
5370 Clouds 11 1022 93 10000 5.14 250 08:48 20.11.2021
5371 Clouds 11 1022 93 10000 4.12 260 06:57 20.11.2021
5372 Clouds 11 1023 94 10000 5.14 270 05:24 20.11.2021
5373 Drizzle 11 1023 94 10000 4.12 270 04:50 20.11.2021
5374 Drizzle 11 1024 96 5000 4.12 260 01:34 20.11.2021
5375 Drizzle 11 1024 96 6000 4.63 270 00:37 20.11.2021
5376 Clouds 12 1024 91 10000 5.14 270 22:55 19.11.2021
5377 Clouds 12 1023 89 10000 6.17 270 21:44 19.11.2021
5378 Clouds 12 1023 89 10000 6.17 270 20:54 19.11.2021
5379 Clouds 12 1023 89 10000 6.17 270 20:36 19.11.2021
5380 Clouds 12 1023 89 10000 6.17 270 19:49 19.11.2021
5381 Clouds 12 1023 88 10000 5.66 260 18:51 19.11.2021
5382 Clouds 12 1023 88 10000 6.69 270 18:19 19.11.2021
5383 Clouds 12 1023 87 10000 6.17 270 16:47 19.11.2021
5384 Clouds 12 1023 86 10000 7.2 270 15:31 19.11.2021
5385 Clouds 13 1023 89 10000 7.2 270 13:24 19.11.2021
5386 Clouds 12 1022 94 10000 6.69 260 10:27 19.11.2021
5387 Clouds 12 1022 94 10000 6.69 260 09:33 19.11.2021
5388 Clouds 12 1022 94 10000 6.17 260 07:34 19.11.2021
5389 Clouds 12 1021 95 10000 6.69 270 04:29 19.11.2021
5390 Clouds 12 1021 95 10000 4.63 270 02:26 19.11.2021
5391 Clouds 11 1021 98 4000 6.17 260 23:51 18.11.2021
5392 Drizzle 11 1021 96 4600 6.17 260 21:50 18.11.2021
5393 Drizzle 10 1020 98 5000 7.2 260 20:48 18.11.2021
5394 Clouds 10 1020 97 5000 7.72 250 20:30 18.11.2021
5395 Clouds 10 1020 97 4500 7.72 250 19:49 18.11.2021
5396 Clouds 10 1020 97 4500 7.2 250 19:29 18.11.2021
5397 Clouds 10 1020 94 5000 7.72 250 18:28 18.11.2021
5398 Clouds 10 1020 94 3500 7.72 240 17:51 18.11.2021
5399 Clouds 10 1020 93 3500 7.72 240 17:51 18.11.2021
5400 Clouds 9 1020 93 5000 7.2 250 16:44 18.11.2021
5401 Clouds 9 1020 92 10000 6.69 240 15:32 18.11.2021
5402 Clouds 10 1021 89 10000 7.2 240 13:31 18.11.2021
5403 Clouds 10 1022 91 10000 6.17 240 12:34 18.11.2021
5404 Rain 9 1022 93 10000 5.66 230 11:43 18.11.2021
5405 Clouds 9 1022 93 10000 6.69 230 11:24 18.11.2021
5406 Rain 8 1022 94 10000 5.66 240 09:44 18.11.2021
5407 Clouds 7 1021 95 10000 4.12 230 07:35 18.11.2021
5408 Clouds 7 1021 95 10000 4.12 240 05:57 18.11.2021
5409 Clouds 7 1021 95 10000 4.12 240 05:38 18.11.2021
5410 Clouds 6 1020 93 10000 4.12 230 01:24 18.11.2021
5411 Clouds 6 1020 93 10000 4.12 230 01:24 18.11.2021
5412 Clouds 6 1020 92 10000 4.12 240 23:19 17.11.2021
5413 Clouds 6 1020 91 10000 4.12 250 22:34 17.11.2021
5414 Clouds 6 1019 92 10000 3.09 230 21:54 17.11.2021
5415 Rain 6 1019 91 10000 2.06 250 21:34 17.11.2021
5416 Clouds 7 1018 91 10000 4.12 270 19:22 17.11.2021
5417 Clouds 8 1016 92 9000 4.63 240 17:31 17.11.2021
5418 Clouds 8 1015 94 8000 5.66 240 14:53 17.11.2021
5419 Clouds 6 1016 97 6000 5.66 230 12:51 17.11.2021
5420 Drizzle 6 1016 97 6000 5.66 220 12:25 17.11.2021
5421 Drizzle 5 1016 97 2500 5.66 210 10:50 17.11.2021
5422 Clouds 5 1016 95 10000 5.14 210 09:29 17.11.2021
5423 Clouds 4 1017 95 10000 3.6 220 07:46 17.11.2021
5424 Clouds 4 1017 93 10000 2.06 220 06:42 17.11.2021
5425 Drizzle 4 1018 96 6000 2.06 230 02:43 17.11.2021
5426 Drizzle 4 1019 94 10000 2.06 230 23:46 16.11.2021
5427 Drizzle 4 1020 96 9000 1.54 250 22:20 16.11.2021
5428 Drizzle 4 1020 92 10000 2.06 260 20:19 16.11.2021
5429 Drizzle 4 1020 92 10000 2.06 260 20:18 16.11.2021
5430 Drizzle 5 1021 89 10000 2.06 260 18:53 16.11.2021
5431 Drizzle 5 1021 89 10000 1.54 180 18:34 16.11.2021
5432 Clouds 5 1021 88 10000 1.54 240 17:40 16.11.2021
5433 Drizzle 5 1021 88 10000 2.06 210 16:39 16.11.2021
5434 Clouds 5 1022 88 10000 3.09 190 15:53 16.11.2021
5435 Clouds 5 1022 90 10000 2.57 200 15:27 16.11.2021
5436 Clouds 5 1023 87 8000 2.57 110 12:29 16.11.2021
5437 Clouds 5 1025 83 10000 2.57 100 09:49 16.11.2021
5438 Clouds 5 1025 83 10000 1.54 80 08:46 16.11.2021
5439 Clouds 5 1025 84 10000 3.09 110 07:34 16.11.2021
5440 Clouds 5 1026 84 10000 4.12 130 02:47 16.11.2021
5441 Clouds 6 1028 83 10000 3.6 80 23:23 15.11.2021
5442 Clouds 6 1028 83 10000 3.09 110 22:39 15.11.2021
5443 Clouds 6 1028 83 10000 3.09 100 21:54 15.11.2021
5444 Clouds 6 1028 83 10000 3.6 120 21:29 15.11.2021
5445 Clouds 6 1028 83 10000 3.6 90 20:26 15.11.2021
5446 Clouds 6 1028 83 10000 4.63 120 18:49 15.11.2021
5447 Clouds 7 1028 79 10000 4.12 130 16:56 15.11.2021
5448 Clouds 7 1028 80 10000 4.12 130 16:56 15.11.2021
5449 Clouds 7 1028 79 10000 3.6 110 15:48 15.11.2021
5450 Clouds 7 1028 79 10000 4.12 110 15:29 15.11.2021
5451 Clouds 7 1028 78 10000 5.14 110 13:49 15.11.2021
5452 Clouds 7 1029 79 10000 4.63 110 12:18 15.11.2021
5453 Clouds 6 1029 78 10000 2.57 100 09:30 15.11.2021
5454 Clouds 6 1029 83 10000 2.57 90 08:37 15.11.2021
5455 Clouds 6 1029 86 8000 4.63 130 06:21 15.11.2021
5456 Clouds 7 1030 83 9000 3.6 120 00:33 15.11.2021
5457 Clouds 7 1030 82 10000 4.12 100 22:40 14.11.2021
5458 Clouds 7 1029 85 10000 3.6 100 21:18 14.11.2021
5459 Clouds 8 1028 86 10000 4.63 90 19:18 14.11.2021
5460 Clouds 8 1028 87 10000 4.12 90 18:54 14.11.2021
5461 Clouds 8 1028 87 10000 4.12 90 18:36 14.11.2021
5462 Clouds 8 1028 85 10000 4.12 80 18:18 14.11.2021
5463 Clouds 8 1027 84 10000 3.6 90 17:57 14.11.2021
5464 Clouds 8 1027 84 10000 3.6 90 17:39 14.11.2021
5465 Clouds 8 1027 85 10000 3.6 90 17:21 14.11.2021
5466 Clouds 8 1027 83 10000 4.63 80 16:55 14.11.2021
5467 Clouds 8 1027 83 10000 4.63 80 16:37 14.11.2021
5468 Clouds 8 1027 83 10000 4.63 80 16:18 14.11.2021
5469 Clouds 8 1027 84 10000 3.09 60 15:19 14.11.2021
5470 Clouds 9 1026 83 10000 3.6 70 14:37 14.11.2021
5471 Clouds 9 1026 83 9000 3.09 60 14:18 14.11.2021
5472 Clouds 8 1026 86 9000 3.09 90 13:51 14.11.2021
5473 Clouds 9 1026 85 9000 3.6 110 13:26 14.11.2021
5474 Clouds 8 1025 89 6000 5.14 70 12:22 14.11.2021
5475 Clouds 8 1025 94 6000 3.6 60 10:54 14.11.2021
5476 Clouds 8 1024 94 6000 3.09 90 10:31 14.11.2021
5477 Mist 8 1024 94 4000 2.57 50 09:26 14.11.2021
5478 Mist 7 1023 96 4000 1.54 40 08:51 14.11.2021
5479 Drizzle 7 1020 98 3500 1.54 40 04:46 14.11.2021
5480 Clouds 7 1017 97 10000 1.54 80 22:31 13.11.2021
5481 Clouds 7 1017 97 10000 1.54 70 21:59 13.11.2021
5482 Clouds 7 1016 97 10000 1.03 60 21:32 13.11.2021
5483 Clouds 7 1016 97 10000 1.54 80 20:43 13.11.2021
5484 Mist 7 1015 97 5000 2.57 90 18:56 13.11.2021
5485 Mist 7 1015 97 3400 3.09 100 18:32 13.11.2021
5486 Mist 7 1014 97 3400 2.06 100 17:38 13.11.2021
5487 Clouds 8 1013 95 10000 1.54 140 15:53 13.11.2021
5488 Clouds 8 1013 95 10000 2.06 150 14:45 13.11.2021
5489 Mist 7 1012 97 7000 3.6 160 13:47 13.11.2021
5490 Clouds 7 1013 95 6000 4.12 160 12:43 13.11.2021
5491 Mist 6 1013 95 5000 3.09 150 11:48 13.11.2021
5492 Mist 6 1012 95 5000 4.12 140 11:22 13.11.2021
5493 Mist 6 1012 95 4000 3.6 140 10:34 13.11.2021
5494 Clouds 6 1012 95 7000 4.12 140 09:47 13.11.2021
5495 Clouds 6 1012 93 7000 3.6 140 09:28 13.11.2021
5496 Clouds 6 1011 94 6000 4.12 140 08:49 13.11.2021
5497 Mist 5 1011 95 5000 4.12 150 07:51 13.11.2021
5498 Clouds 5 1010 90 8000 4.63 140 04:43 13.11.2021
5499 Clouds 5 1010 91 8000 5.14 140 04:20 13.11.2021
5500 Clouds 5 1012 92 8000 5.66 150 00:18 13.11.2021
5501 Clouds 5 1012 94 8000 5.66 140 22:34 12.11.2021
5502 Clouds 6 1013 93 9000 4.63 150 22:34 12.11.2021
5503 Clouds 6 1013 90 10000 5.14 150 20:49 12.11.2021
5504 Clouds 7 1014 88 10000 6.17 140 19:33 12.11.2021
5505 Clouds 7 1014 88 10000 6.17 150 18:59 12.11.2021
5506 Clouds 8 1014 86 10000 6.17 140 18:20 12.11.2021
5507 Clouds 9 1015 84 10000 4.63 160 16:18 12.11.2021
5508 Clouds 10 1016 89 10000 5.14 140 14:46 12.11.2021
5509 Clouds 8 1019 96 7000 4.12 170 11:31 12.11.2021
5510 Clouds 8 1019 98 6000 4.12 170 10:43 12.11.2021
5511 Mist 8 1020 98 1500 3.6 150 09:27 12.11.2021
5512 Mist 8 1020 97 3300 2.06 130 08:35 12.11.2021
5513 Mist 9 1022 97 2800 3.09 220 02:19 12.11.2021
5514 Mist 9 1023 98 3000 2.57 250 23:31 11.11.2021
5515 Mist 9 1023 98 3200 3.6 220 22:27 11.11.2021
5516 Mist 9 1023 98 3500 2.06 220 21:26 11.11.2021
5517 Mist 10 1023 96 3800 2.57 230 20:26 11.11.2021
5518 Mist 10 1023 98 4500 2.06 250 18:54 11.11.2021
5519 Drizzle 10 1022 98 2500 2.57 240 17:42 11.11.2021
5520 Drizzle 10 1022 98 2900 2.57 250 16:38 11.11.2021
5521 Mist 10 1022 98 2800 3.09 250 14:44 11.11.2021
5522 Drizzle 10 1022 96 2800 4.12 250 14:26 11.11.2021
5523 Mist 10 1022 96 4500 4.63 250 13:36 11.11.2021
5524 Mist 10 1022 98 4500 3.6 250 12:48 11.11.2021
5525 Drizzle 9 1022 98 2500 3.6 230 10:35 11.11.2021
5526 Drizzle 9 1022 98 2500 3.6 230 09:33 11.11.2021
5527 Drizzle 8 1022 98 2000 2.06 230 07:38 11.11.2021
5528 Drizzle 8 1022 97 1000 1.54 250 02:36 11.11.2021
5529 Drizzle 8 1023 96 2000 1.03 250 22:59 10.11.2021
5530 Drizzle 8 1023 96 2500 2.57 230 22:22 10.11.2021
5531 Drizzle 8 1023 96 2500 2.57 230 22:22 10.11.2021
5532 Drizzle 9 1024 96 2500 2.57 230 21:18 10.11.2021
5533 Drizzle 9 1024 96 2500 3.09 230 20:45 10.11.2021
5534 Drizzle 9 1023 93 8000 1.54 230 19:46 10.11.2021
5535 Drizzle 9 1023 94 5000 2.57 200 18:33 10.11.2021
5536 Drizzle 9 1023 92 6000 2.57 230 16:34 10.11.2021
5537 Drizzle 9 1023 87 10000 1.54 230 15:28 10.11.2021
5538 Clouds 10 1023 82 10000 2.57 210 13:43 10.11.2021
5539 Clouds 10 1023 82 10000 3.09 230 12:50 10.11.2021
5540 Clouds 8 1024 84 10000 3.6 200 10:48 10.11.2021
5541 Clouds 4 1024 94 10000 1.03 0 08:45 10.11.2021
5542 Clouds 4 1023 91 10000 3.09 160 07:48 10.11.2021
5543 Clear 4 1024 92 10000 2.57 170 06:26 10.11.2021
5544 Clear 4 1024 92 10000 2.57 170 05:51 10.11.2021
5545 Clear 6 1025 89 10000 2.06 170 00:27 10.11.2021
5546 Clear 7 1026 85 10000 2.57 170 21:51 09.11.2021
5547 Clear 7 1026 81 10000 1.54 190 20:32 09.11.2021
5548 Clear 7 1026 81 10000 1.54 190 20:32 09.11.2021
5549 Clear 8 1026 81 10000 3.6 200 19:26 09.11.2021
5550 Clear 9 1025 77 10000 4.12 200 17:57 09.11.2021
5551 Clear 11 1025 69 10000 4.12 210 16:24 09.11.2021
5552 Clear 12 1025 66 10000 8.23 210 14:52 09.11.2021
5553 Clouds 11 1026 75 10000 6.69 220 12:53 09.11.2021
5554 Clouds 11 1026 80 10000 6.17 210 11:59 09.11.2021
5555 Clouds 10 1026 91 10000 5.66 210 10:46 09.11.2021
5556 Clouds 8 1026 96 10000 3.6 190 09:40 09.11.2021
5557 Clouds 8 1026 97 10000 3.09 200 08:37 09.11.2021
5558 Clouds 8 1024 97 10000 2.06 220 05:58 09.11.2021
5559 Clouds 7 1024 97 10000 1.54 210 02:28 09.11.2021
5560 Clouds 8 1024 97 10000 1.03 0 01:48 09.11.2021
5561 Clouds 8 1024 96 10000 1.54 250 00:18 09.11.2021
5562 Clouds 8 1023 97 10000 1.54 260 23:20 08.11.2021
5563 Clouds 8 1023 97 10000 1.54 240 22:32 08.11.2021
5564 Drizzle 9 1022 94 10000 2.06 300 21:20 08.11.2021
5565 Clouds 9 1021 96 8000 3.6 270 19:56 08.11.2021
5566 Drizzle 9 1021 97 5000 4.12 280 18:57 08.11.2021
5567 Clouds 10 1019 95 4600 3.09 280 17:23 08.11.2021
5568 Drizzle 9 1018 97 4400 4.63 240 15:31 08.11.2021
5569 Drizzle 9 1018 97 5000 4.12 240 14:53 08.11.2021
5570 Drizzle 9 1018 95 4500 4.63 230 13:56 08.11.2021
5571 Drizzle 9 1018 92 8000 5.66 230 12:44 08.11.2021
5572 Clouds 9 1018 89 10000 4.63 230 11:28 08.11.2021
5573 Clouds 8 1017 94 10000 4.63 240 10:18 08.11.2021
5574 Clouds 8 1017 96 10000 3.6 240 08:56 08.11.2021
5575 Clouds 8 1016 96 10000 4.12 260 07:38 08.11.2021
5576 Clouds 8 1015 96 6000 4.12 250 06:50 08.11.2021
5577 Clouds 9 1014 96 10000 4.63 250 03:34 08.11.2021
5578 Drizzle 9 1011 94 5000 5.66 250 23:51 07.11.2021
5579 Clouds 8 1010 97 6000 5.66 250 22:30 07.11.2021
5580 Rain 8 1009 93 10000 6.17 250 21:22 07.11.2021
5581 Clouds 8 1009 93 10000 6.17 240 19:55 07.11.2021
5582 Clouds 8 1008 93 10000 5.66 240 18:26 07.11.2021
5583 Rain 8 1008 94 10000 5.66 260 17:38 07.11.2021
5584 Rain 8 1008 92 10000 4.63 260 16:20 07.11.2021
5585 Rain 9 1008 88 10000 4.12 260 14:42 07.11.2021
5586 Clouds 9 1008 86 4000 6.69 260 14:24 07.11.2021
5587 Rain 9 1008 83 10000 6.69 260 11:58 07.11.2021
5588 Clouds 9 1008 86 10000 4.12 260 11:18 07.11.2021
5589 Clouds 9 1007 91 10000 8.23 250 08:58 07.11.2021
5590 Clouds 9 1009 95 10000 9.77 220 02:53 07.11.2021
5591 Rain 10 1013 88 10000 8.23 210 00:25 07.11.2021
5592 Clouds 9 1014 90 10000 9.26 220 22:55 06.11.2021
5593 Clouds 10 1016 84 10000 8.75 220 21:53 06.11.2021
5594 Clouds 10 1016 84 10000 8.23 210 20:56 06.11.2021
5595 Clouds 9 1017 87 10000 7.2 220 19:42 06.11.2021
5596 Clouds 9 1019 89 10000 6.69 220 17:31 06.11.2021
5597 Clouds 10 1020 88 10000 7.2 220 16:32 06.11.2021
5598 Clouds 10 1022 89 10000 8.23 230 13:39 06.11.2021
5599 Clouds 10 1022 89 10000 6.17 230 12:56 06.11.2021
5600 Clouds 9 1023 92 9000 6.69 230 11:18 06.11.2021
5601 Clouds 8 1023 93 10000 5.66 230 08:48 06.11.2021
5602 Clouds 8 1022 92 6000 5.14 230 04:50 06.11.2021
5603 Clouds 9 1022 92 10000 5.14 240 00:36 06.11.2021
5604 Clouds 9 1022 93 9000 5.14 250 23:29 05.11.2021
5605 Clouds 9 1021 90 10000 5.14 250 22:33 05.11.2021
5606 Clouds 9 1021 91 10000 4.12 240 20:32 05.11.2021
5607 Clouds 9 1021 91 10000 4.12 250 19:51 05.11.2021
5608 Clouds 9 1020 93 10000 3.09 250 18:51 05.11.2021
5609 Clouds 9 1020 92 10000 4.12 260 18:29 05.11.2021
5610 Clouds 10 1019 87 10000 3.09 260 16:45 05.11.2021
5611 Clouds 12 1018 78 10000 4.63 260 14:22 05.11.2021
5612 Clouds 11 1017 87 10000 3.6 280 12:27 05.11.2021
5613 Clouds 8 1016 98 10000 3.09 260 09:47 05.11.2021
5614 Clouds 6 1014 98 9000 2.06 240 08:31 05.11.2021
5615 Clouds 7 1013 96 10000 3.09 280 06:22 05.11.2021
5616 Clear 7 1011 94 10000 3.6 280 03:38 05.11.2021
5617 Clouds 7 1010 96 9000 4.12 290 02:21 05.11.2021
5618 Clouds 8 1008 94 7000 4.63 300 23:58 04.11.2021
5619 Clouds 8 1007 94 8000 5.66 300 22:37 04.11.2021
5620 Drizzle 8 1007 94 7000 6.17 310 22:18 04.11.2021
5621 Drizzle 8 1006 94 7000 6.17 310 21:28 04.11.2021
5622 Drizzle 8 1005 94 7000 5.14 310 20:29 04.11.2021
5623 Drizzle 8 1005 94 7000 4.63 310 19:49 04.11.2021
5624 Drizzle 8 1004 94 9000 5.66 310 19:28 04.11.2021
5625 Drizzle 8 1004 94 8000 5.66 310 18:30 04.11.2021
5626 Drizzle 8 1003 96 9000 5.66 330 17:27 04.11.2021
5627 Drizzle 8 1003 97 8000 7.2 320 16:23 04.11.2021
5628 Drizzle 8 1003 97 8000 7.2 320 16:23 04.11.2021
5629 Drizzle 8 1002 97 10000 5.66 330 14:19 04.11.2021
5630 Rain 8 1003 94 10000 3.09 360 10:52 04.11.2021
5631 Mist 7 1004 98 4800 3.09 40 08:48 04.11.2021
5632 Mist 7 1003 97 4500 2.57 30 08:26 04.11.2021
5633 Rain 7 1003 98 6000 1.54 30 07:33 04.11.2021
5634 Rain 7 1004 96 8000 2.57 30 23:43 03.11.2021
5635 Rain 7 1004 94 9000 2.57 90 22:49 03.11.2021
5636 Clouds 7 1004 94 10000 1.54 70 21:45 03.11.2021
5637 Rain 7 1003 92 10000 1.54 90 20:45 03.11.2021
5638 Rain 7 1003 91 10000 1.54 70 20:27 03.11.2021
5639 Rain 7 1003 89 10000 1.54 80 19:38 03.11.2021
5640 Clear 7 1003 90 10000 1.54 80 18:33 03.11.2021
5641 Clear 7 1002 90 10000 1.54 90 17:58 03.11.2021
5642 Clear 8 1002 86 10000 2.06 140 16:53 03.11.2021
5643 Clouds 9 1002 83 10000 1.54 140 15:52 03.11.2021
5644 Clouds 9 1002 83 10000 2.06 150 15:31 03.11.2021
5645 Clouds 9 1002 87 10000 2.57 160 13:45 03.11.2021
5646 Clouds 8 1002 92 9000 3.6 160 11:38 03.11.2021
5647 Clouds 7 1002 93 7000 4.63 160 10:52 03.11.2021
5648 Clouds 7 1002 93 10000 3.6 160 10:18 03.11.2021
5649 Clouds 6 1002 96 10000 2.57 160 09:27 03.11.2021
5650 Clouds 5 1002 97 10000 2.57 160 08:21 03.11.2021
5651 Clouds 5 1001 97 10000 2.57 150 07:38 03.11.2021
5652 Clouds 6 1000 95 10000 1.03 0 04:24 03.11.2021
5653 Clouds 5 1001 97 10000 1.03 140 01:45 03.11.2021
5654 Fog 5 1001 96 8000 0.51 0 23:33 02.11.2021
5655 Fog 6 1001 96 10000 0.51 70 22:29 02.11.2021
5656 Fog 6 1000 94 10000 0.51 0 20:54 02.11.2021
5657 Fog 7 1000 95 10000 0 0 20:23 02.11.2021
5658 Clouds 7 1000 95 10000 0.51 0 19:47 02.11.2021
5659 Clear 8 1000 91 10000 1.03 210 18:43 02.11.2021
5660 Clouds 9 999 87 10000 2.06 230 17:58 02.11.2021
5661 Clouds 10 999 82 10000 2.57 230 17:32 02.11.2021
5662 Clouds 11 999 73 10000 2.57 230 16:29 02.11.2021
5663 Clouds 12 999 73 10000 3.09 230 15:26 02.11.2021
5664 Clouds 13 999 71 10000 2.06 230 14:18 02.11.2021
5665 Clouds 12 999 75 10000 1.03 0 13:27 02.11.2021
5666 Clouds 11 999 81 10000 3.09 220 12:33 02.11.2021
5667 Clear 10 1000 86 10000 1.03 0 11:32 02.11.2021
5668 Clear 8 1000 88 10000 1.03 0 10:51 02.11.2021
5669 Clear 8 1000 93 10000 1.54 180 10:25 02.11.2021
5670 Clear 6 1000 94 10000 2.06 160 08:43 02.11.2021
5671 Clear 6 999 94 10000 1.54 150 06:50 02.11.2021
5672 Clear 7 999 91 10000 2.06 120 03:34 02.11.2021
5673 Clear 7 999 91 10000 2.06 120 03:34 02.11.2021
5674 Clear 7 1000 91 10000 2.06 140 02:18 02.11.2021
5675 Clear 7 1000 86 10000 3.09 130 22:44 01.11.2021
5676 Clear 8 1000 83 10000 3.6 160 20:52 01.11.2021
5677 Clear 8 1000 83 10000 4.12 150 20:33 01.11.2021
5678 Clear 9 1000 81 10000 3.6 160 19:52 01.11.2021
5679 Clear 9 1000 79 10000 3.09 170 19:24 01.11.2021
5680 Clouds 11 1000 74 10000 3.6 190 18:21 01.11.2021
5681 Clouds 11 999 73 10000 4.63 190 17:19 01.11.2021
5682 Clouds 12 999 71 10000 5.14 210 16:45 01.11.2021
5683 Clouds 13 999 67 10000 5.66 220 15:47 01.11.2021
5684 Clouds 13 999 67 10000 7.2 210 15:21 01.11.2021
5685 Clouds 13 999 68 10000 8.23 210 14:42 01.11.2021
5686 Clouds 13 999 68 10000 7.2 220 14:20 01.11.2021
5687 Clouds 13 999 69 10000 8.75 210 13:19 01.11.2021
5688 Clouds 13 999 70 10000 7.72 200 12:25 01.11.2021
5689 Clouds 12 998 81 10000 5.66 190 10:33 01.11.2021
5690 Clear 11 998 86 10000 5.14 200 08:53 01.11.2021
5691 Clouds 11 998 88 10000 4.63 190 07:48 01.11.2021
5692 Clouds 11 997 88 10000 5.66 220 05:56 01.11.2021
5693 Clouds 13 997 82 10000 3.6 230 03:42 01.11.2021
5694 Rain 15 996 74 10000 6.69 160 00:23 01.11.2021
5695 Clear 15 997 78 10000 7.72 150 21:55 31.10.2021
5696 Clouds 15 999 83 10000 6.69 140 20:36 31.10.2021
5697 Clouds 15 1000 85 10000 6.17 130 18:54 31.10.2021
5698 Clouds 14 1001 85 10000 6.17 130 18:32 31.10.2021
5699 Clouds 14 1002 82 10000 5.14 130 16:53 31.10.2021
5700 Clouds 15 1004 78 10000 6.17 140 15:40 31.10.2021
5701 Clouds 15 1005 79 10000 5.14 140 13:38 31.10.2021
5702 Clouds 14 1006 78 10000 5.14 140 12:44 31.10.2021
5703 Clouds 13 1007 85 10000 4.63 160 10:57 31.10.2021
5704 Clouds 12 1007 88 10000 3.6 180 10:36 31.10.2021
5705 Clouds 11 1007 93 10000 3.09 180 09:19 31.10.2021
5706 Clouds 11 1007 93 10000 4.63 220 06:59 31.10.2021
5707 Clouds 12 1003 84 10000 5.14 200 00:48 31.10.2021
5708 Clouds 12 1003 78 10000 4.63 160 22:36 30.10.2021
5709 Clear 12 1003 75 10000 5.14 160 21:34 30.10.2021
5710 Clouds 11 1003 76 10000 3.85 173 20:21 30.10.2021
5711 Rain 12 1003 73 10000 5.66 140 18:36 30.10.2021
5712 Clear 14 1003 70 10000 4.12 150 16:53 30.10.2021
5713 Clear 14 1004 69 10000 4.63 100 14:43 30.10.2021
5714 Clear 14 1005 67 10000 4.63 120 13:39 30.10.2021
5715 Clear 14 1006 66 10000 4.63 140 13:21 30.10.2021
5716 Clear 12 1006 71 10000 4.63 150 11:51 30.10.2021
5717 Clear 13 1006 70 10000 4.63 150 11:32 30.10.2021
5718 Clear 10 1007 81 10000 4.63 140 10:24 30.10.2021
5719 Clear 9 1007 87 10000 4.12 120 08:52 30.10.2021
5720 Clear 9 1007 89 10000 3.09 140 06:26 30.10.2021
5721 Clear 9 1007 85 10000 2.06 140 05:39 30.10.2021
5722 Clear 10 1008 82 10000 3.6 140 00:43 30.10.2021
5723 Clear 11 1008 80 10000 3.09 160 22:39 29.10.2021
5724 Clear 11 1008 80 10000 3.09 160 22:20 29.10.2021
5725 Clear 13 1008 75 10000 5.14 130 20:45 29.10.2021
5726 Clear 13 1008 76 10000 4.12 140 19:50 29.10.2021
5727 Clear 14 1007 73 10000 4.63 170 18:33 29.10.2021
5728 Clear 16 1008 66 10000 6.17 150 16:51 29.10.2021
5729 Clear 17 1009 61 10000 6.17 150 14:36 29.10.2021
5730 Clear 12 1010 77 10000 4.12 160 11:44 29.10.2021
5731 Clear 8 1011 87 10000 4.12 140 10:35 29.10.2021
5732 Clear 6 1011 92 10000 3.6 140 08:38 29.10.2021
5733 Clear 9 1013 89 10000 3.09 170 00:37 29.10.2021
5734 Clear 11 1013 88 10000 4.12 150 23:25 28.10.2021
5735 Clear 11 1013 87 10000 4.63 140 22:18 28.10.2021
5736 Clear 12 1014 82 10000 4.12 140 20:54 28.10.2021
5737 Clear 13 1014 80 10000 3.6 170 19:51 28.10.2021
5738 Clear 14 1015 73 10000 4.63 150 18:26 28.10.2021
5739 Clear 16 1015 68 10000 5.66 160 17:18 28.10.2021
5740 Clear 17 1016 67 10000 5.66 160 15:48 28.10.2021
5741 Clear 16 1017 71 10000 5.14 150 14:25 28.10.2021
5742 Clear 15 1018 73 10000 4.12 170 13:29 28.10.2021
5743 Clear 14 1018 77 10000 4.12 160 12:41 28.10.2021
5744 Clear 11 1019 88 10000 4.12 150 10:57 28.10.2021
5745 Clear 9 1019 94 10000 2.57 150 09:39 28.10.2021
5746 Clear 9 1019 93 10000 2.57 150 09:20 28.10.2021
5747 Clouds 9 1019 96 10000 4.12 160 08:35 28.10.2021
5748 Clouds 10 1019 92 10000 3.6 160 07:40 28.10.2021
5749 Clouds 13 1020 87 10000 3.09 220 00:33 28.10.2021
5750 Clouds 13 1020 87 10000 2.57 220 22:31 27.10.2021
5751 Clouds 14 1020 85 10000 3.6 220 21:34 27.10.2021
5752 Clouds 14 1020 82 10000 4.63 230 20:57 27.10.2021
5753 Clouds 14 1020 82 10000 4.63 230 20:38 27.10.2021
5754 Clouds 14 1020 83 10000 5.14 240 19:42 27.10.2021
5755 Clouds 14 1020 84 10000 4.63 230 18:54 27.10.2021
5756 Clouds 14 1019 92 10000 5.66 220 16:38 27.10.2021
5757 Drizzle 14 1019 93 8000 5.14 230 16:20 27.10.2021
5758 Drizzle 14 1020 93 10000 5.66 230 15:23 27.10.2021
5759 Drizzle 14 1020 93 10000 5.66 230 15:23 27.10.2021
5760 Drizzle 14 1020 93 8000 6.17 230 13:42 27.10.2021
5761 Drizzle 13 1019 95 6000 6.17 230 10:59 27.10.2021
5762 Drizzle 13 1019 93 7000 5.66 230 10:36 27.10.2021
5763 Drizzle 13 1018 93 8000 6.69 220 08:58 27.10.2021
5764 Clouds 13 1018 90 10000 6.69 220 07:38 27.10.2021
5765 Clouds 13 1018 90 10000 6.17 220 05:37 27.10.2021
5766 Clouds 12 1018 93 10000 6.69 220 01:21 27.10.2021
5767 Clouds 12 1018 95 8000 5.66 220 00:39 27.10.2021
5768 Clouds 12 1018 93 10000 5.14 230 23:52 26.10.2021
5769 Clouds 12 1018 94 10000 3.6 230 22:43 26.10.2021
5770 Clouds 12 1018 93 10000 5.66 210 22:21 26.10.2021
5771 Clouds 11 1018 96 8000 6.17 220 21:32 26.10.2021
5772 Clouds 12 1018 83 10000 5.14 210 19:34 26.10.2021
5773 Clouds 12 1018 83 10000 4.63 220 18:54 26.10.2021
5774 Clouds 13 1017 82 10000 5.14 220 17:45 26.10.2021
5775 Clouds 13 1017 80 10000 5.66 240 15:46 26.10.2021
5776 Clouds 13 1017 85 10000 5.14 240 12:55 26.10.2021
5777 Clouds 11 1017 93 8000 4.63 230 10:54 26.10.2021
5778 Clouds 10 1016 97 7000 3.6 230 08:24 26.10.2021
5779 Clouds 10 1016 96 7000 3.6 240 07:22 26.10.2021
5780 Clouds 11 1016 84 10000 2.57 220 00:19 26.10.2021
5781 Clouds 11 1016 83 10000 2.57 210 23:36 25.10.2021
5782 Clouds 11 1016 83 10000 3.09 210 22:29 25.10.2021
5783 Clouds 11 1016 83 10000 3.09 210 21:43 25.10.2021
5784 Clouds 11 1016 85 10000 4.12 210 20:37 25.10.2021
5785 Clouds 11 1016 85 10000 4.12 220 19:43 25.10.2021
5786 Clouds 11 1016 81 10000 3.6 180 19:22 25.10.2021
5787 Clouds 11 1016 82 10000 3.6 180 18:38 25.10.2021
5788 Clouds 12 1016 83 10000 3.09 180 17:34 25.10.2021
5789 Clouds 12 1017 79 10000 4.63 210 14:53 25.10.2021
5790 Clear 10 1017 79 10000 5.14 220 12:33 25.10.2021
5791 Clear 7 1018 86 10000 3.6 200 10:47 25.10.2021
5792 Clear 3 1018 91 10000 3.09 160 08:58 25.10.2021
5793 Clear 3 1018 92 10000 2.57 150 07:19 25.10.2021
5794 Clear 4 1019 88 10000 2.06 150 04:35 25.10.2021
5795 Clear 5 1020 86 10000 2.57 160 00:52 25.10.2021
5796 Clear 5 1020 86 10000 2.57 160 00:33 25.10.2021
5797 Clear 6 1020 84 10000 3.6 140 23:41 24.10.2021
5798 Clear 7 1020 83 10000 5.14 150 22:39 24.10.2021
5799 Clear 7 1020 84 10000 5.14 150 22:19 24.10.2021
5800 Clear 7 1021 82 10000 4.63 150 21:18 24.10.2021
5801 Clear 7 1021 79 10000 4.63 150 20:36 24.10.2021
5802 Clear 8 1022 76 10000 4.12 150 19:47 24.10.2021
5803 Clear 10 1022 70 10000 4.12 160 18:29 24.10.2021
5804 Clear 11 1023 63 10000 5.14 160 17:45 24.10.2021
5805 Clear 12 1024 63 10000 6.17 180 15:56 24.10.2021
5806 Clear 13 1024 62 10000 6.17 170 15:19 24.10.2021
5807 Clear 11 1026 72 10000 4.63 170 13:19 24.10.2021
5808 Clear 9 1027 78 10000 5.14 160 11:56 24.10.2021
5809 Clear 8 1027 82 10000 4.63 160 11:34 24.10.2021
5810 Clear 6 1027 88 10000 4.63 150 10:30 24.10.2021
5811 Clear 4 1027 92 10000 2.06 150 08:00 24.10.2021
5812 Clear 5 1028 96 10000 1.54 160 01:53 24.10.2021
5813 Fog 6 1028 96 10000 1.03 0 23:51 23.10.2021
5814 Clouds 7 1028 95 8000 0 0 22:40 23.10.2021
5815 Clouds 8 1028 93 10000 2.06 210 20:39 23.10.2021
5816 Clouds 9 1027 90 10000 2.06 230 19:26 23.10.2021
5817 Clouds 10 1027 88 10000 2.06 250 18:41 23.10.2021
5818 Clouds 10 1026 83 10000 2.57 260 17:44 23.10.2021
5819 Clouds 11 1026 82 10000 4.12 250 16:45 23.10.2021
5820 Clouds 11 1025 78 10000 5.66 270 14:45 23.10.2021
5821 Clouds 11 1025 82 10000 4.63 260 13:18 23.10.2021
5822 Clouds 6 1016 91 10000 4.12 250 00:36 23.10.2021
5823 Clouds 6 1015 91 10000 4.12 250 23:28 22.10.2021
5824 Clouds 6 1013 91 10000 3.6 250 21:27 22.10.2021
5825 Clouds 6 1011 89 10000 3.6 260 19:24 22.10.2021
5826 Clouds 6 1009 91 10000 3.09 270 18:21 22.10.2021
5827 Rain 8 1007 92 10000 3.6 280 16:18 22.10.2021
5828 Rain 8 1005 91 10000 8.75 260 14:35 22.10.2021
5829 Clouds 8 1003 92 9000 7.2 260 12:41 22.10.2021
5830 Clouds 8 1003 93 9000 7.2 260 12:41 22.10.2021
5831 Rain 8 1002 88 10000 8.23 230 10:52 22.10.2021
5832 Rain 8 1003 85 10000 9.77 230 09:57 22.10.2021
5833 Rain 8 1003 85 10000 9.77 240 09:32 22.10.2021
5834 Clouds 8 1003 85 10000 9.77 240 09:32 22.10.2021
5835 Rain 7 1004 89 10000 9.26 230 07:29 22.10.2021
5836 Clouds 7 1005 89 10000 8.23 230 06:20 22.10.2021
5837 Clouds 6 1005 92 10000 5.66 230 00:37 22.10.2021
5838 Clouds 6 1004 92 10000 4.63 240 23:48 21.10.2021
5839 Rain 6 1004 92 10000 4.12 240 22:40 21.10.2021
5840 Clouds 7 1002 89 10000 4.63 300 21:23 21.10.2021
5841 Clouds 7 1001 89 10000 6.17 280 20:21 21.10.2021
5842 Clouds 7 1000 87 10000 5.66 280 19:49 21.10.2021
5843 Clouds 8 999 89 10000 5.14 250 19:20 21.10.2021
5844 Clouds 8 998 90 10000 6.69 290 18:30 21.10.2021
5845 Rain 9 997 86 10000 5.14 270 17:50 21.10.2021
5846 Rain 9 996 81 10000 5.66 250 16:47 21.10.2021
5847 Clouds 10 994 82 9000 6.17 280 15:28 21.10.2021
5848 Clouds 11 993 78 10000 8.75 280 14:50 21.10.2021
5849 Clouds 11 992 91 10000 6.17 260 13:42 21.10.2021
5850 Rain 10 987 93 10000 6.69 280 11:49 21.10.2021
5851 Rain 11 982 92 10000 6.69 210 09:33 21.10.2021
5852 Clouds 12 983 88 9000 9.26 250 07:46 21.10.2021
5853 Rain 13 983 94 10000 7.2 150 06:35 21.10.2021
5854 Clear 14 995 85 10000 6.17 230 00:35 21.10.2021
5855 Clouds 15 995 84 10000 10.29 220 22:29 20.10.2021
5856 Clouds 15 995 85 10000 9.26 220 21:47 20.10.2021
5857 Clouds 15 995 86 10000 9.26 220 21:47 20.10.2021
5858 Clouds 16 996 83 10000 9.77 220 20:58 20.10.2021
5859 Clouds 16 996 83 10000 9.77 220 20:39 20.10.2021
5860 Clouds 16 996 82 10000 9.77 220 20:18 20.10.2021
5861 Clouds 16 996 80 10000 9.77 220 19:23 20.10.2021
5862 Clouds 17 997 80 10000 8.75 220 18:29 20.10.2021
5863 Clouds 17 997 81 10000 10.29 230 16:37 20.10.2021
5864 Rain 17 999 80 10000 8.75 220 14:33 20.10.2021
5865 Clouds 15 1003 79 10000 7.72 210 09:54 20.10.2021
5866 Clouds 15 1006 88 10000 8.23 220 05:34 20.10.2021
5867 Clouds 16 1008 90 10000 7.2 220 02:35 20.10.2021
5868 Clouds 16 1010 94 10000 5.66 220 00:33 20.10.2021
5869 Clouds 16 1011 95 10000 6.17 220 22:53 19.10.2021
5870 Clouds 16 1011 97 10000 5.14 220 21:37 19.10.2021
5871 Drizzle 16 1011 95 6000 7.2 220 20:27 19.10.2021
5872 Clouds 15 1011 98 6000 7.2 210 19:59 19.10.2021
5873 Clouds 15 1011 97 10000 6.17 200 19:36 19.10.2021
5874 Clouds 15 1012 96 5000 4.12 180 18:40 19.10.2021
5875 Rain 14 1012 97 4700 4.63 200 17:52 19.10.2021
5876 Clouds 15 1014 88 10000 7.2 210 15:30 19.10.2021
5877 Clouds 15 1014 87 10000 6.69 210 14:40 19.10.2021
5878 Clouds 15 1015 86 10000 7.2 210 13:55 19.10.2021
5879 Clouds 14 1016 83 10000 4.63 200 12:24 19.10.2021
5880 Clouds 13 1016 85 10000 5.66 210 11:28 19.10.2021
5881 Clouds 12 1017 86 10000 3.09 160 09:55 19.10.2021
5882 Clouds 11 1017 86 10000 2.57 160 08:57 19.10.2021
5883 Clear 10 1019 88 10000 2.06 160 02:25 19.10.2021
5884 Clear 10 1020 84 10000 4.12 160 23:59 18.10.2021
5885 Clear 10 1020 85 10000 3.6 140 23:40 18.10.2021
5886 Clear 10 1020 84 10000 3.09 150 22:57 18.10.2021
5887 Clear 11 1020 85 10000 3.6 170 22:30 18.10.2021
5888 Clear 11 1021 83 10000 1.54 210 20:53 18.10.2021
5889 Clear 11 1021 79 10000 2.57 140 20:30 18.10.2021
5890 Clear 12 1021 81 10000 2.06 160 19:41 18.10.2021
5891 Clear 12 1021 79 10000 2.06 160 19:20 18.10.2021
5892 Clear 14 1021 71 10000 4.12 200 16:59 18.10.2021
5893 Clear 14 1022 71 10000 4.12 220 14:57 18.10.2021
5894 Clear 13 1022 73 10000 4.12 220 12:41 18.10.2021
5895 Clouds 11 1022 79 10000 3.6 230 10:26 18.10.2021
5896 Clear 10 1021 81 10000 3.09 230 09:25 18.10.2021
5897 Clear 10 1021 81 10000 3.09 230 09:25 18.10.2021
5898 Clouds 10 1020 87 10000 2.06 220 01:35 18.10.2021
5899 Clouds 10 1020 88 10000 2.06 190 23:20 17.10.2021
5900 Clouds 10 1019 86 10000 2.57 230 21:45 17.10.2021
5901 Clouds 10 1019 86 10000 2.06 210 20:59 17.10.2021
5902 Clouds 11 1019 84 10000 2.06 220 20:29 17.10.2021
5903 Clouds 10 1019 87 10000 1.54 210 19:38 17.10.2021
5904 Clouds 11 1019 87 10000 3.37 240 18:54 17.10.2021
5905 Clouds 11 1019 87 10000 2.57 230 17:27 17.10.2021
5906 Rain 11 1018 87 10000 4.12 230 14:58 17.10.2021
5907 Rain 11 1018 86 10000 2.57 240 14:24 17.10.2021
5908 Clouds 10 1018 88 10000 1.54 230 13:34 17.10.2021
5909 Clouds 9 1018 91 10000 3.6 230 11:54 17.10.2021
5910 Clouds 9 1018 87 10000 3.6 220 10:23 17.10.2021
5911 Clouds 9 1018 87 10000 3.6 230 09:28 17.10.2021
5912 Clear 9 1017 85 10000 4.12 230 06:58 17.10.2021
5913 Clear 9 1019 76 10000 3.6 240 00:53 17.10.2021
5914 Clear 9 1019 77 10000 4.12 230 00:22 17.10.2021
5915 Clear 9 1019 77 10000 3.6 230 21:38 16.10.2021
5916 Clear 9 1019 77 10000 3.6 220 20:31 16.10.2021
5917 Clear 10 1019 75 10000 4.12 230 19:45 16.10.2021
5918 Clear 10 1019 76 10000 3.6 230 19:23 16.10.2021
5919 Clear 10 1019 77 10000 3.6 240 18:55 16.10.2021
5920 Clear 10 1019 77 10000 3.6 240 18:37 16.10.2021
5921 Clear 11 1019 75 10000 3.6 240 18:18 16.10.2021
5922 Clouds 11 1019 68 10000 5.66 240 17:25 16.10.2021
5923 Clouds 12 1020 69 10000 4.12 240 15:25 16.10.2021
5924 Clear 10 1020 87 10000 4.12 220 11:55 16.10.2021
5925 Clear 9 1020 93 10000 3.6 220 10:43 16.10.2021
5926 Clear 7 1019 97 10000 2.06 250 08:23 16.10.2021
5927 Clouds 8 1019 94 10000 3.09 250 01:25 16.10.2021
5928 Clouds 8 1019 94 10000 3.09 250 01:25 16.10.2021
5929 Clouds 8 1018 93 10000 2.57 250 23:57 15.10.2021
5930 Clouds 8 1018 92 10000 2.57 260 23:24 15.10.2021
5931 Clouds 9 1018 90 10000 3.09 250 22:19 15.10.2021
5932 Clouds 9 1017 91 10000 2.57 260 21:29 15.10.2021
5933 Clouds 9 1017 89 10000 2.57 250 20:49 15.10.2021
5934 Clouds 10 1016 87 10000 2.57 260 19:37 15.10.2021
5935 Clouds 11 1015 79 10000 5.14 290 18:41 15.10.2021
5936 Clouds 13 1014 71 10000 7.72 280 16:43 15.10.2021
5937 Clouds 14 1013 68 10000 7.2 290 15:36 15.10.2021
5938 Clouds 13 1012 81 10000 5.14 290 13:31 15.10.2021
5939 Clouds 10 1011 95 10000 3.09 300 11:37 15.10.2021
5940 Rain 10 1010 93 10000 3.09 300 10:58 15.10.2021
5941 Rain 10 1008 95 6000 4.63 340 09:59 15.10.2021
5942 Clouds 13 1009 85 10000 8.23 230 05:44 15.10.2021
5943 Clouds 13 1012 87 10000 6.17 240 01:48 15.10.2021
5944 Clouds 12 1014 87 10000 5.66 230 00:22 15.10.2021
5945 Clouds 13 1015 80 10000 6.17 240 22:52 14.10.2021
5946 Clouds 13 1015 82 10000 6.17 230 21:45 14.10.2021
5947 Clouds 13 1016 81 10000 5.14 230 20:50 14.10.2021
5948 Clouds 13 1016 82 10000 5.66 240 20:19 14.10.2021
5949 Clouds 13 1016 84 10000 4.63 240 19:40 14.10.2021
5950 Clouds 13 1017 85 10000 6.17 250 17:39 14.10.2021
5951 Clouds 13 1017 85 10000 6.17 250 17:39 14.10.2021
5952 Clouds 13 1017 85 10000 6.69 260 16:56 14.10.2021
5953 Clouds 13 1017 86 10000 6.17 260 16:21 14.10.2021
5954 Clouds 14 1018 88 10000 5.14 260 14:43 14.10.2021
5955 Clouds 14 1018 89 10000 4.63 260 14:24 14.10.2021
5956 Clouds 13 1019 95 10000 5.14 260 11:56 14.10.2021
5957 Clouds 12 1019 95 10000 3.09 270 10:43 14.10.2021
5958 Rain 12 1019 96 10000 2.87 267 07:39 14.10.2021
5959 Clouds 11 1020 96 10000 3.76 244 03:51 14.10.2021
5960 Clouds 10 1021 94 10000 3.76 234 00:31 14.10.2021
5961 Clouds 10 1022 93 10000 2.57 220 22:32 13.10.2021
5962 Rain 10 1022 93 10000 2.57 250 21:35 13.10.2021
5963 Rain 10 1022 91 10000 3.4 282 20:23 13.10.2021
5964 Rain 10 1022 89 10000 2.06 250 19:20 13.10.2021
5965 Rain 11 1022 85 10000 2.57 270 18:37 13.10.2021
5966 Clouds 12 1021 77 10000 4.12 270 15:54 13.10.2021
5967 Clouds 12 1021 77 10000 2.57 260 14:46 13.10.2021
5968 Clouds 12 1021 80 10000 2.06 260 14:23 13.10.2021
5969 Clouds 9 1021 95 10000 2.57 270 12:24 13.10.2021
5970 Clear 9 1021 96 10000 1.03 0 11:36 13.10.2021
5971 Mist 3 1021 99 3000 0 0 09:26 13.10.2021
5972 Fog 2 1020 98 350 0.51 0 07:48 13.10.2021
5973 Fog 3 1019 97 1300 0.51 0 02:58 13.10.2021
5974 Fog 3 1019 97 1500 0.51 0 02:19 13.10.2021
5975 Fog 4 1018 98 2800 1.03 330 23:33 12.10.2021
5976 Fog 4 1018 98 1500 0 0 22:50 12.10.2021
5977 Fog 5 1018 97 3000 1.03 0 22:23 12.10.2021
5978 Fog 6 1017 95 10000 1.03 320 20:50 12.10.2021
5979 Fog 6 1017 95 10000 0.51 0 20:24 12.10.2021
5980 Clouds 8 1016 90 10000 1.03 280 18:58 12.10.2021
5981 Clouds 9 1016 89 10000 1.54 290 18:24 12.10.2021
5982 Rain 11 1015 77 10000 4.12 320 17:19 12.10.2021
5983 Clouds 12 1015 77 10000 4.12 290 16:20 12.10.2021
5984 Clouds 12 1015 70 10000 5.66 310 15:29 12.10.2021
5985 Clouds 12 1015 68 10000 4.12 340 13:45 12.10.2021
5986 Clouds 11 1015 72 10000 6.17 320 12:44 12.10.2021
5987 Clear 9 1016 85 10000 3.6 310 10:45 12.10.2021
5988 Clouds 8 1016 96 10000 3.6 290 09:22 12.10.2021
5989 Clouds 8 1015 97 10000 2.57 270 08:19 12.10.2021
5990 Clouds 8 1015 96 10000 2.57 260 06:44 12.10.2021
5991 Clouds 8 1016 97 10000 3.09 240 04:38 12.10.2021
5992 Rain 9 1018 94 10000 2.06 320 02:46 12.10.2021
5993 Clouds 9 1020 91 10000 3.6 240 23:46 11.10.2021
5994 Clouds 9 1020 92 10000 3.09 240 23:28 11.10.2021
5995 Clouds 9 1020 90 10000 2.57 250 22:47 11.10.2021
5996 Clear 10 1020 88 10000 3.6 250 21:20 11.10.2021
5997 Clear 10 1020 85 10000 4.12 280 19:53 11.10.2021
5998 Clouds 11 1020 86 10000 3.6 290 19:34 11.10.2021
5999 Clouds 12 1020 82 10000 5.14 300 18:23 11.10.2021
6000 Clouds 14 1020 72 10000 7.72 290 16:40 11.10.2021
6001 Clouds 14 1020 72 10000 7.72 290 16:20 11.10.2021
6002 Clouds 14 1020 75 10000 6.69 300 15:44 11.10.2021
6003 Clouds 15 1021 73 10000 8.75 290 14:53 11.10.2021
6004 Clouds 15 1021 70 10000 6.17 280 14:19 11.10.2021
6005 Clouds 15 1021 73 10000 5.66 270 13:35 11.10.2021
6006 Clouds 13 1022 90 10000 3.09 260 11:18 11.10.2021
6007 Fog 10 1022 96 6000 2.06 260 09:47 11.10.2021
6008 Fog 9 1021 97 4000 0.51 0 08:31 11.10.2021
6009 Clouds 7 1022 93 10000 2.06 230 01:45 11.10.2021
6010 Clear 7 1023 94 10000 1.03 0 00:58 11.10.2021
6011 Clear 6 1023 92 10000 1.03 0 00:39 11.10.2021
6012 Clear 7 1024 90 10000 1.54 220 22:41 10.10.2021
6013 Clear 7 1024 91 10000 1.03 0 21:49 10.10.2021
6014 Clear 7 1024 89 10000 2.06 220 21:20 10.10.2021
6015 Clear 8 1024 87 10000 2.06 240 20:40 10.10.2021
6016 Clear 8 1024 85 10000 2.57 240 20:19 10.10.2021
6017 Clear 8 1024 82 10000 2.06 230 19:44 10.10.2021
6018 Clear 9 1024 82 10000 1.03 0 19:26 10.10.2021
6019 Clear 12 1024 68 10000 3.09 150 18:20 10.10.2021
6020 Clear 14 1026 59 10000 3.6 160 15:54 10.10.2021
6021 Clear 14 1026 60 10000 3.6 160 15:35 10.10.2021
6022 Clear 12 1027 65 10000 4.12 150 13:41 10.10.2021
6023 Clear 11 1027 70 10000 5.14 160 12:44 10.10.2021
6024 Clear 10 1028 70 10000 3.6 150 11:59 10.10.2021
6025 Clear 8 1028 79 10000 2.57 130 10:31 10.10.2021
6026 Clear 5 1028 86 10000 2.06 120 09:22 10.10.2021
6027 Clear 4 1028 89 10000 2.57 100 08:51 10.10.2021
6028 Clear 3 1029 91 10000 2.57 70 06:19 10.10.2021
6029 Clear 6 1030 82 10000 2.57 120 02:23 10.10.2021
6030 Clear 7 1031 79 10000 3.6 110 00:54 10.10.2021
6031 Clear 8 1031 76 10000 3.09 100 23:52 09.10.2021
6032 Clear 8 1031 76 10000 3.6 110 22:26 09.10.2021
6033 Clear 9 1031 73 10000 4.12 110 21:30 09.10.2021
6034 Clear 10 1031 70 10000 3.09 100 20:43 09.10.2021
6035 Clear 11 1031 67 10000 3.09 100 19:42 09.10.2021
6036 Clear 12 1031 62 10000 2.57 90 18:57 09.10.2021
6037 Clear 13 1031 56 10000 3.09 100 18:27 09.10.2021
6038 Clear 16 1032 47 10000 4.63 120 16:28 09.10.2021
6039 Clear 15 1032 54 10000 5.14 100 14:57 09.10.2021
6040 Clear 14 1033 54 10000 6.69 110 13:40 09.10.2021
6041 Clear 14 1033 56 10000 5.66 120 12:37 09.10.2021
6042 Clear 11 1033 74 10000 3.6 100 11:33 09.10.2021
6043 Clear 10 1033 80 10000 3.09 100 10:38 09.10.2021
6044 Clear 7 1033 91 10000 3.09 90 09:35 09.10.2021
6045 Clear 6 1033 96 10000 1.54 50 08:28 09.10.2021
6046 Fog 7 1032 96 6000 3.09 70 06:54 09.10.2021
6047 Fog 8 1032 98 6000 2.57 70 05:28 09.10.2021
6048 Clear 10 1033 94 8000 2.06 70 02:49 09.10.2021
6049 Clouds 11 1033 96 6000 2.57 60 00:58 09.10.2021
6050 Clouds 11 1033 98 6000 2.06 60 23:36 08.10.2021
6051 Clouds 11 1033 96 7000 2.57 70 22:53 08.10.2021
6052 Clouds 12 1033 97 8000 3.6 60 21:50 08.10.2021
6053 Clouds 11 1033 95 7000 2.06 50 20:36 08.10.2021
6054 Clouds 13 1033 89 10000 2.57 50 18:50 08.10.2021
6055 Clouds 16 1033 76 10000 5.14 70 17:27 08.10.2021
6056 Clouds 16 1032 72 10000 4.63 70 16:48 08.10.2021
6057 Clouds 17 1033 70 10000 4.12 60 16:22 08.10.2021
6058 Clouds 17 1033 65 10000 2.57 70 13:50 08.10.2021
6059 Clouds 16 1033 71 10000 2.57 60 12:47 08.10.2021
6060 Clear 13 1033 82 10000 1.03 0 11:31 08.10.2021
6061 Clear 11 1033 94 10000 1.03 0 10:32 08.10.2021
6062 Fog 6 1032 95 10000 0.51 330 06:53 08.10.2021
6063 Clear 9 1031 94 10000 1.03 60 23:33 07.10.2021
6064 Clear 9 1031 94 10000 1.03 50 22:58 07.10.2021
6065 Clouds 11 1031 91 10000 0.51 0 21:33 07.10.2021
6066 Clouds 11 1031 87 10000 2.06 70 20:56 07.10.2021
6067 Clouds 12 1030 88 10000 1.03 0 19:45 07.10.2021
6068 Clouds 13 1029 82 10000 0.51 0 19:27 07.10.2021
6069 Clouds 16 1029 72 10000 2.06 140 17:48 07.10.2021
6070 Clouds 17 1029 69 10000 3.09 170 16:43 07.10.2021
6071 Clouds 17 1029 65 10000 2.57 140 15:23 07.10.2021
6072 Clouds 16 1028 71 10000 3.09 170 13:45 07.10.2021
6073 Clouds 16 1028 69 10000 3.6 150 13:21 07.10.2021
6074 Clouds 15 1028 75 10000 3.09 160 12:36 07.10.2021
6075 Clear 12 1028 87 10000 1.03 0 10:49 07.10.2021
6076 Clear 11 1028 90 10000 1.03 0 10:19 07.10.2021
6077 Clear 7 1027 96 10000 1.03 60 08:56 07.10.2021
6078 Fog 6 1026 96 10000 1.03 0 08:25 07.10.2021
6079 Clear 6 1026 98 10000 0.51 0 07:41 07.10.2021
6080 Clear 6 1025 97 10000 1.03 0 06:57 07.10.2021
6081 Fog 8 1022 95 10000 1.03 0 02:23 07.10.2021
6082 Clear 10 1021 90 10000 1.54 100 23:39 06.10.2021
6083 Clear 11 1020 88 10000 2.06 100 22:46 06.10.2021
6084 Clouds 11 1019 87 10000 1.03 0 21:49 06.10.2021
6085 Clouds 11 1018 84 10000 2.06 140 20:35 06.10.2021
6086 Clouds 12 1018 78 10000 3.6 140 19:46 06.10.2021
6087 Clouds 13 1017 75 10000 3.6 170 18:39 06.10.2021
6088 Clouds 15 1015 69 10000 6.69 170 16:55 06.10.2021
6089 Clouds 15 1014 70 10000 5.66 160 15:26 06.10.2021
6090 Clouds 15 1013 69 10000 6.17 200 13:54 06.10.2021
6091 Clouds 14 1013 70 10000 5.66 190 12:59 06.10.2021
6092 Clouds 14 1013 70 10000 5.66 190 12:40 06.10.2021
6093 Clouds 14 1012 70 10000 7.2 210 12:21 06.10.2021
6094 Clouds 12 1011 84 10000 5.66 190 09:59 06.10.2021
6095 Clouds 11 1010 86 10000 5.14 180 09:39 06.10.2021
6096 Clouds 11 1010 89 10000 5.14 180 08:42 06.10.2021
6097 Clouds 11 1009 91 10000 4.12 200 07:44 06.10.2021
6098 Clouds 12 1007 89 10000 5.66 210 05:26 06.10.2021
6099 Clouds 12 1005 93 10000 4.12 160 00:26 06.10.2021
6100 Clouds 12 1005 93 10000 4.12 160 23:57 05.10.2021
6101 Clouds 12 1005 94 10000 4.12 160 23:38 05.10.2021
6102 Clouds 12 1005 95 8000 3.6 140 23:20 05.10.2021
6103 Clouds 11 1005 94 8000 4.12 150 22:27 05.10.2021
6104 Clouds 11 1005 94 8000 4.12 150 22:27 05.10.2021
6105 Clouds 11 1005 97 10000 3.09 130 21:47 05.10.2021
6106 Clouds 12 1005 93 10000 3.6 110 20:41 05.10.2021
6107 Clouds 12 1006 93 10000 3.09 140 20:23 05.10.2021
6108 Clouds 12 1006 93 10000 4.63 150 19:42 05.10.2021
6109 Clouds 12 1006 91 10000 3.09 130 18:54 05.10.2021
6110 Clouds 13 1007 89 10000 2.57 110 16:38 05.10.2021
6111 Clouds 12 1008 92 10000 4.63 120 14:36 05.10.2021
6112 Rain 12 1009 92 10000 4.12 120 13:34 05.10.2021
6113 Rain 12 1010 88 10000 4.63 130 12:47 05.10.2021
6114 Rain 12 1010 87 10000 4.63 120 12:18 05.10.2021
6115 Rain 11 1011 89 10000 4.12 120 10:59 05.10.2021
6116 Clear 10 1012 92 10000 2.06 120 09:26 05.10.2021
6117 Clear 9 1014 92 10000 1.54 100 04:47 05.10.2021
6118 Clear 10 1016 89 10000 2.57 150 23:54 04.10.2021
6119 Clear 11 1016 85 10000 3.09 160 22:38 04.10.2021
6120 Clear 13 1016 78 10000 3.6 160 20:29 04.10.2021
6121 Clouds 16 1016 67 10000 6.17 180 18:34 04.10.2021
6122 Clouds 17 1016 65 10000 5.14 180 16:34 04.10.2021
6123 Clear 16 1016 69 10000 5.66 180 15:31 04.10.2021
6124 Clear 16 1016 72 10000 5.14 180 14:43 04.10.2021
6125 Clear 16 1016 72 10000 5.14 180 14:43 04.10.2021
6126 Clouds 15 1016 76 10000 6.17 200 13:57 04.10.2021
6127 Clear 14 1016 78 10000 5.66 200 13:27 04.10.2021
6128 Clouds 14 1016 81 10000 5.66 210 12:28 04.10.2021
6129 Clouds 13 1015 82 10000 6.17 210 11:31 04.10.2021
6130 Clear 12 1015 84 10000 6.69 210 10:23 04.10.2021
6131 Clear 11 1014 87 10000 3.6 200 08:45 04.10.2021
6132 Clear 11 1013 89 10000 2.57 200 07:43 04.10.2021
6133 Clear 12 1010 88 10000 3.6 210 01:56 04.10.2021
6134 Clouds 14 1007 93 10000 5.14 270 22:41 03.10.2021
6135 Rain 16 1005 89 10000 6.17 270 21:42 03.10.2021
6136 Rain 17 1003 85 10000 5.14 210 21:23 03.10.2021
6137 Rain 19 1002 71 10000 5.14 180 20:21 03.10.2021
6138 Clouds 19 1001 72 10000 5.66 170 19:31 03.10.2021
6139 Rain 20 1000 65 10000 6.69 170 18:28 03.10.2021
6140 Clear 21 999 63 10000 8.75 170 17:30 03.10.2021
6141 Clear 20 999 66 10000 7.72 180 14:49 03.10.2021
6142 Clouds 20 999 65 10000 8.23 180 14:27 03.10.2021
6143 Clouds 20 999 69 10000 8.75 170 13:34 03.10.2021
6144 Rain 19 1000 73 10000 8.23 170 12:43 03.10.2021
6145 Clouds 19 999 71 10000 8.23 170 10:57 03.10.2021
6146 Clear 19 999 72 10000 7.72 160 09:34 03.10.2021
6147 Rain 18 998 72 10000 8.23 170 05:25 03.10.2021
6148 Rain 15 1003 82 10000 4.12 130 22:49 02.10.2021
6149 Clear 15 1006 84 10000 4.63 140 21:35 02.10.2021
6150 Clouds 15 1006 84 10000 6.17 130 20:18 02.10.2021
6151 Clouds 15 1008 83 10000 5.14 140 18:56 02.10.2021
6152 Clouds 15 1008 82 10000 5.66 150 18:18 02.10.2021
6153 Clouds 16 1009 79 10000 6.69 150 17:36 02.10.2021
6154 Clouds 17 1009 74 10000 6.17 170 16:22 02.10.2021
6155 Clouds 12 1011 87 10000 4.63 210 06:39 02.10.2021
6156 Clouds 16 1021 59 10000 7.2 260 15:37 30.09.2021
6157 Clouds 14 1021 71 10000 5.66 270 13:54 30.09.2021
6158 Clouds 13 1020 76 10000 8.23 240 11:42 30.09.2021
6159 Clouds 12 1019 81 10000 7.72 240 10:52 30.09.2021
6160 Clouds 11 1019 84 10000 8.75 240 10:20 30.09.2021
6161 Clouds 10 1017 87 10000 7.72 230 08:30 30.09.2021
6162 Clouds 10 1017 89 10000 9.26 240 07:34 30.09.2021
6163 Clouds 10 1015 91 10000 8.75 240 05:23 30.09.2021
6164 Rain 10 1014 92 10000 9.26 220 01:36 30.09.2021
6165 Rain 10 1014 90 10000 9.26 220 00:29 30.09.2021
6166 Clouds 11 1014 88 10000 9.26 220 22:38 29.09.2021
6167 Clouds 11 1014 89 10000 7.2 210 21:27 29.09.2021
6168 Clouds 11 1014 90 10000 8.23 230 20:28 29.09.2021
6169 Clouds 11 1013 91 10000 7.72 220 19:55 29.09.2021
6170 Clouds 12 1012 91 10000 3.09 0 18:52 29.09.2021
6171 Rain 14 1012 88 10000 3.6 0 17:52 29.09.2021
6172 Clouds 15 1012 82 10000 3.6 190 16:51 29.09.2021
6173 Rain 16 1012 77 10000 5.66 140 15:58 29.09.2021
6174 Clouds 18 1013 67 10000 6.17 140 14:39 29.09.2021
6175 Clouds 17 1013 72 10000 5.66 150 13:58 29.09.2021
6176 Clouds 17 1013 73 10000 6.69 140 13:22 29.09.2021
6177 Clouds 16 1014 76 10000 6.17 150 12:36 29.09.2021
6178 Clouds 14 1015 85 10000 4.63 120 10:50 29.09.2021
6179 Clouds 14 1015 85 10000 4.63 120 10:50 29.09.2021
6180 Clear 12 1016 88 10000 3.6 140 09:58 29.09.2021
6181 Clouds 12 1016 89 10000 3.6 120 09:36 29.09.2021
6182 Clear 10 1017 93 10000 3.09 140 07:39 29.09.2021
6183 Clear 10 1018 95 10000 2.06 120 05:50 29.09.2021
6184 Clear 11 1021 93 10000 1.03 0 23:36 28.09.2021
6185 Clear 12 1021 91 10000 1.03 0 22:24 28.09.2021
6186 Clear 13 1021 88 10000 2.06 110 21:45 28.09.2021
6187 Clear 14 1021 82 10000 2.57 140 20:44 28.09.2021
6188 Clouds 15 1021 75 10000 3.09 160 19:47 28.09.2021
6189 Clouds 17 1021 67 10000 4.12 130 18:53 28.09.2021
6190 Clouds 18 1021 65 10000 2.06 190 18:27 28.09.2021
6191 Clouds 19 1022 61 10000 1.54 0 16:42 28.09.2021
6192 Clouds 19 1022 61 10000 2.06 200 14:52 28.09.2021
6193 Clouds 18 1022 63 10000 3.09 210 13:25 28.09.2021
6194 Clouds 17 1023 74 10000 3.09 220 12:24 28.09.2021
6195 Clouds 16 1023 79 10000 2.57 240 11:47 28.09.2021
6196 Clear 16 1023 82 10000 1.54 210 11:25 28.09.2021
6197 Clouds 13 1022 93 10000 1.54 210 10:26 28.09.2021
6198 Clouds 12 1022 98 10000 1.03 0 09:29 28.09.2021
6199 Clouds 12 1022 98 10000 0.51 0 08:43 28.09.2021
6200 Fog 12 1021 96 10000 1.03 0 07:55 28.09.2021
6201 Clouds 12 1020 97 8000 1.03 230 06:25 28.09.2021
6202 Rain 15 1017 91 10000 1.54 280 01:31 28.09.2021
6203 Rain 15 1017 92 10000 4.63 270 00:28 28.09.2021
6204 Clouds 16 1016 88 10000 7.2 270 23:49 27.09.2021
6205 Clouds 18 1015 87 10000 4.63 230 23:24 27.09.2021
6206 Rain 18 1015 89 10000 3.6 170 22:20 27.09.2021
6207 Rain 19 1014 84 10000 4.12 150 20:54 27.09.2021
6208 Clear 19 1014 84 10000 4.63 160 20:26 27.09.2021
6209 Clouds 19 1014 83 10000 3.6 170 19:37 27.09.2021
6210 Clouds 19 1014 81 10000 4.63 180 18:53 27.09.2021
6211 Clouds 21 1013 77 10000 6.17 170 17:41 27.09.2021
6212 Clouds 21 1013 77 10000 6.69 160 16:59 27.09.2021
6213 Clouds 21 1013 78 10000 5.66 170 16:34 27.09.2021
6214 Clouds 21 1013 77 10000 5.14 180 15:37 27.09.2021
6215 Clouds 20 1014 84 10000 5.66 170 13:49 27.09.2021
6216 Clouds 19 1014 93 10000 3.6 170 12:25 27.09.2021
6217 Mist 18 1014 97 5000 3.09 150 10:50 27.09.2021
6218 Mist 17 1014 98 4200 2.57 160 09:42 27.09.2021
6219 Mist 17 1014 98 4200 2.57 180 07:54 27.09.2021
6220 Rain 17 1015 97 8000 1.03 0 03:40 27.09.2021
6221 Clouds 17 1015 93 10000 1.54 80 23:53 26.09.2021
6222 Clouds 18 1015 91 10000 1.03 0 21:59 26.09.2021
6223 Clouds 18 1015 88 10000 1.54 100 21:30 26.09.2021
6224 Clouds 19 1015 87 10000 2.06 160 20:30 26.09.2021
6225 Clouds 20 1015 86 10000 1.54 130 19:59 26.09.2021
6226 Clouds 21 1014 81 10000 1.54 120 19:26 26.09.2021
6227 Clouds 21 1014 82 10000 1.54 120 19:26 26.09.2021
6228 Clouds 21 1014 81 10000 1.54 120 19:26 26.09.2021
6229 Clouds 21 1014 81 10000 1.54 120 19:26 26.09.2021
6230 Clouds 21 1014 81 10000 1.54 120 19:26 26.09.2021
6231 Clouds 21 1014 82 10000 1.54 120 19:26 26.09.2021
6232 Clouds 21 1014 82 10000 1.54 120 19:26 26.09.2021
6233 Clouds 21 1014 82 10000 1.54 120 19:26 26.09.2021
6234 Clouds 21 1014 81 10000 1.54 120 19:26 26.09.2021
6235 Clouds 22 1014 74 10000 2.06 90 18:41 26.09.2021
6236 Clear 22 1014 72 10000 2.06 90 17:48 26.09.2021
6237 Clear 22 1015 71 10000 2.57 110 17:20 26.09.2021
6238 Clear 22 1015 70 10000 5.14 130 16:24 26.09.2021
6239 Clear 23 1015 67 10000 5.14 130 15:56 26.09.2021
6240 Clouds 23 1015 63 10000 6.17 140 14:26 26.09.2021
6241 Clear 23 1015 64 10000 5.66 120 13:44 26.09.2021
6242 Clear 22 1016 71 10000 5.14 150 12:32 26.09.2021
6243 Clear 21 1016 72 10000 5.14 130 11:58 26.09.2021
6244 Clear 21 1016 75 10000 5.14 120 11:36 26.09.2021
6245 Clear 18 1016 85 10000 4.12 130 09:52 26.09.2021
6246 Clouds 16 1016 90 10000 2.06 110 08:55 26.09.2021
6247 Clouds 16 1017 87 10000 2.06 80 03:24 26.09.2021
6248 Clouds 16 1017 89 10000 1.03 50 00:20 26.09.2021
6249 Clouds 16 1017 89 10000 1.03 70 23:22 25.09.2021
6250 Clouds 16 1017 90 10000 1.03 0 22:36 25.09.2021
6251 Clouds 16 1016 91 10000 0.51 0 21:55 25.09.2021
6252 Clouds 16 1016 90 10000 1.03 60 21:30 25.09.2021
6253 Clouds 17 1016 87 10000 0.51 350 20:37 25.09.2021
6254 Clouds 19 1015 75 10000 1.54 290 18:47 25.09.2021
6255 Clouds 20 1015 75 10000 3.6 300 17:47 25.09.2021
6256 Clouds 20 1015 76 10000 3.6 280 15:41 25.09.2021
6257 Clouds 19 1015 83 10000 4.63 270 13:57 25.09.2021
6258 Clouds 19 1015 87 10000 3.6 260 13:27 25.09.2021
6259 Clouds 18 1014 91 10000 3.6 240 11:54 25.09.2021
6260 Clouds 17 1014 92 10000 4.12 240 10:33 25.09.2021
6261 Clouds 16 1013 96 8000 3.6 250 09:26 25.09.2021
6262 Clouds 16 1012 96 7000 3.6 240 07:55 25.09.2021
6263 Clouds 16 1012 94 8000 4.63 240 05:46 25.09.2021
6264 Clouds 17 1011 88 10000 6.17 260 23:50 24.09.2021
6265 Clouds 17 1011 89 10000 5.14 230 21:42 24.09.2021
6266 Clouds 17 1011 88 10000 4.63 230 20:34 24.09.2021
6267 Clouds 17 1011 87 10000 4.63 230 19:47 24.09.2021
6268 Clouds 17 1011 83 10000 5.66 230 18:33 24.09.2021
6269 Clouds 18 1011 81 10000 6.69 230 17:54 24.09.2021
6270 Clouds 18 1011 81 10000 6.69 230 17:36 24.09.2021
6271 Clouds 18 1011 80 10000 5.14 230 17:18 24.09.2021
6272 Clouds 16 1012 89 9000 5.14 230 13:57 24.09.2021
6273 Clouds 16 1012 89 10000 4.12 240 13:18 24.09.2021
6274 Clouds 16 1012 89 10000 4.12 250 12:39 24.09.2021
6275 Clouds 15 1012 90 10000 5.14 260 12:20 24.09.2021
6276 Drizzle 13 1012 93 10000 4.12 240 10:27 24.09.2021
6277 Drizzle 12 1012 91 10000 4.63 250 08:55 24.09.2021
6278 Clouds 10 1012 90 10000 3.6 250 07:34 24.09.2021
6279 Clouds 11 1012 88 10000 3.6 250 06:46 24.09.2021
6280 Clouds 10 1012 90 10000 4.12 260 04:55 24.09.2021
6281 Clouds 12 1011 79 10000 6.17 290 00:35 24.09.2021
6282 Clouds 13 1010 77 10000 6.69 290 22:30 23.09.2021
6283 Clouds 13 1011 89 10000 6.64 284 21:56 23.09.2021
6284 Clouds 14 1009 91 10000 8.75 290 20:35 23.09.2021
6285 Rain 15 1008 87 10000 7.2 280 19:48 23.09.2021
6286 Clouds 15 1008 94 10000 7.72 270 18:22 23.09.2021
6287 Drizzle 16 1009 86 8000 8.23 260 15:36 23.09.2021
6288 Clouds 16 1010 84 10000 9.26 250 14:59 23.09.2021
6289 Clouds 16 1010 82 10000 7.72 240 13:48 23.09.2021
6290 Clouds 16 1010 81 10000 7.72 240 13:22 23.09.2021
6291 Clouds 16 1010 81 10000 8.23 240 12:53 23.09.2021
6292 Clouds 16 1011 83 10000 7.72 240 12:23 23.09.2021
6293 Clouds 15 1012 85 10000 5.66 250 11:47 23.09.2021
6294 Clouds 14 1013 84 10000 5.66 230 10:27 23.09.2021
6295 Clouds 14 1013 85 10000 5.14 240 09:53 23.09.2021
6296 Clouds 13 1015 85 9000 5.66 230 08:31 23.09.2021
6297 Clouds 12 1017 94 7000 4.63 220 04:41 23.09.2021
6298 Clear 13 1021 90 10000 3.6 230 23:45 22.09.2021
6299 Clear 13 1021 92 10000 2.57 220 22:42 22.09.2021
6300 Clear 14 1022 87 10000 2.57 220 21:57 22.09.2021
6301 Clear 14 1022 88 10000 2.57 220 21:34 22.09.2021
6302 Clear 15 1022 85 10000 2.57 230 20:57 22.09.2021
6303 Clouds 16 1023 76 10000 3.6 240 19:33 22.09.2021
6304 Clouds 17 1023 71 10000 4.12 250 18:46 22.09.2021
6305 Clouds 18 1023 70 10000 4.63 250 18:22 22.09.2021
6306 Clear 20 1024 68 10000 3.84 273 16:41 22.09.2021
6307 Clouds 20 1025 66 10000 4.12 270 15:38 22.09.2021
6308 Clouds 19 1026 71 10000 4.12 280 14:25 22.09.2021
6309 Clouds 17 1027 87 10000 3.09 250 12:22 22.09.2021
6310 Clouds 15 1027 94 10000 2.57 260 10:57 22.09.2021
6311 Mist 12 1027 98 10000 1.03 0 09:29 22.09.2021
6312 Mist 10 1027 98 10000 1.03 0 08:35 22.09.2021
6313 Clouds 10 1027 96 8000 0.51 0 07:30 22.09.2021
6314 Mist 10 1027 98 2500 1.03 210 06:19 22.09.2021
6315 Fog 10 1027 96 4000 0.51 0 05:42 22.09.2021
6316 Fog 11 1027 96 10000 1.03 0 03:58 22.09.2021
6317 Fog 11 1027 96 10000 1.03 0 03:58 22.09.2021
6318 Clear 11 1027 94 10000 1.03 0 02:55 22.09.2021
6319 Clear 12 1027 93 10000 1.54 320 23:31 21.09.2021
6320 Clouds 14 1027 93 10000 2.57 280 21:49 21.09.2021
6321 Clouds 14 1026 93 10000 4.45 293 20:28 21.09.2021
6322 Clouds 15 1026 93 10000 5.14 292 19:24 21.09.2021
6323 Rain 15 1026 89 10000 5.27 280 18:35 21.09.2021
6324 Clouds 16 1026 78 10000 6.17 260 16:47 21.09.2021
6325 Clouds 16 1026 76 10000 5.66 250 15:56 21.09.2021
6326 Clouds 15 1027 77 10000 5.14 250 14:59 21.09.2021
6327 Clouds 15 1027 75 10000 4.12 250 14:20 21.09.2021
6328 Clouds 14 1027 75 10000 3.6 240 13:39 21.09.2021
6329 Clouds 14 1027 76 10000 4.63 220 12:44 21.09.2021
6330 Clouds 11 1027 87 10000 2.57 210 10:43 21.09.2021
6331 Clouds 10 1027 87 10000 2.57 260 09:22 21.09.2021
6332 Clouds 9 1027 97 10000 0.51 0 07:38 21.09.2021
6333 Clear 8 1026 100 10000 0.51 330 05:18 21.09.2021
6334 Clear 9 1025 93 10000 1.03 0 23:19 20.09.2021
6335 Clear 12 1025 82 10000 1.54 320 21:51 20.09.2021
6336 Clear 12 1025 77 10000 1.54 320 21:30 20.09.2021
6337 Clear 13 1024 78 10000 1.03 50 19:49 20.09.2021
6338 Clouds 14 1024 70 10000 2.06 30 18:36 20.09.2021
6339 Clouds 14 1023 66 10000 2.06 10 17:25 20.09.2021
6340 Clouds 14 1023 67 10000 3.6 360 16:26 20.09.2021
6341 Clouds 14 1023 66 10000 3.6 30 15:43 20.09.2021
6342 Clouds 14 1023 67 10000 3.09 360 14:42 20.09.2021
6343 Clouds 14 1023 69 10000 3.09 40 12:53 20.09.2021
6344 Clouds 14 1023 68 10000 2.57 40 12:29 20.09.2021
6345 Clear 13 1023 74 10000 2.57 40 10:57 20.09.2021
6346 Clear 12 1022 79 10000 2.57 50 09:52 20.09.2021
6347 Clear 12 1022 79 10000 2.57 60 09:33 20.09.2021
6348 Clouds 11 1022 82 10000 1.54 50 08:55 20.09.2021
6349 Clouds 11 1021 84 10000 1.54 50 06:34 20.09.2021
6350 Clear 13 1020 77 10000 3.6 70 23:30 19.09.2021
6351 Clear 13 1020 79 10000 3.6 70 21:53 19.09.2021
6352 Clear 13 1019 77 10000 3.6 80 21:21 19.09.2021
6353 Clouds 14 1019 75 10000 2.06 50 20:32 19.09.2021
6354 Clouds 14 1019 70 10000 3.09 70 18:57 19.09.2021
6355 Clouds 15 1019 70 10000 2.57 70 18:21 19.09.2021
6356 Clouds 15 1018 69 10000 3.6 50 17:21 19.09.2021
6357 Clouds 15 1019 65 10000 4.12 50 15:45 19.09.2021
6358 Clouds 15 1019 65 10000 3.6 80 14:49 19.09.2021
6359 Clouds 16 1019 62 10000 2.06 0 14:25 19.09.2021
6360 Clouds 15 1019 64 10000 3.6 60 13:19 19.09.2021
6361 Clouds 15 1020 66 10000 3.6 60 12:45 19.09.2021
6362 Clouds 14 1019 71 10000 3.09 70 11:27 19.09.2021
6363 Clouds 13 1019 77 10000 2.06 100 10:21 19.09.2021
6364 Clouds 12 1019 80 10000 2.06 80 09:28 19.09.2021
6365 Clouds 12 1019 82 10000 4.63 120 07:29 19.09.2021
6366 Clouds 12 1019 84 10000 2.06 70 04:21 19.09.2021
6367 Clouds 13 1020 82 10000 1.54 60 23:35 18.09.2021
6368 Clouds 14 1019 80 10000 6.17 70 21:58 18.09.2021
6369 Clouds 15 1019 83 10000 5.14 60 20:48 18.09.2021
6370 Clouds 15 1019 83 10000 5.14 60 20:48 18.09.2021
6371 Clouds 15 1019 84 10000 3.09 50 20:27 18.09.2021
6372 Clouds 16 1019 82 10000 3.6 50 19:39 18.09.2021
6373 Clouds 16 1018 82 10000 3.09 50 19:20 18.09.2021
6374 Clouds 17 1018 78 10000 4.63 40 18:31 18.09.2021
6375 Clouds 17 1018 75 10000 6.17 60 17:25 18.09.2021
6376 Clouds 17 1018 77 10000 4.12 80 15:50 18.09.2021
6377 Clouds 16 1018 84 10000 2.57 20 13:46 18.09.2021
6378 Clouds 16 1018 88 10000 3.09 30 13:27 18.09.2021
6379 Clouds 16 1018 84 10000 4.12 50 12:49 18.09.2021
6380 Clouds 16 1018 88 10000 3.09 40 11:40 18.09.2021
6381 Clouds 15 1017 91 10000 2.57 20 10:31 18.09.2021
6382 Clouds 14 1017 96 10000 2.06 330 09:27 18.09.2021
6383 Clouds 14 1016 95 10000 2.06 310 08:48 18.09.2021
6384 Clouds 13 1015 91 10000 1.56 317 02:50 18.09.2021
6385 Clouds 13 1016 86 10000 1.61 313 00:41 18.09.2021
6386 Clouds 13 1015 85 10000 1.77 304 23:47 17.09.2021
6387 Clouds 13 1015 84 10000 1.72 303 22:37 17.09.2021
6388 Clouds 13 1015 82 10000 3.6 310 22:18 17.09.2021
6389 Clouds 14 1014 76 10000 3.09 290 20:45 17.09.2021
6390 Clouds 15 1014 72 10000 3.09 300 19:22 17.09.2021
6391 Clouds 15 1014 69 10000 5.14 290 17:20 17.09.2021
6392 Clouds 15 1014 70 10000 5.14 310 16:24 17.09.2021
6393 Clouds 15 1014 72 10000 6.69 320 13:21 17.09.2021
6394 Clouds 14 1014 74 10000 6.17 310 10:42 17.09.2021
6395 Clouds 13 1013 82 10000 6.17 310 08:45 17.09.2021
6396 Clouds 14 1013 83 10000 5.66 310 06:50 17.09.2021
6397 Clouds 15 1013 91 10000 7.2 300 01:26 17.09.2021
6398 Clouds 15 1013 95 10000 4.12 280 23:23 16.09.2021
6399 Clouds 16 1012 94 10000 3.6 250 22:25 16.09.2021
6400 Clouds 16 1012 94 10000 4.12 260 21:43 16.09.2021
6401 Clouds 16 1012 93 10000 4.63 270 21:22 16.09.2021
6402 Clouds 16 1012 92 10000 4.63 260 20:18 16.09.2021
6403 Clouds 16 1012 91 10000 4.63 260 20:18 16.09.2021
6404 Clouds 17 1012 85 10000 6.69 290 18:20 16.09.2021
6405 Clouds 17 1012 83 10000 9.26 270 17:33 16.09.2021
6406 Clouds 18 1012 82 10000 5.14 270 14:56 16.09.2021
6407 Clouds 18 1011 80 10000 6.17 250 13:56 16.09.2021
6408 Clouds 17 1011 81 10000 6.69 250 12:49 16.09.2021
6409 Clouds 17 1011 85 10000 5.14 260 12:28 16.09.2021
6410 Clouds 16 1011 91 10000 4.12 230 11:25 16.09.2021
6411 Drizzle 15 1011 93 9000 5.14 230 10:33 16.09.2021
6412 Drizzle 15 1011 93 8000 5.14 230 09:53 16.09.2021
6413 Clouds 14 1011 95 10000 4.12 230 08:42 16.09.2021
6414 Clouds 14 1011 93 10000 5.14 230 07:22 16.09.2021
6415 Clouds 15 1011 89 10000 5.14 240 06:43 16.09.2021
6416 Clouds 15 1010 93 10000 5.66 240 05:26 16.09.2021
6417 Clouds 17 1010 95 10000 3.6 250 01:40 16.09.2021
6418 Mist 17 1009 97 5000 1.54 250 23:45 15.09.2021
6419 Mist 17 1009 98 5000 1.54 220 22:47 15.09.2021
6420 Mist 17 1009 97 5000 1.54 210 21:48 15.09.2021
6421 Mist 17 1009 98 5000 0.51 0 21:29 15.09.2021
6422 Clouds 17 1009 98 9000 1.54 200 19:58 15.09.2021
6423 Mist 17 1009 96 10000 2.06 160 19:27 15.09.2021
6424 Clouds 17 1009 98 10000 2.57 110 18:20 15.09.2021
6425 Rain 17 1009 94 6000 1.54 100 16:59 15.09.2021
6426 Rain 17 1009 94 5000 5.14 100 15:46 15.09.2021
6427 Rain 17 1010 94 8000 1.54 100 14:45 15.09.2021
6428 Rain 17 1010 94 8000 1.54 100 14:45 15.09.2021
6429 Rain 17 1010 94 10000 2.06 90 13:55 15.09.2021
6430 Rain 17 1010 94 10000 2.06 90 13:37 15.09.2021
6431 Rain 17 1010 94 10000 2.06 80 13:18 15.09.2021
6432 Rain 16 1011 94 10000 3.09 110 11:52 15.09.2021
6433 Rain 16 1011 94 10000 2.06 90 11:32 15.09.2021
6434 Rain 16 1011 90 10000 2.06 100 10:55 15.09.2021
6435 Clear 16 1011 89 10000 3.09 120 09:30 15.09.2021
6436 Clear 15 1011 93 10000 3.09 90 08:26 15.09.2021
6437 Rain 16 1012 85 10000 2.57 120 05:37 15.09.2021
6438 Clouds 16 1014 84 10000 3.6 110 23:55 14.09.2021
6439 Clouds 16 1015 87 10000 3.09 60 21:55 14.09.2021
6440 Clear 17 1015 84 10000 2.57 50 20:55 14.09.2021
6441 Clear 19 1015 74 10000 2.57 90 19:42 14.09.2021
6442 Clouds 22 1015 66 10000 4.12 100 17:53 14.09.2021
6443 Clouds 22 1016 63 10000 4.63 110 17:28 14.09.2021
6444 Clouds 22 1016 64 10000 3.6 110 15:39 14.09.2021
6445 Clouds 22 1017 64 10000 3.09 120 14:31 14.09.2021
6446 Clouds 20 1017 69 10000 3.09 150 12:46 14.09.2021
6447 Clouds 17 1018 81 10000 2.57 130 10:55 14.09.2021
6448 Clouds 14 1018 91 10000 1.03 0 09:51 14.09.2021
6449 Clouds 12 1018 96 10000 1.03 0 08:49 14.09.2021
6450 Clouds 10 1018 98 10000 0.51 0 06:47 14.09.2021
6451 Fog 11 1019 97 10000 0.51 360 00:41 14.09.2021
6452 Clear 12 1019 95 10000 0.51 0 22:58 13.09.2021
6453 Clear 12 1019 95 10000 0.51 0 22:24 13.09.2021
6454 Clear 13 1019 94 10000 0.51 330 21:53 13.09.2021
6455 Clouds 14 1018 87 10000 1.03 0 20:58 13.09.2021
6456 Clouds 16 1018 76 10000 1.54 290 19:29 13.09.2021
6457 Clouds 17 1018 72 10000 2.57 290 18:43 13.09.2021
6458 Clouds 17 1018 72 10000 2.57 280 16:58 13.09.2021
6459 Clouds 17 1019 73 10000 2.57 290 15:39 13.09.2021
6460 Clouds 17 1019 79 10000 2.57 290 13:36 13.09.2021
6461 Clouds 16 1019 81 10000 3.09 290 11:20 13.09.2021
6462 Clouds 15 1018 91 10000 2.57 280 09:54 13.09.2021
6463 Drizzle 15 1016 96 10000 2.06 270 07:30 13.09.2021
6464 Clear 15 1016 93 10000 3.09 240 23:50 12.09.2021
6465 Clear 15 1016 94 10000 2.06 250 22:26 12.09.2021
6466 Clouds 16 1016 92 10000 2.06 250 21:43 12.09.2021
6467 Clouds 16 1015 89 10000 1.54 250 20:41 12.09.2021
6468 Clouds 17 1015 85 10000 1.54 260 19:54 12.09.2021
6469 Clouds 18 1015 85 10000 1.54 260 19:54 12.09.2021
6470 Clouds 18 1015 84 10000 2.06 260 19:28 12.09.2021
6471 Clouds 18 1015 83 10000 3.6 270 18:31 12.09.2021
6472 Clouds 19 1015 78 10000 3.6 300 16:42 12.09.2021
6473 Clouds 21 1015 74 10000 5.14 270 15:29 12.09.2021
6474 Clouds 20 1015 77 10000 4.63 250 13:55 12.09.2021
6475 Clouds 19 1015 89 10000 5.14 240 11:47 12.09.2021
6476 Clouds 18 1015 89 9000 4.63 230 10:18 12.09.2021
6477 Clouds 17 1015 94 6000 3.6 240 08:38 12.09.2021
6478 Clouds 18 1015 96 10000 3.6 250 02:56 12.09.2021
6479 Clouds 18 1015 93 10000 2.57 250 00:46 12.09.2021
6480 Clouds 18 1015 93 10000 2.57 220 22:29 11.09.2021
6481 Drizzle 18 1015 93 10000 3.09 230 21:37 11.09.2021
6482 Clouds 19 1014 88 10000 3.09 230 19:34 11.09.2021
6483 Clouds 20 1014 83 10000 5.14 240 17:56 11.09.2021
6484 Clouds 21 1014 78 10000 4.12 240 16:24 11.09.2021
6485 Clouds 21 1014 78 10000 4.63 230 14:45 11.09.2021
6486 Clouds 20 1014 83 10000 5.14 230 13:22 11.09.2021
6487 Clouds 19 1015 95 7000 4.63 220 11:35 11.09.2021
6488 Clouds 18 1014 95 6000 2.06 180 09:42 11.09.2021
6489 Mist 18 1014 95 4500 2.06 240 08:21 11.09.2021
6490 Mist 17 1014 98 2500 2.06 250 07:34 11.09.2021
6491 Clouds 17 1013 98 10000 2.06 200 02:29 11.09.2021
6492 Thunderstorm 18 1014 93 10000 3.09 200 22:27 10.09.2021
6493 Thunderstorm 18 1013 92 10000 2.06 130 21:56 10.09.2021
6494 Rain 19 1013 96 10000 0.51 0 21:25 10.09.2021
6495 Clouds 21 1012 89 10000 1.03 10 18:47 10.09.2021
6496 Clouds 21 1012 84 10000 0.51 280 17:42 10.09.2021
6497 Clouds 21 1013 90 10000 2.57 240 15:38 10.09.2021
6498 Clouds 19 1013 97 10000 1.54 230 13:20 10.09.2021
6499 Rain 18 1012 98 6000 2.06 240 10:32 10.09.2021
6500 Clouds 18 1011 94 5000 1.54 280 07:52 10.09.2021
6501 Clear 17 1010 89 10000 1.54 180 05:23 10.09.2021
6502 Clear 18 1010 79 10000 1.54 70 23:59 09.09.2021
6503 Clear 19 1010 72 10000 1.54 60 21:48 09.09.2021
6504 Clear 21 1010 70 10000 1.54 50 20:47 09.09.2021
6505 Clear 21 1010 71 10000 1.54 50 20:24 09.09.2021
6506 Clear 25 1010 46 10000 2.57 90 18:41 09.09.2021
6507 Clear 27 1010 42 10000 2.57 160 17:41 09.09.2021
6508 Clear 27 1010 44 10000 3.09 150 16:27 09.09.2021
6509 Clear 27 1011 44 10000 3.6 130 15:24 09.09.2021
6510 Clear 24 1012 56 10000 4.63 110 12:23 09.09.2021
6511 Clear 22 1012 62 10000 3.09 100 11:22 09.09.2021
6512 Clear 17 1013 83 10000 2.06 110 09:35 09.09.2021
6513 Clear 13 1013 92 10000 1.54 70 07:43 09.09.2021
6514 Fog 13 1014 92 10000 1.54 60 05:47 09.09.2021
6515 Clear 16 1016 82 10000 0.51 0 23:55 08.09.2021
6516 Clear 18 1016 72 10000 3.09 70 21:49 08.09.2021
6517 Clear 19 1016 68 10000 2.57 60 20:49 08.09.2021
6518 Clear 22 1016 57 10000 2.06 90 19:46 08.09.2021
6519 Clear 24 1016 51 10000 3.6 100 18:47 08.09.2021
6520 Clear 24 1017 53 10000 2.57 100 18:25 08.09.2021
6521 Clear 25 1017 51 10000 4.12 90 17:40 08.09.2021
6522 Clear 25 1019 51 10000 2.57 110 15:35 08.09.2021
6523 Clear 24 1020 56 10000 1.54 0 13:45 08.09.2021
6524 Clear 22 1020 60 10000 3.6 140 12:41 08.09.2021
6525 Clear 22 1020 61 10000 4.12 170 12:23 08.09.2021
6526 Clear 21 1021 67 10000 3.09 140 11:26 08.09.2021
6527 Clear 19 1021 74 10000 3.09 160 10:31 08.09.2021
6528 Clear 18 1021 77 10000 1.54 170 09:56 08.09.2021
6529 Clear 13 1021 92 10000 1.54 120 07:47 08.09.2021
6530 Clear 12 1021 92 10000 1.54 120 07:19 08.09.2021
6531 Clear 15 1023 93 10000 1.03 70 23:32 07.09.2021
6532 Clear 15 1023 91 10000 1.03 0 22:19 07.09.2021
6533 Clear 17 1023 83 10000 0.51 0 20:45 07.09.2021
6534 Clear 20 1023 73 10000 2.06 300 19:40 07.09.2021
6535 Clear 21 1023 65 10000 2.57 320 18:37 07.09.2021
6536 Clear 22 1024 59 10000 1.54 0 17:38 07.09.2021
6537 Clear 23 1024 56 10000 1.03 0 15:57 07.09.2021
6538 Clear 22 1024 59 10000 1.03 0 14:54 07.09.2021
6539 Clear 21 1025 60 10000 1.54 0 13:52 07.09.2021
6540 Clear 20 1025 64 10000 1.54 240 12:23 07.09.2021
6541 Clear 17 1025 79 10000 2.06 300 10:59 07.09.2021
6542 Clear 17 1025 79 10000 2.06 300 10:59 07.09.2021
6543 Clear 16 1025 85 10000 1.03 0 10:20 07.09.2021
6544 Fog 11 1024 97 3000 0 0 07:51 07.09.2021
6545 Fog 11 1024 97 2000 0.51 0 06:42 07.09.2021
6546 Clear 13 1024 98 10000 1.03 330 02:43 07.09.2021
6547 Clear 13 1024 95 10000 1.03 320 02:23 07.09.2021
6548 Clouds 13 1024 93 5000 1.54 240 00:23 07.09.2021
6549 Clear 14 1024 93 10000 1.03 310 23:31 06.09.2021
6550 Clear 15 1024 89 10000 1.03 310 22:53 06.09.2021
6551 Clear 15 1024 88 10000 0.51 310 22:25 06.09.2021
6552 Clear 18 1024 74 10000 2.06 290 20:37 06.09.2021
6553 Clear 18 1024 71 10000 3.09 310 19:22 06.09.2021
6554 Clear 19 1023 70 10000 2.57 310 18:37 06.09.2021
6555 Rain 20 1023 66 10000 2.57 300 17:58 06.09.2021
6556 Clear 20 1023 68 10000 2.06 260 17:24 06.09.2021
6557 Clouds 21 1024 62 10000 4.12 320 15:37 06.09.2021
6558 Clouds 20 1024 68 10000 2.57 280 13:46 06.09.2021
6559 Clouds 19 1024 69 10000 3.09 300 12:46 06.09.2021
6560 Clouds 15 1024 91 10000 1.54 340 10:40 06.09.2021
6561 Fog 10 1023 99 250 1.03 320 07:58 06.09.2021
6562 Fog 10 1023 95 6000 1.03 0 04:43 06.09.2021
6563 Clear 13 1024 91 10000 1.54 50 23:26 05.09.2021
6564 Clear 14 1024 90 10000 2.06 60 22:46 05.09.2021
6565 Clouds 15 1024 87 10000 1.54 50 21:57 05.09.2021
6566 Clouds 15 1023 85 10000 2.06 60 21:29 05.09.2021
6567 Clouds 18 1023 74 10000 3.6 90 19:50 05.09.2021
6568 Clouds 19 1023 67 10000 4.12 90 18:38 05.09.2021
6569 Clouds 21 1023 57 10000 5.14 80 17:29 05.09.2021
6570 Clouds 21 1023 59 10000 2.06 50 15:27 05.09.2021
6571 Clouds 20 1023 66 10000 3.6 50 13:54 05.09.2021
6572 Clouds 18 1024 71 10000 3.09 70 12:26 05.09.2021
6573 Clouds 15 1023 75 10000 3.09 60 10:48 05.09.2021
6574 Clouds 14 1023 79 10000 2.57 60 10:23 05.09.2021
6575 Clouds 13 1023 86 10000 3.09 80 09:21 05.09.2021
6576 Clear 11 1023 93 10000 2.57 50 07:43 05.09.2021
6577 Clear 13 1022 95 10000 2.57 50 00:51 05.09.2021
6578 Clear 13 1022 95 10000 2.57 50 00:22 05.09.2021
6579 Clear 13 1022 95 10000 2.57 50 00:22 05.09.2021
6580 Clear 14 1021 91 10000 2.57 50 23:35 04.09.2021
6581 Clear 14 1021 90 10000 3.6 40 22:35 04.09.2021
6582 Clear 15 1021 87 10000 3.09 40 22:35 04.09.2021
6583 Clear 15 1021 86 10000 3.6 50 21:55 04.09.2021
6584 Clouds 18 1019 69 10000 1.54 60 19:41 04.09.2021
6585 Clouds 19 1019 64 10000 4.12 70 18:39 04.09.2021
6586 Clouds 20 1019 58 10000 2.06 120 15:54 04.09.2021
6587 Clouds 18 1019 67 10000 2.57 50 13:18 04.09.2021
6588 Clouds 17 1019 68 10000 4.12 310 11:19 04.09.2021
6589 Clouds 14 1018 82 10000 2.57 290 08:58 04.09.2021
6590 Clouds 12 1019 92 10000 0 0 04:50 04.09.2021
6591 Clear 13 1019 87 10000 2.06 310 00:24 04.09.2021
6592 Clouds 14 1019 84 10000 2.57 300 23:31 03.09.2021
6593 Clouds 15 1019 80 10000 4.63 310 21:59 03.09.2021
6594 Clouds 15 1019 82 10000 4.12 290 21:34 03.09.2021
6595 Clouds 16 1019 83 10000 4.12 290 20:42 03.09.2021
6596 Clouds 17 1019 80 10000 4.63 280 19:49 03.09.2021
6597 Clouds 18 1019 74 10000 6.17 300 18:59 03.09.2021
6598 Clouds 20 1019 72 10000 6.17 300 17:42 03.09.2021
6599 Clouds 21 1020 71 10000 5.66 290 16:34 03.09.2021
6600 Clouds 20 1020 71 10000 6.17 290 14:53 03.09.2021
6601 Clouds 17 1021 80 10000 6.17 270 11:59 03.09.2021
6602 Clouds 16 1021 85 10000 4.12 280 10:27 03.09.2021
6603 Clouds 14 1021 92 10000 2.57 270 08:46 03.09.2021
6604 Clouds 13 1021 94 10000 2.06 260 07:43 03.09.2021
6605 Fog 11 1024 97 10000 0.51 0 01:40 03.09.2021
6606 Clouds 14 1025 82 10000 1.54 290 22:57 02.09.2021
6607 Clouds 16 1025 79 10000 1.54 280 21:31 02.09.2021
6608 Clouds 17 1026 77 10000 2.57 280 19:55 02.09.2021
6609 Clouds 18 1027 74 10000 2.06 310 17:32 02.09.2021
6610 Clouds 18 1027 75 10000 2.06 340 15:52 02.09.2021
6611 Clouds 17 1028 77 10000 2.57 320 13:57 02.09.2021
6612 Clouds 16 1028 79 10000 2.06 340 12:48 02.09.2021
6613 Clouds 16 1027 82 10000 2.57 290 11:35 02.09.2021
6614 Clouds 15 1027 92 10000 2.06 290 09:40 02.09.2021
6615 Clouds 14 1027 94 10000 1.03 0 07:57 02.09.2021
6616 Clouds 13 1026 95 10000 2.06 270 07:18 02.09.2021
6617 Fog 13 1027 96 10000 2.06 230 02:56 02.09.2021
6618 Fog 13 1027 96 10000 1.03 240 01:56 02.09.2021
6619 Fog 13 1027 96 10000 1.03 0 01:28 02.09.2021
6620 Clear 14 1027 93 10000 1.54 320 23:40 01.09.2021
6621 Clear 16 1026 91 10000 2.06 300 22:40 01.09.2021
6622 Clear 17 1027 86 10000 3.09 300 21:40 01.09.2021
6623 Clear 18 1026 79 10000 4.12 300 20:39 01.09.2021
6624 Clouds 21 1026 66 10000 5.14 290 18:43 01.09.2021
6625 Clouds 22 1026 68 10000 5.66 290 17:40 01.09.2021
6626 Clouds 22 1026 67 10000 5.66 290 16:47 01.09.2021
6627 Clouds 22 1026 68 10000 4.63 290 15:29 01.09.2021
6628 Clouds 20 1026 77 10000 5.14 290 12:23 01.09.2021
6629 Clouds 19 1026 78 10000 3.6 290 11:44 01.09.2021
6630 Mist 14 1026 96 4200 2.57 300 08:48 01.09.2021
6631 Mist 13 1026 97 4600 3.09 310 07:52 01.09.2021
6632 Clouds 13 1025 96 10000 3.09 300 05:23 01.09.2021
6633 Clear 16 1024 91 10000 2.57 290 22:41 31.08.2021
6634 Clear 17 1023 86 10000 3.6 290 21:27 31.08.2021
6635 Clouds 20 1022 71 10000 3.09 310 19:46 31.08.2021
6636 Clouds 22 1022 58 10000 4.63 310 18:30 31.08.2021
6637 Clouds 22 1022 58 10000 4.12 350 17:38 31.08.2021
6638 Clouds 22 1022 58 10000 4.12 350 17:38 31.08.2021
6639 Clouds 22 1022 54 10000 4.12 310 17:20 31.08.2021
6640 Clouds 22 1022 57 10000 3.09 340 16:24 31.08.2021
6641 Clouds 21 1023 63 10000 3.6 360 13:20 31.08.2021
6642 Clouds 19 1022 71 10000 2.57 340 11:36 31.08.2021
6643 Clear 18 1022 80 10000 3.09 330 10:55 31.08.2021
6644 Clear 16 1022 89 10000 2.06 330 09:45 31.08.2021
6645 Clear 13 1022 94 10000 1.03 310 08:39 31.08.2021
6646 Fog 12 1021 95 10000 1.54 310 07:35 31.08.2021
6647 Fog 12 1021 95 8000 2.06 320 05:36 31.08.2021
6648 Clear 14 1021 92 10000 2.06 320 23:35 30.08.2021
6649 Clouds 16 1020 89 10000 0.51 300 21:52 30.08.2021
6650 Clouds 17 1020 86 10000 0.51 0 21:32 30.08.2021
6651 Clear 18 1020 79 10000 2.06 40 20:20 30.08.2021
6652 Clouds 19 1020 75 10000 3.6 60 19:29 30.08.2021
6653 Clouds 19 1020 71 10000 3.6 60 18:44 30.08.2021
6654 Clouds 19 1019 69 10000 4.63 360 17:46 30.08.2021
6655 Clouds 19 1019 77 10000 3.09 360 16:24 30.08.2021
6656 Clouds 18 1019 81 10000 4.12 350 15:39 30.08.2021